<?xml version='1.0' encoding='UTF-8'?><gpx version="1.1" creator="JPX - https://github.com/jenetics/jpx" xmlns="http://www.topografix.com/GPX/1/1"><trk><trkseg><trkpt lat="43.1466838" lon="13.207981"><ele>295.0</ele><time>2026-04-11T13:11:24.13Z</time></trkpt><trkpt lat="43.1466269" lon="13.2080407"><ele>295.0</ele><time>2026-04-11T13:11:27.132Z</time></trkpt><trkpt lat="43.1465116" lon="13.2081442"><ele>295.0</ele><time>2026-04-11T13:11:29.13Z</time></trkpt><trkpt lat="43.1464316" lon="13.2081873"><ele>295.0</ele><time>2026-04-11T13:11:30.131Z</time></trkpt><trkpt lat="43.1463468" lon="13.2081997"><ele>295.0</ele><time>2026-04-11T13:11:31.131Z</time></trkpt><trkpt lat="43.1462566" lon="13.2081932"><ele>294.0</ele><time>2026-04-11T13:11:32.133Z</time></trkpt><trkpt lat="43.1461691" lon="13.2081312"><ele>293.0</ele><time>2026-04-11T13:11:33.131Z</time></trkpt><trkpt lat="43.1460765" lon="13.2080574"><ele>292.0</ele><time>2026-04-11T13:11:34.13Z</time></trkpt><trkpt lat="43.1459809" lon="13.2079763"><ele>291.0</ele><time>2026-04-11T13:11:35.132Z</time></trkpt><trkpt lat="43.1458857" lon="13.2078957"><ele>290.0</ele><time>2026-04-11T13:11:36.131Z</time></trkpt><trkpt lat="43.1457882" lon="13.2078137"><ele>287.75</ele><time>2026-04-11T13:11:37.132Z</time></trkpt><trkpt lat="43.1456858" lon="13.2077303"><ele>285.5</ele><time>2026-04-11T13:11:38.131Z</time></trkpt><trkpt lat="43.1455824" lon="13.2076395"><ele>283.25</ele><time>2026-04-11T13:11:39.131Z</time></trkpt><trkpt lat="43.1454674" lon="13.2075424"><ele>281.0</ele><time>2026-04-11T13:11:40.131Z</time></trkpt><trkpt lat="43.1453475" lon="13.2074478"><ele>281.0</ele><time>2026-04-11T13:11:41.13Z</time></trkpt><trkpt lat="43.1452264" lon="13.2073425"><ele>281.0</ele><time>2026-04-11T13:11:42.131Z</time></trkpt><trkpt lat="43.1451044" lon="13.2072258"><ele>281.0</ele><time>2026-04-11T13:11:43.13Z</time></trkpt><trkpt lat="43.1449887" lon="13.2071199"><ele>281.0</ele><time>2026-04-11T13:11:44.131Z</time></trkpt><trkpt lat="43.144884" lon="13.2070262"><ele>282.2</ele><time>2026-04-11T13:11:45.131Z</time></trkpt><trkpt lat="43.144784" lon="13.2069439"><ele>283.40000000000003</ele><time>2026-04-11T13:11:46.13Z</time></trkpt><trkpt lat="43.1446916" lon="13.2068775"><ele>284.6</ele><time>2026-04-11T13:11:47.131Z</time></trkpt><trkpt lat="43.144589" lon="13.2068384"><ele>285.8</ele><time>2026-04-11T13:11:48.131Z</time></trkpt><trkpt lat="43.1444802" lon="13.206834"><ele>287.0</ele><time>2026-04-11T13:11:49.131Z</time></trkpt><trkpt lat="43.144377" lon="13.2068287"><ele>287.0</ele><time>2026-04-11T13:11:50.131Z</time></trkpt><trkpt lat="43.1442835" lon="13.2068013"><ele>287.0</ele><time>2026-04-11T13:11:51.132Z</time></trkpt><trkpt lat="43.1441915" lon="13.2067303"><ele>287.0</ele><time>2026-04-11T13:11:52.13Z</time></trkpt><trkpt lat="43.1441094" lon="13.2066191"><ele>287.0</ele><time>2026-04-11T13:11:53.132Z</time></trkpt><trkpt lat="43.1440342" lon="13.2064877"><ele>287.0</ele><time>2026-04-11T13:11:54.13Z</time></trkpt><trkpt lat="43.1439605" lon="13.2063137"><ele>289.25</ele><time>2026-04-11T13:11:55.131Z</time></trkpt><trkpt lat="43.1438831" lon="13.2061466"><ele>291.5</ele><time>2026-04-11T13:11:56.131Z</time></trkpt><trkpt lat="43.1438095" lon="13.2059768"><ele>293.75</ele><time>2026-04-11T13:11:57.131Z</time></trkpt><trkpt lat="43.1437463" lon="13.2058209"><ele>296.0</ele><time>2026-04-11T13:11:58.131Z</time></trkpt><trkpt lat="43.1436857" lon="13.2056795"><ele>296.2</ele><time>2026-04-11T13:11:59.131Z</time></trkpt><trkpt lat="43.1436167" lon="13.2055417"><ele>296.40000000000003</ele><time>2026-04-11T13:12:00.131Z</time></trkpt><trkpt lat="43.1435386" lon="13.2054289"><ele>296.6</ele><time>2026-04-11T13:12:01.131Z</time></trkpt><trkpt lat="43.1434528" lon="13.2053386"><ele>296.8</ele><time>2026-04-11T13:12:02.13Z</time></trkpt><trkpt lat="43.1433698" lon="13.205257"><ele>297.0</ele><time>2026-04-11T13:12:03.13Z</time></trkpt><trkpt lat="43.1432808" lon="13.2051723"><ele>298.25</ele><time>2026-04-11T13:12:04.131Z</time></trkpt><trkpt lat="43.1431883" lon="13.2050769"><ele>299.5</ele><time>2026-04-11T13:12:05.13Z</time></trkpt><trkpt lat="43.1430931" lon="13.2049726"><ele>300.75</ele><time>2026-04-11T13:12:06.131Z</time></trkpt><trkpt lat="43.1429884" lon="13.2048704"><ele>302.0</ele><time>2026-04-11T13:12:07.13Z</time></trkpt><trkpt lat="43.1428703" lon="13.204763"><ele>302.6666666666667</ele><time>2026-04-11T13:12:08.132Z</time></trkpt><trkpt lat="43.1427373" lon="13.2046588"><ele>303.3333333333333</ele><time>2026-04-11T13:12:09.131Z</time></trkpt><trkpt lat="43.142599" lon="13.2045637"><ele>304.0</ele><time>2026-04-11T13:12:10.131Z</time></trkpt><trkpt lat="43.1424425" lon="13.2044769"><ele>304.66666666666663</ele><time>2026-04-11T13:12:11.13Z</time></trkpt><trkpt lat="43.142298" lon="13.2044016"><ele>305.3333333333333</ele><time>2026-04-11T13:12:12.13Z</time></trkpt><trkpt lat="43.1421516" lon="13.2043373"><ele>306.0</ele><time>2026-04-11T13:12:13.131Z</time></trkpt><trkpt lat="43.1420096" lon="13.2042814"><ele>306.0</ele><time>2026-04-11T13:12:14.131Z</time></trkpt><trkpt lat="43.1418528" lon="13.2042417"><ele>306.0</ele><time>2026-04-11T13:12:15.13Z</time></trkpt><trkpt lat="43.1417039" lon="13.2041945"><ele>306.0</ele><time>2026-04-11T13:12:16.13Z</time></trkpt><trkpt lat="43.1415666" lon="13.2041359"><ele>307.0</ele><time>2026-04-11T13:12:17.131Z</time></trkpt><trkpt lat="43.1414491" lon="13.2040498"><ele>308.0</ele><time>2026-04-11T13:12:18.132Z</time></trkpt><trkpt lat="43.1413568" lon="13.2039175"><ele>309.0</ele><time>2026-04-11T13:12:19.131Z</time></trkpt><trkpt lat="43.141298" lon="13.2037417"><ele>310.0</ele><time>2026-04-11T13:12:20.131Z</time></trkpt><trkpt lat="43.1412707" lon="13.2035368"><ele>310.0</ele><time>2026-04-11T13:12:21.13Z</time></trkpt><trkpt lat="43.1412744" lon="13.2033051"><ele>310.0</ele><time>2026-04-11T13:12:22.13Z</time></trkpt><trkpt lat="43.1412872" lon="13.2030708"><ele>310.0</ele><time>2026-04-11T13:12:23.131Z</time></trkpt><trkpt lat="43.1413052" lon="13.202853"><ele>312.75</ele><time>2026-04-11T13:12:24.131Z</time></trkpt><trkpt lat="43.1413175" lon="13.2026528"><ele>315.5</ele><time>2026-04-11T13:12:25.13Z</time></trkpt><trkpt lat="43.1413246" lon="13.2024451"><ele>318.25</ele><time>2026-04-11T13:12:26.132Z</time></trkpt><trkpt lat="43.1413302" lon="13.2022444"><ele>321.0</ele><time>2026-04-11T13:12:27.131Z</time></trkpt><trkpt lat="43.1413293" lon="13.2020479"><ele>321.0</ele><time>2026-04-11T13:12:28.13Z</time></trkpt><trkpt lat="43.1413192" lon="13.2018589"><ele>321.0</ele><time>2026-04-11T13:12:29.131Z</time></trkpt><trkpt lat="43.1412948" lon="13.201656"><ele>321.0</ele><time>2026-04-11T13:12:30.131Z</time></trkpt><trkpt lat="43.1412582" lon="13.2014432"><ele>321.0</ele><time>2026-04-11T13:12:31.13Z</time></trkpt><trkpt lat="43.1412134" lon="13.2012212"><ele>321.0</ele><time>2026-04-11T13:12:32.132Z</time></trkpt><trkpt lat="43.141153" lon="13.201002"><ele>321.0</ele><time>2026-04-11T13:12:33.131Z</time></trkpt><trkpt lat="43.1410908" lon="13.2007837"><ele>321.0</ele><time>2026-04-11T13:12:34.13Z</time></trkpt><trkpt lat="43.1410226" lon="13.2005766"><ele>320.25</ele><time>2026-04-11T13:12:35.13Z</time></trkpt><trkpt lat="43.1409588" lon="13.2003922"><ele>319.5</ele><time>2026-04-11T13:12:36.132Z</time></trkpt><trkpt lat="43.1409081" lon="13.2002284"><ele>318.75</ele><time>2026-04-11T13:12:37.13Z</time></trkpt><trkpt lat="43.1408536" lon="13.2000832"><ele>318.0</ele><time>2026-04-11T13:12:38.13Z</time></trkpt><trkpt lat="43.1407965" lon="13.1999628"><ele>318.0</ele><time>2026-04-11T13:12:39.131Z</time></trkpt><trkpt lat="43.140743" lon="13.1998519"><ele>318.0</ele><time>2026-04-11T13:12:40.13Z</time></trkpt><trkpt lat="43.1406898" lon="13.1997383"><ele>318.0</ele><time>2026-04-11T13:12:41.131Z</time></trkpt><trkpt lat="43.1406382" lon="13.1996201"><ele>318.0</ele><time>2026-04-11T13:12:42.13Z</time></trkpt><trkpt lat="43.1405929" lon="13.1994818"><ele>318.0</ele><time>2026-04-11T13:12:43.13Z</time></trkpt><trkpt lat="43.1405515" lon="13.1993356"><ele>319.5</ele><time>2026-04-11T13:12:44.131Z</time></trkpt><trkpt lat="43.1405239" lon="13.1991754"><ele>321.0</ele><time>2026-04-11T13:12:45.131Z</time></trkpt><trkpt lat="43.1405036" lon="13.1990141"><ele>322.5</ele><time>2026-04-11T13:12:46.13Z</time></trkpt><trkpt lat="43.1404764" lon="13.198864"><ele>324.0</ele><time>2026-04-11T13:12:47.132Z</time></trkpt><trkpt lat="43.1404308" lon="13.1987329"><ele>324.5</ele><time>2026-04-11T13:12:48.13Z</time></trkpt><trkpt lat="43.1403666" lon="13.198607"><ele>325.0</ele><time>2026-04-11T13:12:49.13Z</time></trkpt><trkpt lat="43.1402858" lon="13.1984874"><ele>325.5</ele><time>2026-04-11T13:12:50.13Z</time></trkpt><trkpt lat="43.1401929" lon="13.1983501"><ele>326.0</ele><time>2026-04-11T13:12:51.13Z</time></trkpt><trkpt lat="43.1401109" lon="13.1982059"><ele>328.5</ele><time>2026-04-11T13:12:52.131Z</time></trkpt><trkpt lat="43.1400384" lon="13.1980409"><ele>331.0</ele><time>2026-04-11T13:12:53.13Z</time></trkpt><trkpt lat="43.1399917" lon="13.19786"><ele>333.5</ele><time>2026-04-11T13:12:54.131Z</time></trkpt><trkpt lat="43.1399571" lon="13.1976764"><ele>336.0</ele><time>2026-04-11T13:12:55.131Z</time></trkpt><trkpt lat="43.1399219" lon="13.1974993"><ele>339.4</ele><time>2026-04-11T13:12:56.13Z</time></trkpt><trkpt lat="43.1398875" lon="13.1973325"><ele>342.8</ele><time>2026-04-11T13:12:57.131Z</time></trkpt><trkpt lat="43.1398646" lon="13.1971816"><ele>346.2</ele><time>2026-04-11T13:12:58.13Z</time></trkpt><trkpt lat="43.1398685" lon="13.1970407"><ele>349.59999999999997</ele><time>2026-04-11T13:12:59.13Z</time></trkpt><trkpt lat="43.1398891" lon="13.1969321"><ele>353.0</ele><time>2026-04-11T13:13:00.13Z</time></trkpt><trkpt lat="43.1399545" lon="13.196842"><ele>353.0</ele><time>2026-04-11T13:13:01.132Z</time></trkpt><trkpt lat="43.1400343" lon="13.1967575"><ele>353.0</ele><time>2026-04-11T13:13:02.131Z</time></trkpt><trkpt lat="43.1401141" lon="13.1966696"><ele>353.0</ele><time>2026-04-11T13:13:03.13Z</time></trkpt><trkpt lat="43.1402039" lon="13.1965898"><ele>353.0</ele><time>2026-04-11T13:13:04.131Z</time></trkpt><trkpt lat="43.140297" lon="13.196497"><ele>353.0</ele><time>2026-04-11T13:13:05.13Z</time></trkpt><trkpt lat="43.1403966" lon="13.1964079"><ele>355.0</ele><time>2026-04-11T13:13:06.131Z</time></trkpt><trkpt lat="43.1404983" lon="13.1963092"><ele>357.0</ele><time>2026-04-11T13:13:07.13Z</time></trkpt><trkpt lat="43.1405945" lon="13.1962121"><ele>359.0</ele><time>2026-04-11T13:13:08.13Z</time></trkpt><trkpt lat="43.1406907" lon="13.1961094"><ele>361.0</ele><time>2026-04-11T13:13:09.13Z</time></trkpt><trkpt lat="43.1407856" lon="13.1960019"><ele>361.0</ele><time>2026-04-11T13:13:10.13Z</time></trkpt><trkpt lat="43.1408705" lon="13.1958912"><ele>361.0</ele><time>2026-04-11T13:13:11.13Z</time></trkpt><trkpt lat="43.1409578" lon="13.1957839"><ele>361.0</ele><time>2026-04-11T13:13:12.13Z</time></trkpt><trkpt lat="43.1410379" lon="13.1956841"><ele>361.0</ele><time>2026-04-11T13:13:13.132Z</time></trkpt><trkpt lat="43.1411102" lon="13.1955783"><ele>361.0</ele><time>2026-04-11T13:13:14.13Z</time></trkpt><trkpt lat="43.1411767" lon="13.1954671"><ele>362.66666666666663</ele><time>2026-04-11T13:13:15.131Z</time></trkpt><trkpt lat="43.1412406" lon="13.1953485"><ele>364.3333333333333</ele><time>2026-04-11T13:13:16.13Z</time></trkpt><trkpt lat="43.1412822" lon="13.1952375"><ele>366.0</ele><time>2026-04-11T13:13:17.131Z</time></trkpt><trkpt lat="43.1412998" lon="13.195133"><ele>367.6666666666667</ele><time>2026-04-11T13:13:18.131Z</time></trkpt><trkpt lat="43.1413015" lon="13.195037"><ele>369.33333333333337</ele><time>2026-04-11T13:13:19.131Z</time></trkpt><trkpt lat="43.1412795" lon="13.1949535"><ele>371.0</ele><time>2026-04-11T13:13:20.13Z</time></trkpt><trkpt lat="43.1411773" lon="13.1948808"><ele>371.0</ele><time>2026-04-11T13:13:22.13Z</time></trkpt><trkpt lat="43.141111" lon="13.1948779"><ele>371.0</ele><time>2026-04-11T13:13:23.13Z</time></trkpt><trkpt lat="43.1410315" lon="13.1948756"><ele>371.0</ele><time>2026-04-11T13:13:24.13Z</time></trkpt><trkpt lat="43.1409507" lon="13.1948601"><ele>371.0</ele><time>2026-04-11T13:13:25.13Z</time></trkpt><trkpt lat="43.1408492" lon="13.1948214"><ele>371.0</ele><time>2026-04-11T13:13:26.13Z</time></trkpt><trkpt lat="43.1407532" lon="13.1947793"><ele>371.0</ele><time>2026-04-11T13:13:27.132Z</time></trkpt><trkpt lat="43.1406782" lon="13.194752"><ele>372.0</ele><time>2026-04-11T13:13:28.13Z</time></trkpt><trkpt lat="43.1405935" lon="13.1947122"><ele>373.0</ele><time>2026-04-11T13:13:29.13Z</time></trkpt><trkpt lat="43.1405065" lon="13.1946705"><ele>374.0</ele><time>2026-04-11T13:13:30.131Z</time></trkpt><trkpt lat="43.1404303" lon="13.1946388"><ele>375.0</ele><time>2026-04-11T13:13:31.131Z</time></trkpt><trkpt lat="43.1403505" lon="13.1946262"><ele>376.0</ele><time>2026-04-11T13:13:32.131Z</time></trkpt><trkpt lat="43.1402841" lon="13.1946149"><ele>377.0</ele><time>2026-04-11T13:13:33.13Z</time></trkpt><trkpt lat="43.1401851" lon="13.1945742"><ele>377.0</ele><time>2026-04-11T13:13:35.13Z</time></trkpt><trkpt lat="43.1400689" lon="13.1945558"><ele>377.0</ele><time>2026-04-11T13:13:37.13Z</time></trkpt><trkpt lat="43.1399701" lon="13.1945486"><ele>377.0</ele><time>2026-04-11T13:13:39.131Z</time></trkpt><trkpt lat="43.13984" lon="13.1944601"><ele>377.0</ele><time>2026-04-11T13:13:41.131Z</time></trkpt><trkpt lat="43.139756" lon="13.1944266"><ele>377.0</ele><time>2026-04-11T13:13:42.131Z</time></trkpt><trkpt lat="43.1396894" lon="13.1943722"><ele>380.0</ele><time>2026-04-11T13:13:43.131Z</time></trkpt><trkpt lat="43.1396118" lon="13.1943281"><ele>383.0</ele><time>2026-04-11T13:13:44.131Z</time></trkpt><trkpt lat="43.1395297" lon="13.1942923"><ele>386.0</ele><time>2026-04-11T13:13:45.13Z</time></trkpt><trkpt lat="43.1394453" lon="13.1942484"><ele>389.0</ele><time>2026-04-11T13:13:46.132Z</time></trkpt><trkpt lat="43.1393795" lon="13.1942089"><ele>391.99999999999994</ele><time>2026-04-11T13:13:47.132Z</time></trkpt><trkpt lat="43.1393165" lon="13.1941792"><ele>395.0</ele><time>2026-04-11T13:13:48.131Z</time></trkpt><trkpt lat="43.1392474" lon="13.1941321"><ele>394.99999999999994</ele><time>2026-04-11T13:13:49.13Z</time></trkpt><trkpt lat="43.139182" lon="13.1940867"><ele>395.0</ele><time>2026-04-11T13:13:50.131Z</time></trkpt><trkpt lat="43.1391143" lon="13.1940514"><ele>395.0</ele><time>2026-04-11T13:13:51.131Z</time></trkpt><trkpt lat="43.139047" lon="13.194041"><ele>395.0</ele><time>2026-04-11T13:13:52.13Z</time></trkpt><trkpt lat="43.1389827" lon="13.1940246"><ele>394.99999999999994</ele><time>2026-04-11T13:13:53.13Z</time></trkpt><trkpt lat="43.1388976" lon="13.1940365"><ele>395.0</ele><time>2026-04-11T13:13:54.13Z</time></trkpt><trkpt lat="43.1388059" lon="13.194028"><ele>393.0</ele><time>2026-04-11T13:13:55.132Z</time></trkpt><trkpt lat="43.13873" lon="13.1940104"><ele>391.0</ele><time>2026-04-11T13:13:56.131Z</time></trkpt><trkpt lat="43.138636" lon="13.1939729"><ele>389.0</ele><time>2026-04-11T13:13:57.131Z</time></trkpt><trkpt lat="43.1385328" lon="13.1939249"><ele>387.0</ele><time>2026-04-11T13:13:58.13Z</time></trkpt><trkpt lat="43.1384255" lon="13.1938483"><ele>385.0</ele><time>2026-04-11T13:13:59.131Z</time></trkpt><trkpt lat="43.1383441" lon="13.1938016"><ele>385.00000000000006</ele><time>2026-04-11T13:14:00.132Z</time></trkpt><trkpt lat="43.138287" lon="13.1937537"><ele>385.0</ele><time>2026-04-11T13:14:01.13Z</time></trkpt><trkpt lat="43.1382118" lon="13.1937098"><ele>385.0</ele><time>2026-04-11T13:14:03.13Z</time></trkpt><trkpt lat="43.138183" lon="13.193811"><ele>385.0</ele><time>2026-04-11T13:14:06.13Z</time></trkpt><trkpt lat="43.1382827" lon="13.193919"><ele>385.00000000000006</ele><time>2026-04-11T13:14:08.131Z</time></trkpt><trkpt lat="43.1383512" lon="13.1940053"><ele>385.0</ele><time>2026-04-11T13:14:09.132Z</time></trkpt><trkpt lat="43.1384183" lon="13.1940931"><ele>389.2</ele><time>2026-04-11T13:14:10.131Z</time></trkpt><trkpt lat="43.1385012" lon="13.1941839"><ele>393.4</ele><time>2026-04-11T13:14:11.131Z</time></trkpt><trkpt lat="43.1385906" lon="13.1942747"><ele>397.6</ele><time>2026-04-11T13:14:12.131Z</time></trkpt><trkpt lat="43.1386598" lon="13.1943569"><ele>401.8</ele><time>2026-04-11T13:14:13.13Z</time></trkpt><trkpt lat="43.1387182" lon="13.1944276"><ele>406.0</ele><time>2026-04-11T13:14:14.131Z</time></trkpt><trkpt lat="43.1387562" lon="13.1945392"><ele>406.00000000000006</ele><time>2026-04-11T13:14:16.13Z</time></trkpt><trkpt lat="43.1386734" lon="13.1945408"><ele>406.0</ele><time>2026-04-11T13:14:19.131Z</time></trkpt><trkpt lat="43.1385778" lon="13.1944394"><ele>406.0</ele><time>2026-04-11T13:14:21.13Z</time></trkpt><trkpt lat="43.1385095" lon="13.1943973"><ele>406.0</ele><time>2026-04-11T13:14:22.131Z</time></trkpt><trkpt lat="43.1384345" lon="13.1943549"><ele>406.00000000000006</ele><time>2026-04-11T13:14:23.13Z</time></trkpt><trkpt lat="43.1383592" lon="13.1943094"><ele>406.0</ele><time>2026-04-11T13:14:24.131Z</time></trkpt><trkpt lat="43.1382756" lon="13.1942687"><ele>410.33333333333337</ele><time>2026-04-11T13:14:25.132Z</time></trkpt><trkpt lat="43.1381965" lon="13.1942314"><ele>414.6666666666667</ele><time>2026-04-11T13:14:26.13Z</time></trkpt><trkpt lat="43.1381194" lon="13.1941931"><ele>419.0</ele><time>2026-04-11T13:14:27.132Z</time></trkpt><trkpt lat="43.1380398" lon="13.1941581"><ele>423.33333333333337</ele><time>2026-04-11T13:14:28.131Z</time></trkpt><trkpt lat="43.137961" lon="13.1941245"><ele>427.6666666666667</ele><time>2026-04-11T13:14:29.129Z</time></trkpt><trkpt lat="43.1378895" lon="13.1940942"><ele>432.0</ele><time>2026-04-11T13:14:30.131Z</time></trkpt><trkpt lat="43.1378176" lon="13.1940526"><ele>432.0</ele><time>2026-04-11T13:14:31.131Z</time></trkpt><trkpt lat="43.1377393" lon="13.1940156"><ele>432.00000000000006</ele><time>2026-04-11T13:14:32.132Z</time></trkpt><trkpt lat="43.1376625" lon="13.1939678"><ele>432.00000000000006</ele><time>2026-04-11T13:14:33.131Z</time></trkpt><trkpt lat="43.1375768" lon="13.1939095"><ele>432.0</ele><time>2026-04-11T13:14:34.131Z</time></trkpt><trkpt lat="43.1374927" lon="13.1938534"><ele>432.0</ele><time>2026-04-11T13:14:35.131Z</time></trkpt><trkpt lat="43.1374031" lon="13.1937976"><ele>432.6</ele><time>2026-04-11T13:14:36.13Z</time></trkpt><trkpt lat="43.1373071" lon="13.1937345"><ele>433.20000000000005</ele><time>2026-04-11T13:14:37.129Z</time></trkpt><trkpt lat="43.1372096" lon="13.1936713"><ele>433.8</ele><time>2026-04-11T13:14:38.129Z</time></trkpt><trkpt lat="43.1371163" lon="13.1936099"><ele>434.4</ele><time>2026-04-11T13:14:39.129Z</time></trkpt><trkpt lat="43.1370145" lon="13.1935484"><ele>435.0</ele><time>2026-04-11T13:14:40.131Z</time></trkpt><trkpt lat="43.1369086" lon="13.193479"><ele>435.0</ele><time>2026-04-11T13:14:41.13Z</time></trkpt><trkpt lat="43.1367972" lon="13.1934052"><ele>435.0</ele><time>2026-04-11T13:14:42.131Z</time></trkpt><trkpt lat="43.1366769" lon="13.1933349"><ele>435.0</ele><time>2026-04-11T13:14:43.131Z</time></trkpt><trkpt lat="43.1365522" lon="13.1932488"><ele>435.0</ele><time>2026-04-11T13:14:44.13Z</time></trkpt><trkpt lat="43.136425" lon="13.1931542"><ele>435.33333333333337</ele><time>2026-04-11T13:14:45.131Z</time></trkpt><trkpt lat="43.1362993" lon="13.1930439"><ele>435.6666666666667</ele><time>2026-04-11T13:14:46.13Z</time></trkpt><trkpt lat="43.1361667" lon="13.1929379"><ele>436.0</ele><time>2026-04-11T13:14:47.131Z</time></trkpt><trkpt lat="43.1360363" lon="13.1928224"><ele>436.0</ele><time>2026-04-11T13:14:48.13Z</time></trkpt><trkpt lat="43.1359046" lon="13.192698"><ele>436.0</ele><time>2026-04-11T13:14:49.131Z</time></trkpt><trkpt lat="43.135766" lon="13.1925685"><ele>436.0</ele><time>2026-04-11T13:14:50.131Z</time></trkpt><trkpt lat="43.1356273" lon="13.1924229"><ele>439.6666666666667</ele><time>2026-04-11T13:14:51.13Z</time></trkpt><trkpt lat="43.1354812" lon="13.1922763"><ele>443.33333333333337</ele><time>2026-04-11T13:14:52.129Z</time></trkpt><trkpt lat="43.1353357" lon="13.1921241"><ele>447.0</ele><time>2026-04-11T13:14:53.13Z</time></trkpt><trkpt lat="43.1351779" lon="13.191976"><ele>447.0</ele><time>2026-04-11T13:14:54.13Z</time></trkpt><trkpt lat="43.1350182" lon="13.1918158"><ele>447.0</ele><time>2026-04-11T13:14:55.13Z</time></trkpt><trkpt lat="43.1348593" lon="13.1916535"><ele>447.0</ele><time>2026-04-11T13:14:56.13Z</time></trkpt><trkpt lat="43.1347152" lon="13.1914922"><ele>450.66666666666663</ele><time>2026-04-11T13:14:57.132Z</time></trkpt><trkpt lat="43.1345813" lon="13.1913497"><ele>454.3333333333333</ele><time>2026-04-11T13:14:58.131Z</time></trkpt><trkpt lat="43.134454" lon="13.1912182"><ele>458.0</ele><time>2026-04-11T13:14:59.132Z</time></trkpt><trkpt lat="43.134334" lon="13.1910876"><ele>458.0</ele><time>2026-04-11T13:15:00.131Z</time></trkpt><trkpt lat="43.1342171" lon="13.1909613"><ele>458.0</ele><time>2026-04-11T13:15:01.131Z</time></trkpt><trkpt lat="43.1340951" lon="13.1908286"><ele>458.0</ele><time>2026-04-11T13:15:02.13Z</time></trkpt><trkpt lat="43.1339779" lon="13.1906989"><ele>465.0</ele><time>2026-04-11T13:15:03.13Z</time></trkpt><trkpt lat="43.1338584" lon="13.1905721"><ele>472.0</ele><time>2026-04-11T13:15:04.131Z</time></trkpt><trkpt lat="43.1337477" lon="13.1904291"><ele>479.0</ele><time>2026-04-11T13:15:05.13Z</time></trkpt><trkpt lat="43.133632" lon="13.1902963"><ele>479.0</ele><time>2026-04-11T13:15:06.131Z</time></trkpt><trkpt lat="43.1335184" lon="13.1901622"><ele>479.0</ele><time>2026-04-11T13:15:07.13Z</time></trkpt><trkpt lat="43.1334083" lon="13.1900227"><ele>479.0</ele><time>2026-04-11T13:15:08.131Z</time></trkpt><trkpt lat="43.1332899" lon="13.1898818"><ele>483.66666666666663</ele><time>2026-04-11T13:15:09.13Z</time></trkpt><trkpt lat="43.1331766" lon="13.189744"><ele>488.33333333333337</ele><time>2026-04-11T13:15:10.129Z</time></trkpt><trkpt lat="43.1330573" lon="13.1896185"><ele>493.0</ele><time>2026-04-11T13:15:11.13Z</time></trkpt><trkpt lat="43.132934" lon="13.189497"><ele>493.0</ele><time>2026-04-11T13:15:12.13Z</time></trkpt><trkpt lat="43.1328046" lon="13.189388"><ele>493.0</ele><time>2026-04-11T13:15:13.13Z</time></trkpt><trkpt lat="43.1326684" lon="13.1892658"><ele>493.0</ele><time>2026-04-11T13:15:14.13Z</time></trkpt><trkpt lat="43.1325266" lon="13.1891344"><ele>496.33333333333337</ele><time>2026-04-11T13:15:15.131Z</time></trkpt><trkpt lat="43.1323803" lon="13.1890163"><ele>499.66666666666663</ele><time>2026-04-11T13:15:16.131Z</time></trkpt><trkpt lat="43.1322357" lon="13.1888983"><ele>503.0</ele><time>2026-04-11T13:15:17.13Z</time></trkpt><trkpt lat="43.1321011" lon="13.1887929"><ele>503.0</ele><time>2026-04-11T13:15:18.13Z</time></trkpt><trkpt lat="43.1319724" lon="13.1887035"><ele>503.0</ele><time>2026-04-11T13:15:19.131Z</time></trkpt><trkpt lat="43.1318337" lon="13.1886214"><ele>503.0</ele><time>2026-04-11T13:15:20.13Z</time></trkpt><trkpt lat="43.1317022" lon="13.1885224"><ele>503.0</ele><time>2026-04-11T13:15:21.131Z</time></trkpt><trkpt lat="43.131568" lon="13.1884425"><ele>509.25</ele><time>2026-04-11T13:15:22.131Z</time></trkpt><trkpt lat="43.1314335" lon="13.1883745"><ele>515.5</ele><time>2026-04-11T13:15:23.131Z</time></trkpt><trkpt lat="43.1312834" lon="13.1883106"><ele>521.75</ele><time>2026-04-11T13:15:24.132Z</time></trkpt><trkpt lat="43.1311445" lon="13.1882449"><ele>528.0</ele><time>2026-04-11T13:15:25.131Z</time></trkpt><trkpt lat="43.1310175" lon="13.1881898"><ele>526.75</ele><time>2026-04-11T13:15:26.13Z</time></trkpt><trkpt lat="43.1308991" lon="13.1881487"><ele>525.5</ele><time>2026-04-11T13:15:27.13Z</time></trkpt><trkpt lat="43.1307716" lon="13.1881226"><ele>524.25</ele><time>2026-04-11T13:15:28.131Z</time></trkpt><trkpt lat="43.1306444" lon="13.1881051"><ele>523.0</ele><time>2026-04-11T13:15:29.13Z</time></trkpt><trkpt lat="43.1305115" lon="13.1880957"><ele>523.0</ele><time>2026-04-11T13:15:30.129Z</time></trkpt><trkpt lat="43.1303771" lon="13.1880901"><ele>523.0</ele><time>2026-04-11T13:15:31.131Z</time></trkpt><trkpt lat="43.1302465" lon="13.1880821"><ele>523.0</ele><time>2026-04-11T13:15:32.13Z</time></trkpt><trkpt lat="43.1301124" lon="13.1880612"><ele>523.0</ele><time>2026-04-11T13:15:33.131Z</time></trkpt><trkpt lat="43.1299765" lon="13.1880332"><ele>528.75</ele><time>2026-04-11T13:15:34.131Z</time></trkpt><trkpt lat="43.1298392" lon="13.1880144"><ele>534.5</ele><time>2026-04-11T13:15:35.131Z</time></trkpt><trkpt lat="43.1296988" lon="13.1879915"><ele>540.25</ele><time>2026-04-11T13:15:36.13Z</time></trkpt><trkpt lat="43.1295573" lon="13.1879589"><ele>546.0</ele><time>2026-04-11T13:15:37.131Z</time></trkpt><trkpt lat="43.1294209" lon="13.1878998"><ele>546.0</ele><time>2026-04-11T13:15:38.131Z</time></trkpt><trkpt lat="43.1292881" lon="13.1878154"><ele>546.0</ele><time>2026-04-11T13:15:39.129Z</time></trkpt><trkpt lat="43.1291695" lon="13.1877075"><ele>546.0</ele><time>2026-04-11T13:15:40.129Z</time></trkpt><trkpt lat="43.1290636" lon="13.1876157"><ele>546.0</ele><time>2026-04-11T13:15:41.13Z</time></trkpt><trkpt lat="43.1289628" lon="13.1875554"><ele>551.0</ele><time>2026-04-11T13:15:42.131Z</time></trkpt><trkpt lat="43.1288796" lon="13.1875243"><ele>556.0</ele><time>2026-04-11T13:15:43.13Z</time></trkpt><trkpt lat="43.128816" lon="13.1875037"><ele>561.0</ele><time>2026-04-11T13:15:44.13Z</time></trkpt><trkpt lat="43.1286975" lon="13.1874689"><ele>566.0</ele><time>2026-04-11T13:15:46.13Z</time></trkpt><trkpt lat="43.1286326" lon="13.1874438"><ele>571.0</ele><time>2026-04-11T13:15:47.131Z</time></trkpt><trkpt lat="43.1285577" lon="13.1874181"><ele>576.0</ele><time>2026-04-11T13:15:48.131Z</time></trkpt><trkpt lat="43.1284702" lon="13.1873938"><ele>576.0</ele><time>2026-04-11T13:15:49.131Z</time></trkpt><trkpt lat="43.1283789" lon="13.1873669"><ele>576.0</ele><time>2026-04-11T13:15:50.13Z</time></trkpt><trkpt lat="43.1282807" lon="13.1873362"><ele>576.0</ele><time>2026-04-11T13:15:51.13Z</time></trkpt><trkpt lat="43.1281816" lon="13.1873031"><ele>576.0</ele><time>2026-04-11T13:15:52.131Z</time></trkpt><trkpt lat="43.1280773" lon="13.1872575"><ele>576.0</ele><time>2026-04-11T13:15:53.131Z</time></trkpt><trkpt lat="43.1279596" lon="13.1871973"><ele>576.6666666666666</ele><time>2026-04-11T13:15:54.131Z</time></trkpt><trkpt lat="43.1278256" lon="13.1871172"><ele>577.3333333333333</ele><time>2026-04-11T13:15:55.131Z</time></trkpt><trkpt lat="43.1276799" lon="13.1870263"><ele>578.0</ele><time>2026-04-11T13:15:56.13Z</time></trkpt><trkpt lat="43.1275275" lon="13.1869371"><ele>591.6666666666666</ele><time>2026-04-11T13:15:57.13Z</time></trkpt><trkpt lat="43.1273711" lon="13.1868457"><ele>605.3333333333334</ele><time>2026-04-11T13:15:58.131Z</time></trkpt><trkpt lat="43.1272072" lon="13.1867515"><ele>619.0</ele><time>2026-04-11T13:15:59.13Z</time></trkpt><trkpt lat="43.1270514" lon="13.1866485"><ele>619.0</ele><time>2026-04-11T13:16:00.13Z</time></trkpt><trkpt lat="43.1269174" lon="13.1865351"><ele>619.0</ele><time>2026-04-11T13:16:01.13Z</time></trkpt><trkpt lat="43.1267906" lon="13.186409"><ele>619.0</ele><time>2026-04-11T13:16:02.131Z</time></trkpt><trkpt lat="43.1266617" lon="13.1862897"><ele>623.0</ele><time>2026-04-11T13:16:03.13Z</time></trkpt><trkpt lat="43.1265304" lon="13.1861734"><ele>627.0</ele><time>2026-04-11T13:16:04.131Z</time></trkpt><trkpt lat="43.1264048" lon="13.1860574"><ele>631.0</ele><time>2026-04-11T13:16:05.131Z</time></trkpt><trkpt lat="43.1262748" lon="13.1859392"><ele>631.0</ele><time>2026-04-11T13:16:06.131Z</time></trkpt><trkpt lat="43.1261376" lon="13.1858195"><ele>631.0</ele><time>2026-04-11T13:16:07.131Z</time></trkpt><trkpt lat="43.1260021" lon="13.1856945"><ele>631.0</ele><time>2026-04-11T13:16:08.131Z</time></trkpt><trkpt lat="43.1258774" lon="13.185579"><ele>631.0</ele><time>2026-04-11T13:16:09.131Z</time></trkpt><trkpt lat="43.1257898" lon="13.1854957"><ele>631.0</ele><time>2026-04-11T13:16:10.131Z</time></trkpt><trkpt lat="43.1257403" lon="13.1854315"><ele>631.0</ele><time>2026-04-11T13:16:11.131Z</time></trkpt><trkpt lat="43.1257188" lon="13.1852923"><ele>631.0</ele><time>2026-04-11T13:16:13.13Z</time></trkpt><trkpt lat="43.1257523" lon="13.1851568"><ele>631.0</ele><time>2026-04-11T13:16:15.13Z</time></trkpt><trkpt lat="43.125817" lon="13.185045"><ele>631.0</ele><time>2026-04-11T13:16:17.132Z</time></trkpt><trkpt lat="43.1258742" lon="13.1849577"><ele>631.0</ele><time>2026-04-11T13:16:19.131Z</time></trkpt><trkpt lat="43.12594" lon="13.1848601"><ele>631.0</ele><time>2026-04-11T13:16:21.13Z</time></trkpt><trkpt lat="43.125988" lon="13.1847989"><ele>631.0</ele><time>2026-04-11T13:16:22.13Z</time></trkpt><trkpt lat="43.1260286" lon="13.1847238"><ele>631.0</ele><time>2026-04-11T13:16:23.13Z</time></trkpt><trkpt lat="43.1260751" lon="13.184639"><ele>631.0</ele><time>2026-04-11T13:16:24.129Z</time></trkpt><trkpt lat="43.1261198" lon="13.1845643"><ele>634.1666666666667</ele><time>2026-04-11T13:16:25.13Z</time></trkpt><trkpt lat="43.126217" lon="13.184494"><ele>637.3333333333334</ele><time>2026-04-11T13:16:27.13Z</time></trkpt><trkpt lat="43.1262809" lon="13.184501"><ele>640.5</ele><time>2026-04-11T13:16:28.129Z</time></trkpt><trkpt lat="43.1263454" lon="13.1845077"><ele>643.6666666666666</ele><time>2026-04-11T13:16:29.13Z</time></trkpt><trkpt lat="43.1264149" lon="13.1845026"><ele>646.8333333333333</ele><time>2026-04-11T13:16:30.131Z</time></trkpt><trkpt lat="43.1264957" lon="13.1844899"><ele>650.0</ele><time>2026-04-11T13:16:31.131Z</time></trkpt><trkpt lat="43.1265888" lon="13.1844374"><ele>650.0</ele><time>2026-04-11T13:16:32.129Z</time></trkpt><trkpt lat="43.1266871" lon="13.1844018"><ele>650.0</ele><time>2026-04-11T13:16:33.131Z</time></trkpt><trkpt lat="43.1267785" lon="13.1843989"><ele>650.0</ele><time>2026-04-11T13:16:34.132Z</time></trkpt><trkpt lat="43.1268746" lon="13.1844142"><ele>650.0</ele><time>2026-04-11T13:16:35.131Z</time></trkpt><trkpt lat="43.126973" lon="13.1844511"><ele>650.0</ele><time>2026-04-11T13:16:36.13Z</time></trkpt><trkpt lat="43.127065" lon="13.1844666"><ele>650.0</ele><time>2026-04-11T13:16:37.131Z</time></trkpt><trkpt lat="43.1271541" lon="13.1844568"><ele>650.0</ele><time>2026-04-11T13:16:38.132Z</time></trkpt><trkpt lat="43.1272526" lon="13.184417"><ele>650.0</ele><time>2026-04-11T13:16:39.131Z</time></trkpt><trkpt lat="43.1273634" lon="13.1843921"><ele>650.0</ele><time>2026-04-11T13:16:40.13Z</time></trkpt><trkpt lat="43.1274828" lon="13.1843564"><ele>650.0</ele><time>2026-04-11T13:16:41.129Z</time></trkpt><trkpt lat="43.1276018" lon="13.1843275"><ele>652.8</ele><time>2026-04-11T13:16:42.13Z</time></trkpt><trkpt lat="43.1277061" lon="13.1842909"><ele>655.6</ele><time>2026-04-11T13:16:43.131Z</time></trkpt><trkpt lat="43.1278001" lon="13.1842419"><ele>658.4000000000001</ele><time>2026-04-11T13:16:44.132Z</time></trkpt><trkpt lat="43.1278643" lon="13.1841738"><ele>661.2</ele><time>2026-04-11T13:16:45.131Z</time></trkpt><trkpt lat="43.1279424" lon="13.1840875"><ele>664.0</ele><time>2026-04-11T13:16:46.13Z</time></trkpt><trkpt lat="43.1280278" lon="13.1840329"><ele>664.6666666666667</ele><time>2026-04-11T13:16:47.131Z</time></trkpt><trkpt lat="43.1281128" lon="13.1840096"><ele>665.3333333333334</ele><time>2026-04-11T13:16:48.132Z</time></trkpt><trkpt lat="43.1281956" lon="13.1839979"><ele>666.0</ele><time>2026-04-11T13:16:49.131Z</time></trkpt><trkpt lat="43.1282615" lon="13.184017"><ele>666.6666666666666</ele><time>2026-04-11T13:16:50.13Z</time></trkpt><trkpt lat="43.1283312" lon="13.1840156"><ele>667.3333333333333</ele><time>2026-04-11T13:16:51.13Z</time></trkpt><trkpt lat="43.1284379" lon="13.183924"><ele>668.0</ele><time>2026-04-11T13:16:53.132Z</time></trkpt><trkpt lat="43.1285033" lon="13.1838766"><ele>673.8</ele><time>2026-04-11T13:16:54.13Z</time></trkpt><trkpt lat="43.1285753" lon="13.183836"><ele>679.5999999999999</ele><time>2026-04-11T13:16:55.131Z</time></trkpt><trkpt lat="43.1286546" lon="13.1837602"><ele>685.4000000000001</ele><time>2026-04-11T13:16:56.13Z</time></trkpt><trkpt lat="43.1287522" lon="13.1836983"><ele>691.2</ele><time>2026-04-11T13:16:57.129Z</time></trkpt><trkpt lat="43.12886" lon="13.1836614"><ele>697.0</ele><time>2026-04-11T13:16:58.131Z</time></trkpt><trkpt lat="43.1289551" lon="13.1836418"><ele>697.0</ele><time>2026-04-11T13:16:59.131Z</time></trkpt><trkpt lat="43.1290424" lon="13.1835866"><ele>697.0</ele><time>2026-04-11T13:17:00.13Z</time></trkpt><trkpt lat="43.1291281" lon="13.1835085"><ele>697.0</ele><time>2026-04-11T13:17:01.131Z</time></trkpt><trkpt lat="43.129222" lon="13.1834127"><ele>697.0</ele><time>2026-04-11T13:17:02.131Z</time></trkpt><trkpt lat="43.1293171" lon="13.1833101"><ele>697.0</ele><time>2026-04-11T13:17:03.13Z</time></trkpt><trkpt lat="43.1294253" lon="13.183209"><ele>701.0</ele><time>2026-04-11T13:17:04.132Z</time></trkpt><trkpt lat="43.1295379" lon="13.1831192"><ele>705.0</ele><time>2026-04-11T13:17:05.132Z</time></trkpt><trkpt lat="43.129642" lon="13.1830283"><ele>709.0</ele><time>2026-04-11T13:17:06.13Z</time></trkpt><trkpt lat="43.1297514" lon="13.1829198"><ele>713.0</ele><time>2026-04-11T13:17:07.131Z</time></trkpt><trkpt lat="43.1298571" lon="13.1827998"><ele>714.75</ele><time>2026-04-11T13:17:08.131Z</time></trkpt><trkpt lat="43.1299518" lon="13.182685"><ele>716.5</ele><time>2026-04-11T13:17:09.13Z</time></trkpt><trkpt lat="43.1300293" lon="13.1825592"><ele>718.25</ele><time>2026-04-11T13:17:10.131Z</time></trkpt><trkpt lat="43.1301093" lon="13.1824241"><ele>720.0</ele><time>2026-04-11T13:17:11.129Z</time></trkpt><trkpt lat="43.1301881" lon="13.1822952"><ele>720.0</ele><time>2026-04-11T13:17:12.131Z</time></trkpt><trkpt lat="43.1302554" lon="13.1821515"><ele>720.0</ele><time>2026-04-11T13:17:13.13Z</time></trkpt><trkpt lat="43.1303105" lon="13.1820111"><ele>720.0</ele><time>2026-04-11T13:17:14.129Z</time></trkpt><trkpt lat="43.1303382" lon="13.1818459"><ele>720.0</ele><time>2026-04-11T13:17:15.131Z</time></trkpt><trkpt lat="43.1303732" lon="13.1816822"><ele>720.0</ele><time>2026-04-11T13:17:16.13Z</time></trkpt><trkpt lat="43.1304065" lon="13.1815205"><ele>720.0</ele><time>2026-04-11T13:17:17.131Z</time></trkpt><trkpt lat="43.1304339" lon="13.1813571"><ele>720.0</ele><time>2026-04-11T13:17:18.13Z</time></trkpt><trkpt lat="43.1304337" lon="13.1812254"><ele>720.0</ele><time>2026-04-11T13:17:19.13Z</time></trkpt><trkpt lat="43.1304345" lon="13.1811243"><ele>720.0</ele><time>2026-04-11T13:17:20.13Z</time></trkpt><trkpt lat="43.1303969" lon="13.1810195"><ele>721.3333333333334</ele><time>2026-04-11T13:17:22.132Z</time></trkpt><trkpt lat="43.1303107" lon="13.1809884"><ele>722.6666666666666</ele><time>2026-04-11T13:17:24.131Z</time></trkpt><trkpt lat="43.1302429" lon="13.1810057"><ele>724.0</ele><time>2026-04-11T13:17:25.13Z</time></trkpt><trkpt lat="43.1301669" lon="13.1810361"><ele>725.3333333333333</ele><time>2026-04-11T13:17:26.13Z</time></trkpt><trkpt lat="43.1300796" lon="13.1810608"><ele>726.6666666666666</ele><time>2026-04-11T13:17:27.132Z</time></trkpt><trkpt lat="43.1299908" lon="13.1810819"><ele>728.0</ele><time>2026-04-11T13:17:28.13Z</time></trkpt><trkpt lat="43.1298971" lon="13.1810928"><ele>731.0</ele><time>2026-04-11T13:17:29.129Z</time></trkpt><trkpt lat="43.1297982" lon="13.1810916"><ele>734.0</ele><time>2026-04-11T13:17:30.132Z</time></trkpt><trkpt lat="43.1296929" lon="13.1810653"><ele>737.0</ele><time>2026-04-11T13:17:31.13Z</time></trkpt><trkpt lat="43.1295829" lon="13.1810425"><ele>740.0</ele><time>2026-04-11T13:17:32.131Z</time></trkpt><trkpt lat="43.1294638" lon="13.1810222"><ele>743.0</ele><time>2026-04-11T13:17:33.13Z</time></trkpt><trkpt lat="43.1293515" lon="13.18099"><ele>743.0</ele><time>2026-04-11T13:17:34.131Z</time></trkpt><trkpt lat="43.1292433" lon="13.1809401"><ele>743.0</ele><time>2026-04-11T13:17:35.131Z</time></trkpt><trkpt lat="43.1291386" lon="13.1808887"><ele>743.0</ele><time>2026-04-11T13:17:36.131Z</time></trkpt><trkpt lat="43.1290238" lon="13.180828"><ele>743.0</ele><time>2026-04-11T13:17:37.129Z</time></trkpt><trkpt lat="43.1289091" lon="13.1807596"><ele>747.5</ele><time>2026-04-11T13:17:38.132Z</time></trkpt><trkpt lat="43.128796" lon="13.1806724"><ele>752.0</ele><time>2026-04-11T13:17:39.131Z</time></trkpt><trkpt lat="43.1286678" lon="13.1806089"><ele>756.5</ele><time>2026-04-11T13:17:40.131Z</time></trkpt><trkpt lat="43.1285363" lon="13.1805502"><ele>761.0</ele><time>2026-04-11T13:17:41.131Z</time></trkpt><trkpt lat="43.1284053" lon="13.1804809"><ele>761.0</ele><time>2026-04-11T13:17:42.13Z</time></trkpt><trkpt lat="43.1282684" lon="13.1804067"><ele>761.0</ele><time>2026-04-11T13:17:43.13Z</time></trkpt><trkpt lat="43.1281295" lon="13.1803298"><ele>761.0</ele><time>2026-04-11T13:17:44.129Z</time></trkpt><trkpt lat="43.1279792" lon="13.1802481"><ele>765.3333333333333</ele><time>2026-04-11T13:17:45.131Z</time></trkpt><trkpt lat="43.1278285" lon="13.1801621"><ele>769.6666666666666</ele><time>2026-04-11T13:17:46.131Z</time></trkpt><trkpt lat="43.1276627" lon="13.1800743"><ele>774.0</ele><time>2026-04-11T13:17:47.13Z</time></trkpt><trkpt lat="43.1275042" lon="13.1799853"><ele>776.25</ele><time>2026-04-11T13:17:48.131Z</time></trkpt><trkpt lat="43.1273682" lon="13.1798999"><ele>778.5</ele><time>2026-04-11T13:17:49.131Z</time></trkpt><trkpt lat="43.1272486" lon="13.179845"><ele>780.75</ele><time>2026-04-11T13:17:50.129Z</time></trkpt><trkpt lat="43.1271193" lon="13.1798065"><ele>783.0</ele><time>2026-04-11T13:17:51.13Z</time></trkpt><trkpt lat="43.1269872" lon="13.1797674"><ele>785.5</ele><time>2026-04-11T13:17:52.13Z</time></trkpt><trkpt lat="43.1268454" lon="13.1797257"><ele>788.0</ele><time>2026-04-11T13:17:53.129Z</time></trkpt><trkpt lat="43.1266986" lon="13.1796978"><ele>790.5</ele><time>2026-04-11T13:17:54.13Z</time></trkpt><trkpt lat="43.1265453" lon="13.1796798"><ele>793.0</ele><time>2026-04-11T13:17:55.13Z</time></trkpt><trkpt lat="43.1263954" lon="13.1796512"><ele>794.6666666666666</ele><time>2026-04-11T13:17:56.131Z</time></trkpt><trkpt lat="43.1262427" lon="13.1796133"><ele>796.3333333333333</ele><time>2026-04-11T13:17:57.131Z</time></trkpt><trkpt lat="43.1260926" lon="13.1795484"><ele>798.0</ele><time>2026-04-11T13:17:58.13Z</time></trkpt><trkpt lat="43.1259506" lon="13.1794685"><ele>798.0</ele><time>2026-04-11T13:17:59.13Z</time></trkpt><trkpt lat="43.1258084" lon="13.1793753"><ele>798.0</ele><time>2026-04-11T13:18:00.129Z</time></trkpt><trkpt lat="43.1256974" lon="13.1792707"><ele>798.0</ele><time>2026-04-11T13:18:01.13Z</time></trkpt><trkpt lat="43.125592" lon="13.1791742"><ele>798.0</ele><time>2026-04-11T13:18:02.129Z</time></trkpt><trkpt lat="43.1254802" lon="13.1791101"><ele>798.0</ele><time>2026-04-11T13:18:03.131Z</time></trkpt><trkpt lat="43.125359" lon="13.179026"><ele>798.0</ele><time>2026-04-11T13:18:04.131Z</time></trkpt><trkpt lat="43.1252349" lon="13.1789223"><ele>798.0</ele><time>2026-04-11T13:18:05.13Z</time></trkpt><trkpt lat="43.1251166" lon="13.1787931"><ele>798.0</ele><time>2026-04-11T13:18:06.131Z</time></trkpt><trkpt lat="43.1249972" lon="13.1786707"><ele>802.6666666666667</ele><time>2026-04-11T13:18:07.13Z</time></trkpt><trkpt lat="43.1248604" lon="13.1785447"><ele>807.3333333333334</ele><time>2026-04-11T13:18:08.131Z</time></trkpt><trkpt lat="43.1247195" lon="13.1784299"><ele>812.0</ele><time>2026-04-11T13:18:09.13Z</time></trkpt><trkpt lat="43.1245706" lon="13.1783277"><ele>812.0</ele><time>2026-04-11T13:18:10.131Z</time></trkpt><trkpt lat="43.1244168" lon="13.1782448"><ele>812.0</ele><time>2026-04-11T13:18:11.131Z</time></trkpt><trkpt lat="43.1242501" lon="13.1781687"><ele>812.0</ele><time>2026-04-11T13:18:12.13Z</time></trkpt><trkpt lat="43.1240732" lon="13.1780796"><ele>816.6666666666667</ele><time>2026-04-11T13:18:13.129Z</time></trkpt><trkpt lat="43.1238872" lon="13.1779631"><ele>821.3333333333333</ele><time>2026-04-11T13:18:14.13Z</time></trkpt><trkpt lat="43.1236971" lon="13.1778162"><ele>826.0</ele><time>2026-04-11T13:18:15.13Z</time></trkpt><trkpt lat="43.123491" lon="13.17765"><ele>826.0</ele><time>2026-04-11T13:18:16.131Z</time></trkpt><trkpt lat="43.1232656" lon="13.1774836"><ele>826.0</ele><time>2026-04-11T13:18:17.131Z</time></trkpt><trkpt lat="43.1230748" lon="13.1773467"><ele>832.6666666666666</ele><time>2026-04-11T13:18:18.13Z</time></trkpt><trkpt lat="43.1229264" lon="13.1772323"><ele>839.3333333333333</ele><time>2026-04-11T13:18:19.13Z</time></trkpt><trkpt lat="43.1228041" lon="13.1771165"><ele>846.0</ele><time>2026-04-11T13:18:20.131Z</time></trkpt><trkpt lat="43.1227119" lon="13.1769896"><ele>846.0</ele><time>2026-04-11T13:18:21.13Z</time></trkpt><trkpt lat="43.1226383" lon="13.1768491"><ele>846.0</ele><time>2026-04-11T13:18:22.13Z</time></trkpt><trkpt lat="43.1225798" lon="13.176724"><ele>846.0</ele><time>2026-04-11T13:18:23.131Z</time></trkpt><trkpt lat="43.122519" lon="13.1766184"><ele>846.0</ele><time>2026-04-11T13:18:24.13Z</time></trkpt><trkpt lat="43.1224522" lon="13.1765342"><ele>846.0</ele><time>2026-04-11T13:18:25.13Z</time></trkpt><trkpt lat="43.1223767" lon="13.1764841"><ele>848.5999999999999</ele><time>2026-04-11T13:18:26.129Z</time></trkpt><trkpt lat="43.1222873" lon="13.176434"><ele>851.2</ele><time>2026-04-11T13:18:27.131Z</time></trkpt><trkpt lat="43.1221818" lon="13.1764127"><ele>853.8000000000001</ele><time>2026-04-11T13:18:28.13Z</time></trkpt><trkpt lat="43.1220628" lon="13.1764036"><ele>856.4000000000001</ele><time>2026-04-11T13:18:29.13Z</time></trkpt><trkpt lat="43.1219379" lon="13.176407"><ele>859.0</ele><time>2026-04-11T13:18:30.13Z</time></trkpt><trkpt lat="43.1218137" lon="13.1764025"><ele>859.0</ele><time>2026-04-11T13:18:31.129Z</time></trkpt><trkpt lat="43.1216951" lon="13.1763696"><ele>859.0</ele><time>2026-04-11T13:18:32.132Z</time></trkpt><trkpt lat="43.1215847" lon="13.1763047"><ele>859.0</ele><time>2026-04-11T13:18:33.13Z</time></trkpt><trkpt lat="43.1214772" lon="13.1762028"><ele>859.0</ele><time>2026-04-11T13:18:34.131Z</time></trkpt><trkpt lat="43.1213717" lon="13.1760727"><ele>864.0</ele><time>2026-04-11T13:18:35.131Z</time></trkpt><trkpt lat="43.1212652" lon="13.1759356"><ele>869.0</ele><time>2026-04-11T13:18:36.13Z</time></trkpt><trkpt lat="43.1211469" lon="13.1757847"><ele>874.0</ele><time>2026-04-11T13:18:37.131Z</time></trkpt><trkpt lat="43.12102" lon="13.1756393"><ele>874.0</ele><time>2026-04-11T13:18:38.13Z</time></trkpt><trkpt lat="43.1208844" lon="13.1755019"><ele>874.0</ele><time>2026-04-11T13:18:39.13Z</time></trkpt><trkpt lat="43.1207274" lon="13.1753652"><ele>874.0</ele><time>2026-04-11T13:18:40.131Z</time></trkpt><trkpt lat="43.1205632" lon="13.1752317"><ele>879.0</ele><time>2026-04-11T13:18:41.13Z</time></trkpt><trkpt lat="43.1204017" lon="13.1751249"><ele>884.0</ele><time>2026-04-11T13:18:42.13Z</time></trkpt><trkpt lat="43.1202562" lon="13.175037"><ele>889.0</ele><time>2026-04-11T13:18:43.13Z</time></trkpt><trkpt lat="43.1201193" lon="13.1749531"><ele>889.0</ele><time>2026-04-11T13:18:44.131Z</time></trkpt><trkpt lat="43.1199864" lon="13.1748608"><ele>889.0</ele><time>2026-04-11T13:18:45.13Z</time></trkpt><trkpt lat="43.119861" lon="13.1747724"><ele>889.0</ele><time>2026-04-11T13:18:46.13Z</time></trkpt><trkpt lat="43.1197428" lon="13.1746923"><ele>889.0</ele><time>2026-04-11T13:18:47.131Z</time></trkpt><trkpt lat="43.1196204" lon="13.1746177"><ele>892.25</ele><time>2026-04-11T13:18:48.131Z</time></trkpt><trkpt lat="43.1194989" lon="13.1745465"><ele>895.5</ele><time>2026-04-11T13:18:49.13Z</time></trkpt><trkpt lat="43.1193781" lon="13.1744746"><ele>898.75</ele><time>2026-04-11T13:18:50.13Z</time></trkpt><trkpt lat="43.119261" lon="13.1743846"><ele>902.0</ele><time>2026-04-11T13:18:51.131Z</time></trkpt><trkpt lat="43.1191415" lon="13.1742716"><ele>908.3333333333334</ele><time>2026-04-11T13:18:52.13Z</time></trkpt><trkpt lat="43.1190186" lon="13.1741452"><ele>914.6666666666667</ele><time>2026-04-11T13:18:53.132Z</time></trkpt><trkpt lat="43.118894" lon="13.1740197"><ele>921.0</ele><time>2026-04-11T13:18:54.13Z</time></trkpt><trkpt lat="43.1187743" lon="13.1739056"><ele>921.0</ele><time>2026-04-11T13:18:55.13Z</time></trkpt><trkpt lat="43.118666" lon="13.1738054"><ele>921.0</ele><time>2026-04-11T13:18:56.13Z</time></trkpt><trkpt lat="43.1185579" lon="13.1737543"><ele>921.0</ele><time>2026-04-11T13:18:57.129Z</time></trkpt><trkpt lat="43.1184479" lon="13.1737337"><ele>921.0</ele><time>2026-04-11T13:18:58.131Z</time></trkpt><trkpt lat="43.118332" lon="13.1737205"><ele>923.5</ele><time>2026-04-11T13:18:59.132Z</time></trkpt><trkpt lat="43.118209" lon="13.1737135"><ele>926.0</ele><time>2026-04-11T13:19:00.13Z</time></trkpt><trkpt lat="43.1180684" lon="13.1737102"><ele>928.5</ele><time>2026-04-11T13:19:01.131Z</time></trkpt><trkpt lat="43.1179159" lon="13.1737018"><ele>931.0</ele><time>2026-04-11T13:19:02.13Z</time></trkpt><trkpt lat="43.1177487" lon="13.1736875"><ele>931.0</ele><time>2026-04-11T13:19:03.131Z</time></trkpt><trkpt lat="43.1175721" lon="13.1736846"><ele>931.0</ele><time>2026-04-11T13:19:04.13Z</time></trkpt><trkpt lat="43.1173908" lon="13.1736838"><ele>931.0</ele><time>2026-04-11T13:19:05.13Z</time></trkpt><trkpt lat="43.1172064" lon="13.1736866"><ele>934.0</ele><time>2026-04-11T13:19:06.131Z</time></trkpt><trkpt lat="43.1170508" lon="13.1736789"><ele>937.0</ele><time>2026-04-11T13:19:07.129Z</time></trkpt><trkpt lat="43.1169183" lon="13.1736424"><ele>940.0</ele><time>2026-04-11T13:19:08.131Z</time></trkpt><trkpt lat="43.116793" lon="13.1735983"><ele>943.0</ele><time>2026-04-11T13:19:09.132Z</time></trkpt><trkpt lat="43.1166753" lon="13.173564"><ele>946.5</ele><time>2026-04-11T13:19:10.129Z</time></trkpt><trkpt lat="43.1165548" lon="13.1735381"><ele>950.0</ele><time>2026-04-11T13:19:11.13Z</time></trkpt><trkpt lat="43.1164294" lon="13.1735246"><ele>953.5</ele><time>2026-04-11T13:19:12.13Z</time></trkpt><trkpt lat="43.1163039" lon="13.1735196"><ele>957.0</ele><time>2026-04-11T13:19:13.131Z</time></trkpt><trkpt lat="43.1161744" lon="13.1735125"><ele>957.0</ele><time>2026-04-11T13:19:14.131Z</time></trkpt><trkpt lat="43.1160464" lon="13.1735088"><ele>957.0</ele><time>2026-04-11T13:19:15.131Z</time></trkpt><trkpt lat="43.1159144" lon="13.1735103"><ele>957.0</ele><time>2026-04-11T13:19:16.132Z</time></trkpt><trkpt lat="43.1157817" lon="13.1735169"><ele>957.0</ele><time>2026-04-11T13:19:17.129Z</time></trkpt><trkpt lat="43.1156432" lon="13.1735239"><ele>960.0</ele><time>2026-04-11T13:19:18.13Z</time></trkpt><trkpt lat="43.1155094" lon="13.1735156"><ele>963.0</ele><time>2026-04-11T13:19:19.13Z</time></trkpt><trkpt lat="43.1153851" lon="13.1735024"><ele>966.0</ele><time>2026-04-11T13:19:20.13Z</time></trkpt><trkpt lat="43.1152793" lon="13.1734928"><ele>969.0</ele><time>2026-04-11T13:19:21.131Z</time></trkpt><trkpt lat="43.1151918" lon="13.173488"><ele>968.9999999999999</ele><time>2026-04-11T13:19:22.131Z</time></trkpt><trkpt lat="43.1151165" lon="13.173485"><ele>969.0</ele><time>2026-04-11T13:19:23.129Z</time></trkpt><trkpt lat="43.115019" lon="13.1734318"><ele>968.9999999999999</ele><time>2026-04-11T13:19:25.132Z</time></trkpt><trkpt lat="43.1150088" lon="13.1733397"><ele>968.9999999999999</ele><time>2026-04-11T13:19:27.131Z</time></trkpt><trkpt lat="43.1150237" lon="13.1732426"><ele>969.0</ele><time>2026-04-11T13:19:29.129Z</time></trkpt><trkpt lat="43.1150498" lon="13.1731635"><ele>968.9999999999999</ele><time>2026-04-11T13:19:32.13Z</time></trkpt><trkpt lat="43.1150654" lon="13.1730771"><ele>968.9999999999999</ele><time>2026-04-11T13:20:51.129Z</time></trkpt><trkpt lat="43.1151276" lon="13.1729144"><ele>967.8000000000001</ele><time>2026-04-11T13:20:53.13Z</time></trkpt><trkpt lat="43.1151538" lon="13.1728043"><ele>966.6000000000001</ele><time>2026-04-11T13:20:54.13Z</time></trkpt><trkpt lat="43.1151769" lon="13.1726688"><ele>965.4</ele><time>2026-04-11T13:20:55.131Z</time></trkpt><trkpt lat="43.1151923" lon="13.1725315"><ele>964.2</ele><time>2026-04-11T13:20:56.13Z</time></trkpt><trkpt lat="43.1152096" lon="13.1724003"><ele>963.0</ele><time>2026-04-11T13:20:57.129Z</time></trkpt><trkpt lat="43.115228" lon="13.1722739"><ele>961.75</ele><time>2026-04-11T13:20:58.131Z</time></trkpt><trkpt lat="43.1152272" lon="13.1721554"><ele>960.5</ele><time>2026-04-11T13:20:59.129Z</time></trkpt><trkpt lat="43.1152179" lon="13.1720001"><ele>959.25</ele><time>2026-04-11T13:21:00.13Z</time></trkpt><trkpt lat="43.1152068" lon="13.1718254"><ele>958.0</ele><time>2026-04-11T13:21:01.129Z</time></trkpt><trkpt lat="43.1152092" lon="13.1716292"><ele>957.3333333333333</ele><time>2026-04-11T13:21:02.129Z</time></trkpt><trkpt lat="43.1152176" lon="13.1714225"><ele>956.6666666666667</ele><time>2026-04-11T13:21:03.131Z</time></trkpt><trkpt lat="43.1152216" lon="13.1712073"><ele>956.0</ele><time>2026-04-11T13:21:04.13Z</time></trkpt><trkpt lat="43.115217" lon="13.1710003"><ele>956.0</ele><time>2026-04-11T13:21:05.131Z</time></trkpt><trkpt lat="43.1152097" lon="13.170784"><ele>956.0</ele><time>2026-04-11T13:21:06.131Z</time></trkpt><trkpt lat="43.1151997" lon="13.1705745"><ele>956.0</ele><time>2026-04-11T13:21:07.13Z</time></trkpt><trkpt lat="43.1151976" lon="13.1703758"><ele>955.25</ele><time>2026-04-11T13:21:08.13Z</time></trkpt><trkpt lat="43.1151914" lon="13.1701826"><ele>954.5</ele><time>2026-04-11T13:21:09.131Z</time></trkpt><trkpt lat="43.1151755" lon="13.1699775"><ele>953.75</ele><time>2026-04-11T13:21:10.131Z</time></trkpt><trkpt lat="43.1151692" lon="13.1697911"><ele>953.0</ele><time>2026-04-11T13:21:11.131Z</time></trkpt><trkpt lat="43.1151696" lon="13.1695939"><ele>951.6666666666667</ele><time>2026-04-11T13:21:12.131Z</time></trkpt><trkpt lat="43.1151714" lon="13.1693774"><ele>950.3333333333333</ele><time>2026-04-11T13:21:13.13Z</time></trkpt><trkpt lat="43.1151712" lon="13.1691528"><ele>949.0</ele><time>2026-04-11T13:21:14.132Z</time></trkpt><trkpt lat="43.1151661" lon="13.168929"><ele>948.3333333333333</ele><time>2026-04-11T13:21:15.131Z</time></trkpt><trkpt lat="43.1151697" lon="13.1687098"><ele>947.6666666666667</ele><time>2026-04-11T13:21:16.131Z</time></trkpt><trkpt lat="43.1151983" lon="13.1685092"><ele>947.0</ele><time>2026-04-11T13:21:17.13Z</time></trkpt><trkpt lat="43.1152319" lon="13.1682853"><ele>945.0</ele><time>2026-04-11T13:21:18.131Z</time></trkpt><trkpt lat="43.115268" lon="13.1680587"><ele>943.0</ele><time>2026-04-11T13:21:19.131Z</time></trkpt><trkpt lat="43.1152947" lon="13.1678243"><ele>941.0</ele><time>2026-04-11T13:21:20.13Z</time></trkpt><trkpt lat="43.1153079" lon="13.1676059"><ele>941.0</ele><time>2026-04-11T13:21:21.131Z</time></trkpt><trkpt lat="43.1153104" lon="13.1673796"><ele>941.0</ele><time>2026-04-11T13:21:22.131Z</time></trkpt><trkpt lat="43.1153105" lon="13.1671558"><ele>941.0</ele><time>2026-04-11T13:21:23.129Z</time></trkpt><trkpt lat="43.1153086" lon="13.1669568"><ele>940.1999999999999</ele><time>2026-04-11T13:21:24.132Z</time></trkpt><trkpt lat="43.1152952" lon="13.1667774"><ele>939.3999999999999</ele><time>2026-04-11T13:21:25.13Z</time></trkpt><trkpt lat="43.1152865" lon="13.166631"><ele>938.6</ele><time>2026-04-11T13:21:26.129Z</time></trkpt><trkpt lat="43.115269" lon="13.1664993"><ele>937.8</ele><time>2026-04-11T13:21:27.13Z</time></trkpt><trkpt lat="43.1152459" lon="13.166409"><ele>937.0</ele><time>2026-04-11T13:21:28.13Z</time></trkpt><trkpt lat="43.1151765" lon="13.1662813"><ele>938.0</ele><time>2026-04-11T13:21:30.13Z</time></trkpt><trkpt lat="43.1151016" lon="13.1662559"><ele>939.0</ele><time>2026-04-11T13:21:31.13Z</time></trkpt><trkpt lat="43.1150157" lon="13.1662554"><ele>940.0</ele><time>2026-04-11T13:21:32.129Z</time></trkpt><trkpt lat="43.114921" lon="13.166278"><ele>941.0</ele><time>2026-04-11T13:21:33.13Z</time></trkpt><trkpt lat="43.1148164" lon="13.166321"><ele>942.0</ele><time>2026-04-11T13:21:34.129Z</time></trkpt><trkpt lat="43.1147053" lon="13.1663701"><ele>942.0</ele><time>2026-04-11T13:21:35.131Z</time></trkpt><trkpt lat="43.1145852" lon="13.1664234"><ele>942.0</ele><time>2026-04-11T13:21:36.13Z</time></trkpt><trkpt lat="43.114464" lon="13.1664796"><ele>942.0</ele><time>2026-04-11T13:21:37.13Z</time></trkpt><trkpt lat="43.1143394" lon="13.1665546"><ele>942.0</ele><time>2026-04-11T13:21:38.129Z</time></trkpt><trkpt lat="43.1142052" lon="13.1666388"><ele>949.0</ele><time>2026-04-11T13:21:39.13Z</time></trkpt><trkpt lat="43.1140558" lon="13.1667408"><ele>956.0</ele><time>2026-04-11T13:21:40.13Z</time></trkpt><trkpt lat="43.1138984" lon="13.1668535"><ele>963.0</ele><time>2026-04-11T13:21:41.131Z</time></trkpt><trkpt lat="43.1137171" lon="13.1669785"><ele>963.0</ele><time>2026-04-11T13:21:42.131Z</time></trkpt><trkpt lat="43.113525" lon="13.1671037"><ele>963.0</ele><time>2026-04-11T13:21:43.129Z</time></trkpt><trkpt lat="43.1133717" lon="13.1672016"><ele>963.0</ele><time>2026-04-11T13:21:44.13Z</time></trkpt><trkpt lat="43.1132337" lon="13.1672895"><ele>968.25</ele><time>2026-04-11T13:21:45.13Z</time></trkpt><trkpt lat="43.1131197" lon="13.1673719"><ele>973.5</ele><time>2026-04-11T13:21:46.129Z</time></trkpt><trkpt lat="43.1130273" lon="13.1674649"><ele>978.75</ele><time>2026-04-11T13:21:47.131Z</time></trkpt><trkpt lat="43.112948" lon="13.1675744"><ele>984.0</ele><time>2026-04-11T13:21:48.131Z</time></trkpt><trkpt lat="43.1128602" lon="13.1676829"><ele>984.0</ele><time>2026-04-11T13:21:49.13Z</time></trkpt><trkpt lat="43.1127704" lon="13.167781"><ele>984.0</ele><time>2026-04-11T13:21:50.13Z</time></trkpt><trkpt lat="43.1126614" lon="13.1678538"><ele>984.0</ele><time>2026-04-11T13:21:51.131Z</time></trkpt><trkpt lat="43.1125548" lon="13.1679368"><ele>984.0</ele><time>2026-04-11T13:21:52.13Z</time></trkpt><trkpt lat="43.1124411" lon="13.1680203"><ele>987.5</ele><time>2026-04-11T13:21:53.131Z</time></trkpt><trkpt lat="43.1123257" lon="13.1681138"><ele>991.0</ele><time>2026-04-11T13:21:54.13Z</time></trkpt><trkpt lat="43.112208" lon="13.1682088"><ele>994.5</ele><time>2026-04-11T13:21:55.131Z</time></trkpt><trkpt lat="43.112085" lon="13.1683121"><ele>998.0</ele><time>2026-04-11T13:21:56.132Z</time></trkpt><trkpt lat="43.1119554" lon="13.1684064"><ele>999.3333333333334</ele><time>2026-04-11T13:21:57.13Z</time></trkpt><trkpt lat="43.1118166" lon="13.1685084"><ele>1000.6666666666667</ele><time>2026-04-11T13:21:58.13Z</time></trkpt><trkpt lat="43.111673" lon="13.1686156"><ele>1002.0</ele><time>2026-04-11T13:21:59.131Z</time></trkpt><trkpt lat="43.11154" lon="13.1686996"><ele>1005.0</ele><time>2026-04-11T13:22:00.131Z</time></trkpt><trkpt lat="43.1114035" lon="13.1687683"><ele>1008.0</ele><time>2026-04-11T13:22:01.13Z</time></trkpt><trkpt lat="43.1112548" lon="13.1687953"><ele>1011.0</ele><time>2026-04-11T13:22:02.131Z</time></trkpt><trkpt lat="43.11111" lon="13.1688176"><ele>1014.0</ele><time>2026-04-11T13:22:03.129Z</time></trkpt><trkpt lat="43.1109953" lon="13.1688272"><ele>1014.0</ele><time>2026-04-11T13:22:04.131Z</time></trkpt><trkpt lat="43.1108922" lon="13.1688488"><ele>1014.0</ele><time>2026-04-11T13:22:05.129Z</time></trkpt><trkpt lat="43.1108281" lon="13.1688835"><ele>1014.0</ele><time>2026-04-11T13:22:06.129Z</time></trkpt><trkpt lat="43.1107723" lon="13.1689626"><ele>1014.0</ele><time>2026-04-11T13:22:07.131Z</time></trkpt><trkpt lat="43.1107339" lon="13.169075"><ele>1014.0</ele><time>2026-04-11T13:22:08.13Z</time></trkpt><trkpt lat="43.1107147" lon="13.1692093"><ele>1014.0</ele><time>2026-04-11T13:22:09.13Z</time></trkpt><trkpt lat="43.110694" lon="13.1693603"><ele>1013.3333333333334</ele><time>2026-04-11T13:22:10.131Z</time></trkpt><trkpt lat="43.1106692" lon="13.1695141"><ele>1012.6666666666667</ele><time>2026-04-11T13:22:11.129Z</time></trkpt><trkpt lat="43.110642" lon="13.1696285"><ele>1012.0</ele><time>2026-04-11T13:22:12.131Z</time></trkpt><trkpt lat="43.1106011" lon="13.1697295"><ele>1011.3333333333334</ele><time>2026-04-11T13:22:13.131Z</time></trkpt><trkpt lat="43.1105486" lon="13.169809"><ele>1010.6666666666667</ele><time>2026-04-11T13:22:14.132Z</time></trkpt><trkpt lat="43.1104868" lon="13.1698677"><ele>1010.0</ele><time>2026-04-11T13:22:15.131Z</time></trkpt><trkpt lat="43.1104105" lon="13.1699288"><ele>1008.6</ele><time>2026-04-11T13:22:16.131Z</time></trkpt><trkpt lat="43.1103275" lon="13.1699861"><ele>1007.2</ele><time>2026-04-11T13:22:17.13Z</time></trkpt><trkpt lat="43.1102407" lon="13.1700694"><ele>1005.8</ele><time>2026-04-11T13:22:18.131Z</time></trkpt><trkpt lat="43.1101604" lon="13.1701409"><ele>1004.4</ele><time>2026-04-11T13:22:19.13Z</time></trkpt><trkpt lat="43.1100768" lon="13.1702186"><ele>1003.0</ele><time>2026-04-11T13:22:20.131Z</time></trkpt><trkpt lat="43.109975" lon="13.1703005"><ele>1001.2</ele><time>2026-04-11T13:22:21.13Z</time></trkpt><trkpt lat="43.1098649" lon="13.1703815"><ele>999.4</ele><time>2026-04-11T13:22:22.131Z</time></trkpt><trkpt lat="43.1097602" lon="13.1704617"><ele>997.6000000000001</ele><time>2026-04-11T13:22:23.131Z</time></trkpt><trkpt lat="43.1096668" lon="13.170529"><ele>995.8000000000001</ele><time>2026-04-11T13:22:24.13Z</time></trkpt><trkpt lat="43.1095961" lon="13.1705843"><ele>994.0</ele><time>2026-04-11T13:22:25.131Z</time></trkpt><trkpt lat="43.1095152" lon="13.1706138"><ele>994.0</ele><time>2026-04-11T13:22:27.131Z</time></trkpt><trkpt lat="43.1094397" lon="13.1705181"><ele>994.0000000000001</ele><time>2026-04-11T13:22:29.131Z</time></trkpt><trkpt lat="43.1093906" lon="13.1704373"><ele>994.0000000000001</ele><time>2026-04-11T13:22:30.131Z</time></trkpt><trkpt lat="43.1093321" lon="13.1703439"><ele>994.0</ele><time>2026-04-11T13:22:31.131Z</time></trkpt><trkpt lat="43.1092768" lon="13.1702421"><ele>994.0</ele><time>2026-04-11T13:22:32.13Z</time></trkpt><trkpt lat="43.1092077" lon="13.1701273"><ele>994.0</ele><time>2026-04-11T13:22:33.13Z</time></trkpt><trkpt lat="43.1091344" lon="13.1700149"><ele>994.0000000000001</ele><time>2026-04-11T13:22:34.13Z</time></trkpt><trkpt lat="43.1090662" lon="13.1699067"><ele>994.0000000000001</ele><time>2026-04-11T13:22:35.129Z</time></trkpt><trkpt lat="43.1090133" lon="13.1698133"><ele>994.0</ele><time>2026-04-11T13:22:36.13Z</time></trkpt><trkpt lat="43.1089751" lon="13.169722"><ele>994.0</ele><time>2026-04-11T13:22:37.13Z</time></trkpt><trkpt lat="43.108942" lon="13.1696314"><ele>992.3333333333333</ele><time>2026-04-11T13:22:38.129Z</time></trkpt><trkpt lat="43.1089022" lon="13.1695361"><ele>990.6666666666666</ele><time>2026-04-11T13:22:39.13Z</time></trkpt><trkpt lat="43.1088577" lon="13.1694364"><ele>989.0</ele><time>2026-04-11T13:22:40.13Z</time></trkpt><trkpt lat="43.1088085" lon="13.1693297"><ele>987.3333333333333</ele><time>2026-04-11T13:22:41.13Z</time></trkpt><trkpt lat="43.1087734" lon="13.1692159"><ele>985.6666666666666</ele><time>2026-04-11T13:22:42.13Z</time></trkpt><trkpt lat="43.1087242" lon="13.1691032"><ele>984.0</ele><time>2026-04-11T13:22:43.13Z</time></trkpt><trkpt lat="43.1086736" lon="13.1689928"><ele>982.1666666666666</ele><time>2026-04-11T13:22:44.13Z</time></trkpt><trkpt lat="43.1086258" lon="13.1688951"><ele>980.3333333333333</ele><time>2026-04-11T13:22:45.131Z</time></trkpt><trkpt lat="43.1085838" lon="13.1688018"><ele>978.5</ele><time>2026-04-11T13:22:46.131Z</time></trkpt><trkpt lat="43.1085514" lon="13.168723"><ele>976.6666666666666</ele><time>2026-04-11T13:22:47.129Z</time></trkpt><trkpt lat="43.1084766" lon="13.1685845"><ele>974.8333333333333</ele><time>2026-04-11T13:22:49.13Z</time></trkpt><trkpt lat="43.1084414" lon="13.168494"><ele>973.0</ele><time>2026-04-11T13:22:50.13Z</time></trkpt><trkpt lat="43.1083953" lon="13.1684042"><ele>972.9999999999999</ele><time>2026-04-11T13:22:51.129Z</time></trkpt><trkpt lat="43.1083583" lon="13.1683182"><ele>973.0</ele><time>2026-04-11T13:22:52.13Z</time></trkpt><trkpt lat="43.1083106" lon="13.1682291"><ele>973.0</ele><time>2026-04-11T13:22:53.132Z</time></trkpt><trkpt lat="43.1082489" lon="13.168155"><ele>973.0</ele><time>2026-04-11T13:22:54.131Z</time></trkpt><trkpt lat="43.1081919" lon="13.1680657"><ele>972.9999999999999</ele><time>2026-04-11T13:22:55.129Z</time></trkpt><trkpt lat="43.1081612" lon="13.1679732"><ele>973.0</ele><time>2026-04-11T13:22:56.13Z</time></trkpt><trkpt lat="43.1081244" lon="13.1678803"><ele>970.0</ele><time>2026-04-11T13:22:57.131Z</time></trkpt><trkpt lat="43.1080701" lon="13.1677517"><ele>967.0</ele><time>2026-04-11T13:22:58.131Z</time></trkpt><trkpt lat="43.1080167" lon="13.1676414"><ele>964.0</ele><time>2026-04-11T13:22:59.131Z</time></trkpt><trkpt lat="43.1079681" lon="13.1675292"><ele>961.0</ele><time>2026-04-11T13:23:00.129Z</time></trkpt><trkpt lat="43.1079201" lon="13.1674341"><ele>958.0</ele><time>2026-04-11T13:23:01.131Z</time></trkpt><trkpt lat="43.1078799" lon="13.1673529"><ele>955.5999999999999</ele><time>2026-04-11T13:23:02.132Z</time></trkpt><trkpt lat="43.1078296" lon="13.1672906"><ele>953.1999999999999</ele><time>2026-04-11T13:23:03.13Z</time></trkpt><trkpt lat="43.1077287" lon="13.1672112"><ele>950.8</ele><time>2026-04-11T13:23:05.13Z</time></trkpt><trkpt lat="43.107631" lon="13.1671175"><ele>948.4</ele><time>2026-04-11T13:23:07.13Z</time></trkpt><trkpt lat="43.1075667" lon="13.1670535"><ele>946.0</ele><time>2026-04-11T13:23:09.132Z</time></trkpt><trkpt lat="43.1074988" lon="13.1670253"><ele>945.9999999999999</ele><time>2026-04-11T13:23:16.13Z</time></trkpt><trkpt lat="43.1074176" lon="13.167"><ele>946.0</ele><time>2026-04-11T13:23:18.13Z</time></trkpt><trkpt lat="43.1072934" lon="13.1669908"><ele>946.0</ele><time>2026-04-11T13:23:20.13Z</time></trkpt><trkpt lat="43.1072215" lon="13.166967"><ele>946.0</ele><time>2026-04-11T13:23:21.129Z</time></trkpt><trkpt lat="43.1071498" lon="13.1669463"><ele>945.9999999999999</ele><time>2026-04-11T13:23:22.131Z</time></trkpt><trkpt lat="43.1070864" lon="13.1669404"><ele>946.0</ele><time>2026-04-11T13:23:23.13Z</time></trkpt><trkpt lat="43.1070217" lon="13.1668986"><ele>945.9999999999999</ele><time>2026-04-11T13:23:24.129Z</time></trkpt><trkpt lat="43.106961" lon="13.1668521"><ele>946.0</ele><time>2026-04-11T13:23:25.13Z</time></trkpt><trkpt lat="43.1069008" lon="13.1667854"><ele>946.0</ele><time>2026-04-11T13:23:26.13Z</time></trkpt><trkpt lat="43.1068386" lon="13.1667202"><ele>946.0</ele><time>2026-04-11T13:23:27.131Z</time></trkpt><trkpt lat="43.1067632" lon="13.1666776"><ele>945.9999999999999</ele><time>2026-04-11T13:23:28.129Z</time></trkpt><trkpt lat="43.106682" lon="13.166643"><ele>946.0</ele><time>2026-04-11T13:23:29.13Z</time></trkpt><trkpt lat="43.1065833" lon="13.1666128"><ele>944.1999999999999</ele><time>2026-04-11T13:23:30.132Z</time></trkpt><trkpt lat="43.1064874" lon="13.1665538"><ele>942.3999999999999</ele><time>2026-04-11T13:23:31.13Z</time></trkpt><trkpt lat="43.1063962" lon="13.1665102"><ele>940.6</ele><time>2026-04-11T13:23:32.13Z</time></trkpt><trkpt lat="43.1062954" lon="13.1664504"><ele>938.8</ele><time>2026-04-11T13:23:33.129Z</time></trkpt><trkpt lat="43.1061891" lon="13.1663959"><ele>937.0</ele><time>2026-04-11T13:23:34.13Z</time></trkpt><trkpt lat="43.1060898" lon="13.1663397"><ele>937.0</ele><time>2026-04-11T13:23:35.131Z</time></trkpt><trkpt lat="43.1060061" lon="13.1663038"><ele>937.0</ele><time>2026-04-11T13:23:36.13Z</time></trkpt><trkpt lat="43.1059034" lon="13.1662632"><ele>937.0</ele><time>2026-04-11T13:23:37.13Z</time></trkpt><trkpt lat="43.1058077" lon="13.1662186"><ele>937.0</ele><time>2026-04-11T13:23:38.131Z</time></trkpt><trkpt lat="43.1057187" lon="13.1661818"><ele>937.0</ele><time>2026-04-11T13:23:39.131Z</time></trkpt><trkpt lat="43.1056299" lon="13.1661257"><ele>938.8</ele><time>2026-04-11T13:23:40.13Z</time></trkpt><trkpt lat="43.1055373" lon="13.166067"><ele>940.6</ele><time>2026-04-11T13:23:41.13Z</time></trkpt><trkpt lat="43.105451" lon="13.1660208"><ele>942.3999999999999</ele><time>2026-04-11T13:23:42.13Z</time></trkpt><trkpt lat="43.1053655" lon="13.1659666"><ele>944.1999999999999</ele><time>2026-04-11T13:23:43.13Z</time></trkpt><trkpt lat="43.1052881" lon="13.1659278"><ele>946.0</ele><time>2026-04-11T13:23:44.132Z</time></trkpt><trkpt lat="43.1052141" lon="13.1658794"><ele>946.0</ele><time>2026-04-11T13:23:45.131Z</time></trkpt><trkpt lat="43.1051394" lon="13.165834"><ele>945.9999999999999</ele><time>2026-04-11T13:23:46.13Z</time></trkpt><trkpt lat="43.1050449" lon="13.1658021"><ele>945.9999999999999</ele><time>2026-04-11T13:23:47.13Z</time></trkpt><trkpt lat="43.1049522" lon="13.1657722"><ele>946.0</ele><time>2026-04-11T13:23:48.13Z</time></trkpt><trkpt lat="43.1048484" lon="13.1657337"><ele>946.0</ele><time>2026-04-11T13:23:49.13Z</time></trkpt><trkpt lat="43.1047393" lon="13.1656976"><ele>942.0</ele><time>2026-04-11T13:23:50.131Z</time></trkpt><trkpt lat="43.104629" lon="13.165662"><ele>937.9999999999999</ele><time>2026-04-11T13:23:51.13Z</time></trkpt><trkpt lat="43.1045255" lon="13.1656407"><ele>933.9999999999999</ele><time>2026-04-11T13:23:52.13Z</time></trkpt><trkpt lat="43.104426" lon="13.1656414"><ele>930.0</ele><time>2026-04-11T13:23:53.13Z</time></trkpt><trkpt lat="43.1043314" lon="13.1656516"><ele>926.0</ele><time>2026-04-11T13:23:54.131Z</time></trkpt><trkpt lat="43.1042318" lon="13.1656678"><ele>926.0</ele><time>2026-04-11T13:23:55.129Z</time></trkpt><trkpt lat="43.1041336" lon="13.1656928"><ele>925.9999999999999</ele><time>2026-04-11T13:23:56.13Z</time></trkpt><trkpt lat="43.104046" lon="13.1657257"><ele>925.9999999999999</ele><time>2026-04-11T13:23:57.129Z</time></trkpt><trkpt lat="43.1039592" lon="13.1657697"><ele>926.0</ele><time>2026-04-11T13:23:58.131Z</time></trkpt><trkpt lat="43.1038841" lon="13.1658138"><ele>926.0</ele><time>2026-04-11T13:23:59.13Z</time></trkpt><trkpt lat="43.103807" lon="13.165883"><ele>926.4</ele><time>2026-04-11T13:24:00.13Z</time></trkpt><trkpt lat="43.1037274" lon="13.165952"><ele>926.8</ele><time>2026-04-11T13:24:01.13Z</time></trkpt><trkpt lat="43.1036543" lon="13.1660429"><ele>927.1999999999999</ele><time>2026-04-11T13:24:02.129Z</time></trkpt><trkpt lat="43.103583" lon="13.1661184"><ele>927.5999999999999</ele><time>2026-04-11T13:24:03.129Z</time></trkpt><trkpt lat="43.1035031" lon="13.1661905"><ele>928.0</ele><time>2026-04-11T13:24:04.13Z</time></trkpt><trkpt lat="43.1034363" lon="13.166268"><ele>928.0</ele><time>2026-04-11T13:24:05.132Z</time></trkpt><trkpt lat="43.1033495" lon="13.1663487"><ele>928.0</ele><time>2026-04-11T13:24:06.132Z</time></trkpt><trkpt lat="43.103266" lon="13.1664363"><ele>928.0</ele><time>2026-04-11T13:24:07.13Z</time></trkpt><trkpt lat="43.1031921" lon="13.1665467"><ele>928.0</ele><time>2026-04-11T13:24:08.131Z</time></trkpt><trkpt lat="43.1031086" lon="13.16664"><ele>928.0</ele><time>2026-04-11T13:24:09.129Z</time></trkpt><trkpt lat="43.1030309" lon="13.1667237"><ele>927.4999999999999</ele><time>2026-04-11T13:24:10.131Z</time></trkpt><trkpt lat="43.1029644" lon="13.1667924"><ele>927.0</ele><time>2026-04-11T13:24:11.129Z</time></trkpt><trkpt lat="43.102912" lon="13.1668696"><ele>926.5</ele><time>2026-04-11T13:24:12.129Z</time></trkpt><trkpt lat="43.1028402" lon="13.1669661"><ele>926.0</ele><time>2026-04-11T13:24:13.129Z</time></trkpt><trkpt lat="43.102764" lon="13.1670232"><ele>925.4999999999999</ele><time>2026-04-11T13:24:14.13Z</time></trkpt><trkpt lat="43.1026782" lon="13.1670827"><ele>925.0</ele><time>2026-04-11T13:24:15.129Z</time></trkpt><trkpt lat="43.1025801" lon="13.1671156"><ele>925.0</ele><time>2026-04-11T13:24:16.131Z</time></trkpt><trkpt lat="43.1024769" lon="13.1671254"><ele>925.0</ele><time>2026-04-11T13:24:17.131Z</time></trkpt><trkpt lat="43.1023709" lon="13.1671385"><ele>925.0</ele><time>2026-04-11T13:24:18.13Z</time></trkpt><trkpt lat="43.1022643" lon="13.1671519"><ele>925.0</ele><time>2026-04-11T13:24:19.131Z</time></trkpt><trkpt lat="43.1021789" lon="13.167184"><ele>925.0</ele><time>2026-04-11T13:24:20.13Z</time></trkpt><trkpt lat="43.1020816" lon="13.1672114"><ele>925.2</ele><time>2026-04-11T13:24:22.131Z</time></trkpt><trkpt lat="43.1020006" lon="13.167232"><ele>925.4</ele><time>2026-04-11T13:24:30.129Z</time></trkpt><trkpt lat="43.1018655" lon="13.1673129"><ele>925.5999999999999</ele><time>2026-04-11T13:24:32.131Z</time></trkpt><trkpt lat="43.1017809" lon="13.1673548"><ele>925.8</ele><time>2026-04-11T13:24:33.129Z</time></trkpt><trkpt lat="43.1016932" lon="13.1673813"><ele>926.0</ele><time>2026-04-11T13:24:34.13Z</time></trkpt><trkpt lat="43.1016059" lon="13.1674202"><ele>921.5999999999999</ele><time>2026-04-11T13:24:35.13Z</time></trkpt><trkpt lat="43.1015241" lon="13.1675061"><ele>917.1999999999999</ele><time>2026-04-11T13:24:36.13Z</time></trkpt><trkpt lat="43.1014408" lon="13.1675639"><ele>912.8000000000001</ele><time>2026-04-11T13:24:37.13Z</time></trkpt><trkpt lat="43.1013534" lon="13.1676197"><ele>908.4000000000001</ele><time>2026-04-11T13:24:38.129Z</time></trkpt><trkpt lat="43.1012748" lon="13.1676745"><ele>904.0</ele><time>2026-04-11T13:24:39.13Z</time></trkpt><trkpt lat="43.1011947" lon="13.1677553"><ele>903.9999999999999</ele><time>2026-04-11T13:24:40.132Z</time></trkpt><trkpt lat="43.1011232" lon="13.1678269"><ele>904.0</ele><time>2026-04-11T13:24:41.132Z</time></trkpt><trkpt lat="43.1010609" lon="13.167872"><ele>904.0</ele><time>2026-04-11T13:24:42.131Z</time></trkpt><trkpt lat="43.1009902" lon="13.1679299"><ele>904.0</ele><time>2026-04-11T13:24:43.131Z</time></trkpt><trkpt lat="43.1009316" lon="13.1679969"><ele>903.9999999999999</ele><time>2026-04-11T13:24:44.131Z</time></trkpt><trkpt lat="43.1008718" lon="13.168053"><ele>904.0</ele><time>2026-04-11T13:24:45.131Z</time></trkpt><trkpt lat="43.1008049" lon="13.1681067"><ele>903.8000000000001</ele><time>2026-04-11T13:24:46.13Z</time></trkpt><trkpt lat="43.1007329" lon="13.1681681"><ele>903.6000000000001</ele><time>2026-04-11T13:24:47.13Z</time></trkpt><trkpt lat="43.1006637" lon="13.1682349"><ele>903.4</ele><time>2026-04-11T13:24:48.13Z</time></trkpt><trkpt lat="43.100582" lon="13.1682962"><ele>903.2</ele><time>2026-04-11T13:24:49.13Z</time></trkpt><trkpt lat="43.1004944" lon="13.1683421"><ele>903.0</ele><time>2026-04-11T13:24:50.13Z</time></trkpt><trkpt lat="43.1004026" lon="13.1683759"><ele>903.0</ele><time>2026-04-11T13:24:51.131Z</time></trkpt><trkpt lat="43.1002974" lon="13.1684051"><ele>903.0</ele><time>2026-04-11T13:24:52.13Z</time></trkpt><trkpt lat="43.1002044" lon="13.1684386"><ele>903.0</ele><time>2026-04-11T13:24:53.13Z</time></trkpt><trkpt lat="43.1001158" lon="13.1684812"><ele>903.0</ele><time>2026-04-11T13:24:54.129Z</time></trkpt><trkpt lat="43.1000397" lon="13.1685104"><ele>903.0</ele><time>2026-04-11T13:24:55.129Z</time></trkpt><trkpt lat="43.0999566" lon="13.1685125"><ele>898.6666666666666</ele><time>2026-04-11T13:24:56.13Z</time></trkpt><trkpt lat="43.0998828" lon="13.1685098"><ele>894.3333333333333</ele><time>2026-04-11T13:24:57.131Z</time></trkpt><trkpt lat="43.0998134" lon="13.1685225"><ele>890.0</ele><time>2026-04-11T13:24:58.129Z</time></trkpt><trkpt lat="43.0997463" lon="13.1685542"><ele>885.6666666666666</ele><time>2026-04-11T13:24:59.129Z</time></trkpt><trkpt lat="43.09968" lon="13.1685549"><ele>881.3333333333333</ele><time>2026-04-11T13:25:00.131Z</time></trkpt><trkpt lat="43.0995682" lon="13.1685835"><ele>877.0</ele><time>2026-04-11T13:25:02.13Z</time></trkpt><trkpt lat="43.0994573" lon="13.1686946"><ele>876.9999999999999</ele><time>2026-04-11T13:25:04.13Z</time></trkpt><trkpt lat="43.0993987" lon="13.1687597"><ele>877.0</ele><time>2026-04-11T13:25:05.13Z</time></trkpt><trkpt lat="43.0993268" lon="13.1688307"><ele>877.0</ele><time>2026-04-11T13:25:06.13Z</time></trkpt><trkpt lat="43.0992614" lon="13.1689049"><ele>877.0</ele><time>2026-04-11T13:25:07.131Z</time></trkpt><trkpt lat="43.0992086" lon="13.1689935"><ele>876.9999999999999</ele><time>2026-04-11T13:25:08.13Z</time></trkpt><trkpt lat="43.0991432" lon="13.1690667"><ele>877.0</ele><time>2026-04-11T13:25:09.13Z</time></trkpt><trkpt lat="43.0990825" lon="13.1691245"><ele>873.8571428571429</ele><time>2026-04-11T13:25:10.131Z</time></trkpt><trkpt lat="43.0990172" lon="13.1691736"><ele>870.7142857142858</ele><time>2026-04-11T13:25:11.129Z</time></trkpt><trkpt lat="43.0989494" lon="13.1692105"><ele>867.5714285714287</ele><time>2026-04-11T13:25:12.13Z</time></trkpt><trkpt lat="43.0988899" lon="13.1692502"><ele>864.4285714285714</ele><time>2026-04-11T13:25:13.131Z</time></trkpt><trkpt lat="43.0988298" lon="13.169306"><ele>861.2857142857142</ele><time>2026-04-11T13:25:14.129Z</time></trkpt><trkpt lat="43.098829" lon="13.1694162"><ele>858.1428571428572</ele><time>2026-04-11T13:25:16.13Z</time></trkpt><trkpt lat="43.0987982" lon="13.169503"><ele>855.0</ele><time>2026-04-11T13:25:18.13Z</time></trkpt><trkpt lat="43.0987039" lon="13.1695289"><ele>855.0</ele><time>2026-04-11T13:25:20.129Z</time></trkpt><trkpt lat="43.0986108" lon="13.1696253"><ele>855.0</ele><time>2026-04-11T13:25:22.131Z</time></trkpt><trkpt lat="43.0985541" lon="13.1696931"><ele>855.0</ele><time>2026-04-11T13:25:23.131Z</time></trkpt><trkpt lat="43.0984898" lon="13.1697629"><ele>855.0</ele><time>2026-04-11T13:25:24.131Z</time></trkpt><trkpt lat="43.0984211" lon="13.1698561"><ele>855.0</ele><time>2026-04-11T13:25:25.13Z</time></trkpt><trkpt lat="43.0983549" lon="13.1699501"><ele>851.8</ele><time>2026-04-11T13:25:26.131Z</time></trkpt><trkpt lat="43.098284" lon="13.1700244"><ele>848.6</ele><time>2026-04-11T13:25:27.129Z</time></trkpt><trkpt lat="43.0982194" lon="13.1701152"><ele>845.4000000000001</ele><time>2026-04-11T13:25:28.13Z</time></trkpt><trkpt lat="43.0981553" lon="13.1702207"><ele>842.2</ele><time>2026-04-11T13:25:29.13Z</time></trkpt><trkpt lat="43.0980915" lon="13.1703142"><ele>839.0</ele><time>2026-04-11T13:25:30.129Z</time></trkpt><trkpt lat="43.0980199" lon="13.1703872"><ele>839.0000000000001</ele><time>2026-04-11T13:25:31.131Z</time></trkpt><trkpt lat="43.0979538" lon="13.1704718"><ele>839.0</ele><time>2026-04-11T13:25:32.131Z</time></trkpt><trkpt lat="43.0978868" lon="13.1705669"><ele>839.0</ele><time>2026-04-11T13:25:33.129Z</time></trkpt><trkpt lat="43.0978269" lon="13.1706641"><ele>839.0</ele><time>2026-04-11T13:25:34.131Z</time></trkpt><trkpt lat="43.0977681" lon="13.1707261"><ele>839.0000000000001</ele><time>2026-04-11T13:25:35.131Z</time></trkpt><trkpt lat="43.0976927" lon="13.1707876"><ele>839.0</ele><time>2026-04-11T13:25:36.13Z</time></trkpt><trkpt lat="43.0976001" lon="13.1708824"><ele>837.2</ele><time>2026-04-11T13:25:38.129Z</time></trkpt><trkpt lat="43.0975292" lon="13.1709653"><ele>835.4000000000001</ele><time>2026-04-11T13:25:41.129Z</time></trkpt><trkpt lat="43.0974461" lon="13.1710317"><ele>833.6</ele><time>2026-04-11T13:25:43.131Z</time></trkpt><trkpt lat="43.0973243" lon="13.1710878"><ele>831.8</ele><time>2026-04-11T13:25:45.13Z</time></trkpt><trkpt lat="43.0972465" lon="13.1711041"><ele>830.0</ele><time>2026-04-11T13:25:46.129Z</time></trkpt><trkpt lat="43.0971697" lon="13.1711193"><ele>830.0000000000001</ele><time>2026-04-11T13:25:47.132Z</time></trkpt><trkpt lat="43.0970924" lon="13.1711342"><ele>830.0</ele><time>2026-04-11T13:25:48.13Z</time></trkpt><trkpt lat="43.0970067" lon="13.1711532"><ele>830.0</ele><time>2026-04-11T13:25:49.13Z</time></trkpt><trkpt lat="43.0969372" lon="13.171197"><ele>830.0</ele><time>2026-04-11T13:25:50.13Z</time></trkpt><trkpt lat="43.0968626" lon="13.1712409"><ele>830.0000000000001</ele><time>2026-04-11T13:25:51.129Z</time></trkpt><trkpt lat="43.0967894" lon="13.17127"><ele>830.0</ele><time>2026-04-11T13:25:52.13Z</time></trkpt><trkpt lat="43.0967142" lon="13.1712985"><ele>830.0000000000001</ele><time>2026-04-11T13:25:53.131Z</time></trkpt><trkpt lat="43.0966471" lon="13.1713285"><ele>830.0</ele><time>2026-04-11T13:25:54.131Z</time></trkpt><trkpt lat="43.0965821" lon="13.171371"><ele>830.0</ele><time>2026-04-11T13:25:55.131Z</time></trkpt><trkpt lat="43.0965096" lon="13.1714168"><ele>830.0</ele><time>2026-04-11T13:25:56.129Z</time></trkpt><trkpt lat="43.0964406" lon="13.1714586"><ele>830.0000000000001</ele><time>2026-04-11T13:25:57.13Z</time></trkpt><trkpt lat="43.0963716" lon="13.1714988"><ele>830.0</ele><time>2026-04-11T13:25:58.13Z</time></trkpt><trkpt lat="43.0962992" lon="13.1715505"><ele>832.1666666666667</ele><time>2026-04-11T13:25:59.129Z</time></trkpt><trkpt lat="43.0962291" lon="13.1716081"><ele>834.3333333333334</ele><time>2026-04-11T13:26:00.13Z</time></trkpt><trkpt lat="43.0961674" lon="13.1716638"><ele>836.5</ele><time>2026-04-11T13:26:01.13Z</time></trkpt><trkpt lat="43.0960998" lon="13.1717921"><ele>838.6666666666667</ele><time>2026-04-11T13:26:03.131Z</time></trkpt><trkpt lat="43.0960871" lon="13.1718828"><ele>840.8333333333334</ele><time>2026-04-11T13:26:04.13Z</time></trkpt><trkpt lat="43.0960747" lon="13.1719735"><ele>843.0</ele><time>2026-04-11T13:26:05.13Z</time></trkpt><trkpt lat="43.0960295" lon="13.1721121"><ele>843.0</ele><time>2026-04-11T13:26:07.132Z</time></trkpt><trkpt lat="43.0959618" lon="13.1721201"><ele>843.0</ele><time>2026-04-11T13:26:09.131Z</time></trkpt><trkpt lat="43.0958872" lon="13.1720459"><ele>843.0</ele><time>2026-04-11T13:26:11.129Z</time></trkpt><trkpt lat="43.0958071" lon="13.1719794"><ele>843.0</ele><time>2026-04-11T13:26:12.132Z</time></trkpt><trkpt lat="43.0957327" lon="13.1719275"><ele>843.0</ele><time>2026-04-11T13:26:13.131Z</time></trkpt><trkpt lat="43.0956657" lon="13.1718722"><ele>843.0</ele><time>2026-04-11T13:26:14.129Z</time></trkpt><trkpt lat="43.095617" lon="13.1717991"><ele>846.4</ele><time>2026-04-11T13:26:15.13Z</time></trkpt><trkpt lat="43.0955599" lon="13.1717063"><ele>849.8</ele><time>2026-04-11T13:26:16.13Z</time></trkpt><trkpt lat="43.0955179" lon="13.1716082"><ele>853.2</ele><time>2026-04-11T13:26:17.129Z</time></trkpt><trkpt lat="43.0954759" lon="13.1714872"><ele>856.6</ele><time>2026-04-11T13:26:18.131Z</time></trkpt><trkpt lat="43.0954256" lon="13.1713656"><ele>860.0</ele><time>2026-04-11T13:26:19.129Z</time></trkpt><trkpt lat="43.0953606" lon="13.1712601"><ele>860.0</ele><time>2026-04-11T13:26:20.131Z</time></trkpt><trkpt lat="43.0952884" lon="13.1711656"><ele>860.0</ele><time>2026-04-11T13:26:21.129Z</time></trkpt><trkpt lat="43.0952175" lon="13.1710674"><ele>860.0</ele><time>2026-04-11T13:26:22.13Z</time></trkpt><trkpt lat="43.0951515" lon="13.1709572"><ele>860.0</ele><time>2026-04-11T13:26:23.131Z</time></trkpt><trkpt lat="43.095096" lon="13.1708344"><ele>860.0</ele><time>2026-04-11T13:26:24.132Z</time></trkpt><trkpt lat="43.0950406" lon="13.1707104"><ele>857.4</ele><time>2026-04-11T13:26:25.13Z</time></trkpt><trkpt lat="43.0949868" lon="13.1705905"><ele>854.8</ele><time>2026-04-11T13:26:26.13Z</time></trkpt><trkpt lat="43.0949324" lon="13.1704762"><ele>852.2</ele><time>2026-04-11T13:26:27.129Z</time></trkpt><trkpt lat="43.0949075" lon="13.1703402"><ele>849.6</ele><time>2026-04-11T13:26:28.13Z</time></trkpt><trkpt lat="43.0948706" lon="13.1702333"><ele>847.0</ele><time>2026-04-11T13:26:29.13Z</time></trkpt><trkpt lat="43.0948296" lon="13.1700777"><ele>854.9999999999999</ele><time>2026-04-11T13:26:31.129Z</time></trkpt><trkpt lat="43.0948023" lon="13.1699745"><ele>863.0</ele><time>2026-04-11T13:26:32.129Z</time></trkpt><trkpt lat="43.0947822" lon="13.1698857"><ele>871.0</ele><time>2026-04-11T13:26:33.13Z</time></trkpt><trkpt lat="43.0947685" lon="13.1697822"><ele>879.0</ele><time>2026-04-11T13:26:35.13Z</time></trkpt><trkpt lat="43.0947434" lon="13.1696782"><ele>886.9999999999999</ele><time>2026-04-11T13:26:37.131Z</time></trkpt><trkpt lat="43.0946766" lon="13.1695399"><ele>895.0</ele><time>2026-04-11T13:26:39.131Z</time></trkpt><trkpt lat="43.0946488" lon="13.1694307"><ele>895.0</ele><time>2026-04-11T13:26:40.13Z</time></trkpt><trkpt lat="43.0946022" lon="13.1692959"><ele>895.0</ele><time>2026-04-11T13:26:41.131Z</time></trkpt><trkpt lat="43.0945658" lon="13.1691725"><ele>895.0</ele><time>2026-04-11T13:26:42.13Z</time></trkpt><trkpt lat="43.0945266" lon="13.1690429"><ele>895.0</ele><time>2026-04-11T13:26:43.13Z</time></trkpt><trkpt lat="43.0944801" lon="13.1689045"><ele>895.0</ele><time>2026-04-11T13:26:44.13Z</time></trkpt><trkpt lat="43.0944349" lon="13.1687672"><ele>891.75</ele><time>2026-04-11T13:26:45.13Z</time></trkpt><trkpt lat="43.0943923" lon="13.1686219"><ele>888.5</ele><time>2026-04-11T13:26:46.13Z</time></trkpt><trkpt lat="43.094342" lon="13.168461"><ele>885.25</ele><time>2026-04-11T13:26:47.129Z</time></trkpt><trkpt lat="43.094298" lon="13.1683105"><ele>882.0</ele><time>2026-04-11T13:26:48.13Z</time></trkpt><trkpt lat="43.0942692" lon="13.1681585"><ele>880.0</ele><time>2026-04-11T13:26:49.13Z</time></trkpt><trkpt lat="43.0942292" lon="13.1679851"><ele>878.0</ele><time>2026-04-11T13:26:50.131Z</time></trkpt><trkpt lat="43.0941921" lon="13.1678195"><ele>876.0</ele><time>2026-04-11T13:26:51.13Z</time></trkpt><trkpt lat="43.0941627" lon="13.1676486"><ele>874.0</ele><time>2026-04-11T13:26:52.131Z</time></trkpt><trkpt lat="43.0941232" lon="13.1674861"><ele>872.75</ele><time>2026-04-11T13:26:53.129Z</time></trkpt><trkpt lat="43.0940996" lon="13.1673157"><ele>871.5</ele><time>2026-04-11T13:26:54.13Z</time></trkpt><trkpt lat="43.0940774" lon="13.1671376"><ele>870.25</ele><time>2026-04-11T13:26:55.13Z</time></trkpt><trkpt lat="43.0940526" lon="13.1669524"><ele>869.0</ele><time>2026-04-11T13:26:56.13Z</time></trkpt><trkpt lat="43.0940331" lon="13.1667813"><ele>883.25</ele><time>2026-04-11T13:26:57.13Z</time></trkpt><trkpt lat="43.0940056" lon="13.1665923"><ele>897.5</ele><time>2026-04-11T13:26:58.13Z</time></trkpt><trkpt lat="43.0939819" lon="13.1663801"><ele>911.75</ele><time>2026-04-11T13:26:59.131Z</time></trkpt><trkpt lat="43.0939583" lon="13.1661825"><ele>926.0</ele><time>2026-04-11T13:27:00.131Z</time></trkpt><trkpt lat="43.093932" lon="13.1659873"><ele>926.0</ele><time>2026-04-11T13:27:01.129Z</time></trkpt><trkpt lat="43.0939131" lon="13.1657889"><ele>926.0</ele><time>2026-04-11T13:27:02.129Z</time></trkpt><trkpt lat="43.0939003" lon="13.1655987"><ele>926.0</ele><time>2026-04-11T13:27:03.13Z</time></trkpt><trkpt lat="43.093886" lon="13.1654238"><ele>926.0</ele><time>2026-04-11T13:27:04.13Z</time></trkpt><trkpt lat="43.0938711" lon="13.1652563"><ele>925.75</ele><time>2026-04-11T13:27:05.131Z</time></trkpt><trkpt lat="43.0938585" lon="13.165093"><ele>925.5</ele><time>2026-04-11T13:27:06.132Z</time></trkpt><trkpt lat="43.0938464" lon="13.1649252"><ele>925.25</ele><time>2026-04-11T13:27:07.129Z</time></trkpt><trkpt lat="43.0938234" lon="13.1647811"><ele>925.0</ele><time>2026-04-11T13:27:08.131Z</time></trkpt><trkpt lat="43.0938099" lon="13.1646166"><ele>924.5</ele><time>2026-04-11T13:27:09.129Z</time></trkpt><trkpt lat="43.0937943" lon="13.1644637"><ele>924.0</ele><time>2026-04-11T13:27:10.131Z</time></trkpt><trkpt lat="43.0937883" lon="13.1642945"><ele>923.5</ele><time>2026-04-11T13:27:11.13Z</time></trkpt><trkpt lat="43.0937606" lon="13.1641286"><ele>923.0</ele><time>2026-04-11T13:27:12.13Z</time></trkpt><trkpt lat="43.093757" lon="13.163971"><ele>922.2</ele><time>2026-04-11T13:27:13.13Z</time></trkpt><trkpt lat="43.0937478" lon="13.1638163"><ele>921.4</ele><time>2026-04-11T13:27:14.132Z</time></trkpt><trkpt lat="43.0937419" lon="13.1636771"><ele>920.6000000000001</ele><time>2026-04-11T13:27:15.13Z</time></trkpt><trkpt lat="43.0937322" lon="13.1635489"><ele>919.8000000000001</ele><time>2026-04-11T13:27:16.129Z</time></trkpt><trkpt lat="43.0937251" lon="13.1634135"><ele>919.0</ele><time>2026-04-11T13:27:17.129Z</time></trkpt><trkpt lat="43.093704" lon="13.163266"><ele>917.4000000000001</ele><time>2026-04-11T13:27:18.131Z</time></trkpt><trkpt lat="43.0936962" lon="13.1631123"><ele>915.8000000000001</ele><time>2026-04-11T13:27:19.131Z</time></trkpt><trkpt lat="43.0936902" lon="13.1629642"><ele>914.1999999999999</ele><time>2026-04-11T13:27:20.13Z</time></trkpt><trkpt lat="43.0936687" lon="13.1628281"><ele>912.5999999999999</ele><time>2026-04-11T13:27:21.131Z</time></trkpt><trkpt lat="43.0936485" lon="13.1626912"><ele>911.0</ele><time>2026-04-11T13:27:22.13Z</time></trkpt><trkpt lat="43.0936503" lon="13.1625432"><ele>911.0</ele><time>2026-04-11T13:27:23.13Z</time></trkpt><trkpt lat="43.0936658" lon="13.1623913"><ele>910.9999999999999</ele><time>2026-04-11T13:27:24.13Z</time></trkpt><trkpt lat="43.0936517" lon="13.1622496"><ele>910.9999999999999</ele><time>2026-04-11T13:27:25.129Z</time></trkpt><trkpt lat="43.093628" lon="13.1621358"><ele>911.0</ele><time>2026-04-11T13:27:26.129Z</time></trkpt><trkpt lat="43.0936071" lon="13.1620366"><ele>911.0</ele><time>2026-04-11T13:27:27.131Z</time></trkpt><trkpt lat="43.093538" lon="13.161964"><ele>908.8</ele><time>2026-04-11T13:27:29.131Z</time></trkpt><trkpt lat="43.093461" lon="13.161942"><ele>906.5999999999999</ele><time>2026-04-11T13:27:31.131Z</time></trkpt><trkpt lat="43.0933878" lon="13.1619394"><ele>904.4</ele><time>2026-04-11T13:27:46.131Z</time></trkpt><trkpt lat="43.0934282" lon="13.1620389"><ele>902.2</ele><time>2026-04-11T13:27:50.131Z</time></trkpt><trkpt lat="43.093497" lon="13.1621579"><ele>900.0</ele><time>2026-04-11T13:27:52.129Z</time></trkpt><trkpt lat="43.0935412" lon="13.1623135"><ele>901.8333333333334</ele><time>2026-04-11T13:27:54.131Z</time></trkpt><trkpt lat="43.0935496" lon="13.1624236"><ele>903.6666666666667</ele><time>2026-04-11T13:27:55.129Z</time></trkpt><trkpt lat="43.0935404" lon="13.1625595"><ele>905.5</ele><time>2026-04-11T13:27:56.13Z</time></trkpt><trkpt lat="43.0935332" lon="13.1626684"><ele>907.3333333333334</ele><time>2026-04-11T13:27:57.131Z</time></trkpt><trkpt lat="43.0935192" lon="13.1627851"><ele>909.1666666666667</ele><time>2026-04-11T13:27:58.13Z</time></trkpt><trkpt lat="43.0935034" lon="13.162893"><ele>911.0</ele><time>2026-04-11T13:27:59.13Z</time></trkpt><trkpt lat="43.093491" lon="13.1630061"><ele>911.0</ele><time>2026-04-11T13:28:00.13Z</time></trkpt><trkpt lat="43.0934856" lon="13.1631301"><ele>910.9999999999999</ele><time>2026-04-11T13:28:01.13Z</time></trkpt><trkpt lat="43.0934724" lon="13.1632644"><ele>910.9999999999999</ele><time>2026-04-11T13:28:02.132Z</time></trkpt><trkpt lat="43.0934607" lon="13.1634049"><ele>911.0</ele><time>2026-04-11T13:28:03.129Z</time></trkpt><trkpt lat="43.093451" lon="13.1635638"><ele>911.0</ele><time>2026-04-11T13:28:04.129Z</time></trkpt><trkpt lat="43.0934353" lon="13.1637304"><ele>913.0</ele><time>2026-04-11T13:28:05.131Z</time></trkpt><trkpt lat="43.0934252" lon="13.1639018"><ele>915.0</ele><time>2026-04-11T13:28:06.129Z</time></trkpt><trkpt lat="43.0934102" lon="13.1640852"><ele>917.0</ele><time>2026-04-11T13:28:07.131Z</time></trkpt><trkpt lat="43.0933905" lon="13.1642806"><ele>919.0</ele><time>2026-04-11T13:28:08.131Z</time></trkpt><trkpt lat="43.0933686" lon="13.1644821"><ele>920.0</ele><time>2026-04-11T13:28:09.129Z</time></trkpt><trkpt lat="43.0933572" lon="13.164677"><ele>921.0</ele><time>2026-04-11T13:28:10.131Z</time></trkpt><trkpt lat="43.0933417" lon="13.1648678"><ele>922.0</ele><time>2026-04-11T13:28:11.129Z</time></trkpt><trkpt lat="43.0933216" lon="13.1650525"><ele>923.0</ele><time>2026-04-11T13:28:12.129Z</time></trkpt><trkpt lat="43.0932984" lon="13.165236"><ele>923.5</ele><time>2026-04-11T13:28:13.131Z</time></trkpt><trkpt lat="43.0932856" lon="13.1654313"><ele>924.0</ele><time>2026-04-11T13:28:14.129Z</time></trkpt><trkpt lat="43.0932675" lon="13.1656289"><ele>924.5</ele><time>2026-04-11T13:28:15.132Z</time></trkpt><trkpt lat="43.0932434" lon="13.1658284"><ele>925.0</ele><time>2026-04-11T13:28:16.13Z</time></trkpt><trkpt lat="43.0932174" lon="13.1660274"><ele>931.6666666666666</ele><time>2026-04-11T13:28:17.13Z</time></trkpt><trkpt lat="43.0931848" lon="13.1662316"><ele>938.3333333333333</ele><time>2026-04-11T13:28:18.131Z</time></trkpt><trkpt lat="43.0931473" lon="13.166447"><ele>945.0</ele><time>2026-04-11T13:28:19.13Z</time></trkpt><trkpt lat="43.0931154" lon="13.1666567"><ele>949.6666666666667</ele><time>2026-04-11T13:28:20.13Z</time></trkpt><trkpt lat="43.0930685" lon="13.1668715"><ele>954.3333333333334</ele><time>2026-04-11T13:28:21.13Z</time></trkpt><trkpt lat="43.0930373" lon="13.1670829"><ele>959.0</ele><time>2026-04-11T13:28:22.13Z</time></trkpt><trkpt lat="43.0930341" lon="13.1672818"><ele>962.75</ele><time>2026-04-11T13:28:23.13Z</time></trkpt><trkpt lat="43.0930271" lon="13.167482"><ele>966.5</ele><time>2026-04-11T13:28:24.131Z</time></trkpt><trkpt lat="43.0930166" lon="13.1676813"><ele>970.25</ele><time>2026-04-11T13:28:25.129Z</time></trkpt><trkpt lat="43.0930214" lon="13.1678826"><ele>974.0</ele><time>2026-04-11T13:28:26.131Z</time></trkpt><trkpt lat="43.0930347" lon="13.1680811"><ele>980.6666666666667</ele><time>2026-04-11T13:28:27.13Z</time></trkpt><trkpt lat="43.0930558" lon="13.1682809"><ele>987.3333333333333</ele><time>2026-04-11T13:28:28.13Z</time></trkpt><trkpt lat="43.0930789" lon="13.1684829"><ele>994.0</ele><time>2026-04-11T13:28:29.13Z</time></trkpt><trkpt lat="43.093105" lon="13.1687054"><ele>994.0</ele><time>2026-04-11T13:28:30.131Z</time></trkpt><trkpt lat="43.0931163" lon="13.1689274"><ele>994.0</ele><time>2026-04-11T13:28:31.13Z</time></trkpt><trkpt lat="43.0931339" lon="13.1691522"><ele>994.0</ele><time>2026-04-11T13:28:32.131Z</time></trkpt><trkpt lat="43.0931526" lon="13.1693762"><ele>999.3333333333333</ele><time>2026-04-11T13:28:33.129Z</time></trkpt><trkpt lat="43.0931853" lon="13.1696084"><ele>1004.6666666666667</ele><time>2026-04-11T13:28:34.13Z</time></trkpt><trkpt lat="43.0932104" lon="13.1698398"><ele>1010.0</ele><time>2026-04-11T13:28:35.13Z</time></trkpt><trkpt lat="43.093237" lon="13.1700737"><ele>999.3333333333334</ele><time>2026-04-11T13:28:36.131Z</time></trkpt><trkpt lat="43.0932698" lon="13.1703172"><ele>988.6666666666667</ele><time>2026-04-11T13:28:37.13Z</time></trkpt><trkpt lat="43.0932952" lon="13.1705634"><ele>978.0</ele><time>2026-04-11T13:28:38.13Z</time></trkpt><trkpt lat="43.0933182" lon="13.1708134"><ele>978.0</ele><time>2026-04-11T13:28:39.13Z</time></trkpt><trkpt lat="43.0933308" lon="13.1710593"><ele>978.0</ele><time>2026-04-11T13:28:40.131Z</time></trkpt><trkpt lat="43.0933529" lon="13.1713117"><ele>978.0</ele><time>2026-04-11T13:28:41.131Z</time></trkpt><trkpt lat="43.0933632" lon="13.1715572"><ele>981.0</ele><time>2026-04-11T13:28:42.131Z</time></trkpt><trkpt lat="43.0933808" lon="13.1718068"><ele>984.0</ele><time>2026-04-11T13:28:43.13Z</time></trkpt><trkpt lat="43.0933775" lon="13.1720206"><ele>987.0</ele><time>2026-04-11T13:28:44.13Z</time></trkpt><trkpt lat="43.0933815" lon="13.1722668"><ele>990.3333333333333</ele><time>2026-04-11T13:28:45.13Z</time></trkpt><trkpt lat="43.0933835" lon="13.1725095"><ele>993.6666666666666</ele><time>2026-04-11T13:28:46.13Z</time></trkpt><trkpt lat="43.0933921" lon="13.1727597"><ele>997.0</ele><time>2026-04-11T13:28:47.131Z</time></trkpt><trkpt lat="43.0934047" lon="13.1730161"><ele>999.3333333333333</ele><time>2026-04-11T13:28:48.131Z</time></trkpt><trkpt lat="43.0934163" lon="13.1732734"><ele>1001.6666666666667</ele><time>2026-04-11T13:28:49.13Z</time></trkpt><trkpt lat="43.0934328" lon="13.1735357"><ele>1004.0</ele><time>2026-04-11T13:28:50.132Z</time></trkpt><trkpt lat="43.0934525" lon="13.173799"><ele>1007.6666666666667</ele><time>2026-04-11T13:28:51.129Z</time></trkpt><trkpt lat="43.0934692" lon="13.1740653"><ele>1011.3333333333333</ele><time>2026-04-11T13:28:52.132Z</time></trkpt><trkpt lat="43.0934879" lon="13.1743373"><ele>1015.0</ele><time>2026-04-11T13:28:53.131Z</time></trkpt><trkpt lat="43.0935119" lon="13.174618"><ele>1018.0</ele><time>2026-04-11T13:28:54.132Z</time></trkpt><trkpt lat="43.0935371" lon="13.1749161"><ele>1021.0</ele><time>2026-04-11T13:28:55.13Z</time></trkpt><trkpt lat="43.0935705" lon="13.1752317"><ele>1021.0</ele><time>2026-04-11T13:28:56.13Z</time></trkpt><trkpt lat="43.0936118" lon="13.1755669"><ele>1021.0</ele><time>2026-04-11T13:28:57.13Z</time></trkpt><trkpt lat="43.09364" lon="13.1759068"><ele>1024.0</ele><time>2026-04-11T13:28:58.131Z</time></trkpt><trkpt lat="43.0936773" lon="13.1762665"><ele>1027.0</ele><time>2026-04-11T13:28:59.13Z</time></trkpt><trkpt lat="43.0937115" lon="13.1766222"><ele>1029.5</ele><time>2026-04-11T13:29:00.131Z</time></trkpt><trkpt lat="43.0937471" lon="13.1769558"><ele>1032.0</ele><time>2026-04-11T13:29:01.131Z</time></trkpt><trkpt lat="43.0937833" lon="13.1772678"><ele>1035.0</ele><time>2026-04-11T13:29:02.129Z</time></trkpt><trkpt lat="43.0938155" lon="13.1775637"><ele>1038.0</ele><time>2026-04-11T13:29:03.131Z</time></trkpt><trkpt lat="43.0938317" lon="13.1778548"><ele>1041.0</ele><time>2026-04-11T13:29:04.129Z</time></trkpt><trkpt lat="43.0938462" lon="13.1781291"><ele>1044.0</ele><time>2026-04-11T13:29:05.13Z</time></trkpt><trkpt lat="43.0938705" lon="13.1783893"><ele>1047.0</ele><time>2026-04-11T13:29:06.13Z</time></trkpt><trkpt lat="43.0938931" lon="13.1786434"><ele>1050.0</ele><time>2026-04-11T13:29:07.129Z</time></trkpt><trkpt lat="43.0939166" lon="13.178906"><ele>1053.0</ele><time>2026-04-11T13:29:08.131Z</time></trkpt><trkpt lat="43.0939401" lon="13.1791737"><ele>1056.0</ele><time>2026-04-11T13:29:09.129Z</time></trkpt><trkpt lat="43.0939799" lon="13.1794484"><ele>1059.0</ele><time>2026-04-11T13:29:10.132Z</time></trkpt><trkpt lat="43.0940094" lon="13.179715"><ele>1064.0</ele><time>2026-04-11T13:29:11.129Z</time></trkpt><trkpt lat="43.0940446" lon="13.1799941"><ele>1069.0</ele><time>2026-04-11T13:29:12.13Z</time></trkpt><trkpt lat="43.0940739" lon="13.1802756"><ele>1074.0</ele><time>2026-04-11T13:29:13.13Z</time></trkpt><trkpt lat="43.0941054" lon="13.1805655"><ele>1064.6666666666667</ele><time>2026-04-11T13:29:14.131Z</time></trkpt><trkpt lat="43.0941362" lon="13.1808599"><ele>1055.3333333333335</ele><time>2026-04-11T13:29:15.13Z</time></trkpt><trkpt lat="43.0941717" lon="13.1811646"><ele>1046.0</ele><time>2026-04-11T13:29:16.13Z</time></trkpt><trkpt lat="43.0942057" lon="13.1814745"><ele>1049.3333333333335</ele><time>2026-04-11T13:29:17.129Z</time></trkpt><trkpt lat="43.0942404" lon="13.1817764"><ele>1052.6666666666667</ele><time>2026-04-11T13:29:18.131Z</time></trkpt><trkpt lat="43.0942731" lon="13.1820733"><ele>1056.0</ele><time>2026-04-11T13:29:19.131Z</time></trkpt><trkpt lat="43.0943037" lon="13.1823697"><ele>1059.3333333333333</ele><time>2026-04-11T13:29:20.13Z</time></trkpt><trkpt lat="43.0943358" lon="13.1826714"><ele>1062.6666666666665</ele><time>2026-04-11T13:29:21.13Z</time></trkpt><trkpt lat="43.0943762" lon="13.1829654"><ele>1066.0</ele><time>2026-04-11T13:29:22.129Z</time></trkpt><trkpt lat="43.0944146" lon="13.183261"><ele>1069.5</ele><time>2026-04-11T13:29:23.131Z</time></trkpt><trkpt lat="43.0944577" lon="13.18356"><ele>1073.0</ele><time>2026-04-11T13:29:24.13Z</time></trkpt><trkpt lat="43.0945127" lon="13.1838665"><ele>1077.5</ele><time>2026-04-11T13:29:25.131Z</time></trkpt><trkpt lat="43.0945701" lon="13.1841669"><ele>1082.0</ele><time>2026-04-11T13:29:26.131Z</time></trkpt><trkpt lat="43.0946329" lon="13.1844692"><ele>1082.0</ele><time>2026-04-11T13:29:27.13Z</time></trkpt><trkpt lat="43.0946973" lon="13.1847552"><ele>1082.0</ele><time>2026-04-11T13:29:28.13Z</time></trkpt><trkpt lat="43.0947554" lon="13.1850569"><ele>1082.0</ele><time>2026-04-11T13:29:29.131Z</time></trkpt><trkpt lat="43.0948189" lon="13.1853672"><ele>1083.0</ele><time>2026-04-11T13:29:30.131Z</time></trkpt><trkpt lat="43.0948846" lon="13.1856821"><ele>1084.0</ele><time>2026-04-11T13:29:31.13Z</time></trkpt><trkpt lat="43.0949376" lon="13.1859615"><ele>1084.0</ele><time>2026-04-11T13:29:32.131Z</time></trkpt><trkpt lat="43.0949923" lon="13.1862375"><ele>1084.0</ele><time>2026-04-11T13:29:33.129Z</time></trkpt><trkpt lat="43.0950539" lon="13.1864889"><ele>1084.0</ele><time>2026-04-11T13:29:34.13Z</time></trkpt><trkpt lat="43.0951226" lon="13.1867309"><ele>1086.0</ele><time>2026-04-11T13:29:35.13Z</time></trkpt><trkpt lat="43.0952014" lon="13.1869643"><ele>1088.0</ele><time>2026-04-11T13:29:36.131Z</time></trkpt><trkpt lat="43.0952918" lon="13.1871965"><ele>1090.0</ele><time>2026-04-11T13:29:37.131Z</time></trkpt><trkpt lat="43.0953866" lon="13.1874353"><ele>1093.3333333333333</ele><time>2026-04-11T13:29:38.13Z</time></trkpt><trkpt lat="43.0954876" lon="13.1876696"><ele>1096.6666666666667</ele><time>2026-04-11T13:29:39.131Z</time></trkpt><trkpt lat="43.095593" lon="13.1879052"><ele>1100.0</ele><time>2026-04-11T13:29:40.129Z</time></trkpt><trkpt lat="43.0956932" lon="13.1881132"><ele>1100.75</ele><time>2026-04-11T13:29:41.13Z</time></trkpt><trkpt lat="43.0957776" lon="13.1882959"><ele>1101.5</ele><time>2026-04-11T13:29:42.13Z</time></trkpt><trkpt lat="43.0958498" lon="13.1884453"><ele>1102.25</ele><time>2026-04-11T13:29:43.13Z</time></trkpt><trkpt lat="43.0959139" lon="13.188567"><ele>1103.0</ele><time>2026-04-11T13:29:44.129Z</time></trkpt><trkpt lat="43.0959552" lon="13.1886569"><ele>1103.0</ele><time>2026-04-11T13:29:45.13Z</time></trkpt><trkpt lat="43.0959772" lon="13.1887555"><ele>1103.0</ele><time>2026-04-11T13:29:47.132Z</time></trkpt><trkpt lat="43.0958802" lon="13.1887767"><ele>1103.0</ele><time>2026-04-11T13:30:52.13Z</time></trkpt><trkpt lat="43.0957535" lon="13.1887404"><ele>1103.0</ele><time>2026-04-11T13:30:54.13Z</time></trkpt><trkpt lat="43.0956588" lon="13.1887418"><ele>1103.0</ele><time>2026-04-11T13:30:55.13Z</time></trkpt><trkpt lat="43.0955586" lon="13.1887464"><ele>1104.4</ele><time>2026-04-11T13:30:56.13Z</time></trkpt><trkpt lat="43.0954523" lon="13.1887531"><ele>1105.8</ele><time>2026-04-11T13:30:57.129Z</time></trkpt><trkpt lat="43.0953546" lon="13.1887658"><ele>1107.2</ele><time>2026-04-11T13:30:58.132Z</time></trkpt><trkpt lat="43.0952647" lon="13.1887871"><ele>1108.6</ele><time>2026-04-11T13:30:59.13Z</time></trkpt><trkpt lat="43.0951779" lon="13.1888141"><ele>1110.0</ele><time>2026-04-11T13:31:00.131Z</time></trkpt><trkpt lat="43.0951117" lon="13.1888538"><ele>1110.0000000000002</ele><time>2026-04-11T13:31:01.132Z</time></trkpt><trkpt lat="43.0950554" lon="13.1888938"><ele>1110.0</ele><time>2026-04-11T13:31:02.13Z</time></trkpt><trkpt lat="43.094999" lon="13.1889382"><ele>1110.0</ele><time>2026-04-11T13:31:03.13Z</time></trkpt><trkpt lat="43.0949426" lon="13.1889994"><ele>1110.0</ele><time>2026-04-11T13:31:04.13Z</time></trkpt><trkpt lat="43.0948862" lon="13.1890807"><ele>1110.0</ele><time>2026-04-11T13:31:05.131Z</time></trkpt><trkpt lat="43.0948256" lon="13.189166"><ele>1110.0000000000002</ele><time>2026-04-11T13:31:06.13Z</time></trkpt><trkpt lat="43.0947746" lon="13.1892411"><ele>1110.0</ele><time>2026-04-11T13:31:07.13Z</time></trkpt><trkpt lat="43.094726" lon="13.189326"><ele>1115.6</ele><time>2026-04-11T13:31:08.129Z</time></trkpt><trkpt lat="43.0946862" lon="13.1894223"><ele>1121.2</ele><time>2026-04-11T13:31:09.129Z</time></trkpt><trkpt lat="43.0946513" lon="13.1895354"><ele>1126.8</ele><time>2026-04-11T13:31:10.129Z</time></trkpt><trkpt lat="43.094616" lon="13.1896643"><ele>1132.4</ele><time>2026-04-11T13:31:11.131Z</time></trkpt><trkpt lat="43.0945761" lon="13.1898052"><ele>1138.0</ele><time>2026-04-11T13:31:12.129Z</time></trkpt><trkpt lat="43.0945389" lon="13.1899465"><ele>1141.0</ele><time>2026-04-11T13:31:13.129Z</time></trkpt><trkpt lat="43.0945026" lon="13.1900903"><ele>1144.0</ele><time>2026-04-11T13:31:14.129Z</time></trkpt><trkpt lat="43.094469" lon="13.1902223"><ele>1147.0</ele><time>2026-04-11T13:31:15.129Z</time></trkpt><trkpt lat="43.094431" lon="13.1903419"><ele>1150.0</ele><time>2026-04-11T13:31:16.13Z</time></trkpt><trkpt lat="43.0943957" lon="13.1904504"><ele>1153.0</ele><time>2026-04-11T13:31:17.129Z</time></trkpt><trkpt lat="43.09437" lon="13.1905683"><ele>1153.0</ele><time>2026-04-11T13:31:18.129Z</time></trkpt><trkpt lat="43.0943381" lon="13.1906723"><ele>1153.0</ele><time>2026-04-11T13:31:19.13Z</time></trkpt><trkpt lat="43.0943137" lon="13.1907578"><ele>1153.0</ele><time>2026-04-11T13:31:20.13Z</time></trkpt><trkpt lat="43.0942516" lon="13.1908941"><ele>1153.0</ele><time>2026-04-11T13:31:22.129Z</time></trkpt><trkpt lat="43.0941972" lon="13.1910083"><ele>1153.0</ele><time>2026-04-11T13:31:24.129Z</time></trkpt><trkpt lat="43.0941458" lon="13.1911413"><ele>1154.8</ele><time>2026-04-11T13:31:26.13Z</time></trkpt><trkpt lat="43.0940942" lon="13.1912997"><ele>1156.6</ele><time>2026-04-11T13:31:28.13Z</time></trkpt><trkpt lat="43.0940629" lon="13.1914007"><ele>1158.4</ele><time>2026-04-11T13:31:29.129Z</time></trkpt><trkpt lat="43.094025" lon="13.1914981"><ele>1160.2</ele><time>2026-04-11T13:31:30.131Z</time></trkpt><trkpt lat="43.093994" lon="13.1915969"><ele>1162.0</ele><time>2026-04-11T13:31:31.131Z</time></trkpt><trkpt lat="43.0939274" lon="13.1917125"><ele>1167.4</ele><time>2026-04-11T13:31:33.129Z</time></trkpt><trkpt lat="43.0938492" lon="13.1917786"><ele>1172.8000000000002</ele><time>2026-04-11T13:31:35.129Z</time></trkpt><trkpt lat="43.0937512" lon="13.1918818"><ele>1178.2</ele><time>2026-04-11T13:31:37.13Z</time></trkpt><trkpt lat="43.0937013" lon="13.1919498"><ele>1183.6000000000001</ele><time>2026-04-11T13:31:38.13Z</time></trkpt><trkpt lat="43.0936208" lon="13.1920659"><ele>1189.0</ele><time>2026-04-11T13:31:40.13Z</time></trkpt><trkpt lat="43.0935403" lon="13.1921554"><ele>1189.0</ele><time>2026-04-11T13:31:42.129Z</time></trkpt><trkpt lat="43.0934387" lon="13.1922256"><ele>1189.0</ele><time>2026-04-11T13:31:44.131Z</time></trkpt><trkpt lat="43.0933682" lon="13.1922115"><ele>1189.0</ele><time>2026-04-11T13:31:46.13Z</time></trkpt><trkpt lat="43.0932723" lon="13.1921675"><ele>1189.0</ele><time>2026-04-11T13:31:48.13Z</time></trkpt><trkpt lat="43.0931644" lon="13.1921038"><ele>1189.0</ele><time>2026-04-11T13:31:50.131Z</time></trkpt><trkpt lat="43.0930973" lon="13.1921"><ele>1193.5</ele><time>2026-04-11T13:31:51.13Z</time></trkpt><trkpt lat="43.0930242" lon="13.1921126"><ele>1198.0</ele><time>2026-04-11T13:31:52.13Z</time></trkpt><trkpt lat="43.0929727" lon="13.1921652"><ele>1202.5</ele><time>2026-04-11T13:31:53.131Z</time></trkpt><trkpt lat="43.0929296" lon="13.1922376"><ele>1207.0</ele><time>2026-04-11T13:31:54.13Z</time></trkpt><trkpt lat="43.0928519" lon="13.1923295"><ele>1211.5</ele><time>2026-04-11T13:31:56.132Z</time></trkpt><trkpt lat="43.0928058" lon="13.1923964"><ele>1216.0</ele><time>2026-04-11T13:31:59.13Z</time></trkpt><trkpt lat="43.0927329" lon="13.1924296"><ele>1216.1666666666665</ele><time>2026-04-11T13:32:02.129Z</time></trkpt><trkpt lat="43.0926826" lon="13.1924849"><ele>1216.3333333333333</ele><time>2026-04-11T13:32:05.07Z</time></trkpt><trkpt lat="43.092628" lon="13.1925375"><ele>1216.5</ele><time>2026-04-11T13:32:07.131Z</time></trkpt><trkpt lat="43.092544" lon="13.1926216"><ele>1216.6666666666667</ele><time>2026-04-11T13:32:09.13Z</time></trkpt><trkpt lat="43.0924478" lon="13.1927095"><ele>1216.8333333333335</ele><time>2026-04-11T13:32:11.131Z</time></trkpt><trkpt lat="43.0923937" lon="13.1927619"><ele>1217.0</ele><time>2026-04-11T13:32:12.13Z</time></trkpt><trkpt lat="43.092346" lon="13.1928284"><ele>1220.8333333333335</ele><time>2026-04-11T13:32:13.13Z</time></trkpt><trkpt lat="43.0922998" lon="13.1928999"><ele>1224.6666666666667</ele><time>2026-04-11T13:32:14.131Z</time></trkpt><trkpt lat="43.0922529" lon="13.1929797"><ele>1228.5</ele><time>2026-04-11T13:32:15.131Z</time></trkpt><trkpt lat="43.0922078" lon="13.193065"><ele>1232.3333333333333</ele><time>2026-04-11T13:32:16.131Z</time></trkpt><trkpt lat="43.0921689" lon="13.1931434"><ele>1236.1666666666665</ele><time>2026-04-11T13:32:17.129Z</time></trkpt><trkpt lat="43.0920965" lon="13.1932545"><ele>1240.0</ele><time>2026-04-11T13:32:19.13Z</time></trkpt><trkpt lat="43.0920149" lon="13.1933101"><ele>1240.0</ele><time>2026-04-11T13:32:21.131Z</time></trkpt><trkpt lat="43.0919042" lon="13.193312"><ele>1240.0</ele><time>2026-04-11T13:32:23.129Z</time></trkpt><trkpt lat="43.0918368" lon="13.1933043"><ele>1240.0</ele><time>2026-04-11T13:32:24.132Z</time></trkpt><trkpt lat="43.0917652" lon="13.1933053"><ele>1240.0</ele><time>2026-04-11T13:32:25.132Z</time></trkpt><trkpt lat="43.0916898" lon="13.1933157"><ele>1240.0</ele><time>2026-04-11T13:32:26.13Z</time></trkpt><trkpt lat="43.0916127" lon="13.1933394"><ele>1240.0</ele><time>2026-04-11T13:32:27.129Z</time></trkpt><trkpt lat="43.0915351" lon="13.1933737"><ele>1242.857142857143</ele><time>2026-04-11T13:32:28.13Z</time></trkpt><trkpt lat="43.0914637" lon="13.1934093"><ele>1245.7142857142858</ele><time>2026-04-11T13:32:29.131Z</time></trkpt><trkpt lat="43.091404" lon="13.1934463"><ele>1248.5714285714284</ele><time>2026-04-11T13:32:30.129Z</time></trkpt><trkpt lat="43.0913257" lon="13.1934705"><ele>1251.4285714285716</ele><time>2026-04-11T13:32:32.131Z</time></trkpt><trkpt lat="43.0912559" lon="13.1934785"><ele>1254.2857142857142</ele><time>2026-04-11T13:32:35.13Z</time></trkpt><trkpt lat="43.0911736" lon="13.1934583"><ele>1257.142857142857</ele><time>2026-04-11T13:32:38.13Z</time></trkpt><trkpt lat="43.091103" lon="13.1934652"><ele>1260.0</ele><time>2026-04-11T13:32:40.129Z</time></trkpt><trkpt lat="43.0909907" lon="13.193471"><ele>1260.0</ele><time>2026-04-11T13:32:42.129Z</time></trkpt><trkpt lat="43.090923" lon="13.1934696"><ele>1260.0</ele><time>2026-04-11T13:32:43.131Z</time></trkpt><trkpt lat="43.0908465" lon="13.1934636"><ele>1260.0</ele><time>2026-04-11T13:32:44.13Z</time></trkpt><trkpt lat="43.0907645" lon="13.1934587"><ele>1260.0</ele><time>2026-04-11T13:32:45.13Z</time></trkpt><trkpt lat="43.0906923" lon="13.1934447"><ele>1260.0</ele><time>2026-04-11T13:32:46.13Z</time></trkpt><trkpt lat="43.0906184" lon="13.1934347"><ele>1260.0</ele><time>2026-04-11T13:32:47.13Z</time></trkpt><trkpt lat="43.0905388" lon="13.1934237"><ele>1263.6</ele><time>2026-04-11T13:32:48.129Z</time></trkpt><trkpt lat="43.0904542" lon="13.1934021"><ele>1267.2</ele><time>2026-04-11T13:32:49.13Z</time></trkpt><trkpt lat="43.0903614" lon="13.1933797"><ele>1270.8</ele><time>2026-04-11T13:32:50.129Z</time></trkpt><trkpt lat="43.0902692" lon="13.1933577"><ele>1274.4</ele><time>2026-04-11T13:32:51.13Z</time></trkpt><trkpt lat="43.0901799" lon="13.1933203"><ele>1278.0</ele><time>2026-04-11T13:32:52.131Z</time></trkpt><trkpt lat="43.0900948" lon="13.1932872"><ele>1278.0</ele><time>2026-04-11T13:32:53.131Z</time></trkpt><trkpt lat="43.0900199" lon="13.1932347"><ele>1278.0</ele><time>2026-04-11T13:32:54.131Z</time></trkpt><trkpt lat="43.0899541" lon="13.1931705"><ele>1278.0</ele><time>2026-04-11T13:32:55.131Z</time></trkpt><trkpt lat="43.0898836" lon="13.1931108"><ele>1278.0</ele><time>2026-04-11T13:32:56.13Z</time></trkpt><trkpt lat="43.0898216" lon="13.1930748"><ele>1278.0</ele><time>2026-04-11T13:32:57.13Z</time></trkpt><trkpt lat="43.0897661" lon="13.1930165"><ele>1278.0</ele><time>2026-04-11T13:32:58.13Z</time></trkpt><trkpt lat="43.0896901" lon="13.1929109"><ele>1280.8</ele><time>2026-04-11T13:33:00.13Z</time></trkpt><trkpt lat="43.0896048" lon="13.1928046"><ele>1283.6</ele><time>2026-04-11T13:33:02.131Z</time></trkpt><trkpt lat="43.0894934" lon="13.1926931"><ele>1286.3999999999999</ele><time>2026-04-11T13:33:04.132Z</time></trkpt><trkpt lat="43.0894128" lon="13.1926403"><ele>1289.1999999999998</ele><time>2026-04-11T13:33:05.13Z</time></trkpt><trkpt lat="43.0893318" lon="13.1925929"><ele>1292.0</ele><time>2026-04-11T13:33:06.131Z</time></trkpt><trkpt lat="43.0892504" lon="13.192546"><ele>1292.0</ele><time>2026-04-11T13:33:07.13Z</time></trkpt><trkpt lat="43.0891637" lon="13.1924993"><ele>1292.0</ele><time>2026-04-11T13:33:08.13Z</time></trkpt><trkpt lat="43.0890729" lon="13.1924605"><ele>1292.0</ele><time>2026-04-11T13:33:09.131Z</time></trkpt><trkpt lat="43.0889771" lon="13.1924216"><ele>1292.0</ele><time>2026-04-11T13:33:10.13Z</time></trkpt><trkpt lat="43.0888726" lon="13.1923803"><ele>1292.0</ele><time>2026-04-11T13:33:11.129Z</time></trkpt><trkpt lat="43.0887634" lon="13.192341"><ele>1294.3999999999999</ele><time>2026-04-11T13:33:12.13Z</time></trkpt><trkpt lat="43.0886505" lon="13.1923017"><ele>1296.8</ele><time>2026-04-11T13:33:13.131Z</time></trkpt><trkpt lat="43.0885399" lon="13.1922568"><ele>1299.2</ele><time>2026-04-11T13:33:14.13Z</time></trkpt><trkpt lat="43.0884401" lon="13.1922105"><ele>1301.6</ele><time>2026-04-11T13:33:15.132Z</time></trkpt><trkpt lat="43.088335" lon="13.192158"><ele>1304.0</ele><time>2026-04-11T13:33:16.13Z</time></trkpt><trkpt lat="43.0882492" lon="13.1920882"><ele>1305.6666666666667</ele><time>2026-04-11T13:33:17.13Z</time></trkpt><trkpt lat="43.0881938" lon="13.1919977"><ele>1307.3333333333335</ele><time>2026-04-11T13:33:18.129Z</time></trkpt><trkpt lat="43.0881505" lon="13.1918911"><ele>1309.0</ele><time>2026-04-11T13:33:19.13Z</time></trkpt><trkpt lat="43.0880984" lon="13.1917794"><ele>1310.6666666666667</ele><time>2026-04-11T13:33:20.131Z</time></trkpt><trkpt lat="43.0880398" lon="13.191695"><ele>1312.3333333333333</ele><time>2026-04-11T13:33:21.131Z</time></trkpt><trkpt lat="43.087975" lon="13.1916394"><ele>1314.0</ele><time>2026-04-11T13:33:22.13Z</time></trkpt><trkpt lat="43.0878737" lon="13.1916349"><ele>1314.0</ele><time>2026-04-11T13:33:24.13Z</time></trkpt><trkpt lat="43.0878037" lon="13.1916552"><ele>1314.0</ele><time>2026-04-11T13:36:03.13Z</time></trkpt><trkpt lat="43.0877493" lon="13.1915753"><ele>1314.0</ele><time>2026-04-11T13:36:07.131Z</time></trkpt><trkpt lat="43.0878042" lon="13.1914895"><ele>1314.0</ele><time>2026-04-11T13:36:09.13Z</time></trkpt><trkpt lat="43.0878638" lon="13.1914119"><ele>1314.0</ele><time>2026-04-11T13:36:11.129Z</time></trkpt><trkpt lat="43.0878401" lon="13.1912893"><ele>1314.0</ele><time>2026-04-11T13:36:13.131Z</time></trkpt><trkpt lat="43.0877537" lon="13.1911542"><ele>1314.0</ele><time>2026-04-11T13:36:15.13Z</time></trkpt><trkpt lat="43.0876876" lon="13.1910518"><ele>1314.0</ele><time>2026-04-11T13:36:16.129Z</time></trkpt><trkpt lat="43.0875966" lon="13.1909318"><ele>1314.0</ele><time>2026-04-11T13:36:17.129Z</time></trkpt><trkpt lat="43.0875108" lon="13.1907976"><ele>1314.0</ele><time>2026-04-11T13:36:18.129Z</time></trkpt><trkpt lat="43.087422" lon="13.1906609"><ele>1314.5</ele><time>2026-04-11T13:36:19.129Z</time></trkpt><trkpt lat="43.0873319" lon="13.1905202"><ele>1315.0</ele><time>2026-04-11T13:36:20.13Z</time></trkpt><trkpt lat="43.0872443" lon="13.1903916"><ele>1315.5</ele><time>2026-04-11T13:36:21.131Z</time></trkpt><trkpt lat="43.0871669" lon="13.1902822"><ele>1316.0</ele><time>2026-04-11T13:36:22.13Z</time></trkpt><trkpt lat="43.0870921" lon="13.1901736"><ele>1316.0</ele><time>2026-04-11T13:36:23.129Z</time></trkpt><trkpt lat="43.0870109" lon="13.1900543"><ele>1316.0</ele><time>2026-04-11T13:36:24.13Z</time></trkpt><trkpt lat="43.086929" lon="13.1899344"><ele>1316.0</ele><time>2026-04-11T13:36:25.13Z</time></trkpt><trkpt lat="43.0868416" lon="13.1898181"><ele>1316.0</ele><time>2026-04-11T13:36:26.131Z</time></trkpt><trkpt lat="43.0867527" lon="13.1897019"><ele>1315.75</ele><time>2026-04-11T13:36:27.131Z</time></trkpt><trkpt lat="43.0866659" lon="13.1895904"><ele>1315.5</ele><time>2026-04-11T13:36:28.13Z</time></trkpt><trkpt lat="43.0865795" lon="13.1894844"><ele>1315.25</ele><time>2026-04-11T13:36:29.129Z</time></trkpt><trkpt lat="43.0864993" lon="13.1893879"><ele>1315.0</ele><time>2026-04-11T13:36:30.13Z</time></trkpt><trkpt lat="43.0864151" lon="13.1892911"><ele>1315.6</ele><time>2026-04-11T13:36:31.131Z</time></trkpt><trkpt lat="43.0863273" lon="13.1891973"><ele>1316.2</ele><time>2026-04-11T13:36:32.131Z</time></trkpt><trkpt lat="43.0862472" lon="13.1891025"><ele>1316.8000000000002</ele><time>2026-04-11T13:36:33.129Z</time></trkpt><trkpt lat="43.0861695" lon="13.1890026"><ele>1317.4</ele><time>2026-04-11T13:36:34.13Z</time></trkpt><trkpt lat="43.0861166" lon="13.1889098"><ele>1318.0</ele><time>2026-04-11T13:36:35.131Z</time></trkpt><trkpt lat="43.0860763" lon="13.1888071"><ele>1318.0</ele><time>2026-04-11T13:36:36.131Z</time></trkpt><trkpt lat="43.0860572" lon="13.1887122"><ele>1318.0</ele><time>2026-04-11T13:36:37.129Z</time></trkpt><trkpt lat="43.0860467" lon="13.1885989"><ele>1318.0</ele><time>2026-04-11T13:36:38.129Z</time></trkpt><trkpt lat="43.086042" lon="13.1884817"><ele>1318.0</ele><time>2026-04-11T13:36:39.131Z</time></trkpt><trkpt lat="43.0860391" lon="13.1883532"><ele>1318.0</ele><time>2026-04-11T13:36:40.13Z</time></trkpt><trkpt lat="43.0860394" lon="13.1882195"><ele>1318.0</ele><time>2026-04-11T13:36:41.131Z</time></trkpt><trkpt lat="43.0860425" lon="13.1880809"><ele>1317.4</ele><time>2026-04-11T13:36:42.13Z</time></trkpt><trkpt lat="43.0860413" lon="13.187939"><ele>1316.8000000000002</ele><time>2026-04-11T13:36:43.129Z</time></trkpt><trkpt lat="43.0860462" lon="13.1877939"><ele>1316.2</ele><time>2026-04-11T13:36:44.131Z</time></trkpt><trkpt lat="43.0860497" lon="13.1876488"><ele>1315.6</ele><time>2026-04-11T13:36:45.13Z</time></trkpt><trkpt lat="43.0860543" lon="13.1875082"><ele>1315.0</ele><time>2026-04-11T13:36:46.13Z</time></trkpt><trkpt lat="43.0860622" lon="13.1873737"><ele>1314.2</ele><time>2026-04-11T13:36:47.131Z</time></trkpt><trkpt lat="43.0860705" lon="13.1872362"><ele>1313.4</ele><time>2026-04-11T13:36:48.131Z</time></trkpt><trkpt lat="43.0860836" lon="13.1871008"><ele>1312.6</ele><time>2026-04-11T13:36:49.131Z</time></trkpt><trkpt lat="43.0861032" lon="13.1869684"><ele>1311.8</ele><time>2026-04-11T13:36:50.13Z</time></trkpt><trkpt lat="43.0861249" lon="13.1868261"><ele>1311.0</ele><time>2026-04-11T13:36:51.13Z</time></trkpt><trkpt lat="43.0861504" lon="13.1866879"><ele>1311.0</ele><time>2026-04-11T13:36:52.13Z</time></trkpt><trkpt lat="43.0861758" lon="13.1865517"><ele>1311.0</ele><time>2026-04-11T13:36:53.13Z</time></trkpt><trkpt lat="43.0862005" lon="13.1864269"><ele>1311.0</ele><time>2026-04-11T13:36:54.13Z</time></trkpt><trkpt lat="43.0862323" lon="13.1863156"><ele>1311.0</ele><time>2026-04-11T13:36:55.13Z</time></trkpt><trkpt lat="43.0862765" lon="13.1862269"><ele>1311.0</ele><time>2026-04-11T13:36:56.129Z</time></trkpt><trkpt lat="43.086327" lon="13.1861357"><ele>1311.0</ele><time>2026-04-11T13:36:57.129Z</time></trkpt><trkpt lat="43.0863745" lon="13.1860412"><ele>1309.6</ele><time>2026-04-11T13:36:58.13Z</time></trkpt><trkpt lat="43.0864184" lon="13.1859409"><ele>1308.1999999999998</ele><time>2026-04-11T13:36:59.13Z</time></trkpt><trkpt lat="43.0864482" lon="13.1858311"><ele>1306.8000000000002</ele><time>2026-04-11T13:37:00.132Z</time></trkpt><trkpt lat="43.0864782" lon="13.1857066"><ele>1305.4</ele><time>2026-04-11T13:37:01.129Z</time></trkpt><trkpt lat="43.0865175" lon="13.1855834"><ele>1304.0</ele><time>2026-04-11T13:37:02.13Z</time></trkpt><trkpt lat="43.08656" lon="13.1854625"><ele>1301.5</ele><time>2026-04-11T13:37:03.13Z</time></trkpt><trkpt lat="43.0866061" lon="13.1853483"><ele>1299.0</ele><time>2026-04-11T13:37:04.129Z</time></trkpt><trkpt lat="43.0866582" lon="13.1852508"><ele>1296.5</ele><time>2026-04-11T13:37:05.131Z</time></trkpt><trkpt lat="43.086705" lon="13.1851479"><ele>1294.0</ele><time>2026-04-11T13:37:06.13Z</time></trkpt><trkpt lat="43.0867498" lon="13.1850492"><ele>1291.5</ele><time>2026-04-11T13:37:07.13Z</time></trkpt><trkpt lat="43.0868023" lon="13.1849551"><ele>1289.0</ele><time>2026-04-11T13:37:08.13Z</time></trkpt><trkpt lat="43.0868539" lon="13.1848687"><ele>1287.8333333333335</ele><time>2026-04-11T13:37:09.13Z</time></trkpt><trkpt lat="43.0869112" lon="13.1847973"><ele>1286.6666666666667</ele><time>2026-04-11T13:37:10.13Z</time></trkpt><trkpt lat="43.0869752" lon="13.1847404"><ele>1285.5</ele><time>2026-04-11T13:37:11.13Z</time></trkpt><trkpt lat="43.0870449" lon="13.1846869"><ele>1284.3333333333333</ele><time>2026-04-11T13:37:12.129Z</time></trkpt><trkpt lat="43.0871131" lon="13.1846339"><ele>1283.1666666666665</ele><time>2026-04-11T13:37:13.129Z</time></trkpt><trkpt lat="43.0871771" lon="13.1845696"><ele>1282.0</ele><time>2026-04-11T13:37:14.129Z</time></trkpt><trkpt lat="43.0872114" lon="13.1844935"><ele>1282.0</ele><time>2026-04-11T13:37:15.131Z</time></trkpt><trkpt lat="43.087255" lon="13.184415"><ele>1282.0</ele><time>2026-04-11T13:37:16.129Z</time></trkpt><trkpt lat="43.087299" lon="13.1843264"><ele>1282.0</ele><time>2026-04-11T13:37:17.13Z</time></trkpt><trkpt lat="43.0873563" lon="13.1842391"><ele>1282.0</ele><time>2026-04-11T13:37:18.131Z</time></trkpt><trkpt lat="43.0874132" lon="13.184162"><ele>1282.0</ele><time>2026-04-11T13:37:19.13Z</time></trkpt><trkpt lat="43.0874754" lon="13.1840754"><ele>1282.0</ele><time>2026-04-11T13:37:20.129Z</time></trkpt><trkpt lat="43.0875256" lon="13.1840048"><ele>1279.4285714285716</ele><time>2026-04-11T13:37:21.132Z</time></trkpt><trkpt lat="43.087573" lon="13.1839318"><ele>1276.857142857143</ele><time>2026-04-11T13:37:22.13Z</time></trkpt><trkpt lat="43.0876185" lon="13.1838584"><ele>1274.2857142857142</ele><time>2026-04-11T13:37:23.13Z</time></trkpt><trkpt lat="43.0876621" lon="13.1837855"><ele>1271.7142857142858</ele><time>2026-04-11T13:37:24.13Z</time></trkpt><trkpt lat="43.0877061" lon="13.1837113"><ele>1269.142857142857</ele><time>2026-04-11T13:37:25.132Z</time></trkpt><trkpt lat="43.0877465" lon="13.1836306"><ele>1266.5714285714287</ele><time>2026-04-11T13:37:26.129Z</time></trkpt><trkpt lat="43.0877933" lon="13.1835591"><ele>1264.0</ele><time>2026-04-11T13:37:27.131Z</time></trkpt><trkpt lat="43.0878343" lon="13.1834903"><ele>1264.0</ele><time>2026-04-11T13:37:28.13Z</time></trkpt><trkpt lat="43.0879025" lon="13.1833684"><ele>1264.0</ele><time>2026-04-11T13:37:30.129Z</time></trkpt><trkpt lat="43.0879848" lon="13.1832245"><ele>1264.0</ele><time>2026-04-11T13:37:32.131Z</time></trkpt><trkpt lat="43.0880378" lon="13.183135"><ele>1264.0</ele><time>2026-04-11T13:37:33.131Z</time></trkpt><trkpt lat="43.0880947" lon="13.1830389"><ele>1264.0</ele><time>2026-04-11T13:37:34.131Z</time></trkpt><trkpt lat="43.0881496" lon="13.1829255"><ele>1260.6000000000001</ele><time>2026-04-11T13:37:35.13Z</time></trkpt><trkpt lat="43.0882015" lon="13.1828046"><ele>1257.2</ele><time>2026-04-11T13:37:36.13Z</time></trkpt><trkpt lat="43.0882595" lon="13.1826864"><ele>1253.8000000000002</ele><time>2026-04-11T13:37:37.131Z</time></trkpt><trkpt lat="43.0883237" lon="13.1825633"><ele>1250.4</ele><time>2026-04-11T13:37:38.129Z</time></trkpt><trkpt lat="43.0883969" lon="13.1824432"><ele>1247.0</ele><time>2026-04-11T13:37:39.13Z</time></trkpt><trkpt lat="43.0884712" lon="13.1823212"><ele>1241.5</ele><time>2026-04-11T13:37:40.13Z</time></trkpt><trkpt lat="43.0885486" lon="13.1821985"><ele>1236.0</ele><time>2026-04-11T13:37:41.131Z</time></trkpt><trkpt lat="43.0886198" lon="13.18207"><ele>1230.5</ele><time>2026-04-11T13:37:42.129Z</time></trkpt><trkpt lat="43.0886902" lon="13.1819466"><ele>1225.0</ele><time>2026-04-11T13:37:43.13Z</time></trkpt><trkpt lat="43.0887604" lon="13.1818318"><ele>1225.0</ele><time>2026-04-11T13:37:44.131Z</time></trkpt><trkpt lat="43.0888338" lon="13.1817213"><ele>1225.0</ele><time>2026-04-11T13:37:45.13Z</time></trkpt><trkpt lat="43.088908" lon="13.1816066"><ele>1225.0</ele><time>2026-04-11T13:37:46.13Z</time></trkpt><trkpt lat="43.088977" lon="13.1815032"><ele>1225.0</ele><time>2026-04-11T13:37:47.13Z</time></trkpt><trkpt lat="43.0890332" lon="13.1814129"><ele>1225.0</ele><time>2026-04-11T13:37:48.132Z</time></trkpt><trkpt lat="43.0890746" lon="13.1813204"><ele>1221.3333333333333</ele><time>2026-04-11T13:37:49.13Z</time></trkpt><trkpt lat="43.0890949" lon="13.1812321"><ele>1217.6666666666665</ele><time>2026-04-11T13:37:50.129Z</time></trkpt><trkpt lat="43.0891271" lon="13.1811281"><ele>1214.0</ele><time>2026-04-11T13:37:51.13Z</time></trkpt><trkpt lat="43.0891721" lon="13.1810227"><ele>1210.3333333333333</ele><time>2026-04-11T13:37:52.13Z</time></trkpt><trkpt lat="43.0892253" lon="13.1809147"><ele>1206.6666666666667</ele><time>2026-04-11T13:37:53.13Z</time></trkpt><trkpt lat="43.0892804" lon="13.1808118"><ele>1203.0</ele><time>2026-04-11T13:37:54.129Z</time></trkpt><trkpt lat="43.0893306" lon="13.1807024"><ele>1201.5</ele><time>2026-04-11T13:37:55.131Z</time></trkpt><trkpt lat="43.0893706" lon="13.1805915"><ele>1200.0</ele><time>2026-04-11T13:37:56.131Z</time></trkpt><trkpt lat="43.0894031" lon="13.1805052"><ele>1198.5</ele><time>2026-04-11T13:37:57.13Z</time></trkpt><trkpt lat="43.0894677" lon="13.1803866"><ele>1197.0</ele><time>2026-04-11T13:37:59.131Z</time></trkpt><trkpt lat="43.0894955" lon="13.1802877"><ele>1195.5</ele><time>2026-04-11T13:38:01.13Z</time></trkpt><trkpt lat="43.0894625" lon="13.1801806"><ele>1194.0</ele><time>2026-04-11T13:38:03.13Z</time></trkpt><trkpt lat="43.0893958" lon="13.1800283"><ele>1194.0</ele><time>2026-04-11T13:38:05.131Z</time></trkpt><trkpt lat="43.0893521" lon="13.1799372"><ele>1194.0</ele><time>2026-04-11T13:38:06.131Z</time></trkpt><trkpt lat="43.0893078" lon="13.1798477"><ele>1194.0</ele><time>2026-04-11T13:38:07.13Z</time></trkpt><trkpt lat="43.0892544" lon="13.1797537"><ele>1194.0</ele><time>2026-04-11T13:38:08.13Z</time></trkpt><trkpt lat="43.0892032" lon="13.1796657"><ele>1194.0</ele><time>2026-04-11T13:38:09.129Z</time></trkpt><trkpt lat="43.0891468" lon="13.179577"><ele>1194.0</ele><time>2026-04-11T13:38:10.13Z</time></trkpt><trkpt lat="43.0890825" lon="13.1794881"><ele>1192.6666666666667</ele><time>2026-04-11T13:38:11.129Z</time></trkpt><trkpt lat="43.0890139" lon="13.1794073"><ele>1191.3333333333333</ele><time>2026-04-11T13:38:12.131Z</time></trkpt><trkpt lat="43.0889355" lon="13.1793234"><ele>1190.0</ele><time>2026-04-11T13:38:13.13Z</time></trkpt><trkpt lat="43.0888596" lon="13.1792364"><ele>1188.6666666666665</ele><time>2026-04-11T13:38:14.131Z</time></trkpt><trkpt lat="43.0887949" lon="13.1791527"><ele>1187.3333333333333</ele><time>2026-04-11T13:38:15.129Z</time></trkpt><trkpt lat="43.0887494" lon="13.1790821"><ele>1186.0</ele><time>2026-04-11T13:38:16.131Z</time></trkpt><trkpt lat="43.0887054" lon="13.1790002"><ele>1186.0</ele><time>2026-04-11T13:38:18.129Z</time></trkpt><trkpt lat="43.088711" lon="13.1788858"><ele>1186.0</ele><time>2026-04-11T13:38:21.13Z</time></trkpt><trkpt lat="43.0887889" lon="13.1788832"><ele>1186.0</ele><time>2026-04-11T13:38:39.13Z</time></trkpt><trkpt lat="43.0888845" lon="13.1790036"><ele>1186.0</ele><time>2026-04-11T13:38:41.129Z</time></trkpt><trkpt lat="43.088941" lon="13.1790705"><ele>1186.0</ele><time>2026-04-11T13:38:42.13Z</time></trkpt><trkpt lat="43.0890065" lon="13.1791407"><ele>1186.0</ele><time>2026-04-11T13:38:43.129Z</time></trkpt><trkpt lat="43.0890807" lon="13.1792139"><ele>1185.2</ele><time>2026-04-11T13:38:44.131Z</time></trkpt><trkpt lat="43.0891542" lon="13.1792884"><ele>1184.3999999999999</ele><time>2026-04-11T13:38:45.131Z</time></trkpt><trkpt lat="43.0892161" lon="13.179358"><ele>1183.6</ele><time>2026-04-11T13:38:46.13Z</time></trkpt><trkpt lat="43.0892801" lon="13.1794377"><ele>1182.8</ele><time>2026-04-11T13:38:48.131Z</time></trkpt><trkpt lat="43.0893405" lon="13.1795207"><ele>1182.0</ele><time>2026-04-11T13:38:52.13Z</time></trkpt><trkpt lat="43.0894095" lon="13.1796595"><ele>1182.0</ele><time>2026-04-11T13:38:54.129Z</time></trkpt><trkpt lat="43.0894435" lon="13.1797438"><ele>1182.0</ele><time>2026-04-11T13:38:55.13Z</time></trkpt><trkpt lat="43.0894755" lon="13.1798235"><ele>1182.0</ele><time>2026-04-11T13:38:56.131Z</time></trkpt><trkpt lat="43.0895109" lon="13.1799212"><ele>1182.0</ele><time>2026-04-11T13:38:57.131Z</time></trkpt><trkpt lat="43.0895514" lon="13.1800188"><ele>1182.0</ele><time>2026-04-11T13:38:58.13Z</time></trkpt><trkpt lat="43.0895947" lon="13.1801277"><ele>1182.0</ele><time>2026-04-11T13:38:59.13Z</time></trkpt><trkpt lat="43.0896449" lon="13.1802463"><ele>1184.4</ele><time>2026-04-11T13:39:00.132Z</time></trkpt><trkpt lat="43.0896971" lon="13.1803554"><ele>1186.8000000000002</ele><time>2026-04-11T13:39:01.13Z</time></trkpt><trkpt lat="43.0897495" lon="13.1804763"><ele>1189.2</ele><time>2026-04-11T13:39:02.131Z</time></trkpt><trkpt lat="43.0898019" lon="13.180587"><ele>1191.6000000000001</ele><time>2026-04-11T13:39:03.13Z</time></trkpt><trkpt lat="43.089852" lon="13.1806858"><ele>1194.0</ele><time>2026-04-11T13:39:04.131Z</time></trkpt><trkpt lat="43.0898991" lon="13.1807793"><ele>1194.0000000000002</ele><time>2026-04-11T13:39:05.131Z</time></trkpt><trkpt lat="43.0899334" lon="13.1808577"><ele>1194.0</ele><time>2026-04-11T13:39:06.131Z</time></trkpt><trkpt lat="43.0899818" lon="13.1809336"><ele>1194.0</ele><time>2026-04-11T13:39:08.129Z</time></trkpt><trkpt lat="43.090047" lon="13.1809565"><ele>1194.0</ele><time>2026-04-11T13:39:12.13Z</time></trkpt><trkpt lat="43.0901143" lon="13.1809463"><ele>1194.0</ele><time>2026-04-11T13:39:14.13Z</time></trkpt><trkpt lat="43.0902011" lon="13.1809025"><ele>1194.0000000000002</ele><time>2026-04-11T13:39:16.13Z</time></trkpt><trkpt lat="43.0902626" lon="13.1808501"><ele>1194.0</ele><time>2026-04-11T13:39:17.13Z</time></trkpt><trkpt lat="43.0903154" lon="13.1807957"><ele>1194.0</ele><time>2026-04-11T13:39:18.13Z</time></trkpt><trkpt lat="43.0904232" lon="13.1806869"><ele>1194.0</ele><time>2026-04-11T13:39:20.129Z</time></trkpt><trkpt lat="43.0904838" lon="13.18063"><ele>1194.0</ele><time>2026-04-11T13:39:21.131Z</time></trkpt><trkpt lat="43.0905439" lon="13.1805718"><ele>1194.0</ele><time>2026-04-11T13:39:22.13Z</time></trkpt><trkpt lat="43.090608" lon="13.1805035"><ele>1194.0</ele><time>2026-04-11T13:39:23.13Z</time></trkpt><trkpt lat="43.0906627" lon="13.180432"><ele>1194.0</ele><time>2026-04-11T13:39:24.131Z</time></trkpt><trkpt lat="43.0907117" lon="13.1803521"><ele>1190.6666666666667</ele><time>2026-04-11T13:39:25.131Z</time></trkpt><trkpt lat="43.0907588" lon="13.1802634"><ele>1187.3333333333333</ele><time>2026-04-11T13:39:26.13Z</time></trkpt><trkpt lat="43.0907992" lon="13.1801717"><ele>1184.0</ele><time>2026-04-11T13:39:27.129Z</time></trkpt><trkpt lat="43.0908444" lon="13.1800738"><ele>1180.6666666666665</ele><time>2026-04-11T13:39:28.13Z</time></trkpt><trkpt lat="43.090888" lon="13.1799804"><ele>1177.3333333333333</ele><time>2026-04-11T13:39:29.13Z</time></trkpt><trkpt lat="43.0909323" lon="13.1798852"><ele>1174.0</ele><time>2026-04-11T13:39:30.131Z</time></trkpt><trkpt lat="43.0909694" lon="13.1798043"><ele>1172.4285714285716</ele><time>2026-04-11T13:39:31.13Z</time></trkpt><trkpt lat="43.091006" lon="13.17973"><ele>1170.857142857143</ele><time>2026-04-11T13:39:32.13Z</time></trkpt><trkpt lat="43.0910353" lon="13.1796508"><ele>1169.2857142857142</ele><time>2026-04-11T13:39:33.129Z</time></trkpt><trkpt lat="43.0910593" lon="13.1795704"><ele>1167.7142857142858</ele><time>2026-04-11T13:39:34.131Z</time></trkpt><trkpt lat="43.0910721" lon="13.1794634"><ele>1166.142857142857</ele><time>2026-04-11T13:39:35.13Z</time></trkpt><trkpt lat="43.0910729" lon="13.1793635"><ele>1164.5714285714287</ele><time>2026-04-11T13:39:36.129Z</time></trkpt><trkpt lat="43.091068" lon="13.1792573"><ele>1163.0</ele><time>2026-04-11T13:39:37.129Z</time></trkpt><trkpt lat="43.0910516" lon="13.1791306"><ele>1161.1666666666667</ele><time>2026-04-11T13:39:38.13Z</time></trkpt><trkpt lat="43.0910337" lon="13.1790024"><ele>1159.3333333333335</ele><time>2026-04-11T13:39:39.13Z</time></trkpt><trkpt lat="43.0910223" lon="13.1788745"><ele>1157.5</ele><time>2026-04-11T13:39:40.131Z</time></trkpt><trkpt lat="43.0910137" lon="13.1787552"><ele>1155.6666666666667</ele><time>2026-04-11T13:39:41.131Z</time></trkpt><trkpt lat="43.0910115" lon="13.1786437"><ele>1153.8333333333333</ele><time>2026-04-11T13:39:42.13Z</time></trkpt><trkpt lat="43.0910266" lon="13.1785386"><ele>1152.0</ele><time>2026-04-11T13:39:43.13Z</time></trkpt><trkpt lat="43.0910576" lon="13.1784271"><ele>1152.0</ele><time>2026-04-11T13:39:44.13Z</time></trkpt><trkpt lat="43.0910865" lon="13.1783026"><ele>1152.0</ele><time>2026-04-11T13:39:45.129Z</time></trkpt><trkpt lat="43.0911125" lon="13.1781716"><ele>1152.0</ele><time>2026-04-11T13:39:46.13Z</time></trkpt><trkpt lat="43.0911311" lon="13.1780289"><ele>1152.0</ele><time>2026-04-11T13:39:47.131Z</time></trkpt><trkpt lat="43.0911497" lon="13.1778785"><ele>1152.0</ele><time>2026-04-11T13:39:48.131Z</time></trkpt><trkpt lat="43.0911638" lon="13.1777273"><ele>1149.6</ele><time>2026-04-11T13:39:49.13Z</time></trkpt><trkpt lat="43.0911733" lon="13.1775695"><ele>1147.2</ele><time>2026-04-11T13:39:50.13Z</time></trkpt><trkpt lat="43.0911737" lon="13.1774154"><ele>1144.8</ele><time>2026-04-11T13:39:51.13Z</time></trkpt><trkpt lat="43.0911681" lon="13.1772676"><ele>1142.4</ele><time>2026-04-11T13:39:52.131Z</time></trkpt><trkpt lat="43.0911647" lon="13.1771151"><ele>1140.0</ele><time>2026-04-11T13:39:53.13Z</time></trkpt><trkpt lat="43.0911621" lon="13.1769603"><ele>1138.0</ele><time>2026-04-11T13:39:54.129Z</time></trkpt><trkpt lat="43.091163" lon="13.1768157"><ele>1136.0</ele><time>2026-04-11T13:39:55.13Z</time></trkpt><trkpt lat="43.09117" lon="13.176668"><ele>1134.0</ele><time>2026-04-11T13:39:56.13Z</time></trkpt><trkpt lat="43.0911784" lon="13.1765354"><ele>1132.0</ele><time>2026-04-11T13:39:57.13Z</time></trkpt><trkpt lat="43.091191" lon="13.1764054"><ele>1130.0</ele><time>2026-04-11T13:39:58.13Z</time></trkpt><trkpt lat="43.0912048" lon="13.1762567"><ele>1128.2</ele><time>2026-04-11T13:39:59.13Z</time></trkpt><trkpt lat="43.0912223" lon="13.1761129"><ele>1126.4</ele><time>2026-04-11T13:40:00.13Z</time></trkpt><trkpt lat="43.0912376" lon="13.1759675"><ele>1124.6</ele><time>2026-04-11T13:40:01.129Z</time></trkpt><trkpt lat="43.0912576" lon="13.1758341"><ele>1122.8</ele><time>2026-04-11T13:40:02.13Z</time></trkpt><trkpt lat="43.0912752" lon="13.1757046"><ele>1121.0</ele><time>2026-04-11T13:40:03.13Z</time></trkpt><trkpt lat="43.0912853" lon="13.1755901"><ele>1118.3999999999999</ele><time>2026-04-11T13:40:04.13Z</time></trkpt><trkpt lat="43.0913044" lon="13.1754773"><ele>1115.8</ele><time>2026-04-11T13:40:05.129Z</time></trkpt><trkpt lat="43.0913457" lon="13.1753754"><ele>1113.1999999999998</ele><time>2026-04-11T13:40:06.131Z</time></trkpt><trkpt lat="43.0914093" lon="13.1752618"><ele>1110.6</ele><time>2026-04-11T13:40:07.13Z</time></trkpt><trkpt lat="43.0914839" lon="13.175167"><ele>1108.0</ele><time>2026-04-11T13:40:08.131Z</time></trkpt><trkpt lat="43.0915545" lon="13.1750757"><ele>1106.0</ele><time>2026-04-11T13:40:09.13Z</time></trkpt><trkpt lat="43.0916175" lon="13.174982"><ele>1104.0</ele><time>2026-04-11T13:40:10.131Z</time></trkpt><trkpt lat="43.0916789" lon="13.1748708"><ele>1102.0</ele><time>2026-04-11T13:40:11.129Z</time></trkpt><trkpt lat="43.0917109" lon="13.1747378"><ele>1100.0</ele><time>2026-04-11T13:40:12.129Z</time></trkpt><trkpt lat="43.0917579" lon="13.1746103"><ele>1098.0</ele><time>2026-04-11T13:40:13.129Z</time></trkpt><trkpt lat="43.0918002" lon="13.1744769"><ele>1096.0</ele><time>2026-04-11T13:40:14.13Z</time></trkpt><trkpt lat="43.0918411" lon="13.1743498"><ele>1094.0</ele><time>2026-04-11T13:40:15.13Z</time></trkpt><trkpt lat="43.0918739" lon="13.1742306"><ele>1092.0</ele><time>2026-04-11T13:40:16.129Z</time></trkpt><trkpt lat="43.0918742" lon="13.1740955"><ele>1090.0</ele><time>2026-04-11T13:40:17.129Z</time></trkpt><trkpt lat="43.0918771" lon="13.1739494"><ele>1088.0</ele><time>2026-04-11T13:40:18.13Z</time></trkpt><trkpt lat="43.0918803" lon="13.1738127"><ele>1085.8</ele><time>2026-04-11T13:40:19.132Z</time></trkpt><trkpt lat="43.0918821" lon="13.1736749"><ele>1083.6</ele><time>2026-04-11T13:40:20.13Z</time></trkpt><trkpt lat="43.0918953" lon="13.1735442"><ele>1081.4</ele><time>2026-04-11T13:40:21.13Z</time></trkpt><trkpt lat="43.091917" lon="13.1734144"><ele>1079.2</ele><time>2026-04-11T13:40:22.129Z</time></trkpt><trkpt lat="43.0919411" lon="13.1732756"><ele>1077.0</ele><time>2026-04-11T13:40:23.13Z</time></trkpt><trkpt lat="43.091963" lon="13.1731447"><ele>1074.8</ele><time>2026-04-11T13:40:24.13Z</time></trkpt><trkpt lat="43.0919848" lon="13.1730109"><ele>1072.6</ele><time>2026-04-11T13:40:25.131Z</time></trkpt><trkpt lat="43.0920061" lon="13.1728762"><ele>1070.3999999999999</ele><time>2026-04-11T13:40:26.13Z</time></trkpt><trkpt lat="43.0920268" lon="13.1727489"><ele>1068.2</ele><time>2026-04-11T13:40:27.13Z</time></trkpt><trkpt lat="43.0920442" lon="13.1726079"><ele>1066.0</ele><time>2026-04-11T13:40:28.131Z</time></trkpt><trkpt lat="43.0920635" lon="13.1724675"><ele>1063.3999999999999</ele><time>2026-04-11T13:40:29.131Z</time></trkpt><trkpt lat="43.0920882" lon="13.1723281"><ele>1060.8</ele><time>2026-04-11T13:40:30.131Z</time></trkpt><trkpt lat="43.0921109" lon="13.1721865"><ele>1058.1999999999998</ele><time>2026-04-11T13:40:31.132Z</time></trkpt><trkpt lat="43.092134" lon="13.1720437"><ele>1055.6</ele><time>2026-04-11T13:40:32.13Z</time></trkpt><trkpt lat="43.0921657" lon="13.171876"><ele>1053.0</ele><time>2026-04-11T13:40:33.129Z</time></trkpt><trkpt lat="43.0921965" lon="13.1717017"><ele>1050.0</ele><time>2026-04-11T13:40:34.13Z</time></trkpt><trkpt lat="43.0922361" lon="13.1715133"><ele>1047.0</ele><time>2026-04-11T13:40:35.13Z</time></trkpt><trkpt lat="43.0922746" lon="13.1713263"><ele>1044.0</ele><time>2026-04-11T13:40:36.13Z</time></trkpt><trkpt lat="43.0923146" lon="13.171144"><ele>1041.0</ele><time>2026-04-11T13:40:37.13Z</time></trkpt><trkpt lat="43.0923541" lon="13.1709544"><ele>1041.0</ele><time>2026-04-11T13:40:38.129Z</time></trkpt><trkpt lat="43.0923886" lon="13.1707746"><ele>1041.0</ele><time>2026-04-11T13:40:39.13Z</time></trkpt><trkpt lat="43.0924189" lon="13.1705938"><ele>1041.0</ele><time>2026-04-11T13:40:40.13Z</time></trkpt><trkpt lat="43.0924415" lon="13.1704063"><ele>1041.0</ele><time>2026-04-11T13:40:41.13Z</time></trkpt><trkpt lat="43.0924545" lon="13.1702205"><ele>1036.0</ele><time>2026-04-11T13:40:42.13Z</time></trkpt><trkpt lat="43.0924697" lon="13.1700409"><ele>1031.0</ele><time>2026-04-11T13:40:43.131Z</time></trkpt><trkpt lat="43.0924706" lon="13.1698737"><ele>1026.0</ele><time>2026-04-11T13:40:44.13Z</time></trkpt><trkpt lat="43.0924735" lon="13.169722"><ele>1021.0</ele><time>2026-04-11T13:40:45.129Z</time></trkpt><trkpt lat="43.092478" lon="13.1695867"><ele>1019.4999999999999</ele><time>2026-04-11T13:40:46.13Z</time></trkpt><trkpt lat="43.0924798" lon="13.1694659"><ele>1018.0</ele><time>2026-04-11T13:40:47.129Z</time></trkpt><trkpt lat="43.0924784" lon="13.1693586"><ele>1016.5</ele><time>2026-04-11T13:40:48.13Z</time></trkpt><trkpt lat="43.0924709" lon="13.169253"><ele>1015.0</ele><time>2026-04-11T13:40:49.13Z</time></trkpt><trkpt lat="43.0924213" lon="13.1691137"><ele>1013.4999999999999</ele><time>2026-04-11T13:40:51.131Z</time></trkpt><trkpt lat="43.0923599" lon="13.1690517"><ele>1012.0</ele><time>2026-04-11T13:40:53.13Z</time></trkpt><trkpt lat="43.0922734" lon="13.1690255"><ele>1011.9999999999999</ele><time>2026-04-11T13:40:55.131Z</time></trkpt><trkpt lat="43.092199" lon="13.1690177"><ele>1012.0</ele><time>2026-04-11T13:40:57.13Z</time></trkpt><trkpt lat="43.0921351" lon="13.1690174"><ele>1012.0</ele><time>2026-04-11T13:41:00.131Z</time></trkpt><trkpt lat="43.092056" lon="13.1690273"><ele>1012.0</ele><time>2026-04-11T13:41:09.132Z</time></trkpt><trkpt lat="43.0919885" lon="13.1690836"><ele>1011.9999999999999</ele><time>2026-04-11T13:41:11.13Z</time></trkpt><trkpt lat="43.0919286" lon="13.1691698"><ele>1012.0</ele><time>2026-04-11T13:41:13.13Z</time></trkpt><trkpt lat="43.0918735" lon="13.1692742"><ele>1011.9999999999999</ele><time>2026-04-11T13:41:15.131Z</time></trkpt><trkpt lat="43.0918261" lon="13.1694002"><ele>1012.0</ele><time>2026-04-11T13:41:17.129Z</time></trkpt><trkpt lat="43.0917966" lon="13.1695449"><ele>1012.0</ele><time>2026-04-11T13:41:19.13Z</time></trkpt><trkpt lat="43.0917541" lon="13.1696331"><ele>1012.0</ele><time>2026-04-11T13:41:21.131Z</time></trkpt><trkpt lat="43.0916864" lon="13.1696002"><ele>1011.9999999999999</ele><time>2026-04-11T13:41:24.13Z</time></trkpt><trkpt lat="43.0917036" lon="13.1695065"><ele>1012.0</ele><time>2026-04-11T13:41:26.131Z</time></trkpt><trkpt lat="43.0917431" lon="13.1694351"><ele>1012.0</ele><time>2026-04-11T13:41:27.129Z</time></trkpt><trkpt lat="43.0917983" lon="13.169341"><ele>1012.0</ele><time>2026-04-11T13:41:28.13Z</time></trkpt><trkpt lat="43.0918673" lon="13.1692289"><ele>1012.0</ele><time>2026-04-11T13:41:29.13Z</time></trkpt><trkpt lat="43.0919432" lon="13.1691027"><ele>1012.0</ele><time>2026-04-11T13:41:30.131Z</time></trkpt><trkpt lat="43.0920146" lon="13.1689735"><ele>1012.0</ele><time>2026-04-11T13:41:31.13Z</time></trkpt><trkpt lat="43.0920786" lon="13.1688618"><ele>1009.4999999999999</ele><time>2026-04-11T13:41:32.129Z</time></trkpt><trkpt lat="43.0921368" lon="13.1687558"><ele>1007.0</ele><time>2026-04-11T13:41:33.13Z</time></trkpt><trkpt lat="43.0921801" lon="13.1686617"><ele>1004.5</ele><time>2026-04-11T13:41:34.13Z</time></trkpt><trkpt lat="43.0922116" lon="13.1685567"><ele>1002.0</ele><time>2026-04-11T13:41:35.13Z</time></trkpt><trkpt lat="43.0922398" lon="13.1684433"><ele>999.4999999999999</ele><time>2026-04-11T13:41:36.13Z</time></trkpt><trkpt lat="43.0922667" lon="13.1683211"><ele>997.0</ele><time>2026-04-11T13:41:37.13Z</time></trkpt><trkpt lat="43.0922949" lon="13.1681948"><ele>993.0</ele><time>2026-04-11T13:41:38.129Z</time></trkpt><trkpt lat="43.0923239" lon="13.1680804"><ele>989.0</ele><time>2026-04-11T13:41:39.13Z</time></trkpt><trkpt lat="43.092359" lon="13.1679527"><ele>985.0</ele><time>2026-04-11T13:41:40.13Z</time></trkpt><trkpt lat="43.0923935" lon="13.1678168"><ele>981.0</ele><time>2026-04-11T13:41:41.129Z</time></trkpt><trkpt lat="43.0924264" lon="13.1676851"><ele>977.0</ele><time>2026-04-11T13:41:42.131Z</time></trkpt><trkpt lat="43.0924627" lon="13.1675497"><ele>976.4000000000001</ele><time>2026-04-11T13:41:43.129Z</time></trkpt><trkpt lat="43.0924967" lon="13.1674208"><ele>975.8000000000001</ele><time>2026-04-11T13:41:44.13Z</time></trkpt><trkpt lat="43.0925329" lon="13.16729"><ele>975.2</ele><time>2026-04-11T13:41:45.13Z</time></trkpt><trkpt lat="43.0925736" lon="13.1671602"><ele>974.6</ele><time>2026-04-11T13:41:46.131Z</time></trkpt><trkpt lat="43.0926325" lon="13.1670069"><ele>974.0</ele><time>2026-04-11T13:41:47.129Z</time></trkpt><trkpt lat="43.0926936" lon="13.1668478"><ele>970.25</ele><time>2026-04-11T13:41:48.131Z</time></trkpt><trkpt lat="43.0927591" lon="13.1666866"><ele>966.5</ele><time>2026-04-11T13:41:49.131Z</time></trkpt><trkpt lat="43.0928181" lon="13.1665263"><ele>962.75</ele><time>2026-04-11T13:41:50.13Z</time></trkpt><trkpt lat="43.0928866" lon="13.1663639"><ele>959.0</ele><time>2026-04-11T13:41:51.13Z</time></trkpt><trkpt lat="43.0929486" lon="13.166198"><ele>955.5</ele><time>2026-04-11T13:41:52.129Z</time></trkpt><trkpt lat="43.0930104" lon="13.1660268"><ele>952.0</ele><time>2026-04-11T13:41:53.13Z</time></trkpt><trkpt lat="43.0930681" lon="13.1658556"><ele>948.5</ele><time>2026-04-11T13:41:54.131Z</time></trkpt><trkpt lat="43.093111" lon="13.1656608"><ele>945.0</ele><time>2026-04-11T13:41:55.13Z</time></trkpt><trkpt lat="43.0931465" lon="13.1654662"><ele>941.75</ele><time>2026-04-11T13:41:56.129Z</time></trkpt><trkpt lat="43.0931658" lon="13.1652692"><ele>938.5</ele><time>2026-04-11T13:41:57.13Z</time></trkpt><trkpt lat="43.093176" lon="13.1650763"><ele>935.25</ele><time>2026-04-11T13:41:58.131Z</time></trkpt><trkpt lat="43.0931844" lon="13.1648981"><ele>932.0</ele><time>2026-04-11T13:41:59.129Z</time></trkpt><trkpt lat="43.0931883" lon="13.1647228"><ele>930.6</ele><time>2026-04-11T13:42:00.131Z</time></trkpt><trkpt lat="43.0931653" lon="13.1645636"><ele>929.2</ele><time>2026-04-11T13:42:01.13Z</time></trkpt><trkpt lat="43.0931249" lon="13.1644267"><ele>927.8</ele><time>2026-04-11T13:42:02.131Z</time></trkpt><trkpt lat="43.0930891" lon="13.1642847"><ele>926.4</ele><time>2026-04-11T13:42:03.129Z</time></trkpt><trkpt lat="43.0930878" lon="13.1641607"><ele>925.0</ele><time>2026-04-11T13:42:04.129Z</time></trkpt><trkpt lat="43.0930997" lon="13.1640583"><ele>923.6</ele><time>2026-04-11T13:42:05.13Z</time></trkpt><trkpt lat="43.0931153" lon="13.1639332"><ele>922.2</ele><time>2026-04-11T13:42:06.13Z</time></trkpt><trkpt lat="43.0931142" lon="13.1638141"><ele>920.8</ele><time>2026-04-11T13:42:07.13Z</time></trkpt><trkpt lat="43.093122" lon="13.1637021"><ele>919.4</ele><time>2026-04-11T13:42:08.131Z</time></trkpt><trkpt lat="43.0931433" lon="13.1635657"><ele>918.0</ele><time>2026-04-11T13:42:09.131Z</time></trkpt><trkpt lat="43.0931462" lon="13.1634253"><ele>918.0</ele><time>2026-04-11T13:42:10.13Z</time></trkpt><trkpt lat="43.093139" lon="13.1632975"><ele>918.0</ele><time>2026-04-11T13:42:11.13Z</time></trkpt><trkpt lat="43.0931461" lon="13.1631698"><ele>918.0</ele><time>2026-04-11T13:42:12.131Z</time></trkpt><trkpt lat="43.0931644" lon="13.1630388"><ele>918.0</ele><time>2026-04-11T13:42:13.13Z</time></trkpt><trkpt lat="43.0932032" lon="13.1629018"><ele>918.0</ele><time>2026-04-11T13:42:14.131Z</time></trkpt><trkpt lat="43.0932491" lon="13.1627869"><ele>916.8333333333334</ele><time>2026-04-11T13:42:15.131Z</time></trkpt><trkpt lat="43.0933022" lon="13.1626802"><ele>915.6666666666667</ele><time>2026-04-11T13:42:16.131Z</time></trkpt><trkpt lat="43.0933618" lon="13.1625989"><ele>914.5</ele><time>2026-04-11T13:42:17.131Z</time></trkpt><trkpt lat="43.0934148" lon="13.1625055"><ele>913.3333333333334</ele><time>2026-04-11T13:42:18.13Z</time></trkpt><trkpt lat="43.0934555" lon="13.1624187"><ele>912.1666666666667</ele><time>2026-04-11T13:42:19.13Z</time></trkpt><trkpt lat="43.0934929" lon="13.1623419"><ele>911.0</ele><time>2026-04-11T13:42:20.13Z</time></trkpt><trkpt lat="43.0935179" lon="13.1622571"><ele>909.1666666666667</ele><time>2026-04-11T13:42:21.129Z</time></trkpt><trkpt lat="43.093501" lon="13.1621691"><ele>907.3333333333334</ele><time>2026-04-11T13:42:22.129Z</time></trkpt><trkpt lat="43.0934767" lon="13.1620524"><ele>905.5</ele><time>2026-04-11T13:42:24.13Z</time></trkpt><trkpt lat="43.0934168" lon="13.1619959"><ele>903.6666666666667</ele><time>2026-04-11T13:43:33.13Z</time></trkpt><trkpt lat="43.0934625" lon="13.1619072"><ele>901.8333333333334</ele><time>2026-04-11T13:43:36.13Z</time></trkpt><trkpt lat="43.0935287" lon="13.1619384"><ele>900.0</ele><time>2026-04-11T13:43:38.13Z</time></trkpt><trkpt lat="43.0936009" lon="13.1619301"><ele>900.0</ele><time>2026-04-11T13:43:40.13Z</time></trkpt><trkpt lat="43.0936278" lon="13.1618469"><ele>900.0</ele><time>2026-04-11T13:43:42.131Z</time></trkpt><trkpt lat="43.0936276" lon="13.1617301"><ele>900.0</ele><time>2026-04-11T13:43:44.129Z</time></trkpt><trkpt lat="43.0936525" lon="13.161601"><ele>900.0</ele><time>2026-04-11T13:43:46.129Z</time></trkpt><trkpt lat="43.093679" lon="13.1615191"><ele>900.0</ele><time>2026-04-11T13:43:47.13Z</time></trkpt><trkpt lat="43.0937042" lon="13.1614316"><ele>900.0</ele><time>2026-04-11T13:43:48.129Z</time></trkpt><trkpt lat="43.0937322" lon="13.1612928"><ele>897.0</ele><time>2026-04-11T13:43:50.13Z</time></trkpt><trkpt lat="43.0937524" lon="13.161117"><ele>894.0</ele><time>2026-04-11T13:43:52.131Z</time></trkpt><trkpt lat="43.0937909" lon="13.1609735"><ele>891.0</ele><time>2026-04-11T13:43:54.131Z</time></trkpt><trkpt lat="43.0938364" lon="13.1609084"><ele>888.0</ele><time>2026-04-11T13:43:55.13Z</time></trkpt><trkpt lat="43.0938936" lon="13.160795"><ele>885.0</ele><time>2026-04-11T13:43:57.129Z</time></trkpt><trkpt lat="43.0938964" lon="13.1606565"><ele>881.6666666666666</ele><time>2026-04-11T13:43:59.13Z</time></trkpt><trkpt lat="43.0939008" lon="13.1605683"><ele>878.3333333333333</ele><time>2026-04-11T13:44:00.131Z</time></trkpt><trkpt lat="43.0939115" lon="13.1604778"><ele>875.0</ele><time>2026-04-11T13:44:01.129Z</time></trkpt><trkpt lat="43.0939178" lon="13.1603832"><ele>871.6666666666666</ele><time>2026-04-11T13:44:02.13Z</time></trkpt><trkpt lat="43.0939308" lon="13.1602823"><ele>868.3333333333333</ele><time>2026-04-11T13:44:03.129Z</time></trkpt><trkpt lat="43.0939411" lon="13.1601247"><ele>865.0</ele><time>2026-04-11T13:44:05.13Z</time></trkpt><trkpt lat="43.0939566" lon="13.1599833"><ele>863.0</ele><time>2026-04-11T13:44:07.13Z</time></trkpt><trkpt lat="43.0939524" lon="13.1598522"><ele>861.0</ele><time>2026-04-11T13:44:09.129Z</time></trkpt><trkpt lat="43.093968" lon="13.159695"><ele>859.0</ele><time>2026-04-11T13:44:11.13Z</time></trkpt><trkpt lat="43.0940222" lon="13.1595618"><ele>857.0</ele><time>2026-04-11T13:44:13.13Z</time></trkpt><trkpt lat="43.0941005" lon="13.159427"><ele>855.0</ele><time>2026-04-11T13:44:15.13Z</time></trkpt><trkpt lat="43.0941453" lon="13.1593137"><ele>853.2</ele><time>2026-04-11T13:44:17.13Z</time></trkpt><trkpt lat="43.0941432" lon="13.1591925"><ele>851.4</ele><time>2026-04-11T13:44:19.131Z</time></trkpt><trkpt lat="43.0941291" lon="13.1590981"><ele>849.5999999999999</ele><time>2026-04-11T13:44:20.129Z</time></trkpt><trkpt lat="43.0941136" lon="13.1589152"><ele>847.8</ele><time>2026-04-11T13:44:22.131Z</time></trkpt><trkpt lat="43.094153" lon="13.1588315"><ele>846.0</ele><time>2026-04-11T13:44:23.13Z</time></trkpt><trkpt lat="43.0941778" lon="13.1587219"><ele>844.3333333333334</ele><time>2026-04-11T13:44:24.13Z</time></trkpt><trkpt lat="43.0941919" lon="13.1586101"><ele>842.6666666666667</ele><time>2026-04-11T13:44:25.131Z</time></trkpt><trkpt lat="43.0942034" lon="13.1584822"><ele>841.0</ele><time>2026-04-11T13:44:26.131Z</time></trkpt><trkpt lat="43.0942068" lon="13.1583615"><ele>839.3333333333334</ele><time>2026-04-11T13:44:27.13Z</time></trkpt><trkpt lat="43.0942208" lon="13.1582531"><ele>837.6666666666667</ele><time>2026-04-11T13:44:28.13Z</time></trkpt><trkpt lat="43.0942147" lon="13.1581391"><ele>836.0</ele><time>2026-04-11T13:44:29.13Z</time></trkpt><trkpt lat="43.094163" lon="13.1580449"><ele>834.3333333333334</ele><time>2026-04-11T13:44:30.13Z</time></trkpt><trkpt lat="43.094167" lon="13.1579322"><ele>832.6666666666667</ele><time>2026-04-11T13:44:31.13Z</time></trkpt><trkpt lat="43.0941855" lon="13.157816"><ele>831.0</ele><time>2026-04-11T13:44:32.131Z</time></trkpt><trkpt lat="43.0942139" lon="13.1577003"><ele>829.3333333333333</ele><time>2026-04-11T13:44:33.13Z</time></trkpt><trkpt lat="43.0942079" lon="13.1575659"><ele>827.6666666666666</ele><time>2026-04-11T13:44:34.131Z</time></trkpt><trkpt lat="43.094203" lon="13.1574415"><ele>826.0</ele><time>2026-04-11T13:44:35.13Z</time></trkpt><trkpt lat="43.0941974" lon="13.1573427"><ele>824.1666666666666</ele><time>2026-04-11T13:44:36.13Z</time></trkpt><trkpt lat="43.0942064" lon="13.1572267"><ele>822.3333333333333</ele><time>2026-04-11T13:44:37.13Z</time></trkpt><trkpt lat="43.0942065" lon="13.1570315"><ele>820.5</ele><time>2026-04-11T13:44:39.13Z</time></trkpt><trkpt lat="43.0941926" lon="13.1569382"><ele>818.6666666666667</ele><time>2026-04-11T13:44:40.13Z</time></trkpt><trkpt lat="43.0941721" lon="13.156841"><ele>816.8333333333334</ele><time>2026-04-11T13:44:41.129Z</time></trkpt><trkpt lat="43.0941707" lon="13.1567463"><ele>815.0</ele><time>2026-04-11T13:44:42.131Z</time></trkpt><trkpt lat="43.0941892" lon="13.1565689"><ele>812.5000000000001</ele><time>2026-04-11T13:44:44.132Z</time></trkpt><trkpt lat="43.0941999" lon="13.1564784"><ele>810.0</ele><time>2026-04-11T13:44:45.13Z</time></trkpt><trkpt lat="43.0942105" lon="13.1562922"><ele>807.5</ele><time>2026-04-11T13:44:47.129Z</time></trkpt><trkpt lat="43.0942318" lon="13.1562095"><ele>805.0</ele><time>2026-04-11T13:44:48.13Z</time></trkpt><trkpt lat="43.0942629" lon="13.1561108"><ele>802.5000000000001</ele><time>2026-04-11T13:44:49.129Z</time></trkpt><trkpt lat="43.0942941" lon="13.1560214"><ele>800.0</ele><time>2026-04-11T13:44:50.131Z</time></trkpt><trkpt lat="43.094334" lon="13.1559322"><ele>800.0000000000001</ele><time>2026-04-11T13:44:51.131Z</time></trkpt><trkpt lat="43.094359" lon="13.1558466"><ele>800.0</ele><time>2026-04-11T13:44:52.13Z</time></trkpt><trkpt lat="43.0944452" lon="13.155734"><ele>800.0</ele><time>2026-04-11T13:44:54.13Z</time></trkpt><trkpt lat="43.0944909" lon="13.1556746"><ele>800.0</ele><time>2026-04-11T13:44:55.13Z</time></trkpt><trkpt lat="43.0945406" lon="13.1556144"><ele>800.0000000000001</ele><time>2026-04-11T13:44:56.13Z</time></trkpt><trkpt lat="43.0945907" lon="13.155555"><ele>800.0</ele><time>2026-04-11T13:44:57.131Z</time></trkpt><trkpt lat="43.0946869" lon="13.1554325"><ele>797.3333333333334</ele><time>2026-04-11T13:44:59.129Z</time></trkpt><trkpt lat="43.0947462" lon="13.1553381"><ele>794.6666666666667</ele><time>2026-04-11T13:45:00.13Z</time></trkpt><trkpt lat="43.0948044" lon="13.1552445"><ele>792.0</ele><time>2026-04-11T13:45:01.131Z</time></trkpt><trkpt lat="43.094862" lon="13.1551507"><ele>789.3333333333333</ele><time>2026-04-11T13:45:02.13Z</time></trkpt><trkpt lat="43.0949126" lon="13.1550595"><ele>786.6666666666666</ele><time>2026-04-11T13:45:03.132Z</time></trkpt><trkpt lat="43.0949697" lon="13.1549639"><ele>784.0</ele><time>2026-04-11T13:45:04.13Z</time></trkpt><trkpt lat="43.0950247" lon="13.154879"><ele>782.4999999999999</ele><time>2026-04-11T13:45:05.131Z</time></trkpt><trkpt lat="43.0950751" lon="13.1547823"><ele>781.0</ele><time>2026-04-11T13:45:06.13Z</time></trkpt><trkpt lat="43.0951286" lon="13.1546768"><ele>779.5</ele><time>2026-04-11T13:45:07.129Z</time></trkpt><trkpt lat="43.095179" lon="13.1545683"><ele>778.0</ele><time>2026-04-11T13:45:08.13Z</time></trkpt><trkpt lat="43.095216" lon="13.1544681"><ele>776.4999999999999</ele><time>2026-04-11T13:45:09.131Z</time></trkpt><trkpt lat="43.0952411" lon="13.1543597"><ele>775.0</ele><time>2026-04-11T13:45:10.129Z</time></trkpt><trkpt lat="43.0952552" lon="13.154244"><ele>774.9999999999999</ele><time>2026-04-11T13:45:11.129Z</time></trkpt><trkpt lat="43.095261" lon="13.1541246"><ele>775.0</ele><time>2026-04-11T13:45:12.13Z</time></trkpt><trkpt lat="43.09527" lon="13.1540085"><ele>775.0</ele><time>2026-04-11T13:45:13.13Z</time></trkpt><trkpt lat="43.0952864" lon="13.1538997"><ele>775.0</ele><time>2026-04-11T13:45:14.129Z</time></trkpt><trkpt lat="43.0953015" lon="13.1537997"><ele>774.9999999999999</ele><time>2026-04-11T13:45:15.13Z</time></trkpt><trkpt lat="43.0953128" lon="13.1537084"><ele>775.0</ele><time>2026-04-11T13:45:16.13Z</time></trkpt><trkpt lat="43.0953132" lon="13.1536176"><ele>772.6666666666666</ele><time>2026-04-11T13:45:17.13Z</time></trkpt><trkpt lat="43.0953138" lon="13.1535198"><ele>770.3333333333333</ele><time>2026-04-11T13:45:18.13Z</time></trkpt><trkpt lat="43.0953278" lon="13.1534063"><ele>768.0</ele><time>2026-04-11T13:45:19.13Z</time></trkpt><trkpt lat="43.0953366" lon="13.1532877"><ele>765.6666666666666</ele><time>2026-04-11T13:45:20.13Z</time></trkpt><trkpt lat="43.0953348" lon="13.1531695"><ele>763.3333333333333</ele><time>2026-04-11T13:45:21.131Z</time></trkpt><trkpt lat="43.0953346" lon="13.15307"><ele>761.0</ele><time>2026-04-11T13:45:22.129Z</time></trkpt><trkpt lat="43.0953259" lon="13.1529666"><ele>758.1999999999999</ele><time>2026-04-11T13:45:23.129Z</time></trkpt><trkpt lat="43.0953239" lon="13.1528685"><ele>755.4</ele><time>2026-04-11T13:45:24.129Z</time></trkpt><trkpt lat="43.0953139" lon="13.1527676"><ele>752.6</ele><time>2026-04-11T13:45:25.129Z</time></trkpt><trkpt lat="43.0952767" lon="13.1525946"><ele>749.8</ele><time>2026-04-11T13:45:27.129Z</time></trkpt><trkpt lat="43.0952581" lon="13.1524407"><ele>747.0</ele><time>2026-04-11T13:45:29.13Z</time></trkpt><trkpt lat="43.09521" lon="13.1522852"><ele>744.3333333333334</ele><time>2026-04-11T13:45:31.129Z</time></trkpt><trkpt lat="43.0951915" lon="13.1521868"><ele>741.6666666666666</ele><time>2026-04-11T13:45:32.13Z</time></trkpt><trkpt lat="43.095183" lon="13.1520811"><ele>739.0</ele><time>2026-04-11T13:45:33.13Z</time></trkpt><trkpt lat="43.0951672" lon="13.1519572"><ele>736.3333333333333</ele><time>2026-04-11T13:45:34.13Z</time></trkpt><trkpt lat="43.0951473" lon="13.1518414"><ele>733.6666666666666</ele><time>2026-04-11T13:45:35.13Z</time></trkpt><trkpt lat="43.0951291" lon="13.1517274"><ele>731.0</ele><time>2026-04-11T13:45:36.13Z</time></trkpt><trkpt lat="43.0951083" lon="13.1516136"><ele>728.1666666666666</ele><time>2026-04-11T13:45:37.131Z</time></trkpt><trkpt lat="43.0950945" lon="13.1515106"><ele>725.3333333333333</ele><time>2026-04-11T13:45:38.13Z</time></trkpt><trkpt lat="43.0950734" lon="13.1514099"><ele>722.5</ele><time>2026-04-11T13:45:39.13Z</time></trkpt><trkpt lat="43.0950438" lon="13.151328"><ele>719.6666666666666</ele><time>2026-04-11T13:45:40.13Z</time></trkpt><trkpt lat="43.0950112" lon="13.1512501"><ele>716.8333333333334</ele><time>2026-04-11T13:45:41.129Z</time></trkpt><trkpt lat="43.0949745" lon="13.1511666"><ele>714.0</ele><time>2026-04-11T13:45:42.129Z</time></trkpt><trkpt lat="43.0949285" lon="13.1510238"><ele>713.1666666666666</ele><time>2026-04-11T13:45:44.131Z</time></trkpt><trkpt lat="43.0948934" lon="13.1509423"><ele>712.3333333333334</ele><time>2026-04-11T13:45:45.13Z</time></trkpt><trkpt lat="43.0948545" lon="13.1508571"><ele>711.5</ele><time>2026-04-11T13:45:46.13Z</time></trkpt><trkpt lat="43.094816" lon="13.1507768"><ele>710.6666666666667</ele><time>2026-04-11T13:45:47.129Z</time></trkpt><trkpt lat="43.0947664" lon="13.1506608"><ele>709.8333333333334</ele><time>2026-04-11T13:45:49.13Z</time></trkpt><trkpt lat="43.0948032" lon="13.1505664"><ele>709.0</ele><time>2026-04-11T13:45:51.13Z</time></trkpt><trkpt lat="43.0948585" lon="13.1504388"><ele>706.6666666666667</ele><time>2026-04-11T13:45:53.13Z</time></trkpt><trkpt lat="43.0949073" lon="13.1503607"><ele>704.3333333333334</ele><time>2026-04-11T13:45:54.13Z</time></trkpt><trkpt lat="43.0950034" lon="13.150286"><ele>702.0</ele><time>2026-04-11T13:45:56.129Z</time></trkpt><trkpt lat="43.0951117" lon="13.1502632"><ele>699.6666666666666</ele><time>2026-04-11T13:45:58.13Z</time></trkpt><trkpt lat="43.0951828" lon="13.1502656"><ele>697.3333333333333</ele><time>2026-04-11T13:45:59.13Z</time></trkpt><trkpt lat="43.0952597" lon="13.1502626"><ele>695.0</ele><time>2026-04-11T13:46:00.129Z</time></trkpt><trkpt lat="43.0953299" lon="13.1502605"><ele>695.0000000000001</ele><time>2026-04-11T13:46:01.13Z</time></trkpt><trkpt lat="43.0954027" lon="13.1502507"><ele>695.0</ele><time>2026-04-11T13:46:02.129Z</time></trkpt><trkpt lat="43.0954681" lon="13.1502303"><ele>695.0</ele><time>2026-04-11T13:46:03.13Z</time></trkpt><trkpt lat="43.0955335" lon="13.1502044"><ele>695.0</ele><time>2026-04-11T13:46:04.129Z</time></trkpt><trkpt lat="43.0955837" lon="13.1501522"><ele>695.0</ele><time>2026-04-11T13:46:05.13Z</time></trkpt><trkpt lat="43.0956171" lon="13.1500326"><ele>695.0000000000001</ele><time>2026-04-11T13:46:07.13Z</time></trkpt><trkpt lat="43.0956263" lon="13.1499467"><ele>695.0</ele><time>2026-04-11T13:46:08.13Z</time></trkpt><trkpt lat="43.0956376" lon="13.1498546"><ele>692.0</ele><time>2026-04-11T13:46:09.129Z</time></trkpt><trkpt lat="43.0956575" lon="13.14975"><ele>689.0</ele><time>2026-04-11T13:46:10.13Z</time></trkpt><trkpt lat="43.0956699" lon="13.1496508"><ele>686.0</ele><time>2026-04-11T13:46:11.13Z</time></trkpt><trkpt lat="43.0956835" lon="13.1495468"><ele>683.0</ele><time>2026-04-11T13:46:12.13Z</time></trkpt><trkpt lat="43.0957" lon="13.1494519"><ele>680.0</ele><time>2026-04-11T13:46:13.13Z</time></trkpt><trkpt lat="43.0957218" lon="13.1493559"><ele>677.0</ele><time>2026-04-11T13:46:14.13Z</time></trkpt><trkpt lat="43.09574" lon="13.1491964"><ele>677.0</ele><time>2026-04-11T13:46:16.131Z</time></trkpt><trkpt lat="43.0956913" lon="13.1490431"><ele>677.0</ele><time>2026-04-11T13:46:18.13Z</time></trkpt><trkpt lat="43.0956733" lon="13.148904"><ele>677.0</ele><time>2026-04-11T13:46:20.13Z</time></trkpt><trkpt lat="43.09572" lon="13.1487387"><ele>677.0</ele><time>2026-04-11T13:46:22.131Z</time></trkpt><trkpt lat="43.0957674" lon="13.1486513"><ele>677.0</ele><time>2026-04-11T13:46:23.13Z</time></trkpt><trkpt lat="43.0958316" lon="13.1485594"><ele>675.0</ele><time>2026-04-11T13:46:24.13Z</time></trkpt><trkpt lat="43.0959013" lon="13.1484621"><ele>673.0</ele><time>2026-04-11T13:46:25.129Z</time></trkpt><trkpt lat="43.0959572" lon="13.1483629"><ele>671.0</ele><time>2026-04-11T13:46:26.13Z</time></trkpt><trkpt lat="43.0960196" lon="13.1482707"><ele>669.0</ele><time>2026-04-11T13:46:27.129Z</time></trkpt><trkpt lat="43.0960662" lon="13.1481764"><ele>667.0</ele><time>2026-04-11T13:46:28.131Z</time></trkpt><trkpt lat="43.0961084" lon="13.1480793"><ele>665.0</ele><time>2026-04-11T13:46:29.13Z</time></trkpt><trkpt lat="43.096144" lon="13.1479896"><ele>662.8333333333333</ele><time>2026-04-11T13:46:30.13Z</time></trkpt><trkpt lat="43.0961702" lon="13.1478898"><ele>660.6666666666666</ele><time>2026-04-11T13:46:31.131Z</time></trkpt><trkpt lat="43.0961974" lon="13.147781"><ele>658.5</ele><time>2026-04-11T13:46:32.129Z</time></trkpt><trkpt lat="43.0962253" lon="13.1476643"><ele>656.3333333333334</ele><time>2026-04-11T13:46:33.129Z</time></trkpt><trkpt lat="43.0962522" lon="13.1475583"><ele>654.1666666666667</ele><time>2026-04-11T13:46:34.13Z</time></trkpt><trkpt lat="43.0962824" lon="13.1474445"><ele>652.0</ele><time>2026-04-11T13:46:35.131Z</time></trkpt><trkpt lat="43.0963106" lon="13.1473611"><ele>648.4</ele><time>2026-04-11T13:46:36.131Z</time></trkpt><trkpt lat="43.0963456" lon="13.1472825"><ele>644.8000000000001</ele><time>2026-04-11T13:46:37.13Z</time></trkpt><trkpt lat="43.0964341" lon="13.1471769"><ele>641.2</ele><time>2026-04-11T13:46:39.13Z</time></trkpt><trkpt lat="43.0964739" lon="13.1470711"><ele>637.6</ele><time>2026-04-11T13:46:41.131Z</time></trkpt><trkpt lat="43.0964659" lon="13.1469375"><ele>634.0</ele><time>2026-04-11T13:46:43.13Z</time></trkpt><trkpt lat="43.0964665" lon="13.1468178"><ele>634.0</ele><time>2026-04-11T13:46:45.129Z</time></trkpt><trkpt lat="43.096462" lon="13.1467215"><ele>634.0</ele><time>2026-04-11T13:46:47.129Z</time></trkpt><trkpt lat="43.0964123" lon="13.1466469"><ele>634.0</ele><time>2026-04-11T13:47:09.131Z</time></trkpt><trkpt lat="43.0963129" lon="13.1466723"><ele>634.0</ele><time>2026-04-11T13:47:11.129Z</time></trkpt><trkpt lat="43.0962316" lon="13.1466911"><ele>634.0</ele><time>2026-04-11T13:47:12.13Z</time></trkpt><trkpt lat="43.0961408" lon="13.1467056"><ele>634.0</ele><time>2026-04-11T13:47:13.13Z</time></trkpt><trkpt lat="43.0960482" lon="13.1467114"><ele>634.0</ele><time>2026-04-11T13:47:14.131Z</time></trkpt><trkpt lat="43.0959632" lon="13.1467132"><ele>634.0</ele><time>2026-04-11T13:47:15.13Z</time></trkpt><trkpt lat="43.0958785" lon="13.146718"><ele>634.0</ele><time>2026-04-11T13:47:16.131Z</time></trkpt><trkpt lat="43.0957919" lon="13.1467294"><ele>634.0</ele><time>2026-04-11T13:47:17.13Z</time></trkpt><trkpt lat="43.0957062" lon="13.1467476"><ele>634.0</ele><time>2026-04-11T13:47:18.129Z</time></trkpt><trkpt lat="43.0956247" lon="13.1467679"><ele>634.0</ele><time>2026-04-11T13:47:19.131Z</time></trkpt><trkpt lat="43.0955388" lon="13.1467917"><ele>631.8333333333334</ele><time>2026-04-11T13:47:20.129Z</time></trkpt><trkpt lat="43.0954536" lon="13.146825"><ele>629.6666666666667</ele><time>2026-04-11T13:47:21.13Z</time></trkpt><trkpt lat="43.0953729" lon="13.1468515"><ele>627.5</ele><time>2026-04-11T13:47:22.13Z</time></trkpt><trkpt lat="43.0952889" lon="13.1468702"><ele>625.3333333333334</ele><time>2026-04-11T13:47:23.129Z</time></trkpt><trkpt lat="43.0952018" lon="13.1468768"><ele>623.1666666666666</ele><time>2026-04-11T13:47:24.13Z</time></trkpt><trkpt lat="43.0951168" lon="13.1468569"><ele>621.0</ele><time>2026-04-11T13:47:25.13Z</time></trkpt><trkpt lat="43.0950317" lon="13.1468361"><ele>621.0</ele><time>2026-04-11T13:47:26.131Z</time></trkpt><trkpt lat="43.0949424" lon="13.1468351"><ele>621.0</ele><time>2026-04-11T13:47:27.13Z</time></trkpt><trkpt lat="43.094847" lon="13.1468387"><ele>621.0</ele><time>2026-04-11T13:47:28.13Z</time></trkpt><trkpt lat="43.0947437" lon="13.1468222"><ele>621.0</ele><time>2026-04-11T13:47:29.131Z</time></trkpt><trkpt lat="43.0946622" lon="13.1467964"><ele>621.0</ele><time>2026-04-11T13:47:30.131Z</time></trkpt><trkpt lat="43.0945846" lon="13.1467477"><ele>620.4</ele><time>2026-04-11T13:47:31.131Z</time></trkpt><trkpt lat="43.0945239" lon="13.1466939"><ele>619.8</ele><time>2026-04-11T13:47:32.13Z</time></trkpt><trkpt lat="43.0944519" lon="13.1466337"><ele>619.1999999999999</ele><time>2026-04-11T13:47:33.13Z</time></trkpt><trkpt lat="43.0943709" lon="13.1465641"><ele>618.6</ele><time>2026-04-11T13:47:34.13Z</time></trkpt><trkpt lat="43.0942851" lon="13.1464937"><ele>618.0</ele><time>2026-04-11T13:47:35.13Z</time></trkpt><trkpt lat="43.0941756" lon="13.1464161"><ele>614.0</ele><time>2026-04-11T13:47:36.129Z</time></trkpt><trkpt lat="43.0940624" lon="13.1463482"><ele>610.0</ele><time>2026-04-11T13:47:37.13Z</time></trkpt><trkpt lat="43.0939494" lon="13.1463003"><ele>606.0</ele><time>2026-04-11T13:47:38.13Z</time></trkpt><trkpt lat="43.0938342" lon="13.1462685"><ele>602.0</ele><time>2026-04-11T13:47:39.131Z</time></trkpt><trkpt lat="43.0937016" lon="13.146252"><ele>602.0</ele><time>2026-04-11T13:47:40.129Z</time></trkpt><trkpt lat="43.0935793" lon="13.1462357"><ele>602.0</ele><time>2026-04-11T13:47:41.131Z</time></trkpt><trkpt lat="43.0934679" lon="13.1462091"><ele>602.0</ele><time>2026-04-11T13:47:42.129Z</time></trkpt><trkpt lat="43.0933681" lon="13.1461805"><ele>602.0</ele><time>2026-04-11T13:47:43.129Z</time></trkpt><trkpt lat="43.0932607" lon="13.1461507"><ele>602.0</ele><time>2026-04-11T13:47:44.131Z</time></trkpt><trkpt lat="43.0931536" lon="13.1461294"><ele>600.8000000000001</ele><time>2026-04-11T13:47:45.129Z</time></trkpt><trkpt lat="43.0930446" lon="13.1460998"><ele>599.6</ele><time>2026-04-11T13:47:46.131Z</time></trkpt><trkpt lat="43.0929388" lon="13.1460767"><ele>598.4000000000001</ele><time>2026-04-11T13:47:47.131Z</time></trkpt><trkpt lat="43.0928329" lon="13.1460614"><ele>597.2</ele><time>2026-04-11T13:47:48.129Z</time></trkpt><trkpt lat="43.092728" lon="13.1460425"><ele>596.0</ele><time>2026-04-11T13:47:49.13Z</time></trkpt><trkpt lat="43.0926237" lon="13.1460184"><ele>596.0</ele><time>2026-04-11T13:47:50.13Z</time></trkpt><trkpt lat="43.092528" lon="13.1459682"><ele>596.0</ele><time>2026-04-11T13:47:51.129Z</time></trkpt><trkpt lat="43.092425" lon="13.1459087"><ele>596.0</ele><time>2026-04-11T13:47:52.13Z</time></trkpt><trkpt lat="43.0923124" lon="13.1458411"><ele>596.0</ele><time>2026-04-11T13:47:53.13Z</time></trkpt><trkpt lat="43.0921993" lon="13.1457621"><ele>590.25</ele><time>2026-04-11T13:47:54.13Z</time></trkpt><trkpt lat="43.0920828" lon="13.1456566"><ele>584.5</ele><time>2026-04-11T13:47:55.129Z</time></trkpt><trkpt lat="43.0919828" lon="13.1455394"><ele>578.75</ele><time>2026-04-11T13:47:56.13Z</time></trkpt><trkpt lat="43.0918923" lon="13.1454203"><ele>573.0</ele><time>2026-04-11T13:47:57.13Z</time></trkpt><trkpt lat="43.0918119" lon="13.1453287"><ele>573.0</ele><time>2026-04-11T13:47:58.131Z</time></trkpt><trkpt lat="43.0917242" lon="13.1452646"><ele>573.0</ele><time>2026-04-11T13:47:59.131Z</time></trkpt><trkpt lat="43.0916297" lon="13.1452467"><ele>573.0</ele><time>2026-04-11T13:48:00.129Z</time></trkpt><trkpt lat="43.0915321" lon="13.1452331"><ele>573.0</ele><time>2026-04-11T13:48:01.129Z</time></trkpt><trkpt lat="43.0914409" lon="13.1452051"><ele>573.0</ele><time>2026-04-11T13:48:02.129Z</time></trkpt><trkpt lat="43.0913493" lon="13.1451651"><ele>574.8</ele><time>2026-04-11T13:48:03.131Z</time></trkpt><trkpt lat="43.0912712" lon="13.1450888"><ele>576.5999999999999</ele><time>2026-04-11T13:48:04.13Z</time></trkpt><trkpt lat="43.0911917" lon="13.1449997"><ele>578.4000000000001</ele><time>2026-04-11T13:48:05.13Z</time></trkpt><trkpt lat="43.0911142" lon="13.1448997"><ele>580.2</ele><time>2026-04-11T13:48:06.129Z</time></trkpt><trkpt lat="43.0910427" lon="13.1447922"><ele>582.0</ele><time>2026-04-11T13:48:07.129Z</time></trkpt><trkpt lat="43.090984" lon="13.1446758"><ele>577.8333333333334</ele><time>2026-04-11T13:48:08.13Z</time></trkpt><trkpt lat="43.0909288" lon="13.1445597"><ele>573.6666666666666</ele><time>2026-04-11T13:48:09.131Z</time></trkpt><trkpt lat="43.09086" lon="13.1444691"><ele>569.5</ele><time>2026-04-11T13:48:10.13Z</time></trkpt><trkpt lat="43.0907926" lon="13.1444236"><ele>565.3333333333333</ele><time>2026-04-11T13:48:11.13Z</time></trkpt><trkpt lat="43.0907295" lon="13.1444219"><ele>561.1666666666666</ele><time>2026-04-11T13:48:12.13Z</time></trkpt><trkpt lat="43.0906651" lon="13.1444483"><ele>557.0</ele><time>2026-04-11T13:48:13.129Z</time></trkpt><trkpt lat="43.0905941" lon="13.1444635"><ele>556.3333333333333</ele><time>2026-04-11T13:48:14.129Z</time></trkpt><trkpt lat="43.0905253" lon="13.1444611"><ele>555.6666666666666</ele><time>2026-04-11T13:48:15.13Z</time></trkpt><trkpt lat="43.0904459" lon="13.1444075"><ele>555.0</ele><time>2026-04-11T13:48:16.13Z</time></trkpt><trkpt lat="43.0903812" lon="13.1443678"><ele>554.3333333333334</ele><time>2026-04-11T13:48:17.131Z</time></trkpt><trkpt lat="43.0903198" lon="13.1443455"><ele>553.6666666666667</ele><time>2026-04-11T13:48:18.131Z</time></trkpt><trkpt lat="43.0902436" lon="13.144294"><ele>553.0</ele><time>2026-04-11T13:48:20.13Z</time></trkpt><trkpt lat="43.0901685" lon="13.1442792"><ele>553.0</ele><time>2026-04-11T13:48:24.13Z</time></trkpt><trkpt lat="43.0900878" lon="13.1442801"><ele>553.0</ele><time>2026-04-11T13:48:33.13Z</time></trkpt><trkpt lat="43.0900053" lon="13.1443284"><ele>553.0</ele><time>2026-04-11T13:49:07.129Z</time></trkpt><trkpt lat="43.089903" lon="13.144465"><ele>553.0</ele><time>2026-04-11T13:49:09.13Z</time></trkpt><trkpt lat="43.0898301" lon="13.1445463"><ele>553.0</ele><time>2026-04-11T13:49:10.13Z</time></trkpt><trkpt lat="43.0897474" lon="13.1446471"><ele>550.1999999999999</ele><time>2026-04-11T13:49:11.132Z</time></trkpt><trkpt lat="43.0896668" lon="13.1447374"><ele>547.4</ele><time>2026-04-11T13:49:12.131Z</time></trkpt><trkpt lat="43.0895945" lon="13.1448254"><ele>544.5999999999999</ele><time>2026-04-11T13:49:13.129Z</time></trkpt><trkpt lat="43.089527" lon="13.1449197"><ele>541.8</ele><time>2026-04-11T13:49:14.131Z</time></trkpt><trkpt lat="43.0894506" lon="13.1450556"><ele>539.0</ele><time>2026-04-11T13:49:15.129Z</time></trkpt><trkpt lat="43.0893772" lon="13.1452336"><ele>539.0</ele><time>2026-04-11T13:49:16.131Z</time></trkpt><trkpt lat="43.0892987" lon="13.1454525"><ele>539.0</ele><time>2026-04-11T13:49:17.13Z</time></trkpt><trkpt lat="43.0892177" lon="13.1456677"><ele>539.0</ele><time>2026-04-11T13:49:18.129Z</time></trkpt><trkpt lat="43.0891293" lon="13.1458646"><ele>532.5</ele><time>2026-04-11T13:49:19.131Z</time></trkpt><trkpt lat="43.0890375" lon="13.1460496"><ele>526.0</ele><time>2026-04-11T13:49:20.129Z</time></trkpt><trkpt lat="43.0889235" lon="13.1461802"><ele>519.5</ele><time>2026-04-11T13:49:21.13Z</time></trkpt><trkpt lat="43.0888196" lon="13.1463009"><ele>513.0</ele><time>2026-04-11T13:49:22.13Z</time></trkpt><trkpt lat="43.0887179" lon="13.1463967"><ele>513.0</ele><time>2026-04-11T13:49:23.13Z</time></trkpt><trkpt lat="43.0886126" lon="13.1464863"><ele>513.0</ele><time>2026-04-11T13:49:24.13Z</time></trkpt><trkpt lat="43.0885051" lon="13.1465609"><ele>513.0</ele><time>2026-04-11T13:49:25.129Z</time></trkpt><trkpt lat="43.0884014" lon="13.1466383"><ele>513.0</ele><time>2026-04-11T13:49:26.131Z</time></trkpt><trkpt lat="43.0882971" lon="13.1467216"><ele>510.4</ele><time>2026-04-11T13:49:27.131Z</time></trkpt><trkpt lat="43.0881939" lon="13.1468128"><ele>507.79999999999995</ele><time>2026-04-11T13:49:28.131Z</time></trkpt><trkpt lat="43.0880997" lon="13.1469069"><ele>505.2</ele><time>2026-04-11T13:49:29.13Z</time></trkpt><trkpt lat="43.088019" lon="13.146994"><ele>502.6</ele><time>2026-04-11T13:49:30.13Z</time></trkpt><trkpt lat="43.0879505" lon="13.1470779"><ele>500.0</ele><time>2026-04-11T13:49:31.131Z</time></trkpt><trkpt lat="43.087883" lon="13.1471513"><ele>499.99999999999994</ele><time>2026-04-11T13:49:32.131Z</time></trkpt><trkpt lat="43.0878159" lon="13.1472386"><ele>500.0</ele><time>2026-04-11T13:49:33.129Z</time></trkpt><trkpt lat="43.087759" lon="13.147327"><ele>500.0</ele><time>2026-04-11T13:49:34.131Z</time></trkpt><trkpt lat="43.087718" lon="13.1474313"><ele>500.0</ele><time>2026-04-11T13:49:35.131Z</time></trkpt><trkpt lat="43.0876997" lon="13.1475413"><ele>499.99999999999994</ele><time>2026-04-11T13:49:36.131Z</time></trkpt><trkpt lat="43.0876826" lon="13.1476262"><ele>500.0</ele><time>2026-04-11T13:49:37.13Z</time></trkpt><trkpt lat="43.0875905" lon="13.1476529"><ele>501.0</ele><time>2026-04-11T13:49:39.13Z</time></trkpt><trkpt lat="43.0875392" lon="13.147595"><ele>502.0</ele><time>2026-04-11T13:49:40.131Z</time></trkpt><trkpt lat="43.0874751" lon="13.1475422"><ele>503.0</ele><time>2026-04-11T13:49:41.131Z</time></trkpt><trkpt lat="43.0873955" lon="13.1474771"><ele>504.0</ele><time>2026-04-11T13:49:43.131Z</time></trkpt><trkpt lat="43.0873236" lon="13.1474804"><ele>505.0</ele><time>2026-04-11T13:49:51.131Z</time></trkpt><trkpt lat="43.0873688" lon="13.1475519"><ele>506.0</ele><time>2026-04-11T13:49:54.13Z</time></trkpt><trkpt lat="43.087402" lon="13.1476337"><ele>507.0</ele><time>2026-04-11T13:49:56.129Z</time></trkpt><trkpt lat="43.0873463" lon="13.1477421"><ele>502.6</ele><time>2026-04-11T13:49:58.13Z</time></trkpt><trkpt lat="43.087273" lon="13.1478736"><ele>498.20000000000005</ele><time>2026-04-11T13:50:00.13Z</time></trkpt><trkpt lat="43.0872317" lon="13.1479596"><ele>493.8</ele><time>2026-04-11T13:50:01.13Z</time></trkpt><trkpt lat="43.0871987" lon="13.1480564"><ele>489.4</ele><time>2026-04-11T13:50:02.13Z</time></trkpt><trkpt lat="43.0871574" lon="13.1481266"><ele>485.0</ele><time>2026-04-11T13:50:03.132Z</time></trkpt><trkpt lat="43.0870329" lon="13.1482006"><ele>485.16666666666663</ele><time>2026-04-11T13:50:05.131Z</time></trkpt><trkpt lat="43.0869476" lon="13.148226"><ele>485.3333333333333</ele><time>2026-04-11T13:50:06.13Z</time></trkpt><trkpt lat="43.0868491" lon="13.14826"><ele>485.5</ele><time>2026-04-11T13:50:07.129Z</time></trkpt><trkpt lat="43.0867633" lon="13.1482862"><ele>485.66666666666663</ele><time>2026-04-11T13:50:08.13Z</time></trkpt><trkpt lat="43.0866957" lon="13.1482897"><ele>485.8333333333333</ele><time>2026-04-11T13:50:09.13Z</time></trkpt><trkpt lat="43.0866243" lon="13.148294"><ele>486.0</ele><time>2026-04-11T13:50:10.129Z</time></trkpt><trkpt lat="43.0865609" lon="13.148298"><ele>486.0</ele><time>2026-04-11T13:50:11.131Z</time></trkpt><trkpt lat="43.0864962" lon="13.1482869"><ele>486.0</ele><time>2026-04-11T13:50:12.132Z</time></trkpt><trkpt lat="43.0863847" lon="13.1482737"><ele>486.0</ele><time>2026-04-11T13:50:14.13Z</time></trkpt><trkpt lat="43.0862974" lon="13.148297"><ele>486.0</ele><time>2026-04-11T13:50:16.13Z</time></trkpt><trkpt lat="43.0862305" lon="13.14836"><ele>486.0</ele><time>2026-04-11T13:50:18.131Z</time></trkpt><trkpt lat="43.0861479" lon="13.1483933"><ele>486.0</ele><time>2026-04-11T13:50:20.13Z</time></trkpt><trkpt lat="43.0860271" lon="13.1484095"><ele>486.0</ele><time>2026-04-11T13:50:22.13Z</time></trkpt><trkpt lat="43.0859647" lon="13.1484336"><ele>486.0</ele><time>2026-04-11T13:50:23.129Z</time></trkpt><trkpt lat="43.0858989" lon="13.1484718"><ele>486.0</ele><time>2026-04-11T13:50:24.131Z</time></trkpt><trkpt lat="43.0858203" lon="13.1485188"><ele>486.0</ele><time>2026-04-11T13:50:25.129Z</time></trkpt><trkpt lat="43.0857481" lon="13.1485704"><ele>486.0</ele><time>2026-04-11T13:50:26.13Z</time></trkpt><trkpt lat="43.0856794" lon="13.148634"><ele>486.0</ele><time>2026-04-11T13:50:27.13Z</time></trkpt><trkpt lat="43.0856177" lon="13.1486596"><ele>484.0</ele><time>2026-04-11T13:50:28.131Z</time></trkpt><trkpt lat="43.0855444" lon="13.1486768"><ele>482.0</ele><time>2026-04-11T13:50:29.13Z</time></trkpt><trkpt lat="43.0854785" lon="13.148687"><ele>480.0</ele><time>2026-04-11T13:50:30.129Z</time></trkpt><trkpt lat="43.0853775" lon="13.1487566"><ele>478.0</ele><time>2026-04-11T13:50:32.131Z</time></trkpt><trkpt lat="43.0852998" lon="13.1488618"><ele>476.0</ele><time>2026-04-11T13:50:34.13Z</time></trkpt><trkpt lat="43.0852645" lon="13.1489337"><ele>474.0</ele><time>2026-04-11T13:50:35.129Z</time></trkpt><trkpt lat="43.0852224" lon="13.1490289"><ele>476.0</ele><time>2026-04-11T13:50:36.13Z</time></trkpt><trkpt lat="43.0851822" lon="13.1491251"><ele>478.0</ele><time>2026-04-11T13:50:37.13Z</time></trkpt><trkpt lat="43.0851591" lon="13.1492979"><ele>480.0</ele><time>2026-04-11T13:50:39.13Z</time></trkpt><trkpt lat="43.0851544" lon="13.1494041"><ele>482.0</ele><time>2026-04-11T13:50:40.129Z</time></trkpt><trkpt lat="43.0851365" lon="13.1495072"><ele>484.0</ele><time>2026-04-11T13:50:41.13Z</time></trkpt><trkpt lat="43.0850525" lon="13.1496645"><ele>484.00000000000006</ele><time>2026-04-11T13:50:43.13Z</time></trkpt><trkpt lat="43.0849983" lon="13.1497497"><ele>484.0</ele><time>2026-04-11T13:50:44.13Z</time></trkpt><trkpt lat="43.084946" lon="13.1498479"><ele>484.0</ele><time>2026-04-11T13:50:45.129Z</time></trkpt><trkpt lat="43.0848837" lon="13.1499647"><ele>484.0</ele><time>2026-04-11T13:50:46.13Z</time></trkpt><trkpt lat="43.0848321" lon="13.1500629"><ele>484.00000000000006</ele><time>2026-04-11T13:50:47.13Z</time></trkpt><trkpt lat="43.084776" lon="13.1501296"><ele>484.0</ele><time>2026-04-11T13:50:48.129Z</time></trkpt><trkpt lat="43.0847033" lon="13.1501836"><ele>486.00000000000006</ele><time>2026-04-11T13:50:49.129Z</time></trkpt><trkpt lat="43.0846283" lon="13.1502507"><ele>488.0</ele><time>2026-04-11T13:50:50.13Z</time></trkpt><trkpt lat="43.0845782" lon="13.150317"><ele>490.0</ele><time>2026-04-11T13:50:51.131Z</time></trkpt><trkpt lat="43.0845494" lon="13.150482"><ele>492.0</ele><time>2026-04-11T13:50:53.13Z</time></trkpt><trkpt lat="43.0845279" lon="13.1505934"><ele>494.00000000000006</ele><time>2026-04-11T13:50:54.131Z</time></trkpt><trkpt lat="43.0845097" lon="13.1506914"><ele>496.0</ele><time>2026-04-11T13:50:55.129Z</time></trkpt><trkpt lat="43.0844992" lon="13.1507822"><ele>497.00000000000006</ele><time>2026-04-11T13:50:56.131Z</time></trkpt><trkpt lat="43.0845036" lon="13.1508685"><ele>498.0</ele><time>2026-04-11T13:51:06.13Z</time></trkpt><trkpt lat="43.0844514" lon="13.1509462"><ele>499.0</ele><time>2026-04-11T13:51:08.13Z</time></trkpt><trkpt lat="43.0844044" lon="13.1510733"><ele>500.0</ele><time>2026-04-11T13:51:10.13Z</time></trkpt><trkpt lat="43.0843504" lon="13.1511642"><ele>501.00000000000006</ele><time>2026-04-11T13:51:12.13Z</time></trkpt><trkpt lat="43.0842841" lon="13.1512064"><ele>502.0</ele><time>2026-04-11T13:51:14.13Z</time></trkpt><trkpt lat="43.0842217" lon="13.1512235"><ele>502.0</ele><time>2026-04-11T13:51:17.129Z</time></trkpt><trkpt lat="43.0841706" lon="13.1511537"><ele>502.00000000000006</ele><time>2026-04-11T13:51:20.13Z</time></trkpt><trkpt lat="43.0840917" lon="13.1510553"><ele>502.00000000000006</ele><time>2026-04-11T13:51:22.13Z</time></trkpt><trkpt lat="43.0840079" lon="13.1509288"><ele>502.0</ele><time>2026-04-11T13:51:24.13Z</time></trkpt><trkpt lat="43.0839464" lon="13.1508602"><ele>502.0</ele><time>2026-04-11T13:51:25.13Z</time></trkpt><trkpt lat="43.0838947" lon="13.1507769"><ele>502.00000000000006</ele><time>2026-04-11T13:51:26.129Z</time></trkpt><trkpt lat="43.0838425" lon="13.1506967"><ele>502.0</ele><time>2026-04-11T13:51:27.13Z</time></trkpt><trkpt lat="43.0837445" lon="13.1505989"><ele>502.0</ele><time>2026-04-11T13:51:29.13Z</time></trkpt><trkpt lat="43.0836779" lon="13.1505364"><ele>502.0</ele><time>2026-04-11T13:51:30.13Z</time></trkpt><trkpt lat="43.0836546" lon="13.1504534"><ele>502.00000000000006</ele><time>2026-04-11T13:51:31.13Z</time></trkpt><trkpt lat="43.0836329" lon="13.150324"><ele>502.0</ele><time>2026-04-11T13:51:33.131Z</time></trkpt><trkpt lat="43.0835485" lon="13.1503066"><ele>502.0</ele><time>2026-04-11T13:51:36.13Z</time></trkpt><trkpt lat="43.0834524" lon="13.1503916"><ele>502.00000000000006</ele><time>2026-04-11T13:51:38.13Z</time></trkpt><trkpt lat="43.0833745" lon="13.1504949"><ele>502.00000000000006</ele><time>2026-04-11T13:51:40.13Z</time></trkpt><trkpt lat="43.0833104" lon="13.15061"><ele>502.0</ele><time>2026-04-11T13:51:42.131Z</time></trkpt><trkpt lat="43.0832892" lon="13.1507282"><ele>502.0</ele><time>2026-04-11T13:51:44.13Z</time></trkpt><trkpt lat="43.0832897" lon="13.1508814"><ele>505.20000000000005</ele><time>2026-04-11T13:51:46.13Z</time></trkpt><trkpt lat="43.0833331" lon="13.151022"><ele>508.40000000000003</ele><time>2026-04-11T13:51:48.129Z</time></trkpt><trkpt lat="43.0833191" lon="13.1511325"><ele>511.59999999999997</ele><time>2026-04-11T13:51:50.13Z</time></trkpt><trkpt lat="43.0832882" lon="13.1512459"><ele>514.8</ele><time>2026-04-11T13:51:55.129Z</time></trkpt><trkpt lat="43.0832915" lon="13.1514133"><ele>518.0</ele><time>2026-04-11T13:51:58.13Z</time></trkpt><trkpt lat="43.083317" lon="13.151496"><ele>520.5</ele><time>2026-04-11T13:51:59.131Z</time></trkpt><trkpt lat="43.0833811" lon="13.151618"><ele>523.0</ele><time>2026-04-11T13:52:01.129Z</time></trkpt><trkpt lat="43.0833953" lon="13.1517118"><ele>525.5</ele><time>2026-04-11T13:52:03.129Z</time></trkpt><trkpt lat="43.0834359" lon="13.1517856"><ele>528.0</ele><time>2026-04-11T13:52:05.129Z</time></trkpt><trkpt lat="43.0835038" lon="13.1518936"><ele>530.5</ele><time>2026-04-11T13:52:07.129Z</time></trkpt><trkpt lat="43.0835693" lon="13.1519695"><ele>533.0</ele><time>2026-04-11T13:52:08.13Z</time></trkpt><trkpt lat="43.0836185" lon="13.1520427"><ele>533.0</ele><time>2026-04-11T13:52:09.13Z</time></trkpt><trkpt lat="43.0836661" lon="13.1521925"><ele>533.0</ele><time>2026-04-11T13:52:11.13Z</time></trkpt><trkpt lat="43.0836718" lon="13.1523109"><ele>533.0</ele><time>2026-04-11T13:52:13.129Z</time></trkpt><trkpt lat="43.0836051" lon="13.1523478"><ele>533.0</ele><time>2026-04-11T13:52:16.129Z</time></trkpt><trkpt lat="43.0834903" lon="13.1523581"><ele>533.0</ele><time>2026-04-11T13:52:18.131Z</time></trkpt><trkpt lat="43.0834101" lon="13.1523703"><ele>535.1666666666666</ele><time>2026-04-11T13:52:19.129Z</time></trkpt><trkpt lat="43.0833241" lon="13.1523754"><ele>537.3333333333333</ele><time>2026-04-11T13:52:20.13Z</time></trkpt><trkpt lat="43.0832464" lon="13.1523808"><ele>539.5</ele><time>2026-04-11T13:52:21.13Z</time></trkpt><trkpt lat="43.083141" lon="13.1524194"><ele>541.6666666666666</ele><time>2026-04-11T13:52:23.129Z</time></trkpt><trkpt lat="43.0831101" lon="13.1525444"><ele>543.8333333333334</ele><time>2026-04-11T13:52:25.131Z</time></trkpt><trkpt lat="43.0831012" lon="13.1526341"><ele>546.0</ele><time>2026-04-11T13:52:26.13Z</time></trkpt><trkpt lat="43.0830996" lon="13.1527336"><ele>546.0</ele><time>2026-04-11T13:52:27.131Z</time></trkpt><trkpt lat="43.0830956" lon="13.1528357"><ele>546.0</ele><time>2026-04-11T13:52:28.13Z</time></trkpt><trkpt lat="43.0830989" lon="13.1529397"><ele>546.0</ele><time>2026-04-11T13:52:29.131Z</time></trkpt><trkpt lat="43.0830986" lon="13.1530489"><ele>546.0</ele><time>2026-04-11T13:52:30.13Z</time></trkpt><trkpt lat="43.0830952" lon="13.1531666"><ele>546.0</ele><time>2026-04-11T13:52:31.131Z</time></trkpt><trkpt lat="43.0830812" lon="13.1532877"><ele>546.0</ele><time>2026-04-11T13:52:32.129Z</time></trkpt><trkpt lat="43.0830577" lon="13.153403"><ele>549.3333333333334</ele><time>2026-04-11T13:52:33.13Z</time></trkpt><trkpt lat="43.0830169" lon="13.1534962"><ele>552.6666666666666</ele><time>2026-04-11T13:52:34.13Z</time></trkpt><trkpt lat="43.0829681" lon="13.1535676"><ele>556.0</ele><time>2026-04-11T13:52:35.129Z</time></trkpt><trkpt lat="43.0829169" lon="13.1536412"><ele>559.3333333333333</ele><time>2026-04-11T13:52:36.13Z</time></trkpt><trkpt lat="43.0828693" lon="13.1537197"><ele>562.6666666666666</ele><time>2026-04-11T13:52:37.129Z</time></trkpt><trkpt lat="43.0828146" lon="13.1537958"><ele>566.0</ele><time>2026-04-11T13:52:38.129Z</time></trkpt><trkpt lat="43.0827572" lon="13.1538669"><ele>566.0</ele><time>2026-04-11T13:52:39.13Z</time></trkpt><trkpt lat="43.0827118" lon="13.1539415"><ele>566.0</ele><time>2026-04-11T13:52:40.129Z</time></trkpt><trkpt lat="43.0826722" lon="13.1540257"><ele>566.0</ele><time>2026-04-11T13:52:41.13Z</time></trkpt><trkpt lat="43.0826383" lon="13.154109"><ele>566.0</ele><time>2026-04-11T13:52:42.13Z</time></trkpt><trkpt lat="43.0825903" lon="13.1541818"><ele>566.0</ele><time>2026-04-11T13:52:43.131Z</time></trkpt><trkpt lat="43.0825484" lon="13.1542479"><ele>566.0</ele><time>2026-04-11T13:52:44.131Z</time></trkpt><trkpt lat="43.0825178" lon="13.1543602"><ele>566.0</ele><time>2026-04-11T13:52:46.13Z</time></trkpt><trkpt lat="43.082503" lon="13.1544795"><ele>566.3333333333333</ele><time>2026-04-11T13:52:52.129Z</time></trkpt><trkpt lat="43.0824514" lon="13.1546465"><ele>566.6666666666666</ele><time>2026-04-11T13:52:54.129Z</time></trkpt><trkpt lat="43.082426" lon="13.1547269"><ele>567.0</ele><time>2026-04-11T13:52:55.13Z</time></trkpt><trkpt lat="43.0824437" lon="13.1548419"><ele>567.3333333333334</ele><time>2026-04-11T13:52:57.129Z</time></trkpt><trkpt lat="43.0825137" lon="13.1549399"><ele>567.6666666666667</ele><time>2026-04-11T13:52:59.129Z</time></trkpt><trkpt lat="43.0825406" lon="13.1550233"><ele>568.0</ele><time>2026-04-11T13:53:02.131Z</time></trkpt><trkpt lat="43.0824615" lon="13.1549958"><ele>572.1666666666667</ele><time>2026-04-11T13:53:08.13Z</time></trkpt><trkpt lat="43.0823942" lon="13.154989"><ele>576.3333333333334</ele><time>2026-04-11T13:53:11.13Z</time></trkpt><trkpt lat="43.0824631" lon="13.1549874"><ele>580.5</ele><time>2026-04-11T13:53:19.13Z</time></trkpt><trkpt lat="43.0825215" lon="13.1549493"><ele>584.6666666666666</ele><time>2026-04-11T13:53:30.131Z</time></trkpt><trkpt lat="43.0824553" lon="13.154957"><ele>588.8333333333333</ele><time>2026-04-11T13:55:19.13Z</time></trkpt><trkpt lat="43.0823393" lon="13.1550142"><ele>593.0</ele><time>2026-04-11T13:55:21.129Z</time></trkpt><trkpt lat="43.0822707" lon="13.1550613"><ele>593.0</ele><time>2026-04-11T13:55:22.129Z</time></trkpt><trkpt lat="43.08219" lon="13.1551448"><ele>593.0</ele><time>2026-04-11T13:55:23.13Z</time></trkpt><trkpt lat="43.0821166" lon="13.1552469"><ele>593.0</ele><time>2026-04-11T13:55:24.131Z</time></trkpt><trkpt lat="43.0820359" lon="13.1553529"><ele>593.0</ele><time>2026-04-11T13:55:25.129Z</time></trkpt><trkpt lat="43.0819499" lon="13.1554647"><ele>593.0</ele><time>2026-04-11T13:55:26.13Z</time></trkpt><trkpt lat="43.0818552" lon="13.1555653"><ele>593.0</ele><time>2026-04-11T13:55:27.13Z</time></trkpt><trkpt lat="43.0817544" lon="13.1556538"><ele>593.0</ele><time>2026-04-11T13:55:28.13Z</time></trkpt><trkpt lat="43.0816607" lon="13.1557339"><ele>593.0</ele><time>2026-04-11T13:55:29.129Z</time></trkpt><trkpt lat="43.0815649" lon="13.1558209"><ele>593.0</ele><time>2026-04-11T13:55:30.13Z</time></trkpt><trkpt lat="43.0814672" lon="13.1559049"><ele>594.25</ele><time>2026-04-11T13:55:31.131Z</time></trkpt><trkpt lat="43.0813778" lon="13.1559959"><ele>595.5</ele><time>2026-04-11T13:55:32.129Z</time></trkpt><trkpt lat="43.0812878" lon="13.1561051"><ele>596.75</ele><time>2026-04-11T13:55:33.129Z</time></trkpt><trkpt lat="43.0812127" lon="13.1562368"><ele>598.0</ele><time>2026-04-11T13:55:34.129Z</time></trkpt><trkpt lat="43.0811372" lon="13.1563732"><ele>598.0</ele><time>2026-04-11T13:55:35.13Z</time></trkpt><trkpt lat="43.0810485" lon="13.1565161"><ele>598.0</ele><time>2026-04-11T13:55:36.129Z</time></trkpt><trkpt lat="43.0809566" lon="13.156652"><ele>598.0</ele><time>2026-04-11T13:55:37.13Z</time></trkpt><trkpt lat="43.0808527" lon="13.1567826"><ele>598.0</ele><time>2026-04-11T13:55:38.13Z</time></trkpt><trkpt lat="43.0807398" lon="13.156897"><ele>600.8</ele><time>2026-04-11T13:55:39.13Z</time></trkpt><trkpt lat="43.080626" lon="13.1569739"><ele>603.5999999999999</ele><time>2026-04-11T13:55:40.13Z</time></trkpt><trkpt lat="43.0805312" lon="13.1570221"><ele>606.4000000000001</ele><time>2026-04-11T13:55:41.13Z</time></trkpt><trkpt lat="43.0804608" lon="13.1570546"><ele>609.2</ele><time>2026-04-11T13:55:42.13Z</time></trkpt><trkpt lat="43.0804013" lon="13.1570922"><ele>612.0</ele><time>2026-04-11T13:55:43.131Z</time></trkpt><trkpt lat="43.0803507" lon="13.1572018"><ele>612.0</ele><time>2026-04-11T13:55:45.129Z</time></trkpt><trkpt lat="43.0804469" lon="13.1572682"><ele>612.0</ele><time>2026-04-11T13:55:47.13Z</time></trkpt><trkpt lat="43.080546" lon="13.1572458"><ele>612.0</ele><time>2026-04-11T13:55:48.13Z</time></trkpt><trkpt lat="43.0806586" lon="13.1572321"><ele>612.0</ele><time>2026-04-11T13:55:49.13Z</time></trkpt><trkpt lat="43.080772" lon="13.1572216"><ele>612.0</ele><time>2026-04-11T13:55:50.129Z</time></trkpt><trkpt lat="43.0808922" lon="13.1572102"><ele>616.75</ele><time>2026-04-11T13:55:51.13Z</time></trkpt><trkpt lat="43.0810264" lon="13.1571899"><ele>621.5</ele><time>2026-04-11T13:55:52.13Z</time></trkpt><trkpt lat="43.0811703" lon="13.1571279"><ele>626.25</ele><time>2026-04-11T13:55:53.129Z</time></trkpt><trkpt lat="43.0813208" lon="13.1570585"><ele>631.0</ele><time>2026-04-11T13:55:54.13Z</time></trkpt><trkpt lat="43.0814756" lon="13.1569934"><ele>636.25</ele><time>2026-04-11T13:55:55.13Z</time></trkpt><trkpt lat="43.0816294" lon="13.1569404"><ele>641.5</ele><time>2026-04-11T13:55:56.128Z</time></trkpt><trkpt lat="43.0817731" lon="13.1568951"><ele>646.75</ele><time>2026-04-11T13:55:57.13Z</time></trkpt><trkpt lat="43.0819055" lon="13.1568627"><ele>652.0</ele><time>2026-04-11T13:55:58.129Z</time></trkpt><trkpt lat="43.082011" lon="13.1568443"><ele>652.0</ele><time>2026-04-11T13:55:59.129Z</time></trkpt><trkpt lat="43.0820773" lon="13.1568611"><ele>652.0</ele><time>2026-04-11T13:56:00.129Z</time></trkpt><trkpt lat="43.0821194" lon="13.1569628"><ele>652.0</ele><time>2026-04-11T13:56:02.131Z</time></trkpt><trkpt lat="43.082026" lon="13.1570714"><ele>652.0</ele><time>2026-04-11T13:56:04.13Z</time></trkpt><trkpt lat="43.0819398" lon="13.1571133"><ele>652.0</ele><time>2026-04-11T13:56:05.13Z</time></trkpt><trkpt lat="43.0818379" lon="13.1571939"><ele>652.0</ele><time>2026-04-11T13:56:06.13Z</time></trkpt><trkpt lat="43.0817432" lon="13.1572908"><ele>652.0</ele><time>2026-04-11T13:56:07.13Z</time></trkpt><trkpt lat="43.0816373" lon="13.1573904"><ele>652.0</ele><time>2026-04-11T13:56:08.129Z</time></trkpt><trkpt lat="43.0815245" lon="13.1574896"><ele>652.0</ele><time>2026-04-11T13:56:09.129Z</time></trkpt><trkpt lat="43.0814016" lon="13.1575966"><ele>657.3333333333334</ele><time>2026-04-11T13:56:10.13Z</time></trkpt><trkpt lat="43.0812717" lon="13.1576982"><ele>662.6666666666666</ele><time>2026-04-11T13:56:11.128Z</time></trkpt><trkpt lat="43.0811347" lon="13.1577803"><ele>668.0</ele><time>2026-04-11T13:56:12.13Z</time></trkpt><trkpt lat="43.0809915" lon="13.1578602"><ele>668.0</ele><time>2026-04-11T13:56:13.13Z</time></trkpt><trkpt lat="43.0808542" lon="13.1579425"><ele>668.0</ele><time>2026-04-11T13:56:14.13Z</time></trkpt><trkpt lat="43.0807253" lon="13.1580329"><ele>668.0</ele><time>2026-04-11T13:56:15.13Z</time></trkpt><trkpt lat="43.0806156" lon="13.1581214"><ele>668.0</ele><time>2026-04-11T13:56:16.13Z</time></trkpt><trkpt lat="43.0805164" lon="13.1582202"><ele>672.75</ele><time>2026-04-11T13:56:17.13Z</time></trkpt><trkpt lat="43.0804203" lon="13.1583334"><ele>677.5</ele><time>2026-04-11T13:56:18.129Z</time></trkpt><trkpt lat="43.080327" lon="13.1584497"><ele>682.25</ele><time>2026-04-11T13:56:19.129Z</time></trkpt><trkpt lat="43.0802239" lon="13.158557"><ele>687.0</ele><time>2026-04-11T13:56:20.129Z</time></trkpt><trkpt lat="43.0801027" lon="13.1586478"><ele>687.0</ele><time>2026-04-11T13:56:21.129Z</time></trkpt><trkpt lat="43.0799851" lon="13.1586941"><ele>687.0</ele><time>2026-04-11T13:56:22.13Z</time></trkpt><trkpt lat="43.0798636" lon="13.1587061"><ele>687.0</ele><time>2026-04-11T13:56:23.128Z</time></trkpt><trkpt lat="43.0797314" lon="13.1587085"><ele>687.0</ele><time>2026-04-11T13:56:24.129Z</time></trkpt><trkpt lat="43.0796047" lon="13.1587106"><ele>685.0</ele><time>2026-04-11T13:56:25.129Z</time></trkpt><trkpt lat="43.0794733" lon="13.1587156"><ele>683.0</ele><time>2026-04-11T13:56:26.128Z</time></trkpt><trkpt lat="43.0793414" lon="13.1587255"><ele>681.0</ele><time>2026-04-11T13:56:27.129Z</time></trkpt><trkpt lat="43.0792028" lon="13.1587338"><ele>679.0</ele><time>2026-04-11T13:56:28.128Z</time></trkpt><trkpt lat="43.0790771" lon="13.1587421"><ele>680.2</ele><time>2026-04-11T13:56:29.129Z</time></trkpt><trkpt lat="43.0789696" lon="13.1587665"><ele>681.4000000000001</ele><time>2026-04-11T13:56:30.129Z</time></trkpt><trkpt lat="43.0788794" lon="13.1588239"><ele>682.6</ele><time>2026-04-11T13:56:31.13Z</time></trkpt><trkpt lat="43.0787953" lon="13.1589289"><ele>683.8</ele><time>2026-04-11T13:56:32.13Z</time></trkpt><trkpt lat="43.0787229" lon="13.1590445"><ele>685.0</ele><time>2026-04-11T13:56:33.13Z</time></trkpt><trkpt lat="43.0786521" lon="13.1591804"><ele>685.0</ele><time>2026-04-11T13:56:34.13Z</time></trkpt><trkpt lat="43.0785659" lon="13.1593179"><ele>685.0</ele><time>2026-04-11T13:56:35.13Z</time></trkpt><trkpt lat="43.0784742" lon="13.1594609"><ele>685.0</ele><time>2026-04-11T13:56:36.129Z</time></trkpt><trkpt lat="43.0783682" lon="13.1596045"><ele>685.0</ele><time>2026-04-11T13:56:37.129Z</time></trkpt><trkpt lat="43.0782559" lon="13.1597408"><ele>684.6666666666667</ele><time>2026-04-11T13:56:38.129Z</time></trkpt><trkpt lat="43.0781256" lon="13.1598644"><ele>684.3333333333334</ele><time>2026-04-11T13:56:39.13Z</time></trkpt><trkpt lat="43.0779806" lon="13.1599707"><ele>684.0</ele><time>2026-04-11T13:56:40.13Z</time></trkpt><trkpt lat="43.077833" lon="13.1600706"><ele>684.0</ele><time>2026-04-11T13:56:41.129Z</time></trkpt><trkpt lat="43.0777025" lon="13.16017"><ele>684.0</ele><time>2026-04-11T13:56:42.129Z</time></trkpt><trkpt lat="43.077597" lon="13.1602649"><ele>684.0</ele><time>2026-04-11T13:56:43.13Z</time></trkpt><trkpt lat="43.0775197" lon="13.1603775"><ele>684.0</ele><time>2026-04-11T13:56:44.13Z</time></trkpt><trkpt lat="43.0774698" lon="13.1605216"><ele>684.0</ele><time>2026-04-11T13:56:45.129Z</time></trkpt><trkpt lat="43.0774546" lon="13.1606938"><ele>684.0</ele><time>2026-04-11T13:56:46.13Z</time></trkpt><trkpt lat="43.0774583" lon="13.1608797"><ele>684.0</ele><time>2026-04-11T13:56:47.13Z</time></trkpt><trkpt lat="43.0774945" lon="13.1610949"><ele>684.0</ele><time>2026-04-11T13:56:48.13Z</time></trkpt><trkpt lat="43.0774855" lon="13.1613112"><ele>687.3333333333334</ele><time>2026-04-11T13:56:49.13Z</time></trkpt><trkpt lat="43.0774689" lon="13.1615261"><ele>690.6666666666667</ele><time>2026-04-11T13:56:50.129Z</time></trkpt><trkpt lat="43.0774091" lon="13.1617393"><ele>694.0</ele><time>2026-04-11T13:56:51.13Z</time></trkpt><trkpt lat="43.0773948" lon="13.161954"><ele>690.75</ele><time>2026-04-11T13:56:52.13Z</time></trkpt><trkpt lat="43.0773961" lon="13.1621617"><ele>687.5</ele><time>2026-04-11T13:56:53.131Z</time></trkpt><trkpt lat="43.0773916" lon="13.1623495"><ele>684.25</ele><time>2026-04-11T13:56:54.131Z</time></trkpt><trkpt lat="43.0773772" lon="13.1625061"><ele>681.0</ele><time>2026-04-11T13:56:55.131Z</time></trkpt><trkpt lat="43.0773431" lon="13.1626353"><ele>681.0</ele><time>2026-04-11T13:56:56.13Z</time></trkpt><trkpt lat="43.0772988" lon="13.1627377"><ele>681.0</ele><time>2026-04-11T13:56:57.129Z</time></trkpt><trkpt lat="43.0772254" lon="13.1627504"><ele>681.0</ele><time>2026-04-11T13:56:58.129Z</time></trkpt><trkpt lat="43.0771113" lon="13.1626743"><ele>681.0</ele><time>2026-04-11T13:57:00.13Z</time></trkpt><trkpt lat="43.0770349" lon="13.1626611"><ele>681.0</ele><time>2026-04-11T13:57:01.13Z</time></trkpt><trkpt lat="43.0769696" lon="13.1626939"><ele>681.0</ele><time>2026-04-11T13:57:02.129Z</time></trkpt><trkpt lat="43.076927" lon="13.1627899"><ele>681.0</ele><time>2026-04-11T13:57:03.129Z</time></trkpt><trkpt lat="43.0769041" lon="13.162941"><ele>681.0</ele><time>2026-04-11T13:57:04.13Z</time></trkpt><trkpt lat="43.0768814" lon="13.1631413"><ele>681.0</ele><time>2026-04-11T13:57:05.129Z</time></trkpt><trkpt lat="43.0768483" lon="13.1633493"><ele>681.0</ele><time>2026-04-11T13:57:06.129Z</time></trkpt><trkpt lat="43.0768024" lon="13.163567"><ele>686.3333333333334</ele><time>2026-04-11T13:57:07.13Z</time></trkpt><trkpt lat="43.0767366" lon="13.1637832"><ele>691.6666666666667</ele><time>2026-04-11T13:57:08.131Z</time></trkpt><trkpt lat="43.0766619" lon="13.1639974"><ele>697.0</ele><time>2026-04-11T13:57:09.129Z</time></trkpt><trkpt lat="43.0765824" lon="13.1642027"><ele>697.6666666666667</ele><time>2026-04-11T13:57:10.129Z</time></trkpt><trkpt lat="43.0764928" lon="13.1643869"><ele>698.3333333333334</ele><time>2026-04-11T13:57:11.129Z</time></trkpt><trkpt lat="43.076395" lon="13.1645542"><ele>699.0</ele><time>2026-04-11T13:57:12.129Z</time></trkpt><trkpt lat="43.0762856" lon="13.1647114"><ele>699.0</ele><time>2026-04-11T13:57:13.128Z</time></trkpt><trkpt lat="43.0761609" lon="13.164848"><ele>699.0</ele><time>2026-04-11T13:57:14.13Z</time></trkpt><trkpt lat="43.0760396" lon="13.1649726"><ele>699.0</ele><time>2026-04-11T13:57:15.129Z</time></trkpt><trkpt lat="43.0759283" lon="13.1650879"><ele>703.4000000000001</ele><time>2026-04-11T13:57:16.13Z</time></trkpt><trkpt lat="43.0758465" lon="13.1651769"><ele>707.8</ele><time>2026-04-11T13:57:17.13Z</time></trkpt><trkpt lat="43.0757529" lon="13.1652318"><ele>712.2</ele><time>2026-04-11T13:57:18.131Z</time></trkpt><trkpt lat="43.0756666" lon="13.1652145"><ele>716.5999999999999</ele><time>2026-04-11T13:57:19.13Z</time></trkpt><trkpt lat="43.0755928" lon="13.1651292"><ele>721.0</ele><time>2026-04-11T13:57:20.129Z</time></trkpt><trkpt lat="43.0755252" lon="13.1649861"><ele>730.3333333333334</ele><time>2026-04-11T13:57:21.129Z</time></trkpt><trkpt lat="43.0754579" lon="13.1648076"><ele>739.6666666666666</ele><time>2026-04-11T13:57:22.131Z</time></trkpt><trkpt lat="43.0753841" lon="13.1646155"><ele>749.0</ele><time>2026-04-11T13:57:23.129Z</time></trkpt><trkpt lat="43.0753298" lon="13.1644009"><ele>749.0</ele><time>2026-04-11T13:57:24.128Z</time></trkpt><trkpt lat="43.0752882" lon="13.1641714"><ele>749.0</ele><time>2026-04-11T13:57:25.13Z</time></trkpt><trkpt lat="43.0752661" lon="13.1639392"><ele>749.0</ele><time>2026-04-11T13:57:26.13Z</time></trkpt><trkpt lat="43.075245" lon="13.1637093"><ele>745.0</ele><time>2026-04-11T13:57:27.129Z</time></trkpt><trkpt lat="43.0752304" lon="13.1635089"><ele>741.0</ele><time>2026-04-11T13:57:28.129Z</time></trkpt><trkpt lat="43.0751905" lon="13.1633078"><ele>737.0</ele><time>2026-04-11T13:57:29.129Z</time></trkpt><trkpt lat="43.0751357" lon="13.1631084"><ele>732.0</ele><time>2026-04-11T13:57:30.131Z</time></trkpt><trkpt lat="43.0750658" lon="13.1628947"><ele>727.0</ele><time>2026-04-11T13:57:31.13Z</time></trkpt><trkpt lat="43.0749904" lon="13.1626759"><ele>722.0</ele><time>2026-04-11T13:57:32.129Z</time></trkpt><trkpt lat="43.0749452" lon="13.1624735"><ele>721.5</ele><time>2026-04-11T13:57:33.13Z</time></trkpt><trkpt lat="43.0749066" lon="13.1622918"><ele>721.0</ele><time>2026-04-11T13:57:34.129Z</time></trkpt><trkpt lat="43.0748671" lon="13.1621337"><ele>720.5</ele><time>2026-04-11T13:57:35.129Z</time></trkpt><trkpt lat="43.0748067" lon="13.1620181"><ele>720.0</ele><time>2026-04-11T13:57:36.129Z</time></trkpt><trkpt lat="43.0746837" lon="13.1619753"><ele>720.0</ele><time>2026-04-11T13:57:37.13Z</time></trkpt><trkpt lat="43.0745687" lon="13.1619638"><ele>720.0</ele><time>2026-04-11T13:57:38.129Z</time></trkpt><trkpt lat="43.074429" lon="13.1619507"><ele>720.0</ele><time>2026-04-11T13:57:39.129Z</time></trkpt><trkpt lat="43.0742697" lon="13.1619308"><ele>720.0</ele><time>2026-04-11T13:57:40.13Z</time></trkpt><trkpt lat="43.0740999" lon="13.1619098"><ele>720.0</ele><time>2026-04-11T13:57:41.129Z</time></trkpt><trkpt lat="43.0739253" lon="13.1618905"><ele>720.0</ele><time>2026-04-11T13:57:42.129Z</time></trkpt><trkpt lat="43.0737512" lon="13.1618636"><ele>720.0</ele><time>2026-04-11T13:57:43.13Z</time></trkpt><trkpt lat="43.0735723" lon="13.1618556"><ele>720.0</ele><time>2026-04-11T13:57:44.129Z</time></trkpt><trkpt lat="43.0733882" lon="13.1618694"><ele>720.0</ele><time>2026-04-11T13:57:45.129Z</time></trkpt><trkpt lat="43.073204" lon="13.1619145"><ele>720.0</ele><time>2026-04-11T13:57:46.129Z</time></trkpt><trkpt lat="43.0730155" lon="13.1619754"><ele>717.3333333333334</ele><time>2026-04-11T13:57:47.128Z</time></trkpt><trkpt lat="43.0728323" lon="13.1620479"><ele>714.6666666666667</ele><time>2026-04-11T13:57:48.13Z</time></trkpt><trkpt lat="43.0726523" lon="13.1621475"><ele>712.0</ele><time>2026-04-11T13:57:49.128Z</time></trkpt><trkpt lat="43.0724836" lon="13.1622738"><ele>715.3333333333334</ele><time>2026-04-11T13:57:50.129Z</time></trkpt><trkpt lat="43.072325" lon="13.1624285"><ele>718.6666666666666</ele><time>2026-04-11T13:57:51.128Z</time></trkpt><trkpt lat="43.0721707" lon="13.1625971"><ele>722.0</ele><time>2026-04-11T13:57:52.13Z</time></trkpt><trkpt lat="43.0720203" lon="13.1627853"><ele>722.0</ele><time>2026-04-11T13:57:53.129Z</time></trkpt><trkpt lat="43.0718719" lon="13.1629681"><ele>722.0</ele><time>2026-04-11T13:57:54.128Z</time></trkpt><trkpt lat="43.0717231" lon="13.1631421"><ele>722.0</ele><time>2026-04-11T13:57:55.129Z</time></trkpt><trkpt lat="43.0715782" lon="13.1633289"><ele>719.3333333333333</ele><time>2026-04-11T13:57:56.129Z</time></trkpt><trkpt lat="43.0714373" lon="13.1635136"><ele>716.6666666666666</ele><time>2026-04-11T13:57:57.128Z</time></trkpt><trkpt lat="43.0713001" lon="13.163698"><ele>714.0</ele><time>2026-04-11T13:57:58.131Z</time></trkpt><trkpt lat="43.0711615" lon="13.1638638"><ele>723.6666666666666</ele><time>2026-04-11T13:57:59.13Z</time></trkpt><trkpt lat="43.0710272" lon="13.1640339"><ele>733.3333333333333</ele><time>2026-04-11T13:58:00.129Z</time></trkpt><trkpt lat="43.0709036" lon="13.1641964"><ele>743.0</ele><time>2026-04-11T13:58:01.13Z</time></trkpt><trkpt lat="43.0707815" lon="13.1643584"><ele>740.0</ele><time>2026-04-11T13:58:02.129Z</time></trkpt><trkpt lat="43.0706628" lon="13.164528"><ele>737.0</ele><time>2026-04-11T13:58:03.128Z</time></trkpt><trkpt lat="43.070548" lon="13.1646956"><ele>734.0</ele><time>2026-04-11T13:58:04.129Z</time></trkpt><trkpt lat="43.0704406" lon="13.1648465"><ele>740.5</ele><time>2026-04-11T13:58:05.13Z</time></trkpt><trkpt lat="43.0703375" lon="13.1649455"><ele>747.0</ele><time>2026-04-11T13:58:06.128Z</time></trkpt><trkpt lat="43.0702338" lon="13.1649849"><ele>753.5</ele><time>2026-04-11T13:58:07.131Z</time></trkpt><trkpt lat="43.070126" lon="13.1649655"><ele>760.0</ele><time>2026-04-11T13:58:08.13Z</time></trkpt><trkpt lat="43.0700168" lon="13.164895"><ele>758.75</ele><time>2026-04-11T13:58:09.129Z</time></trkpt><trkpt lat="43.0699157" lon="13.1648455"><ele>757.5</ele><time>2026-04-11T13:58:10.13Z</time></trkpt><trkpt lat="43.0698112" lon="13.1648646"><ele>756.25</ele><time>2026-04-11T13:58:11.128Z</time></trkpt><trkpt lat="43.069701" lon="13.1649431"><ele>755.0</ele><time>2026-04-11T13:58:12.129Z</time></trkpt><trkpt lat="43.0695932" lon="13.1650719"><ele>755.0</ele><time>2026-04-11T13:58:13.131Z</time></trkpt><trkpt lat="43.0694812" lon="13.1652266"><ele>755.0</ele><time>2026-04-11T13:58:14.131Z</time></trkpt><trkpt lat="43.0693837" lon="13.1653944"><ele>755.0</ele><time>2026-04-11T13:58:15.129Z</time></trkpt><trkpt lat="43.0693071" lon="13.1655297"><ele>755.0</ele><time>2026-04-11T13:58:16.129Z</time></trkpt><trkpt lat="43.0692178" lon="13.1656146"><ele>755.0</ele><time>2026-04-11T13:58:17.129Z</time></trkpt><trkpt lat="43.069131" lon="13.1656318"><ele>755.0</ele><time>2026-04-11T13:58:18.129Z</time></trkpt><trkpt lat="43.0690401" lon="13.1655788"><ele>755.0</ele><time>2026-04-11T13:58:19.13Z</time></trkpt><trkpt lat="43.0689547" lon="13.1654656"><ele>755.0</ele><time>2026-04-11T13:58:20.129Z</time></trkpt><trkpt lat="43.0688505" lon="13.1653208"><ele>757.5</ele><time>2026-04-11T13:58:21.129Z</time></trkpt><trkpt lat="43.0687285" lon="13.1652032"><ele>760.0</ele><time>2026-04-11T13:58:22.129Z</time></trkpt><trkpt lat="43.0686004" lon="13.1651116"><ele>762.5</ele><time>2026-04-11T13:58:23.129Z</time></trkpt><trkpt lat="43.0684534" lon="13.1651098"><ele>765.0</ele><time>2026-04-11T13:58:24.129Z</time></trkpt><trkpt lat="43.0683001" lon="13.1651427"><ele>761.0</ele><time>2026-04-11T13:58:25.129Z</time></trkpt><trkpt lat="43.0681371" lon="13.1652469"><ele>757.0</ele><time>2026-04-11T13:58:26.128Z</time></trkpt><trkpt lat="43.0679493" lon="13.1653794"><ele>753.0</ele><time>2026-04-11T13:58:27.13Z</time></trkpt><trkpt lat="43.0677585" lon="13.1655177"><ele>753.0</ele><time>2026-04-11T13:58:28.129Z</time></trkpt><trkpt lat="43.0675653" lon="13.1656576"><ele>753.0</ele><time>2026-04-11T13:58:29.128Z</time></trkpt><trkpt lat="43.0673862" lon="13.1657936"><ele>753.0</ele><time>2026-04-11T13:58:30.128Z</time></trkpt><trkpt lat="43.0672122" lon="13.1658987"><ele>759.3333333333333</ele><time>2026-04-11T13:58:31.129Z</time></trkpt><trkpt lat="43.0670339" lon="13.1659599"><ele>765.6666666666666</ele><time>2026-04-11T13:58:32.128Z</time></trkpt><trkpt lat="43.0668451" lon="13.1659937"><ele>772.0</ele><time>2026-04-11T13:58:33.128Z</time></trkpt><trkpt lat="43.0666467" lon="13.1660314"><ele>769.0</ele><time>2026-04-11T13:58:34.129Z</time></trkpt><trkpt lat="43.0664482" lon="13.1660862"><ele>766.0</ele><time>2026-04-11T13:58:35.129Z</time></trkpt><trkpt lat="43.0662455" lon="13.1661519"><ele>763.0</ele><time>2026-04-11T13:58:36.129Z</time></trkpt><trkpt lat="43.0660416" lon="13.166225"><ele>763.0</ele><time>2026-04-11T13:58:37.129Z</time></trkpt><trkpt lat="43.0658353" lon="13.1662977"><ele>763.0</ele><time>2026-04-11T13:58:38.129Z</time></trkpt><trkpt lat="43.0656371" lon="13.1663759"><ele>763.0</ele><time>2026-04-11T13:58:39.129Z</time></trkpt><trkpt lat="43.0654557" lon="13.1664476"><ele>762.0</ele><time>2026-04-11T13:58:40.13Z</time></trkpt><trkpt lat="43.0652868" lon="13.1665115"><ele>761.0</ele><time>2026-04-11T13:58:41.129Z</time></trkpt><trkpt lat="43.065143" lon="13.1665659"><ele>760.0</ele><time>2026-04-11T13:58:42.129Z</time></trkpt><trkpt lat="43.0650033" lon="13.1665905"><ele>763.25</ele><time>2026-04-11T13:58:43.129Z</time></trkpt><trkpt lat="43.0648618" lon="13.1665701"><ele>766.5</ele><time>2026-04-11T13:58:44.128Z</time></trkpt><trkpt lat="43.0647337" lon="13.1664798"><ele>769.75</ele><time>2026-04-11T13:58:45.128Z</time></trkpt><trkpt lat="43.0646112" lon="13.1663719"><ele>773.0</ele><time>2026-04-11T13:58:46.13Z</time></trkpt><trkpt lat="43.0644837" lon="13.1662782"><ele>773.0</ele><time>2026-04-11T13:58:47.13Z</time></trkpt><trkpt lat="43.0643635" lon="13.1662193"><ele>773.0</ele><time>2026-04-11T13:58:48.13Z</time></trkpt><trkpt lat="43.0642374" lon="13.1661694"><ele>773.0</ele><time>2026-04-11T13:58:49.128Z</time></trkpt><trkpt lat="43.0641014" lon="13.1661407"><ele>773.0</ele><time>2026-04-11T13:58:50.129Z</time></trkpt><trkpt lat="43.0639767" lon="13.1661162"><ele>776.6666666666667</ele><time>2026-04-11T13:58:51.129Z</time></trkpt><trkpt lat="43.0638726" lon="13.1661146"><ele>780.3333333333334</ele><time>2026-04-11T13:58:52.131Z</time></trkpt><trkpt lat="43.0637784" lon="13.1661187"><ele>784.0</ele><time>2026-04-11T13:58:53.128Z</time></trkpt><trkpt lat="43.0637087" lon="13.166128"><ele>787.6666666666667</ele><time>2026-04-11T13:58:54.129Z</time></trkpt><trkpt lat="43.0636408" lon="13.1661292"><ele>791.3333333333334</ele><time>2026-04-11T13:58:55.13Z</time></trkpt><trkpt lat="43.0635763" lon="13.1661054"><ele>795.0</ele><time>2026-04-11T13:58:56.129Z</time></trkpt><trkpt lat="43.0634883" lon="13.1660635"><ele>795.0</ele><time>2026-04-11T13:58:57.128Z</time></trkpt><trkpt lat="43.0633856" lon="13.1659989"><ele>795.0</ele><time>2026-04-11T13:58:58.131Z</time></trkpt><trkpt lat="43.0632621" lon="13.1659458"><ele>795.0</ele><time>2026-04-11T13:58:59.129Z</time></trkpt><trkpt lat="43.0631342" lon="13.1658983"><ele>795.0</ele><time>2026-04-11T13:59:00.128Z</time></trkpt><trkpt lat="43.0630069" lon="13.1658427"><ele>795.5</ele><time>2026-04-11T13:59:01.129Z</time></trkpt><trkpt lat="43.0628879" lon="13.165781"><ele>796.0</ele><time>2026-04-11T13:59:02.129Z</time></trkpt><trkpt lat="43.0627718" lon="13.1657137"><ele>796.5</ele><time>2026-04-11T13:59:03.13Z</time></trkpt><trkpt lat="43.0626572" lon="13.165648"><ele>797.0</ele><time>2026-04-11T13:59:04.13Z</time></trkpt><trkpt lat="43.0625534" lon="13.1655843"><ele>801.0</ele><time>2026-04-11T13:59:05.129Z</time></trkpt><trkpt lat="43.0624496" lon="13.1655135"><ele>805.0</ele><time>2026-04-11T13:59:06.129Z</time></trkpt><trkpt lat="43.062344" lon="13.1654432"><ele>809.0</ele><time>2026-04-11T13:59:07.13Z</time></trkpt><trkpt lat="43.0622276" lon="13.1653807"><ele>813.0</ele><time>2026-04-11T13:59:08.129Z</time></trkpt><trkpt lat="43.0621064" lon="13.1653431"><ele>813.0</ele><time>2026-04-11T13:59:09.128Z</time></trkpt><trkpt lat="43.0619774" lon="13.1653012"><ele>813.0</ele><time>2026-04-11T13:59:10.13Z</time></trkpt><trkpt lat="43.0618344" lon="13.1652647"><ele>813.0</ele><time>2026-04-11T13:59:11.129Z</time></trkpt><trkpt lat="43.0616951" lon="13.1652496"><ele>813.0</ele><time>2026-04-11T13:59:12.129Z</time></trkpt><trkpt lat="43.0615727" lon="13.1652521"><ele>810.0</ele><time>2026-04-11T13:59:13.13Z</time></trkpt><trkpt lat="43.0614619" lon="13.1652777"><ele>807.0</ele><time>2026-04-11T13:59:14.129Z</time></trkpt><trkpt lat="43.0613452" lon="13.1653086"><ele>804.0</ele><time>2026-04-11T13:59:15.13Z</time></trkpt><trkpt lat="43.0612199" lon="13.1653289"><ele>801.0</ele><time>2026-04-11T13:59:16.128Z</time></trkpt><trkpt lat="43.0610902" lon="13.1653367"><ele>801.0</ele><time>2026-04-11T13:59:17.128Z</time></trkpt><trkpt lat="43.0609639" lon="13.165343"><ele>801.0</ele><time>2026-04-11T13:59:18.129Z</time></trkpt><trkpt lat="43.0608491" lon="13.1653406"><ele>801.0</ele><time>2026-04-11T13:59:19.13Z</time></trkpt><trkpt lat="43.0607509" lon="13.1653234"><ele>801.0</ele><time>2026-04-11T13:59:20.128Z</time></trkpt><trkpt lat="43.0606714" lon="13.1652936"><ele>801.0</ele><time>2026-04-11T13:59:21.13Z</time></trkpt><trkpt lat="43.0606079" lon="13.1652593"><ele>798.3333333333334</ele><time>2026-04-11T13:59:22.129Z</time></trkpt><trkpt lat="43.0605189" lon="13.165212"><ele>795.6666666666667</ele><time>2026-04-11T13:59:24.13Z</time></trkpt><trkpt lat="43.060478" lon="13.1651182"><ele>793.0</ele><time>2026-04-11T13:59:26.13Z</time></trkpt><trkpt lat="43.0605156" lon="13.1650394"><ele>790.3333333333334</ele><time>2026-04-11T13:59:27.128Z</time></trkpt><trkpt lat="43.0605547" lon="13.1649274"><ele>787.6666666666667</ele><time>2026-04-11T13:59:28.129Z</time></trkpt><trkpt lat="43.0606218" lon="13.1648178"><ele>785.0</ele><time>2026-04-11T13:59:29.129Z</time></trkpt><trkpt lat="43.0607" lon="13.1647236"><ele>787.5</ele><time>2026-04-11T13:59:30.13Z</time></trkpt><trkpt lat="43.0607806" lon="13.1646215"><ele>790.0</ele><time>2026-04-11T13:59:31.129Z</time></trkpt><trkpt lat="43.0608526" lon="13.1645022"><ele>792.5</ele><time>2026-04-11T13:59:32.129Z</time></trkpt><trkpt lat="43.0608689" lon="13.1643321"><ele>795.0</ele><time>2026-04-11T13:59:33.129Z</time></trkpt><trkpt lat="43.0608817" lon="13.164151"><ele>793.0</ele><time>2026-04-11T13:59:34.128Z</time></trkpt><trkpt lat="43.0608924" lon="13.1639571"><ele>791.0</ele><time>2026-04-11T13:59:35.128Z</time></trkpt><trkpt lat="43.0609049" lon="13.1637669"><ele>789.0</ele><time>2026-04-11T13:59:36.13Z</time></trkpt><trkpt lat="43.0609176" lon="13.1635603"><ele>787.0</ele><time>2026-04-11T13:59:37.13Z</time></trkpt><trkpt lat="43.0609287" lon="13.1633531"><ele>785.6666666666666</ele><time>2026-04-11T13:59:38.129Z</time></trkpt><trkpt lat="43.0609258" lon="13.1631279"><ele>784.3333333333333</ele><time>2026-04-11T13:59:39.129Z</time></trkpt><trkpt lat="43.0609139" lon="13.1628966"><ele>783.0</ele><time>2026-04-11T13:59:40.13Z</time></trkpt><trkpt lat="43.0609001" lon="13.1626653"><ele>783.0</ele><time>2026-04-11T13:59:41.128Z</time></trkpt><trkpt lat="43.0608808" lon="13.1624439"><ele>783.0</ele><time>2026-04-11T13:59:42.13Z</time></trkpt><trkpt lat="43.0608504" lon="13.1622414"><ele>783.0</ele><time>2026-04-11T13:59:43.129Z</time></trkpt><trkpt lat="43.0608006" lon="13.1620548"><ele>781.0</ele><time>2026-04-11T13:59:44.13Z</time></trkpt><trkpt lat="43.0607401" lon="13.1618776"><ele>779.0</ele><time>2026-04-11T13:59:45.129Z</time></trkpt><trkpt lat="43.0606248" lon="13.1617359"><ele>777.0</ele><time>2026-04-11T13:59:46.13Z</time></trkpt><trkpt lat="43.0605032" lon="13.1615936"><ele>776.6666666666667</ele><time>2026-04-11T13:59:47.129Z</time></trkpt><trkpt lat="43.0603724" lon="13.1614606"><ele>776.3333333333334</ele><time>2026-04-11T13:59:48.129Z</time></trkpt><trkpt lat="43.060248" lon="13.1613476"><ele>776.0</ele><time>2026-04-11T13:59:49.128Z</time></trkpt><trkpt lat="43.0601214" lon="13.1612561"><ele>776.0</ele><time>2026-04-11T13:59:50.129Z</time></trkpt><trkpt lat="43.0599824" lon="13.1611814"><ele>776.0</ele><time>2026-04-11T13:59:51.129Z</time></trkpt><trkpt lat="43.05984" lon="13.1611224"><ele>776.0</ele><time>2026-04-11T13:59:52.13Z</time></trkpt><trkpt lat="43.0596936" lon="13.1610638"><ele>776.3333333333334</ele><time>2026-04-11T13:59:53.129Z</time></trkpt><trkpt lat="43.059545" lon="13.1609975"><ele>776.6666666666667</ele><time>2026-04-11T13:59:54.129Z</time></trkpt><trkpt lat="43.0593995" lon="13.1609215"><ele>777.0</ele><time>2026-04-11T13:59:55.13Z</time></trkpt><trkpt lat="43.0592627" lon="13.1608188"><ele>778.3333333333333</ele><time>2026-04-11T13:59:56.129Z</time></trkpt><trkpt lat="43.0591373" lon="13.1606926"><ele>779.6666666666666</ele><time>2026-04-11T13:59:57.129Z</time></trkpt><trkpt lat="43.0590173" lon="13.1605657"><ele>781.0</ele><time>2026-04-11T13:59:58.129Z</time></trkpt><trkpt lat="43.0588978" lon="13.160442"><ele>783.6666666666666</ele><time>2026-04-11T13:59:59.128Z</time></trkpt><trkpt lat="43.058771" lon="13.1603386"><ele>786.3333333333333</ele><time>2026-04-11T14:00:00.13Z</time></trkpt><trkpt lat="43.0586313" lon="13.1602572"><ele>789.0</ele><time>2026-04-11T14:00:01.13Z</time></trkpt><trkpt lat="43.0584776" lon="13.160198"><ele>789.0</ele><time>2026-04-11T14:00:02.13Z</time></trkpt><trkpt lat="43.0583147" lon="13.1601213"><ele>789.0</ele><time>2026-04-11T14:00:03.129Z</time></trkpt><trkpt lat="43.0581525" lon="13.1600281"><ele>789.0</ele><time>2026-04-11T14:00:04.129Z</time></trkpt><trkpt lat="43.057989" lon="13.1599091"><ele>788.6666666666667</ele><time>2026-04-11T14:00:05.13Z</time></trkpt><trkpt lat="43.0578297" lon="13.1597761"><ele>788.3333333333334</ele><time>2026-04-11T14:00:06.129Z</time></trkpt><trkpt lat="43.057681" lon="13.1596221"><ele>788.0</ele><time>2026-04-11T14:00:07.128Z</time></trkpt><trkpt lat="43.0575587" lon="13.1594512"><ele>788.0</ele><time>2026-04-11T14:00:08.129Z</time></trkpt><trkpt lat="43.0574585" lon="13.1592791"><ele>788.0</ele><time>2026-04-11T14:00:09.129Z</time></trkpt><trkpt lat="43.0573879" lon="13.1590982"><ele>788.0</ele><time>2026-04-11T14:00:10.13Z</time></trkpt><trkpt lat="43.0573583" lon="13.1589141"><ele>788.0</ele><time>2026-04-11T14:00:11.129Z</time></trkpt><trkpt lat="43.0573325" lon="13.1587351"><ele>786.5</ele><time>2026-04-11T14:00:12.13Z</time></trkpt><trkpt lat="43.0572905" lon="13.1585729"><ele>785.0</ele><time>2026-04-11T14:00:13.131Z</time></trkpt><trkpt lat="43.0572222" lon="13.1584434"><ele>783.5</ele><time>2026-04-11T14:00:14.128Z</time></trkpt><trkpt lat="43.0571351" lon="13.1583451"><ele>782.0</ele><time>2026-04-11T14:00:15.129Z</time></trkpt><trkpt lat="43.0570226" lon="13.1582944"><ele>782.0</ele><time>2026-04-11T14:00:16.13Z</time></trkpt><trkpt lat="43.0568956" lon="13.1582958"><ele>782.0</ele><time>2026-04-11T14:00:17.128Z</time></trkpt><trkpt lat="43.056758" lon="13.1583398"><ele>782.0</ele><time>2026-04-11T14:00:18.129Z</time></trkpt><trkpt lat="43.0566137" lon="13.1583831"><ele>782.0</ele><time>2026-04-11T14:00:19.129Z</time></trkpt><trkpt lat="43.0564595" lon="13.1583926"><ele>780.6666666666667</ele><time>2026-04-11T14:00:20.129Z</time></trkpt><trkpt lat="43.0562995" lon="13.1583682"><ele>779.3333333333333</ele><time>2026-04-11T14:00:21.13Z</time></trkpt><trkpt lat="43.0561408" lon="13.1583171"><ele>778.0</ele><time>2026-04-11T14:00:22.128Z</time></trkpt><trkpt lat="43.0559865" lon="13.1582392"><ele>776.0</ele><time>2026-04-11T14:00:23.129Z</time></trkpt><trkpt lat="43.055853" lon="13.1581399"><ele>774.0</ele><time>2026-04-11T14:00:24.129Z</time></trkpt><trkpt lat="43.0557422" lon="13.1580073"><ele>772.0</ele><time>2026-04-11T14:00:25.13Z</time></trkpt><trkpt lat="43.0556444" lon="13.1578432"><ele>772.0</ele><time>2026-04-11T14:00:26.131Z</time></trkpt><trkpt lat="43.0555463" lon="13.1576696"><ele>772.0</ele><time>2026-04-11T14:00:27.129Z</time></trkpt><trkpt lat="43.055457" lon="13.1574916"><ele>772.0</ele><time>2026-04-11T14:00:28.129Z</time></trkpt><trkpt lat="43.0553842" lon="13.1572977"><ele>773.0</ele><time>2026-04-11T14:00:29.13Z</time></trkpt><trkpt lat="43.0553276" lon="13.1570911"><ele>774.0</ele><time>2026-04-11T14:00:30.129Z</time></trkpt><trkpt lat="43.055332" lon="13.1568723"><ele>775.0</ele><time>2026-04-11T14:00:31.13Z</time></trkpt><trkpt lat="43.0553432" lon="13.1566865"><ele>771.25</ele><time>2026-04-11T14:00:32.129Z</time></trkpt><trkpt lat="43.0553848" lon="13.1565355"><ele>767.5</ele><time>2026-04-11T14:00:33.129Z</time></trkpt><trkpt lat="43.0554583" lon="13.1564291"><ele>763.75</ele><time>2026-04-11T14:00:34.13Z</time></trkpt><trkpt lat="43.0555725" lon="13.1563587"><ele>760.0</ele><time>2026-04-11T14:00:35.128Z</time></trkpt><trkpt lat="43.0557061" lon="13.1563026"><ele>764.3333333333334</ele><time>2026-04-11T14:00:36.129Z</time></trkpt><trkpt lat="43.0558584" lon="13.1562521"><ele>768.6666666666667</ele><time>2026-04-11T14:00:37.129Z</time></trkpt><trkpt lat="43.0560201" lon="13.1562002"><ele>773.0</ele><time>2026-04-11T14:00:38.13Z</time></trkpt><trkpt lat="43.0561871" lon="13.1561209"><ele>773.0</ele><time>2026-04-11T14:00:39.128Z</time></trkpt><trkpt lat="43.0563612" lon="13.1560385"><ele>773.0</ele><time>2026-04-11T14:00:40.129Z</time></trkpt><trkpt lat="43.0565369" lon="13.1559458"><ele>773.0</ele><time>2026-04-11T14:00:41.129Z</time></trkpt><trkpt lat="43.056707" lon="13.1558348"><ele>774.0</ele><time>2026-04-11T14:00:42.131Z</time></trkpt><trkpt lat="43.0568658" lon="13.1557125"><ele>775.0</ele><time>2026-04-11T14:00:43.128Z</time></trkpt><trkpt lat="43.0570133" lon="13.1555671"><ele>776.0</ele><time>2026-04-11T14:00:44.128Z</time></trkpt><trkpt lat="43.057145" lon="13.1554001"><ele>776.0</ele><time>2026-04-11T14:00:45.129Z</time></trkpt><trkpt lat="43.0572542" lon="13.1552288"><ele>776.0</ele><time>2026-04-11T14:00:46.129Z</time></trkpt><trkpt lat="43.057337" lon="13.1550699"><ele>776.0</ele><time>2026-04-11T14:00:47.129Z</time></trkpt><trkpt lat="43.0573947" lon="13.1549074"><ele>776.0</ele><time>2026-04-11T14:00:48.129Z</time></trkpt><trkpt lat="43.0574294" lon="13.1547464"><ele>779.75</ele><time>2026-04-11T14:00:49.129Z</time></trkpt><trkpt lat="43.0574125" lon="13.1545614"><ele>783.5</ele><time>2026-04-11T14:00:50.13Z</time></trkpt><trkpt lat="43.0573647" lon="13.1543852"><ele>787.25</ele><time>2026-04-11T14:00:51.129Z</time></trkpt><trkpt lat="43.0572922" lon="13.1542382"><ele>791.0</ele><time>2026-04-11T14:00:52.129Z</time></trkpt><trkpt lat="43.057181" lon="13.1541379"><ele>791.0</ele><time>2026-04-11T14:00:53.129Z</time></trkpt><trkpt lat="43.0570411" lon="13.154083"><ele>791.0</ele><time>2026-04-11T14:00:54.13Z</time></trkpt><trkpt lat="43.0568774" lon="13.1540723"><ele>791.0</ele><time>2026-04-11T14:00:55.128Z</time></trkpt><trkpt lat="43.0566877" lon="13.1540924"><ele>787.6666666666667</ele><time>2026-04-11T14:00:56.129Z</time></trkpt><trkpt lat="43.0564924" lon="13.1541123"><ele>784.3333333333333</ele><time>2026-04-11T14:00:57.128Z</time></trkpt><trkpt lat="43.0563068" lon="13.1541165"><ele>781.0</ele><time>2026-04-11T14:00:58.128Z</time></trkpt><trkpt lat="43.0561392" lon="13.1540978"><ele>781.0</ele><time>2026-04-11T14:00:59.13Z</time></trkpt><trkpt lat="43.0559799" lon="13.1540589"><ele>781.0</ele><time>2026-04-11T14:01:00.129Z</time></trkpt><trkpt lat="43.0558318" lon="13.1539786"><ele>781.0</ele><time>2026-04-11T14:01:01.129Z</time></trkpt><trkpt lat="43.0557001" lon="13.1538508"><ele>785.0</ele><time>2026-04-11T14:01:02.128Z</time></trkpt><trkpt lat="43.0555733" lon="13.1537199"><ele>789.0</ele><time>2026-04-11T14:01:03.128Z</time></trkpt><trkpt lat="43.0554279" lon="13.153608"><ele>793.0</ele><time>2026-04-11T14:01:04.129Z</time></trkpt><trkpt lat="43.05527" lon="13.1535453"><ele>793.0</ele><time>2026-04-11T14:01:05.13Z</time></trkpt><trkpt lat="43.0551024" lon="13.1535314"><ele>793.0</ele><time>2026-04-11T14:01:06.128Z</time></trkpt><trkpt lat="43.0549413" lon="13.1535589"><ele>793.0</ele><time>2026-04-11T14:01:07.13Z</time></trkpt><trkpt lat="43.0547972" lon="13.1535867"><ele>791.0</ele><time>2026-04-11T14:01:08.129Z</time></trkpt><trkpt lat="43.0546673" lon="13.1535624"><ele>789.0</ele><time>2026-04-11T14:01:09.131Z</time></trkpt><trkpt lat="43.0545339" lon="13.1534901"><ele>787.0</ele><time>2026-04-11T14:01:10.129Z</time></trkpt><trkpt lat="43.0543926" lon="13.1534008"><ele>785.0</ele><time>2026-04-11T14:01:11.129Z</time></trkpt><trkpt lat="43.0542432" lon="13.1533086"><ele>783.6666666666667</ele><time>2026-04-11T14:01:12.13Z</time></trkpt><trkpt lat="43.0540855" lon="13.1532169"><ele>782.3333333333333</ele><time>2026-04-11T14:01:13.128Z</time></trkpt><trkpt lat="43.0539268" lon="13.1531353"><ele>781.0</ele><time>2026-04-11T14:01:14.129Z</time></trkpt><trkpt lat="43.0537702" lon="13.1530654"><ele>785.6666666666666</ele><time>2026-04-11T14:01:15.128Z</time></trkpt><trkpt lat="43.053609" lon="13.1529924"><ele>790.3333333333333</ele><time>2026-04-11T14:01:16.13Z</time></trkpt><trkpt lat="43.0534449" lon="13.1529499"><ele>795.0</ele><time>2026-04-11T14:01:17.129Z</time></trkpt><trkpt lat="43.0532713" lon="13.1529412"><ele>795.6666666666667</ele><time>2026-04-11T14:01:18.13Z</time></trkpt><trkpt lat="43.0530977" lon="13.1529521"><ele>796.3333333333334</ele><time>2026-04-11T14:01:19.13Z</time></trkpt><trkpt lat="43.052914" lon="13.1529858"><ele>797.0</ele><time>2026-04-11T14:01:20.129Z</time></trkpt><trkpt lat="43.0527336" lon="13.1530205"><ele>797.0</ele><time>2026-04-11T14:01:21.128Z</time></trkpt><trkpt lat="43.0525502" lon="13.1530561"><ele>797.0</ele><time>2026-04-11T14:01:22.129Z</time></trkpt><trkpt lat="43.0523783" lon="13.1530838"><ele>797.0</ele><time>2026-04-11T14:01:23.129Z</time></trkpt><trkpt lat="43.0522083" lon="13.1530902"><ele>795.3333333333334</ele><time>2026-04-11T14:01:24.129Z</time></trkpt><trkpt lat="43.0520475" lon="13.1530602"><ele>793.6666666666667</ele><time>2026-04-11T14:01:25.128Z</time></trkpt><trkpt lat="43.0519034" lon="13.1530019"><ele>792.0</ele><time>2026-04-11T14:01:26.129Z</time></trkpt><trkpt lat="43.0517815" lon="13.1529015"><ele>792.0</ele><time>2026-04-11T14:01:27.129Z</time></trkpt><trkpt lat="43.0516806" lon="13.1527551"><ele>792.0</ele><time>2026-04-11T14:01:28.129Z</time></trkpt><trkpt lat="43.051602" lon="13.1525741"><ele>792.0</ele><time>2026-04-11T14:01:29.129Z</time></trkpt><trkpt lat="43.0515346" lon="13.1523742"><ele>792.6666666666667</ele><time>2026-04-11T14:01:30.13Z</time></trkpt><trkpt lat="43.0514643" lon="13.1521637"><ele>793.3333333333334</ele><time>2026-04-11T14:01:31.129Z</time></trkpt><trkpt lat="43.0513848" lon="13.1519888"><ele>794.0</ele><time>2026-04-11T14:01:32.128Z</time></trkpt><trkpt lat="43.0512906" lon="13.1518336"><ele>794.0</ele><time>2026-04-11T14:01:33.128Z</time></trkpt><trkpt lat="43.0511822" lon="13.1517113"><ele>794.0</ele><time>2026-04-11T14:01:34.128Z</time></trkpt><trkpt lat="43.0510653" lon="13.1516007"><ele>794.0</ele><time>2026-04-11T14:01:35.13Z</time></trkpt><trkpt lat="43.0508968" lon="13.1515835"><ele>792.0</ele><time>2026-04-11T14:01:36.129Z</time></trkpt><trkpt lat="43.050736" lon="13.1515832"><ele>790.0</ele><time>2026-04-11T14:01:37.128Z</time></trkpt><trkpt lat="43.0505747" lon="13.151615"><ele>788.0</ele><time>2026-04-11T14:01:38.129Z</time></trkpt><trkpt lat="43.050424" lon="13.1516143"><ele>788.0</ele><time>2026-04-11T14:01:39.13Z</time></trkpt><trkpt lat="43.0502862" lon="13.1515813"><ele>788.0</ele><time>2026-04-11T14:01:40.13Z</time></trkpt><trkpt lat="43.0501569" lon="13.1514799"><ele>788.0</ele><time>2026-04-11T14:01:41.13Z</time></trkpt><trkpt lat="43.0500292" lon="13.1513515"><ele>788.0</ele><time>2026-04-11T14:01:42.129Z</time></trkpt><trkpt lat="43.0498871" lon="13.1512225"><ele>785.6666666666667</ele><time>2026-04-11T14:01:43.129Z</time></trkpt><trkpt lat="43.0497372" lon="13.1510993"><ele>783.3333333333333</ele><time>2026-04-11T14:01:44.129Z</time></trkpt><trkpt lat="43.0496131" lon="13.1509717"><ele>781.0</ele><time>2026-04-11T14:01:45.128Z</time></trkpt><trkpt lat="43.0495164" lon="13.1508203"><ele>782.0</ele><time>2026-04-11T14:01:46.13Z</time></trkpt><trkpt lat="43.049462" lon="13.1506441"><ele>783.0</ele><time>2026-04-11T14:01:47.13Z</time></trkpt><trkpt lat="43.0494363" lon="13.1504322"><ele>784.0</ele><time>2026-04-11T14:01:48.13Z</time></trkpt><trkpt lat="43.0494391" lon="13.15021"><ele>784.0</ele><time>2026-04-11T14:01:49.13Z</time></trkpt><trkpt lat="43.0494679" lon="13.1499731"><ele>784.0</ele><time>2026-04-11T14:01:50.13Z</time></trkpt><trkpt lat="43.0494959" lon="13.1497191"><ele>784.0</ele><time>2026-04-11T14:01:51.128Z</time></trkpt><trkpt lat="43.0495042" lon="13.1494549"><ele>785.0</ele><time>2026-04-11T14:01:52.128Z</time></trkpt><trkpt lat="43.0494796" lon="13.149175"><ele>786.0</ele><time>2026-04-11T14:01:53.129Z</time></trkpt><trkpt lat="43.0494194" lon="13.1488984"><ele>787.0</ele><time>2026-04-11T14:01:54.129Z</time></trkpt><trkpt lat="43.0493249" lon="13.1486489"><ele>788.3333333333333</ele><time>2026-04-11T14:01:55.13Z</time></trkpt><trkpt lat="43.0492187" lon="13.1484234"><ele>789.6666666666667</ele><time>2026-04-11T14:01:56.129Z</time></trkpt><trkpt lat="43.0491043" lon="13.1482086"><ele>791.0</ele><time>2026-04-11T14:01:57.129Z</time></trkpt><trkpt lat="43.0489874" lon="13.1480032"><ele>792.3333333333334</ele><time>2026-04-11T14:01:58.13Z</time></trkpt><trkpt lat="43.0488625" lon="13.1478036"><ele>793.6666666666667</ele><time>2026-04-11T14:01:59.129Z</time></trkpt><trkpt lat="43.0487457" lon="13.1476011"><ele>795.0</ele><time>2026-04-11T14:02:00.129Z</time></trkpt><trkpt lat="43.0486439" lon="13.1474107"><ele>795.75</ele><time>2026-04-11T14:02:01.13Z</time></trkpt><trkpt lat="43.0485587" lon="13.1472458"><ele>796.5</ele><time>2026-04-11T14:02:02.13Z</time></trkpt><trkpt lat="43.048465" lon="13.147103"><ele>797.25</ele><time>2026-04-11T14:02:03.129Z</time></trkpt><trkpt lat="43.0483417" lon="13.1469994"><ele>798.0</ele><time>2026-04-11T14:02:04.129Z</time></trkpt><trkpt lat="43.0481959" lon="13.1469258"><ele>800.3333333333333</ele><time>2026-04-11T14:02:05.13Z</time></trkpt><trkpt lat="43.0480235" lon="13.146864"><ele>802.6666666666666</ele><time>2026-04-11T14:02:06.129Z</time></trkpt><trkpt lat="43.0478617" lon="13.1468119"><ele>805.0</ele><time>2026-04-11T14:02:07.129Z</time></trkpt><trkpt lat="43.0476899" lon="13.1467731"><ele>805.0</ele><time>2026-04-11T14:02:08.129Z</time></trkpt><trkpt lat="43.0475217" lon="13.1467554"><ele>805.0</ele><time>2026-04-11T14:02:09.128Z</time></trkpt><trkpt lat="43.0473583" lon="13.1467687"><ele>805.0</ele><time>2026-04-11T14:02:10.129Z</time></trkpt><trkpt lat="43.0471981" lon="13.1468306"><ele>802.5</ele><time>2026-04-11T14:02:11.128Z</time></trkpt><trkpt lat="43.0470728" lon="13.1469113"><ele>800.0</ele><time>2026-04-11T14:02:12.13Z</time></trkpt><trkpt lat="43.0469605" lon="13.146989"><ele>797.5</ele><time>2026-04-11T14:02:13.128Z</time></trkpt><trkpt lat="43.0468578" lon="13.1470412"><ele>795.0</ele><time>2026-04-11T14:02:14.129Z</time></trkpt><trkpt lat="43.0467746" lon="13.1470401"><ele>795.0</ele><time>2026-04-11T14:02:15.129Z</time></trkpt><trkpt lat="43.0467235" lon="13.1469809"><ele>795.0</ele><time>2026-04-11T14:02:16.129Z</time></trkpt><trkpt lat="43.0467115" lon="13.1468757"><ele>795.0</ele><time>2026-04-11T14:02:17.13Z</time></trkpt><trkpt lat="43.0467158" lon="13.1467494"><ele>795.0</ele><time>2026-04-11T14:02:18.128Z</time></trkpt><trkpt lat="43.0467892" lon="13.1465549"><ele>795.0</ele><time>2026-04-11T14:02:19.128Z</time></trkpt><trkpt lat="43.0468428" lon="13.1463591"><ele>792.0</ele><time>2026-04-11T14:02:20.13Z</time></trkpt><trkpt lat="43.0468984" lon="13.1461249"><ele>789.0</ele><time>2026-04-11T14:02:21.129Z</time></trkpt><trkpt lat="43.0469558" lon="13.1458844"><ele>786.0</ele><time>2026-04-11T14:02:22.129Z</time></trkpt><trkpt lat="43.0470039" lon="13.145666"><ele>784.25</ele><time>2026-04-11T14:02:23.129Z</time></trkpt><trkpt lat="43.0470458" lon="13.1454604"><ele>782.5</ele><time>2026-04-11T14:02:24.129Z</time></trkpt><trkpt lat="43.0470834" lon="13.1452861"><ele>780.75</ele><time>2026-04-11T14:02:25.131Z</time></trkpt><trkpt lat="43.0471157" lon="13.1451456"><ele>779.0</ele><time>2026-04-11T14:02:26.129Z</time></trkpt><trkpt lat="43.0471411" lon="13.1450296"><ele>779.0</ele><time>2026-04-11T14:02:27.129Z</time></trkpt><trkpt lat="43.047196" lon="13.1449054"><ele>779.0</ele><time>2026-04-11T14:02:29.128Z</time></trkpt><trkpt lat="43.047287" lon="13.1448055"><ele>779.0</ele><time>2026-04-11T14:02:31.128Z</time></trkpt><trkpt lat="43.0473639" lon="13.1447256"><ele>779.0</ele><time>2026-04-11T14:02:32.129Z</time></trkpt><trkpt lat="43.0474558" lon="13.1446283"><ele>779.0</ele><time>2026-04-11T14:02:33.13Z</time></trkpt><trkpt lat="43.0475725" lon="13.1444729"><ele>783.3333333333334</ele><time>2026-04-11T14:02:34.13Z</time></trkpt><trkpt lat="43.0476683" lon="13.1442966"><ele>787.6666666666667</ele><time>2026-04-11T14:02:35.129Z</time></trkpt><trkpt lat="43.0477446" lon="13.1440862"><ele>792.0</ele><time>2026-04-11T14:02:36.128Z</time></trkpt><trkpt lat="43.0477992" lon="13.1438275"><ele>792.0</ele><time>2026-04-11T14:02:37.13Z</time></trkpt><trkpt lat="43.0478241" lon="13.143596"><ele>792.0</ele><time>2026-04-11T14:02:38.129Z</time></trkpt><trkpt lat="43.047843" lon="13.1433948"><ele>792.0</ele><time>2026-04-11T14:02:39.129Z</time></trkpt><trkpt lat="43.0478698" lon="13.1432177"><ele>793.4000000000001</ele><time>2026-04-11T14:02:40.129Z</time></trkpt><trkpt lat="43.0479047" lon="13.1430474"><ele>794.8000000000001</ele><time>2026-04-11T14:02:41.129Z</time></trkpt><trkpt lat="43.0479526" lon="13.1429051"><ele>796.2</ele><time>2026-04-11T14:02:42.128Z</time></trkpt><trkpt lat="43.0480049" lon="13.142789"><ele>797.6</ele><time>2026-04-11T14:02:43.128Z</time></trkpt><trkpt lat="43.0480352" lon="13.1426971"><ele>799.0</ele><time>2026-04-11T14:02:44.129Z</time></trkpt><trkpt lat="43.0480597" lon="13.1426127"><ele>799.0</ele><time>2026-04-11T14:02:45.13Z</time></trkpt><trkpt lat="43.0480952" lon="13.1424693"><ele>799.0</ele><time>2026-04-11T14:02:47.13Z</time></trkpt><trkpt lat="43.048151" lon="13.1423465"><ele>799.0</ele><time>2026-04-11T14:02:49.129Z</time></trkpt><trkpt lat="43.0482228" lon="13.1422158"><ele>799.0</ele><time>2026-04-11T14:02:51.13Z</time></trkpt><trkpt lat="43.0482008" lon="13.1420573"><ele>802.2</ele><time>2026-04-11T14:02:53.128Z</time></trkpt><trkpt lat="43.0481721" lon="13.141959"><ele>805.4000000000001</ele><time>2026-04-11T14:02:54.13Z</time></trkpt><trkpt lat="43.0481315" lon="13.1418691"><ele>808.6</ele><time>2026-04-11T14:02:55.129Z</time></trkpt><trkpt lat="43.0480746" lon="13.1417501"><ele>811.8</ele><time>2026-04-11T14:02:56.129Z</time></trkpt><trkpt lat="43.0480161" lon="13.1416308"><ele>815.0</ele><time>2026-04-11T14:02:57.129Z</time></trkpt><trkpt lat="43.0479668" lon="13.1415208"><ele>818.5000000000001</ele><time>2026-04-11T14:02:58.129Z</time></trkpt><trkpt lat="43.0479147" lon="13.1414474"><ele>822.0</ele><time>2026-04-11T14:02:59.13Z</time></trkpt><trkpt lat="43.04786" lon="13.1414045"><ele>825.5</ele><time>2026-04-11T14:03:00.13Z</time></trkpt><trkpt lat="43.0477837" lon="13.1413746"><ele>829.0</ele><time>2026-04-11T14:03:02.13Z</time></trkpt><trkpt lat="43.0477386" lon="13.1413035"><ele>832.5000000000001</ele><time>2026-04-11T14:03:04.129Z</time></trkpt><trkpt lat="43.0476508" lon="13.1412377"><ele>836.0</ele><time>2026-04-11T14:03:07.129Z</time></trkpt><trkpt lat="43.0475863" lon="13.1411865"><ele>836.0</ele><time>2026-04-11T14:03:09.129Z</time></trkpt><trkpt lat="43.0475152" lon="13.1411266"><ele>836.0</ele><time>2026-04-11T14:03:11.129Z</time></trkpt><trkpt lat="43.0474312" lon="13.1410953"><ele>836.0</ele><time>2026-04-11T14:03:13.128Z</time></trkpt><trkpt lat="43.0473273" lon="13.1410264"><ele>836.0</ele><time>2026-04-11T14:03:15.129Z</time></trkpt><trkpt lat="43.0472579" lon="13.1409264"><ele>836.0</ele><time>2026-04-11T14:03:17.129Z</time></trkpt><trkpt lat="43.0472679" lon="13.1407973"><ele>835.3333333333334</ele><time>2026-04-11T14:03:20.129Z</time></trkpt><trkpt lat="43.047279" lon="13.1406827"><ele>834.6666666666667</ele><time>2026-04-11T14:03:22.129Z</time></trkpt><trkpt lat="43.0472767" lon="13.1405756"><ele>834.0</ele><time>2026-04-11T14:03:24.129Z</time></trkpt><trkpt lat="43.0472782" lon="13.1404344"><ele>833.3333333333333</ele><time>2026-04-11T14:03:27.129Z</time></trkpt><trkpt lat="43.0472942" lon="13.1403488"><ele>832.6666666666666</ele><time>2026-04-11T14:03:28.129Z</time></trkpt><trkpt lat="43.0473114" lon="13.1402591"><ele>832.0</ele><time>2026-04-11T14:03:29.128Z</time></trkpt><trkpt lat="43.0472983" lon="13.1401162"><ele>832.0</ele><time>2026-04-11T14:03:31.129Z</time></trkpt><trkpt lat="43.0472335" lon="13.1400191"><ele>832.0</ele><time>2026-04-11T14:03:33.129Z</time></trkpt><trkpt lat="43.0471718" lon="13.1398984"><ele>832.0</ele><time>2026-04-11T14:03:35.129Z</time></trkpt><trkpt lat="43.0471653" lon="13.1397837"><ele>832.0</ele><time>2026-04-11T14:03:37.128Z</time></trkpt><trkpt lat="43.0471472" lon="13.1396556"><ele>832.0</ele><time>2026-04-11T14:03:39.128Z</time></trkpt><trkpt lat="43.0471123" lon="13.1395469"><ele>834.1666666666666</ele><time>2026-04-11T14:03:44.13Z</time></trkpt><trkpt lat="43.0470734" lon="13.1394152"><ele>836.3333333333333</ele><time>2026-04-11T14:03:46.13Z</time></trkpt><trkpt lat="43.0470314" lon="13.1392927"><ele>838.5</ele><time>2026-04-11T14:03:47.128Z</time></trkpt><trkpt lat="43.0469984" lon="13.1391844"><ele>840.6666666666667</ele><time>2026-04-11T14:03:48.13Z</time></trkpt><trkpt lat="43.0469708" lon="13.1390827"><ele>842.8333333333334</ele><time>2026-04-11T14:03:49.129Z</time></trkpt><trkpt lat="43.0469342" lon="13.1389937"><ele>845.0</ele><time>2026-04-11T14:03:50.129Z</time></trkpt><trkpt lat="43.046902" lon="13.1389193"><ele>847.0</ele><time>2026-04-11T14:03:51.129Z</time></trkpt><trkpt lat="43.0468385" lon="13.1387786"><ele>849.0</ele><time>2026-04-11T14:03:53.129Z</time></trkpt><trkpt lat="43.0468099" lon="13.1386941"><ele>851.0</ele><time>2026-04-11T14:03:54.129Z</time></trkpt><trkpt lat="43.0467637" lon="13.1385527"><ele>853.0</ele><time>2026-04-11T14:03:56.129Z</time></trkpt><trkpt lat="43.046702" lon="13.1384963"><ele>855.0</ele><time>2026-04-11T14:03:59.13Z</time></trkpt><trkpt lat="43.0466256" lon="13.1384637"><ele>855.8</ele><time>2026-04-11T14:04:01.129Z</time></trkpt><trkpt lat="43.0465568" lon="13.1383749"><ele>856.6</ele><time>2026-04-11T14:04:03.129Z</time></trkpt><trkpt lat="43.0465006" lon="13.1382422"><ele>857.4000000000001</ele><time>2026-04-11T14:04:05.129Z</time></trkpt><trkpt lat="43.0464456" lon="13.1380949"><ele>858.2</ele><time>2026-04-11T14:04:07.129Z</time></trkpt><trkpt lat="43.0463921" lon="13.1379548"><ele>859.0</ele><time>2026-04-11T14:04:09.129Z</time></trkpt><trkpt lat="43.0463351" lon="13.1378119"><ele>860.8000000000001</ele><time>2026-04-11T14:04:11.129Z</time></trkpt><trkpt lat="43.0462839" lon="13.1376833"><ele>862.6000000000001</ele><time>2026-04-11T14:04:13.129Z</time></trkpt><trkpt lat="43.0462415" lon="13.1375813"><ele>864.4</ele><time>2026-04-11T14:04:15.128Z</time></trkpt><trkpt lat="43.0461989" lon="13.1374804"><ele>866.2</ele><time>2026-04-11T14:04:17.129Z</time></trkpt><trkpt lat="43.0461468" lon="13.1373638"><ele>868.0</ele><time>2026-04-11T14:04:19.129Z</time></trkpt><trkpt lat="43.0460851" lon="13.1372409"><ele>868.5999999999999</ele><time>2026-04-11T14:04:21.131Z</time></trkpt><trkpt lat="43.0460193" lon="13.1371321"><ele>869.1999999999999</ele><time>2026-04-11T14:04:23.128Z</time></trkpt><trkpt lat="43.0459489" lon="13.1370252"><ele>869.8</ele><time>2026-04-11T14:04:25.129Z</time></trkpt><trkpt lat="43.0458983" lon="13.1369187"><ele>870.4</ele><time>2026-04-11T14:04:27.129Z</time></trkpt><trkpt lat="43.045844" lon="13.1368194"><ele>871.0</ele><time>2026-04-11T14:04:29.129Z</time></trkpt><trkpt lat="43.0457834" lon="13.1367172"><ele>873.5999999999999</ele><time>2026-04-11T14:04:31.129Z</time></trkpt><trkpt lat="43.0457289" lon="13.1366096"><ele>876.1999999999999</ele><time>2026-04-11T14:04:33.129Z</time></trkpt><trkpt lat="43.0456673" lon="13.1364958"><ele>878.8000000000001</ele><time>2026-04-11T14:04:35.129Z</time></trkpt><trkpt lat="43.0456288" lon="13.1363747"><ele>881.4000000000001</ele><time>2026-04-11T14:04:37.13Z</time></trkpt><trkpt lat="43.0456091" lon="13.1362585"><ele>884.0</ele><time>2026-04-11T14:04:39.131Z</time></trkpt><trkpt lat="43.0456274" lon="13.1361633"><ele>884.3333333333334</ele><time>2026-04-11T14:04:59.129Z</time></trkpt><trkpt lat="43.0456038" lon="13.1360592"><ele>884.6666666666667</ele><time>2026-04-11T14:05:01.129Z</time></trkpt><trkpt lat="43.0455759" lon="13.1359819"><ele>885.0</ele><time>2026-04-11T14:05:02.131Z</time></trkpt><trkpt lat="43.0455423" lon="13.1359021"><ele>885.3333333333333</ele><time>2026-04-11T14:05:03.128Z</time></trkpt><trkpt lat="43.0454748" lon="13.1357441"><ele>885.6666666666666</ele><time>2026-04-11T14:05:05.129Z</time></trkpt><trkpt lat="43.0454315" lon="13.1356621"><ele>886.0</ele><time>2026-04-11T14:05:06.128Z</time></trkpt><trkpt lat="43.045376" lon="13.1355773"><ele>885.1999999999999</ele><time>2026-04-11T14:05:07.13Z</time></trkpt><trkpt lat="43.0453216" lon="13.1354874"><ele>884.3999999999999</ele><time>2026-04-11T14:05:08.129Z</time></trkpt><trkpt lat="43.045274" lon="13.1353823"><ele>883.6</ele><time>2026-04-11T14:05:09.129Z</time></trkpt><trkpt lat="43.0452211" lon="13.135267"><ele>882.8</ele><time>2026-04-11T14:05:10.128Z</time></trkpt><trkpt lat="43.0451693" lon="13.1351535"><ele>882.0</ele><time>2026-04-11T14:05:11.13Z</time></trkpt><trkpt lat="43.0451133" lon="13.1350316"><ele>882.0</ele><time>2026-04-11T14:05:12.128Z</time></trkpt><trkpt lat="43.0450592" lon="13.134917"><ele>882.0</ele><time>2026-04-11T14:05:13.129Z</time></trkpt><trkpt lat="43.0450049" lon="13.1348021"><ele>882.0</ele><time>2026-04-11T14:05:14.13Z</time></trkpt><trkpt lat="43.04495" lon="13.1346813"><ele>882.0</ele><time>2026-04-11T14:05:15.13Z</time></trkpt><trkpt lat="43.0448896" lon="13.1345633"><ele>882.0</ele><time>2026-04-11T14:05:16.128Z</time></trkpt><trkpt lat="43.0448256" lon="13.1344438"><ele>881.8</ele><time>2026-04-11T14:05:17.129Z</time></trkpt><trkpt lat="43.0447755" lon="13.134325"><ele>881.6</ele><time>2026-04-11T14:05:18.13Z</time></trkpt><trkpt lat="43.0447388" lon="13.1341963"><ele>881.3999999999999</ele><time>2026-04-11T14:05:19.129Z</time></trkpt><trkpt lat="43.0447237" lon="13.1340568"><ele>881.1999999999999</ele><time>2026-04-11T14:05:20.128Z</time></trkpt><trkpt lat="43.0447187" lon="13.1339216"><ele>881.0</ele><time>2026-04-11T14:05:21.129Z</time></trkpt><trkpt lat="43.0447261" lon="13.1337802"><ele>880.4</ele><time>2026-04-11T14:05:22.128Z</time></trkpt><trkpt lat="43.0447462" lon="13.1336687"><ele>879.8</ele><time>2026-04-11T14:05:23.129Z</time></trkpt><trkpt lat="43.0447578" lon="13.1335351"><ele>879.1999999999999</ele><time>2026-04-11T14:05:24.129Z</time></trkpt><trkpt lat="43.044765" lon="13.1334086"><ele>878.5999999999999</ele><time>2026-04-11T14:05:25.129Z</time></trkpt><trkpt lat="43.0447532" lon="13.1332821"><ele>878.0</ele><time>2026-04-11T14:05:26.129Z</time></trkpt><trkpt lat="43.0447282" lon="13.1331602"><ele>876.5999999999999</ele><time>2026-04-11T14:05:27.129Z</time></trkpt><trkpt lat="43.0447135" lon="13.1330237"><ele>875.1999999999999</ele><time>2026-04-11T14:05:28.13Z</time></trkpt><trkpt lat="43.0447085" lon="13.1328762"><ele>873.8</ele><time>2026-04-11T14:05:29.129Z</time></trkpt><trkpt lat="43.0447114" lon="13.1327185"><ele>872.4</ele><time>2026-04-11T14:05:30.129Z</time></trkpt><trkpt lat="43.0447246" lon="13.1325557"><ele>871.0</ele><time>2026-04-11T14:05:31.129Z</time></trkpt><trkpt lat="43.0447451" lon="13.1323936"><ele>869.5</ele><time>2026-04-11T14:05:32.129Z</time></trkpt><trkpt lat="43.0447612" lon="13.1322212"><ele>868.0</ele><time>2026-04-11T14:05:33.129Z</time></trkpt><trkpt lat="43.0447748" lon="13.1320457"><ele>866.5</ele><time>2026-04-11T14:05:34.13Z</time></trkpt><trkpt lat="43.0447812" lon="13.1318668"><ele>865.0</ele><time>2026-04-11T14:05:35.129Z</time></trkpt><trkpt lat="43.0447817" lon="13.1316997"><ele>865.4</ele><time>2026-04-11T14:05:36.129Z</time></trkpt><trkpt lat="43.0447831" lon="13.1315562"><ele>865.8</ele><time>2026-04-11T14:05:37.129Z</time></trkpt><trkpt lat="43.0448029" lon="13.1314264"><ele>866.2</ele><time>2026-04-11T14:05:38.129Z</time></trkpt><trkpt lat="43.0448438" lon="13.1312925"><ele>866.6</ele><time>2026-04-11T14:05:39.128Z</time></trkpt><trkpt lat="43.0449027" lon="13.1311547"><ele>867.0</ele><time>2026-04-11T14:05:40.129Z</time></trkpt><trkpt lat="43.0449586" lon="13.1310007"><ele>869.75</ele><time>2026-04-11T14:05:41.13Z</time></trkpt><trkpt lat="43.0450013" lon="13.1308265"><ele>872.5</ele><time>2026-04-11T14:05:42.128Z</time></trkpt><trkpt lat="43.045032" lon="13.1306446"><ele>875.25</ele><time>2026-04-11T14:05:43.128Z</time></trkpt><trkpt lat="43.04505" lon="13.1304783"><ele>878.0</ele><time>2026-04-11T14:05:44.129Z</time></trkpt><trkpt lat="43.0450508" lon="13.1303142"><ele>878.0000000000001</ele><time>2026-04-11T14:05:45.13Z</time></trkpt><trkpt lat="43.0450425" lon="13.1301852"><ele>878.0</ele><time>2026-04-11T14:05:46.13Z</time></trkpt><trkpt lat="43.0450184" lon="13.1300832"><ele>878.0</ele><time>2026-04-11T14:05:47.129Z</time></trkpt><trkpt lat="43.0449732" lon="13.1300157"><ele>878.0</ele><time>2026-04-11T14:05:48.129Z</time></trkpt><trkpt lat="43.044899" lon="13.129972"><ele>878.0000000000001</ele><time>2026-04-11T14:05:49.13Z</time></trkpt><trkpt lat="43.0447887" lon="13.1299576"><ele>878.0</ele><time>2026-04-11T14:05:50.13Z</time></trkpt><trkpt lat="43.0446386" lon="13.1299526"><ele>878.5</ele><time>2026-04-11T14:05:51.129Z</time></trkpt><trkpt lat="43.0445083" lon="13.1299469"><ele>879.0</ele><time>2026-04-11T14:05:52.128Z</time></trkpt><trkpt lat="43.0443898" lon="13.1299585"><ele>879.5</ele><time>2026-04-11T14:05:53.129Z</time></trkpt><trkpt lat="43.0442833" lon="13.129961"><ele>880.0</ele><time>2026-04-11T14:05:54.131Z</time></trkpt><trkpt lat="43.044191" lon="13.1299203"><ele>878.75</ele><time>2026-04-11T14:05:55.129Z</time></trkpt><trkpt lat="43.0440949" lon="13.1298945"><ele>877.5</ele><time>2026-04-11T14:05:56.128Z</time></trkpt><trkpt lat="43.0439854" lon="13.129895"><ele>876.25</ele><time>2026-04-11T14:05:57.129Z</time></trkpt><trkpt lat="43.0438744" lon="13.1298907"><ele>875.0</ele><time>2026-04-11T14:05:58.128Z</time></trkpt><trkpt lat="43.0437445" lon="13.1298621"><ele>873.8</ele><time>2026-04-11T14:05:59.13Z</time></trkpt><trkpt lat="43.0436164" lon="13.1298284"><ele>872.6</ele><time>2026-04-11T14:06:00.129Z</time></trkpt><trkpt lat="43.0435072" lon="13.1297871"><ele>871.4000000000001</ele><time>2026-04-11T14:06:01.128Z</time></trkpt><trkpt lat="43.0434067" lon="13.129734"><ele>870.2</ele><time>2026-04-11T14:06:02.128Z</time></trkpt><trkpt lat="43.0433371" lon="13.1296521"><ele>869.0</ele><time>2026-04-11T14:06:03.128Z</time></trkpt><trkpt lat="43.0432597" lon="13.1295506"><ele>869.0</ele><time>2026-04-11T14:06:04.129Z</time></trkpt><trkpt lat="43.0432181" lon="13.1294282"><ele>869.0000000000001</ele><time>2026-04-11T14:06:05.129Z</time></trkpt><trkpt lat="43.043174" lon="13.1292972"><ele>869.0000000000001</ele><time>2026-04-11T14:06:06.128Z</time></trkpt><trkpt lat="43.0431231" lon="13.1291643"><ele>869.0</ele><time>2026-04-11T14:06:07.13Z</time></trkpt><trkpt lat="43.0430796" lon="13.1290308"><ele>869.0</ele><time>2026-04-11T14:06:08.129Z</time></trkpt><trkpt lat="43.0430342" lon="13.1289072"><ele>872.0</ele><time>2026-04-11T14:06:09.129Z</time></trkpt><trkpt lat="43.0429913" lon="13.128772"><ele>875.0</ele><time>2026-04-11T14:06:10.129Z</time></trkpt><trkpt lat="43.042958" lon="13.1286224"><ele>878.0</ele><time>2026-04-11T14:06:11.129Z</time></trkpt><trkpt lat="43.0429424" lon="13.1284437"><ele>881.0</ele><time>2026-04-11T14:06:12.129Z</time></trkpt><trkpt lat="43.0429303" lon="13.1282678"><ele>883.25</ele><time>2026-04-11T14:06:13.129Z</time></trkpt><trkpt lat="43.0429369" lon="13.1280748"><ele>885.5</ele><time>2026-04-11T14:06:14.128Z</time></trkpt><trkpt lat="43.0429529" lon="13.1278747"><ele>887.75</ele><time>2026-04-11T14:06:15.13Z</time></trkpt><trkpt lat="43.0429634" lon="13.1276731"><ele>890.0</ele><time>2026-04-11T14:06:16.13Z</time></trkpt><trkpt lat="43.042963" lon="13.1275005"><ele>890.4</ele><time>2026-04-11T14:06:17.129Z</time></trkpt><trkpt lat="43.0429463" lon="13.1273295"><ele>890.8</ele><time>2026-04-11T14:06:18.128Z</time></trkpt><trkpt lat="43.0429178" lon="13.1271774"><ele>891.2</ele><time>2026-04-11T14:06:19.13Z</time></trkpt><trkpt lat="43.0428812" lon="13.1270384"><ele>891.6</ele><time>2026-04-11T14:06:20.128Z</time></trkpt><trkpt lat="43.0428343" lon="13.1269376"><ele>892.0</ele><time>2026-04-11T14:06:21.128Z</time></trkpt><trkpt lat="43.0427725" lon="13.1268806"><ele>892.0</ele><time>2026-04-11T14:06:22.13Z</time></trkpt><trkpt lat="43.0427003" lon="13.1268574"><ele>892.0</ele><time>2026-04-11T14:06:23.13Z</time></trkpt><trkpt lat="43.0426178" lon="13.1268339"><ele>892.0</ele><time>2026-04-11T14:06:24.13Z</time></trkpt><trkpt lat="43.0425288" lon="13.126773"><ele>892.0</ele><time>2026-04-11T14:06:25.13Z</time></trkpt><trkpt lat="43.0424412" lon="13.1266882"><ele>892.0</ele><time>2026-04-11T14:06:26.129Z</time></trkpt><trkpt lat="43.0423707" lon="13.1265692"><ele>892.2</ele><time>2026-04-11T14:06:27.129Z</time></trkpt><trkpt lat="43.0423079" lon="13.1264559"><ele>892.4000000000001</ele><time>2026-04-11T14:06:28.129Z</time></trkpt><trkpt lat="43.0422418" lon="13.1263524"><ele>892.5999999999999</ele><time>2026-04-11T14:06:29.128Z</time></trkpt><trkpt lat="43.0421804" lon="13.1262716"><ele>892.8</ele><time>2026-04-11T14:06:30.128Z</time></trkpt><trkpt lat="43.0420886" lon="13.1261966"><ele>893.0</ele><time>2026-04-11T14:06:31.13Z</time></trkpt><trkpt lat="43.0419999" lon="13.1261274"><ele>893.0</ele><time>2026-04-11T14:06:32.131Z</time></trkpt><trkpt lat="43.041904" lon="13.1260539"><ele>893.0</ele><time>2026-04-11T14:06:33.128Z</time></trkpt><trkpt lat="43.041791" lon="13.1259728"><ele>893.0</ele><time>2026-04-11T14:06:34.129Z</time></trkpt><trkpt lat="43.0417021" lon="13.1258984"><ele>893.0</ele><time>2026-04-11T14:06:35.129Z</time></trkpt><trkpt lat="43.0416504" lon="13.1258263"><ele>893.0</ele><time>2026-04-11T14:06:36.128Z</time></trkpt><trkpt lat="43.041636" lon="13.125736"><ele>892.1666666666667</ele><time>2026-04-11T14:06:39.129Z</time></trkpt><trkpt lat="43.0417439" lon="13.1256622"><ele>891.3333333333334</ele><time>2026-04-11T14:06:51.129Z</time></trkpt><trkpt lat="43.0417958" lon="13.1256047"><ele>890.5</ele><time>2026-04-11T14:06:52.13Z</time></trkpt><trkpt lat="43.0418476" lon="13.1255222"><ele>889.6666666666667</ele><time>2026-04-11T14:06:53.129Z</time></trkpt><trkpt lat="43.0418965" lon="13.1254254"><ele>888.8333333333334</ele><time>2026-04-11T14:06:54.13Z</time></trkpt><trkpt lat="43.0419451" lon="13.1253198"><ele>888.0</ele><time>2026-04-11T14:06:55.128Z</time></trkpt><trkpt lat="43.0419999" lon="13.1252319"><ele>888.0</ele><time>2026-04-11T14:06:56.128Z</time></trkpt><trkpt lat="43.0420497" lon="13.125128"><ele>888.0</ele><time>2026-04-11T14:06:57.13Z</time></trkpt><trkpt lat="43.0420929" lon="13.1250255"><ele>888.0</ele><time>2026-04-11T14:06:58.13Z</time></trkpt><trkpt lat="43.0421313" lon="13.1249223"><ele>888.0</ele><time>2026-04-11T14:06:59.129Z</time></trkpt><trkpt lat="43.0421787" lon="13.1248122"><ele>888.0</ele><time>2026-04-11T14:07:00.129Z</time></trkpt><trkpt lat="43.042225" lon="13.1246999"><ele>886.4</ele><time>2026-04-11T14:07:01.129Z</time></trkpt><trkpt lat="43.0422752" lon="13.1246047"><ele>884.8</ele><time>2026-04-11T14:07:02.131Z</time></trkpt><trkpt lat="43.0423369" lon="13.1245228"><ele>883.2</ele><time>2026-04-11T14:07:03.128Z</time></trkpt><trkpt lat="43.04241" lon="13.1244428"><ele>881.6</ele><time>2026-04-11T14:07:04.129Z</time></trkpt><trkpt lat="43.0424961" lon="13.1243707"><ele>880.0</ele><time>2026-04-11T14:07:05.129Z</time></trkpt><trkpt lat="43.0425785" lon="13.1242854"><ele>878.8</ele><time>2026-04-11T14:07:06.128Z</time></trkpt><trkpt lat="43.0426673" lon="13.1242416"><ele>877.6</ele><time>2026-04-11T14:07:07.129Z</time></trkpt><trkpt lat="43.042747" lon="13.1242152"><ele>876.4000000000001</ele><time>2026-04-11T14:07:08.13Z</time></trkpt><trkpt lat="43.0428457" lon="13.124193"><ele>875.2</ele><time>2026-04-11T14:07:09.13Z</time></trkpt><trkpt lat="43.042948" lon="13.1241882"><ele>874.0</ele><time>2026-04-11T14:07:10.129Z</time></trkpt><trkpt lat="43.0430468" lon="13.1241847"><ele>873.9999999999999</ele><time>2026-04-11T14:07:11.13Z</time></trkpt><trkpt lat="43.0431447" lon="13.1241827"><ele>874.0</ele><time>2026-04-11T14:07:12.129Z</time></trkpt><trkpt lat="43.043232" lon="13.124164"><ele>874.0</ele><time>2026-04-11T14:07:13.13Z</time></trkpt><trkpt lat="43.0433208" lon="13.1241376"><ele>874.0</ele><time>2026-04-11T14:07:14.131Z</time></trkpt><trkpt lat="43.0433931" lon="13.1241148"><ele>873.9999999999999</ele><time>2026-04-11T14:07:15.129Z</time></trkpt><trkpt lat="43.0434578" lon="13.124051"><ele>874.0</ele><time>2026-04-11T14:07:16.131Z</time></trkpt><trkpt lat="43.0435097" lon="13.1239435"><ele>869.8000000000001</ele><time>2026-04-11T14:07:17.129Z</time></trkpt><trkpt lat="43.0435663" lon="13.1238211"><ele>865.6000000000001</ele><time>2026-04-11T14:07:18.129Z</time></trkpt><trkpt lat="43.0436245" lon="13.1236972"><ele>861.4</ele><time>2026-04-11T14:07:19.129Z</time></trkpt><trkpt lat="43.0436849" lon="13.1236"><ele>857.2</ele><time>2026-04-11T14:07:20.13Z</time></trkpt><trkpt lat="43.0437531" lon="13.123515"><ele>853.0</ele><time>2026-04-11T14:07:21.129Z</time></trkpt><trkpt lat="43.0438252" lon="13.1234801"><ele>852.9999999999999</ele><time>2026-04-11T14:07:22.128Z</time></trkpt><trkpt lat="43.0438979" lon="13.1234591"><ele>853.0</ele><time>2026-04-11T14:07:23.129Z</time></trkpt><trkpt lat="43.0439704" lon="13.1234465"><ele>853.0</ele><time>2026-04-11T14:07:24.129Z</time></trkpt><trkpt lat="43.0440413" lon="13.1233747"><ele>853.0</ele><time>2026-04-11T14:07:26.129Z</time></trkpt><trkpt lat="43.0440506" lon="13.1232591"><ele>852.9999999999999</ele><time>2026-04-11T14:07:28.128Z</time></trkpt><trkpt lat="43.0440457" lon="13.1231653"><ele>853.0</ele><time>2026-04-11T14:07:29.128Z</time></trkpt><trkpt lat="43.0440331" lon="13.1230666"><ele>852.3333333333333</ele><time>2026-04-11T14:07:30.129Z</time></trkpt><trkpt lat="43.0439956" lon="13.1229589"><ele>851.6666666666666</ele><time>2026-04-11T14:07:31.131Z</time></trkpt><trkpt lat="43.0439653" lon="13.122853"><ele>851.0</ele><time>2026-04-11T14:07:32.13Z</time></trkpt><trkpt lat="43.0439379" lon="13.1227536"><ele>850.3333333333333</ele><time>2026-04-11T14:07:33.129Z</time></trkpt><trkpt lat="43.0439129" lon="13.1226676"><ele>849.6666666666666</ele><time>2026-04-11T14:07:34.128Z</time></trkpt><trkpt lat="43.0439435" lon="13.1225204"><ele>849.0</ele><time>2026-04-11T14:07:36.129Z</time></trkpt><trkpt lat="43.0440831" lon="13.1224808"><ele>847.1666666666666</ele><time>2026-04-11T14:07:38.129Z</time></trkpt><trkpt lat="43.0441682" lon="13.1224699"><ele>845.3333333333333</ele><time>2026-04-11T14:07:39.129Z</time></trkpt><trkpt lat="43.0442337" lon="13.1224157"><ele>843.5</ele><time>2026-04-11T14:07:40.13Z</time></trkpt><trkpt lat="43.0442887" lon="13.1223406"><ele>841.6666666666666</ele><time>2026-04-11T14:07:41.13Z</time></trkpt><trkpt lat="43.0443419" lon="13.1222498"><ele>839.8333333333333</ele><time>2026-04-11T14:07:42.13Z</time></trkpt><trkpt lat="43.0444061" lon="13.1221505"><ele>838.0</ele><time>2026-04-11T14:07:43.129Z</time></trkpt><trkpt lat="43.0444815" lon="13.1220525"><ele>836.2</ele><time>2026-04-11T14:07:44.129Z</time></trkpt><trkpt lat="43.044551" lon="13.1219642"><ele>834.4</ele><time>2026-04-11T14:07:45.13Z</time></trkpt><trkpt lat="43.0446112" lon="13.1218775"><ele>832.6</ele><time>2026-04-11T14:07:46.135Z</time></trkpt><trkpt lat="43.0446736" lon="13.1217766"><ele>830.8000000000001</ele><time>2026-04-11T14:07:47.128Z</time></trkpt><trkpt lat="43.044739" lon="13.1216761"><ele>829.0</ele><time>2026-04-11T14:07:48.128Z</time></trkpt><trkpt lat="43.0448179" lon="13.1215795"><ele>828.1666666666666</ele><time>2026-04-11T14:07:49.128Z</time></trkpt><trkpt lat="43.0448835" lon="13.1214959"><ele>827.3333333333333</ele><time>2026-04-11T14:07:50.129Z</time></trkpt><trkpt lat="43.0449423" lon="13.1214053"><ele>826.5</ele><time>2026-04-11T14:07:51.13Z</time></trkpt><trkpt lat="43.0449876" lon="13.121312"><ele>825.6666666666667</ele><time>2026-04-11T14:07:52.13Z</time></trkpt><trkpt lat="43.0450165" lon="13.1212183"><ele>824.8333333333334</ele><time>2026-04-11T14:07:53.13Z</time></trkpt><trkpt lat="43.0450223" lon="13.1211297"><ele>824.0</ele><time>2026-04-11T14:07:54.13Z</time></trkpt><trkpt lat="43.0450265" lon="13.1210052"><ele>822.8000000000001</ele><time>2026-04-11T14:07:55.13Z</time></trkpt><trkpt lat="43.0450431" lon="13.1208698"><ele>821.6</ele><time>2026-04-11T14:07:56.128Z</time></trkpt><trkpt lat="43.0450707" lon="13.1207232"><ele>820.4</ele><time>2026-04-11T14:07:57.128Z</time></trkpt><trkpt lat="43.0450969" lon="13.1205977"><ele>819.2</ele><time>2026-04-11T14:07:58.13Z</time></trkpt><trkpt lat="43.0451401" lon="13.1204781"><ele>818.0</ele><time>2026-04-11T14:07:59.128Z</time></trkpt><trkpt lat="43.0452025" lon="13.12037"><ele>816.2</ele><time>2026-04-11T14:08:00.128Z</time></trkpt><trkpt lat="43.0452681" lon="13.1202751"><ele>814.4</ele><time>2026-04-11T14:08:01.13Z</time></trkpt><trkpt lat="43.0453408" lon="13.1201867"><ele>812.6</ele><time>2026-04-11T14:08:02.13Z</time></trkpt><trkpt lat="43.0454092" lon="13.1200963"><ele>810.8000000000001</ele><time>2026-04-11T14:08:03.129Z</time></trkpt><trkpt lat="43.0454518" lon="13.1199902"><ele>809.0</ele><time>2026-04-11T14:08:04.128Z</time></trkpt><trkpt lat="43.0455169" lon="13.1198835"><ele>807.8000000000001</ele><time>2026-04-11T14:08:05.129Z</time></trkpt><trkpt lat="43.0455714" lon="13.1197826"><ele>806.6</ele><time>2026-04-11T14:08:06.13Z</time></trkpt><trkpt lat="43.0456494" lon="13.1196851"><ele>805.4</ele><time>2026-04-11T14:08:07.129Z</time></trkpt><trkpt lat="43.0457226" lon="13.1196117"><ele>804.2</ele><time>2026-04-11T14:08:08.128Z</time></trkpt><trkpt lat="43.0457764" lon="13.1195492"><ele>803.0</ele><time>2026-04-11T14:08:09.129Z</time></trkpt><trkpt lat="43.0458456" lon="13.1194125"><ele>803.0000000000001</ele><time>2026-04-11T14:08:11.128Z</time></trkpt><trkpt lat="43.0458957" lon="13.1193376"><ele>803.0</ele><time>2026-04-11T14:08:12.129Z</time></trkpt><trkpt lat="43.0459637" lon="13.1192541"><ele>803.0</ele><time>2026-04-11T14:08:13.128Z</time></trkpt><trkpt lat="43.0460294" lon="13.119176"><ele>803.0</ele><time>2026-04-11T14:08:14.129Z</time></trkpt><trkpt lat="43.0460826" lon="13.1190608"><ele>803.0000000000001</ele><time>2026-04-11T14:08:16.13Z</time></trkpt><trkpt lat="43.0460253" lon="13.1190188"><ele>803.0</ele><time>2026-04-11T14:08:19.128Z</time></trkpt><trkpt lat="43.0459172" lon="13.1191356"><ele>803.0000000000001</ele><time>2026-04-11T14:08:21.131Z</time></trkpt><trkpt lat="43.0458542" lon="13.119212"><ele>803.0</ele><time>2026-04-11T14:08:22.13Z</time></trkpt><trkpt lat="43.0457948" lon="13.1192778"><ele>803.0</ele><time>2026-04-11T14:08:23.128Z</time></trkpt><trkpt lat="43.0457357" lon="13.1193689"><ele>803.0</ele><time>2026-04-11T14:08:24.13Z</time></trkpt><trkpt lat="43.0456692" lon="13.1194503"><ele>803.0000000000001</ele><time>2026-04-11T14:08:25.13Z</time></trkpt><trkpt lat="43.0456004" lon="13.1195216"><ele>803.0</ele><time>2026-04-11T14:08:26.129Z</time></trkpt><trkpt lat="43.0455124" lon="13.1195697"><ele>801.8333333333334</ele><time>2026-04-11T14:08:27.13Z</time></trkpt><trkpt lat="43.0454326" lon="13.119623"><ele>800.6666666666667</ele><time>2026-04-11T14:08:28.128Z</time></trkpt><trkpt lat="43.045364" lon="13.1196594"><ele>799.5</ele><time>2026-04-11T14:08:29.13Z</time></trkpt><trkpt lat="43.0452647" lon="13.1196165"><ele>798.3333333333333</ele><time>2026-04-11T14:08:31.128Z</time></trkpt><trkpt lat="43.0452499" lon="13.1195013"><ele>797.1666666666666</ele><time>2026-04-11T14:08:32.13Z</time></trkpt><trkpt lat="43.0452329" lon="13.1193999"><ele>796.0</ele><time>2026-04-11T14:08:33.13Z</time></trkpt><trkpt lat="43.0452077" lon="13.1193116"><ele>795.9999999999999</ele><time>2026-04-11T14:08:34.129Z</time></trkpt><trkpt lat="43.0451754" lon="13.1192355"><ele>796.0</ele><time>2026-04-11T14:08:35.129Z</time></trkpt><trkpt lat="43.0451107" lon="13.1192096"><ele>796.0</ele><time>2026-04-11T14:08:36.129Z</time></trkpt><trkpt lat="43.0450421" lon="13.1191781"><ele>796.0</ele><time>2026-04-11T14:08:37.131Z</time></trkpt><trkpt lat="43.0449716" lon="13.1191851"><ele>795.9999999999999</ele><time>2026-04-11T14:08:38.129Z</time></trkpt><trkpt lat="43.0449063" lon="13.1191999"><ele>796.0</ele><time>2026-04-11T14:08:39.129Z</time></trkpt><trkpt lat="43.0448244" lon="13.1193493"><ele>795.4</ele><time>2026-04-11T14:08:41.128Z</time></trkpt><trkpt lat="43.0447749" lon="13.119439"><ele>794.8</ele><time>2026-04-11T14:08:42.13Z</time></trkpt><trkpt lat="43.0447038" lon="13.1195403"><ele>794.1999999999999</ele><time>2026-04-11T14:08:43.129Z</time></trkpt><trkpt lat="43.0446396" lon="13.1196428"><ele>793.5999999999999</ele><time>2026-04-11T14:08:44.13Z</time></trkpt><trkpt lat="43.044576" lon="13.119734"><ele>793.0</ele><time>2026-04-11T14:08:45.128Z</time></trkpt><trkpt lat="43.0444979" lon="13.1197327"><ele>793.0</ele><time>2026-04-11T14:08:46.128Z</time></trkpt><trkpt lat="43.0444285" lon="13.1197254"><ele>793.0</ele><time>2026-04-11T14:08:47.129Z</time></trkpt><trkpt lat="43.0443454" lon="13.1196661"><ele>793.0</ele><time>2026-04-11T14:08:48.128Z</time></trkpt><trkpt lat="43.0442543" lon="13.1195901"><ele>793.0</ele><time>2026-04-11T14:08:49.129Z</time></trkpt><trkpt lat="43.044147" lon="13.1194885"><ele>793.0</ele><time>2026-04-11T14:08:50.128Z</time></trkpt><trkpt lat="43.0440252" lon="13.1193883"><ele>794.25</ele><time>2026-04-11T14:08:51.13Z</time></trkpt><trkpt lat="43.0439155" lon="13.119302"><ele>795.5</ele><time>2026-04-11T14:08:52.129Z</time></trkpt><trkpt lat="43.04383" lon="13.1191844"><ele>796.75</ele><time>2026-04-11T14:08:53.128Z</time></trkpt><trkpt lat="43.0437422" lon="13.1190774"><ele>798.0</ele><time>2026-04-11T14:08:54.129Z</time></trkpt><trkpt lat="43.04366" lon="13.1189827"><ele>798.1666666666666</ele><time>2026-04-11T14:08:55.128Z</time></trkpt><trkpt lat="43.0435968" lon="13.1189333"><ele>798.3333333333333</ele><time>2026-04-11T14:08:56.13Z</time></trkpt><trkpt lat="43.0434858" lon="13.1188792"><ele>798.5</ele><time>2026-04-11T14:08:58.129Z</time></trkpt><trkpt lat="43.0434205" lon="13.1188724"><ele>798.6666666666666</ele><time>2026-04-11T14:08:59.128Z</time></trkpt><trkpt lat="43.0433479" lon="13.1188624"><ele>798.8333333333333</ele><time>2026-04-11T14:09:00.129Z</time></trkpt><trkpt lat="43.0432765" lon="13.1188058"><ele>799.0</ele><time>2026-04-11T14:09:01.129Z</time></trkpt><trkpt lat="43.0432208" lon="13.1187363"><ele>799.0</ele><time>2026-04-11T14:09:02.129Z</time></trkpt><trkpt lat="43.0431607" lon="13.1186316"><ele>799.0</ele><time>2026-04-11T14:09:03.129Z</time></trkpt><trkpt lat="43.0430926" lon="13.1185579"><ele>799.0</ele><time>2026-04-11T14:09:04.129Z</time></trkpt><trkpt lat="43.0430216" lon="13.1184785"><ele>799.0</ele><time>2026-04-11T14:09:05.13Z</time></trkpt><trkpt lat="43.0429417" lon="13.1183959"><ele>799.0</ele><time>2026-04-11T14:09:06.128Z</time></trkpt><trkpt lat="43.042853" lon="13.118302"><ele>795.25</ele><time>2026-04-11T14:09:07.129Z</time></trkpt><trkpt lat="43.0427576" lon="13.1182044"><ele>791.5</ele><time>2026-04-11T14:09:08.13Z</time></trkpt><trkpt lat="43.0426617" lon="13.1181125"><ele>787.75</ele><time>2026-04-11T14:09:09.13Z</time></trkpt><trkpt lat="43.0425657" lon="13.1180355"><ele>784.0</ele><time>2026-04-11T14:09:10.129Z</time></trkpt><trkpt lat="43.0424746" lon="13.1179706"><ele>783.8333333333333</ele><time>2026-04-11T14:09:11.129Z</time></trkpt><trkpt lat="43.0424138" lon="13.1179004"><ele>783.6666666666666</ele><time>2026-04-11T14:09:12.128Z</time></trkpt><trkpt lat="43.042352" lon="13.1178165"><ele>783.5</ele><time>2026-04-11T14:09:13.129Z</time></trkpt><trkpt lat="43.0423088" lon="13.1177412"><ele>783.3333333333333</ele><time>2026-04-11T14:09:14.13Z</time></trkpt><trkpt lat="43.0422608" lon="13.1176477"><ele>783.1666666666666</ele><time>2026-04-11T14:09:15.128Z</time></trkpt><trkpt lat="43.0422085" lon="13.1175731"><ele>783.0</ele><time>2026-04-11T14:09:16.129Z</time></trkpt><trkpt lat="43.042154" lon="13.1175187"><ele>783.0</ele><time>2026-04-11T14:09:17.128Z</time></trkpt><trkpt lat="43.0420882" lon="13.1174868"><ele>783.0</ele><time>2026-04-11T14:09:18.13Z</time></trkpt><trkpt lat="43.0420197" lon="13.1174513"><ele>783.0</ele><time>2026-04-11T14:09:19.129Z</time></trkpt><trkpt lat="43.041951" lon="13.1174066"><ele>783.0</ele><time>2026-04-11T14:09:20.128Z</time></trkpt><trkpt lat="43.0418877" lon="13.117389"><ele>783.0</ele><time>2026-04-11T14:09:21.129Z</time></trkpt><trkpt lat="43.0418057" lon="13.117396"><ele>783.0</ele><time>2026-04-11T14:09:22.128Z</time></trkpt><trkpt lat="43.0417214" lon="13.1174363"><ele>782.8</ele><time>2026-04-11T14:09:23.13Z</time></trkpt><trkpt lat="43.0416271" lon="13.1174902"><ele>782.5999999999999</ele><time>2026-04-11T14:09:24.128Z</time></trkpt><trkpt lat="43.0415414" lon="13.1175511"><ele>782.4000000000001</ele><time>2026-04-11T14:09:25.128Z</time></trkpt><trkpt lat="43.041466" lon="13.1176246"><ele>782.2</ele><time>2026-04-11T14:09:26.13Z</time></trkpt><trkpt lat="43.0413904" lon="13.1177185"><ele>782.0</ele><time>2026-04-11T14:09:27.129Z</time></trkpt><trkpt lat="43.0413126" lon="13.1178073"><ele>782.0000000000001</ele><time>2026-04-11T14:09:28.128Z</time></trkpt><trkpt lat="43.0412442" lon="13.1178923"><ele>782.0</ele><time>2026-04-11T14:09:29.129Z</time></trkpt><trkpt lat="43.0411861" lon="13.1179706"><ele>782.0</ele><time>2026-04-11T14:09:30.128Z</time></trkpt><trkpt lat="43.0411145" lon="13.1180412"><ele>782.0</ele><time>2026-04-11T14:09:32.13Z</time></trkpt><trkpt lat="43.0410498" lon="13.117956"><ele>782.0000000000001</ele><time>2026-04-11T14:09:34.128Z</time></trkpt><trkpt lat="43.041006" lon="13.1178693"><ele>782.0</ele><time>2026-04-11T14:09:35.129Z</time></trkpt><trkpt lat="43.0409653" lon="13.1177977"><ele>782.0000000000001</ele><time>2026-04-11T14:09:36.131Z</time></trkpt><trkpt lat="43.0409193" lon="13.1177384"><ele>782.0</ele><time>2026-04-11T14:09:37.13Z</time></trkpt><trkpt lat="43.0408416" lon="13.117746"><ele>782.0</ele><time>2026-04-11T14:09:38.13Z</time></trkpt><trkpt lat="43.0407616" lon="13.1177638"><ele>782.0</ele><time>2026-04-11T14:09:39.13Z</time></trkpt><trkpt lat="43.0406889" lon="13.1178115"><ele>782.0000000000001</ele><time>2026-04-11T14:09:40.128Z</time></trkpt><trkpt lat="43.0406236" lon="13.1178725"><ele>782.0</ele><time>2026-04-11T14:09:41.13Z</time></trkpt><trkpt lat="43.0405601" lon="13.1179499"><ele>784.1666666666667</ele><time>2026-04-11T14:09:42.129Z</time></trkpt><trkpt lat="43.0405001" lon="13.1180243"><ele>786.3333333333334</ele><time>2026-04-11T14:09:43.13Z</time></trkpt><trkpt lat="43.0404269" lon="13.1180634"><ele>788.5</ele><time>2026-04-11T14:09:44.129Z</time></trkpt><trkpt lat="43.0403464" lon="13.1180498"><ele>790.6666666666667</ele><time>2026-04-11T14:09:45.129Z</time></trkpt><trkpt lat="43.0402564" lon="13.1180331"><ele>792.8333333333334</ele><time>2026-04-11T14:09:46.128Z</time></trkpt><trkpt lat="43.0401789" lon="13.1180368"><ele>795.0</ele><time>2026-04-11T14:09:47.128Z</time></trkpt><trkpt lat="43.0400896" lon="13.1180377"><ele>795.0</ele><time>2026-04-11T14:09:48.129Z</time></trkpt><trkpt lat="43.040009" lon="13.1180266"><ele>795.0</ele><time>2026-04-11T14:09:49.129Z</time></trkpt><trkpt lat="43.0399262" lon="13.1180281"><ele>795.0</ele><time>2026-04-11T14:09:50.129Z</time></trkpt><trkpt lat="43.0398457" lon="13.118066"><ele>795.0</ele><time>2026-04-11T14:09:51.129Z</time></trkpt><trkpt lat="43.0397522" lon="13.1180974"><ele>795.0</ele><time>2026-04-11T14:09:52.128Z</time></trkpt><trkpt lat="43.0396637" lon="13.1180996"><ele>795.0</ele><time>2026-04-11T14:09:53.128Z</time></trkpt><trkpt lat="43.0395651" lon="13.1180899"><ele>795.4</ele><time>2026-04-11T14:09:54.13Z</time></trkpt><trkpt lat="43.039471" lon="13.1181031"><ele>795.8</ele><time>2026-04-11T14:09:55.13Z</time></trkpt><trkpt lat="43.0393865" lon="13.1181375"><ele>796.2</ele><time>2026-04-11T14:09:56.129Z</time></trkpt><trkpt lat="43.0393029" lon="13.1181814"><ele>796.6</ele><time>2026-04-11T14:09:57.128Z</time></trkpt><trkpt lat="43.0392125" lon="13.1182189"><ele>797.0</ele><time>2026-04-11T14:09:58.13Z</time></trkpt><trkpt lat="43.0391158" lon="13.1182416"><ele>796.2</ele><time>2026-04-11T14:09:59.13Z</time></trkpt><trkpt lat="43.0390087" lon="13.1181941"><ele>795.4000000000001</ele><time>2026-04-11T14:10:00.129Z</time></trkpt><trkpt lat="43.038903" lon="13.1181608"><ele>794.5999999999999</ele><time>2026-04-11T14:10:01.129Z</time></trkpt><trkpt lat="43.0388167" lon="13.1181408"><ele>793.8</ele><time>2026-04-11T14:10:02.128Z</time></trkpt><trkpt lat="43.0387244" lon="13.1181286"><ele>793.0</ele><time>2026-04-11T14:10:03.128Z</time></trkpt><trkpt lat="43.038633" lon="13.1181723"><ele>795.8</ele><time>2026-04-11T14:10:04.129Z</time></trkpt><trkpt lat="43.0385396" lon="13.1182367"><ele>798.5999999999999</ele><time>2026-04-11T14:10:05.129Z</time></trkpt><trkpt lat="43.0384457" lon="13.1182997"><ele>801.4000000000001</ele><time>2026-04-11T14:10:06.129Z</time></trkpt><trkpt lat="43.0383396" lon="13.1183791"><ele>804.2</ele><time>2026-04-11T14:10:07.13Z</time></trkpt><trkpt lat="43.0382485" lon="13.1184738"><ele>807.0</ele><time>2026-04-11T14:10:08.129Z</time></trkpt><trkpt lat="43.0381833" lon="13.1185803"><ele>808.0</ele><time>2026-04-11T14:10:09.129Z</time></trkpt><trkpt lat="43.0381335" lon="13.1187023"><ele>809.0</ele><time>2026-04-11T14:10:10.13Z</time></trkpt><trkpt lat="43.0380972" lon="13.1188425"><ele>810.0</ele><time>2026-04-11T14:10:11.129Z</time></trkpt><trkpt lat="43.0380448" lon="13.1189833"><ele>811.0</ele><time>2026-04-11T14:10:12.129Z</time></trkpt><trkpt lat="43.0379685" lon="13.1191061"><ele>812.0</ele><time>2026-04-11T14:10:13.129Z</time></trkpt><trkpt lat="43.0378826" lon="13.1192251"><ele>813.5</ele><time>2026-04-11T14:10:14.129Z</time></trkpt><trkpt lat="43.0378056" lon="13.1193586"><ele>815.0</ele><time>2026-04-11T14:10:15.13Z</time></trkpt><trkpt lat="43.0377517" lon="13.1195015"><ele>816.5</ele><time>2026-04-11T14:10:16.129Z</time></trkpt><trkpt lat="43.0377038" lon="13.1196524"><ele>818.0</ele><time>2026-04-11T14:10:17.129Z</time></trkpt><trkpt lat="43.0376745" lon="13.1198085"><ele>819.4</ele><time>2026-04-11T14:10:18.128Z</time></trkpt><trkpt lat="43.0376648" lon="13.1199423"><ele>820.8</ele><time>2026-04-11T14:10:19.13Z</time></trkpt><trkpt lat="43.0376635" lon="13.1200487"><ele>822.2</ele><time>2026-04-11T14:10:20.129Z</time></trkpt><trkpt lat="43.0376477" lon="13.1201701"><ele>823.6</ele><time>2026-04-11T14:10:22.128Z</time></trkpt><trkpt lat="43.0375806" lon="13.1202227"><ele>825.0</ele><time>2026-04-11T14:10:24.129Z</time></trkpt><trkpt lat="43.0374731" lon="13.1203409"><ele>827.6</ele><time>2026-04-11T14:10:26.129Z</time></trkpt><trkpt lat="43.0374232" lon="13.1204044"><ele>830.2</ele><time>2026-04-11T14:10:27.128Z</time></trkpt><trkpt lat="43.0373183" lon="13.1204618"><ele>832.8</ele><time>2026-04-11T14:10:29.129Z</time></trkpt><trkpt lat="43.0371933" lon="13.1204149"><ele>835.4</ele><time>2026-04-11T14:10:31.13Z</time></trkpt><trkpt lat="43.037147" lon="13.1203378"><ele>838.0</ele><time>2026-04-11T14:10:32.128Z</time></trkpt><trkpt lat="43.0371077" lon="13.1202604"><ele>837.9999999999999</ele><time>2026-04-11T14:10:34.129Z</time></trkpt><trkpt lat="43.0370272" lon="13.1203279"><ele>838.0</ele><time>2026-04-11T14:10:37.13Z</time></trkpt><trkpt lat="43.0370063" lon="13.1204223"><ele>838.0</ele><time>2026-04-11T14:10:38.129Z</time></trkpt><trkpt lat="43.0369933" lon="13.1205083"><ele>838.0</ele><time>2026-04-11T14:10:39.129Z</time></trkpt><trkpt lat="43.0369942" lon="13.1206898"><ele>837.9999999999999</ele><time>2026-04-11T14:10:41.13Z</time></trkpt><trkpt lat="43.0369979" lon="13.1207935"><ele>838.0</ele><time>2026-04-11T14:10:42.129Z</time></trkpt><trkpt lat="43.0369906" lon="13.1209087"><ele>839.2</ele><time>2026-04-11T14:10:43.129Z</time></trkpt><trkpt lat="43.0369713" lon="13.1210332"><ele>840.4</ele><time>2026-04-11T14:10:44.131Z</time></trkpt><trkpt lat="43.0369619" lon="13.1211692"><ele>841.6</ele><time>2026-04-11T14:10:45.129Z</time></trkpt><trkpt lat="43.0369693" lon="13.1213141"><ele>842.8000000000001</ele><time>2026-04-11T14:10:46.129Z</time></trkpt><trkpt lat="43.0369868" lon="13.1214482"><ele>844.0</ele><time>2026-04-11T14:10:47.129Z</time></trkpt><trkpt lat="43.0369951" lon="13.1215573"><ele>844.9999999999999</ele><time>2026-04-11T14:10:48.131Z</time></trkpt><trkpt lat="43.036967" lon="13.1216528"><ele>846.0</ele><time>2026-04-11T14:10:49.129Z</time></trkpt><trkpt lat="43.0369341" lon="13.1217288"><ele>847.0</ele><time>2026-04-11T14:10:50.13Z</time></trkpt><trkpt lat="43.0369217" lon="13.1218473"><ele>848.0</ele><time>2026-04-11T14:10:51.128Z</time></trkpt><trkpt lat="43.0369327" lon="13.1219646"><ele>848.9999999999999</ele><time>2026-04-11T14:10:52.129Z</time></trkpt><trkpt lat="43.0369561" lon="13.1221187"><ele>850.0</ele><time>2026-04-11T14:10:53.129Z</time></trkpt><trkpt lat="43.0369643" lon="13.1222789"><ele>850.8</ele><time>2026-04-11T14:10:54.129Z</time></trkpt><trkpt lat="43.0369658" lon="13.1224474"><ele>851.6</ele><time>2026-04-11T14:10:55.128Z</time></trkpt><trkpt lat="43.0369664" lon="13.1225544"><ele>852.4000000000001</ele><time>2026-04-11T14:10:56.129Z</time></trkpt><trkpt lat="43.0369735" lon="13.1227014"><ele>853.2</ele><time>2026-04-11T14:10:58.128Z</time></trkpt><trkpt lat="43.0369834" lon="13.1227949"><ele>854.0</ele><time>2026-04-11T14:11:00.131Z</time></trkpt><trkpt lat="43.0369232" lon="13.1228865"><ele>854.0000000000001</ele><time>2026-04-11T14:11:04.128Z</time></trkpt><trkpt lat="43.0369201" lon="13.1229834"><ele>854.0</ele><time>2026-04-11T14:11:06.129Z</time></trkpt><trkpt lat="43.0369317" lon="13.123097"><ele>854.0</ele><time>2026-04-11T14:11:09.129Z</time></trkpt><trkpt lat="43.0369482" lon="13.1231976"><ele>854.0</ele><time>2026-04-11T14:11:22.129Z</time></trkpt><trkpt lat="43.0369587" lon="13.1233246"><ele>854.0000000000001</ele><time>2026-04-11T14:11:24.128Z</time></trkpt><trkpt lat="43.036968" lon="13.1234895"><ele>854.0</ele><time>2026-04-11T14:11:26.129Z</time></trkpt><trkpt lat="43.0369408" lon="13.1236062"><ele>854.4000000000001</ele><time>2026-04-11T14:11:28.128Z</time></trkpt><trkpt lat="43.0368495" lon="13.1236044"><ele>854.8000000000001</ele><time>2026-04-11T14:11:30.129Z</time></trkpt><trkpt lat="43.0367931" lon="13.1235551"><ele>855.1999999999999</ele><time>2026-04-11T14:11:31.128Z</time></trkpt><trkpt lat="43.0367216" lon="13.1234832"><ele>855.5999999999999</ele><time>2026-04-11T14:11:32.129Z</time></trkpt><trkpt lat="43.0366386" lon="13.1234049"><ele>856.0</ele><time>2026-04-11T14:11:33.128Z</time></trkpt><trkpt lat="43.036557" lon="13.1233194"><ele>857.5</ele><time>2026-04-11T14:11:34.129Z</time></trkpt><trkpt lat="43.0364711" lon="13.1232189"><ele>859.0</ele><time>2026-04-11T14:11:35.13Z</time></trkpt><trkpt lat="43.036378" lon="13.1231186"><ele>860.5</ele><time>2026-04-11T14:11:36.129Z</time></trkpt><trkpt lat="43.0362792" lon="13.123009"><ele>862.0</ele><time>2026-04-11T14:11:37.129Z</time></trkpt><trkpt lat="43.0361824" lon="13.122886"><ele>862.0</ele><time>2026-04-11T14:11:38.128Z</time></trkpt><trkpt lat="43.0360703" lon="13.1227552"><ele>862.0</ele><time>2026-04-11T14:11:39.128Z</time></trkpt><trkpt lat="43.0359585" lon="13.1226129"><ele>862.0</ele><time>2026-04-11T14:11:40.13Z</time></trkpt><trkpt lat="43.0358358" lon="13.1224603"><ele>864.0</ele><time>2026-04-11T14:11:41.13Z</time></trkpt><trkpt lat="43.0357137" lon="13.1223115"><ele>866.0</ele><time>2026-04-11T14:11:42.128Z</time></trkpt><trkpt lat="43.035579" lon="13.1221518"><ele>868.0</ele><time>2026-04-11T14:11:43.13Z</time></trkpt><trkpt lat="43.0354381" lon="13.1219731"><ele>868.0</ele><time>2026-04-11T14:11:44.128Z</time></trkpt><trkpt lat="43.0352829" lon="13.1217761"><ele>868.0</ele><time>2026-04-11T14:11:45.128Z</time></trkpt><trkpt lat="43.0351281" lon="13.1215745"><ele>868.0</ele><time>2026-04-11T14:11:46.13Z</time></trkpt><trkpt lat="43.0349842" lon="13.1213832"><ele>870.6666666666666</ele><time>2026-04-11T14:11:47.128Z</time></trkpt><trkpt lat="43.0348462" lon="13.1211954"><ele>873.3333333333333</ele><time>2026-04-11T14:11:48.128Z</time></trkpt><trkpt lat="43.0347094" lon="13.1210153"><ele>876.0</ele><time>2026-04-11T14:11:49.13Z</time></trkpt><trkpt lat="43.0345683" lon="13.1208354"><ele>876.3333333333333</ele><time>2026-04-11T14:11:50.128Z</time></trkpt><trkpt lat="43.0344307" lon="13.1206613"><ele>876.6666666666666</ele><time>2026-04-11T14:11:51.13Z</time></trkpt><trkpt lat="43.0342955" lon="13.1204915"><ele>877.0</ele><time>2026-04-11T14:11:52.128Z</time></trkpt><trkpt lat="43.0341538" lon="13.1203245"><ele>879.3333333333333</ele><time>2026-04-11T14:11:53.129Z</time></trkpt><trkpt lat="43.0340154" lon="13.120153"><ele>881.6666666666667</ele><time>2026-04-11T14:11:54.13Z</time></trkpt><trkpt lat="43.0338883" lon="13.1199901"><ele>884.0</ele><time>2026-04-11T14:11:55.129Z</time></trkpt><trkpt lat="43.0337721" lon="13.1198346"><ele>884.75</ele><time>2026-04-11T14:11:56.129Z</time></trkpt><trkpt lat="43.033659" lon="13.1196917"><ele>885.5</ele><time>2026-04-11T14:11:57.13Z</time></trkpt><trkpt lat="43.0335471" lon="13.1195658"><ele>886.25</ele><time>2026-04-11T14:11:58.128Z</time></trkpt><trkpt lat="43.033442" lon="13.1194431"><ele>887.0</ele><time>2026-04-11T14:11:59.129Z</time></trkpt><trkpt lat="43.0333428" lon="13.1193196"><ele>888.5</ele><time>2026-04-11T14:12:00.13Z</time></trkpt><trkpt lat="43.0332404" lon="13.1191906"><ele>890.0</ele><time>2026-04-11T14:12:01.13Z</time></trkpt><trkpt lat="43.0331425" lon="13.1190674"><ele>891.5</ele><time>2026-04-11T14:12:02.129Z</time></trkpt><trkpt lat="43.0330353" lon="13.1189375"><ele>893.0</ele><time>2026-04-11T14:12:03.128Z</time></trkpt><trkpt lat="43.032917" lon="13.1187995"><ele>893.0</ele><time>2026-04-11T14:12:04.13Z</time></trkpt><trkpt lat="43.0327984" lon="13.1186516"><ele>893.0</ele><time>2026-04-11T14:12:05.129Z</time></trkpt><trkpt lat="43.0326705" lon="13.1184896"><ele>893.0</ele><time>2026-04-11T14:12:06.131Z</time></trkpt><trkpt lat="43.0325353" lon="13.1183134"><ele>896.0</ele><time>2026-04-11T14:12:07.129Z</time></trkpt><trkpt lat="43.0323952" lon="13.1181315"><ele>899.0</ele><time>2026-04-11T14:12:08.128Z</time></trkpt><trkpt lat="43.0322595" lon="13.1179474"><ele>902.0</ele><time>2026-04-11T14:12:09.129Z</time></trkpt><trkpt lat="43.0321292" lon="13.117775"><ele>902.0</ele><time>2026-04-11T14:12:10.129Z</time></trkpt><trkpt lat="43.0319875" lon="13.1176022"><ele>902.0</ele><time>2026-04-11T14:12:11.129Z</time></trkpt><trkpt lat="43.031846" lon="13.1174227"><ele>902.0</ele><time>2026-04-11T14:12:12.128Z</time></trkpt><trkpt lat="43.0317" lon="13.1172437"><ele>904.0</ele><time>2026-04-11T14:12:13.129Z</time></trkpt><trkpt lat="43.0315544" lon="13.1170629"><ele>906.0</ele><time>2026-04-11T14:12:14.129Z</time></trkpt><trkpt lat="43.0314068" lon="13.116874"><ele>908.0</ele><time>2026-04-11T14:12:15.129Z</time></trkpt><trkpt lat="43.0312633" lon="13.1166881"><ele>903.0</ele><time>2026-04-11T14:12:16.129Z</time></trkpt><trkpt lat="43.0311288" lon="13.1165119"><ele>898.0</ele><time>2026-04-11T14:12:17.13Z</time></trkpt><trkpt lat="43.0310155" lon="13.1163586"><ele>893.0</ele><time>2026-04-11T14:12:18.128Z</time></trkpt><trkpt lat="43.0309217" lon="13.1162329"><ele>893.0</ele><time>2026-04-11T14:12:19.129Z</time></trkpt><trkpt lat="43.0308237" lon="13.1161306"><ele>893.0</ele><time>2026-04-11T14:12:20.128Z</time></trkpt><trkpt lat="43.0307157" lon="13.1160585"><ele>893.0</ele><time>2026-04-11T14:12:21.128Z</time></trkpt><trkpt lat="43.0305986" lon="13.1160079"><ele>893.0</ele><time>2026-04-11T14:12:22.129Z</time></trkpt><trkpt lat="43.0304628" lon="13.1159802"><ele>890.6666666666667</ele><time>2026-04-11T14:12:23.128Z</time></trkpt><trkpt lat="43.0303229" lon="13.1159742"><ele>888.3333333333333</ele><time>2026-04-11T14:12:24.128Z</time></trkpt><trkpt lat="43.0301643" lon="13.1160334"><ele>886.0</ele><time>2026-04-11T14:12:25.128Z</time></trkpt><trkpt lat="43.0299992" lon="13.1160904"><ele>879.6666666666666</ele><time>2026-04-11T14:12:26.128Z</time></trkpt><trkpt lat="43.029819" lon="13.116158"><ele>873.3333333333333</ele><time>2026-04-11T14:12:27.128Z</time></trkpt><trkpt lat="43.0296317" lon="13.1162382"><ele>867.0</ele><time>2026-04-11T14:12:28.129Z</time></trkpt><trkpt lat="43.0294522" lon="13.1163263"><ele>867.0</ele><time>2026-04-11T14:12:29.13Z</time></trkpt><trkpt lat="43.0292737" lon="13.1164104"><ele>867.0</ele><time>2026-04-11T14:12:30.129Z</time></trkpt><trkpt lat="43.0290879" lon="13.116477"><ele>867.0</ele><time>2026-04-11T14:12:31.128Z</time></trkpt><trkpt lat="43.0288951" lon="13.1165448"><ele>879.0</ele><time>2026-04-11T14:12:32.129Z</time></trkpt><trkpt lat="43.0286928" lon="13.1166087"><ele>891.0</ele><time>2026-04-11T14:12:33.13Z</time></trkpt><trkpt lat="43.0284916" lon="13.1166659"><ele>903.0</ele><time>2026-04-11T14:12:34.13Z</time></trkpt><trkpt lat="43.0282901" lon="13.1167124"><ele>903.3333333333333</ele><time>2026-04-11T14:12:35.128Z</time></trkpt><trkpt lat="43.0280838" lon="13.1167495"><ele>903.6666666666666</ele><time>2026-04-11T14:12:36.131Z</time></trkpt><trkpt lat="43.0278673" lon="13.1167837"><ele>904.0</ele><time>2026-04-11T14:12:37.129Z</time></trkpt><trkpt lat="43.0276516" lon="13.116811"><ele>902.6666666666666</ele><time>2026-04-11T14:12:38.128Z</time></trkpt><trkpt lat="43.0274313" lon="13.1168356"><ele>901.3333333333333</ele><time>2026-04-11T14:12:39.13Z</time></trkpt><trkpt lat="43.0272053" lon="13.1168568"><ele>900.0</ele><time>2026-04-11T14:12:40.128Z</time></trkpt><trkpt lat="43.0269771" lon="13.1168859"><ele>900.0</ele><time>2026-04-11T14:12:41.129Z</time></trkpt><trkpt lat="43.0267481" lon="13.1169136"><ele>900.0</ele><time>2026-04-11T14:12:42.128Z</time></trkpt><trkpt lat="43.0265179" lon="13.1169376"><ele>901.6666666666667</ele><time>2026-04-11T14:12:43.128Z</time></trkpt><trkpt lat="43.0262904" lon="13.1169562"><ele>903.3333333333334</ele><time>2026-04-11T14:12:44.13Z</time></trkpt><trkpt lat="43.0260821" lon="13.1169654"><ele>905.0</ele><time>2026-04-11T14:12:45.129Z</time></trkpt><trkpt lat="43.0258757" lon="13.1169566"><ele>909.0</ele><time>2026-04-11T14:12:46.13Z</time></trkpt><trkpt lat="43.0256682" lon="13.1169387"><ele>913.0</ele><time>2026-04-11T14:12:47.129Z</time></trkpt><trkpt lat="43.0254621" lon="13.1169147"><ele>917.0</ele><time>2026-04-11T14:12:48.128Z</time></trkpt><trkpt lat="43.0252561" lon="13.1168823"><ele>917.0</ele><time>2026-04-11T14:12:49.129Z</time></trkpt><trkpt lat="43.0250475" lon="13.1168457"><ele>917.0</ele><time>2026-04-11T14:12:50.128Z</time></trkpt><trkpt lat="43.0248361" lon="13.1167987"><ele>917.0</ele><time>2026-04-11T14:12:51.128Z</time></trkpt><trkpt lat="43.0246234" lon="13.1167507"><ele>918.3333333333334</ele><time>2026-04-11T14:12:52.128Z</time></trkpt><trkpt lat="43.024411" lon="13.1167133"><ele>919.6666666666667</ele><time>2026-04-11T14:12:53.128Z</time></trkpt><trkpt lat="43.0242163" lon="13.1166931"><ele>921.0</ele><time>2026-04-11T14:12:54.13Z</time></trkpt><trkpt lat="43.0240262" lon="13.1166956"><ele>921.0</ele><time>2026-04-11T14:12:55.128Z</time></trkpt><trkpt lat="43.0238283" lon="13.1167263"><ele>921.0</ele><time>2026-04-11T14:12:56.129Z</time></trkpt><trkpt lat="43.0236218" lon="13.1167705"><ele>921.0</ele><time>2026-04-11T14:12:57.128Z</time></trkpt><trkpt lat="43.0234055" lon="13.1168122"><ele>920.6666666666667</ele><time>2026-04-11T14:12:58.129Z</time></trkpt><trkpt lat="43.0231832" lon="13.1168523"><ele>920.3333333333334</ele><time>2026-04-11T14:12:59.128Z</time></trkpt><trkpt lat="43.0229656" lon="13.1168955"><ele>920.0</ele><time>2026-04-11T14:13:00.13Z</time></trkpt><trkpt lat="43.0227568" lon="13.1169501"><ele>920.0</ele><time>2026-04-11T14:13:01.128Z</time></trkpt><trkpt lat="43.0225546" lon="13.117014"><ele>920.0</ele><time>2026-04-11T14:13:02.129Z</time></trkpt><trkpt lat="43.0223576" lon="13.1170769"><ele>920.0</ele><time>2026-04-11T14:13:03.128Z</time></trkpt><trkpt lat="43.0221635" lon="13.1171426"><ele>922.6666666666667</ele><time>2026-04-11T14:13:04.129Z</time></trkpt><trkpt lat="43.0219708" lon="13.1172223"><ele>925.3333333333333</ele><time>2026-04-11T14:13:05.128Z</time></trkpt><trkpt lat="43.0217737" lon="13.1173085"><ele>928.0</ele><time>2026-04-11T14:13:06.128Z</time></trkpt><trkpt lat="43.0215882" lon="13.1174127"><ele>933.3333333333333</ele><time>2026-04-11T14:13:07.128Z</time></trkpt><trkpt lat="43.0214258" lon="13.1175194"><ele>938.6666666666667</ele><time>2026-04-11T14:13:08.13Z</time></trkpt><trkpt lat="43.0212708" lon="13.1176368"><ele>944.0</ele><time>2026-04-11T14:13:09.129Z</time></trkpt><trkpt lat="43.021135" lon="13.1177786"><ele>944.0</ele><time>2026-04-11T14:13:10.129Z</time></trkpt><trkpt lat="43.0210054" lon="13.1179236"><ele>944.0</ele><time>2026-04-11T14:13:11.129Z</time></trkpt><trkpt lat="43.0208808" lon="13.1180617"><ele>944.0</ele><time>2026-04-11T14:13:12.129Z</time></trkpt><trkpt lat="43.0207638" lon="13.1181861"><ele>946.2</ele><time>2026-04-11T14:13:13.129Z</time></trkpt><trkpt lat="43.0206691" lon="13.1182873"><ele>948.4000000000001</ele><time>2026-04-11T14:13:14.129Z</time></trkpt><trkpt lat="43.0205732" lon="13.1183877"><ele>950.6</ele><time>2026-04-11T14:13:15.128Z</time></trkpt><trkpt lat="43.0204894" lon="13.1184794"><ele>952.8</ele><time>2026-04-11T14:13:16.129Z</time></trkpt><trkpt lat="43.0204092" lon="13.1185609"><ele>955.0</ele><time>2026-04-11T14:13:17.128Z</time></trkpt><trkpt lat="43.0203327" lon="13.1186218"><ele>954.9999999999999</ele><time>2026-04-11T14:13:18.128Z</time></trkpt><trkpt lat="43.02026" lon="13.1186629"><ele>955.0</ele><time>2026-04-11T14:13:19.128Z</time></trkpt><trkpt lat="43.0201944" lon="13.1186664"><ele>955.0</ele><time>2026-04-11T14:13:20.129Z</time></trkpt><trkpt lat="43.0201198" lon="13.1186175"><ele>955.0</ele><time>2026-04-11T14:13:22.129Z</time></trkpt><trkpt lat="43.0201531" lon="13.1185021"><ele>954.9999999999999</ele><time>2026-04-11T14:13:25.128Z</time></trkpt><trkpt lat="43.0202055" lon="13.1184535"><ele>955.0</ele><time>2026-04-11T14:13:26.128Z</time></trkpt><trkpt lat="43.0202703" lon="13.1184019"><ele>955.0</ele><time>2026-04-11T14:13:27.128Z</time></trkpt><trkpt lat="43.0203413" lon="13.1183323"><ele>955.0</ele><time>2026-04-11T14:13:28.129Z</time></trkpt><trkpt lat="43.0204077" lon="13.1182444"><ele>955.0</ele><time>2026-04-11T14:13:29.128Z</time></trkpt><trkpt lat="43.0204814" lon="13.1181452"><ele>955.0</ele><time>2026-04-11T14:13:30.128Z</time></trkpt><trkpt lat="43.0205612" lon="13.1180307"><ele>955.0</ele><time>2026-04-11T14:13:31.129Z</time></trkpt><trkpt lat="43.0206351" lon="13.1179322"><ele>952.8</ele><time>2026-04-11T14:13:32.13Z</time></trkpt><trkpt lat="43.0207085" lon="13.1178335"><ele>950.6</ele><time>2026-04-11T14:13:33.128Z</time></trkpt><trkpt lat="43.0208038" lon="13.1177647"><ele>948.4000000000001</ele><time>2026-04-11T14:13:34.128Z</time></trkpt><trkpt lat="43.020879" lon="13.1176911"><ele>946.2</ele><time>2026-04-11T14:13:35.129Z</time></trkpt><trkpt lat="43.0209446" lon="13.1176049"><ele>944.0</ele><time>2026-04-11T14:13:36.13Z</time></trkpt><trkpt lat="43.0210182" lon="13.1174861"><ele>946.6</ele><time>2026-04-11T14:13:37.128Z</time></trkpt><trkpt lat="43.021082" lon="13.1173656"><ele>949.2</ele><time>2026-04-11T14:13:38.13Z</time></trkpt><trkpt lat="43.0211477" lon="13.1172541"><ele>951.8000000000001</ele><time>2026-04-11T14:13:39.129Z</time></trkpt><trkpt lat="43.0212147" lon="13.1171481"><ele>954.4000000000001</ele><time>2026-04-11T14:13:40.13Z</time></trkpt><trkpt lat="43.0212797" lon="13.1170365"><ele>957.0</ele><time>2026-04-11T14:13:41.129Z</time></trkpt><trkpt lat="43.0213341" lon="13.1169317"><ele>957.0</ele><time>2026-04-11T14:13:42.129Z</time></trkpt><trkpt lat="43.021405" lon="13.1168649"><ele>957.0</ele><time>2026-04-11T14:13:43.129Z</time></trkpt><trkpt lat="43.0214844" lon="13.1168348"><ele>957.0</ele><time>2026-04-11T14:13:44.128Z</time></trkpt><trkpt lat="43.021586" lon="13.1168214"><ele>957.0</ele><time>2026-04-11T14:13:45.128Z</time></trkpt><trkpt lat="43.0216864" lon="13.1168023"><ele>957.0</ele><time>2026-04-11T14:13:46.129Z</time></trkpt><trkpt lat="43.0217753" lon="13.1167658"><ele>953.3333333333334</ele><time>2026-04-11T14:13:47.128Z</time></trkpt><trkpt lat="43.0218496" lon="13.1167216"><ele>949.6666666666667</ele><time>2026-04-11T14:13:48.129Z</time></trkpt><trkpt lat="43.0219091" lon="13.1166686"><ele>946.0</ele><time>2026-04-11T14:13:49.129Z</time></trkpt><trkpt lat="43.0219698" lon="13.1165956"><ele>942.3333333333334</ele><time>2026-04-11T14:13:50.129Z</time></trkpt><trkpt lat="43.0220045" lon="13.1165015"><ele>938.6666666666667</ele><time>2026-04-11T14:13:51.128Z</time></trkpt><trkpt lat="43.0220353" lon="13.1163985"><ele>935.0</ele><time>2026-04-11T14:13:52.128Z</time></trkpt><trkpt lat="43.0220788" lon="13.1163104"><ele>935.0000000000001</ele><time>2026-04-11T14:13:53.128Z</time></trkpt><trkpt lat="43.0221192" lon="13.1162371"><ele>935.0</ele><time>2026-04-11T14:13:54.128Z</time></trkpt><trkpt lat="43.022202" lon="13.1162179"><ele>935.0</ele><time>2026-04-11T14:13:55.129Z</time></trkpt><trkpt lat="43.0222916" lon="13.1162089"><ele>935.0</ele><time>2026-04-11T14:13:56.129Z</time></trkpt><trkpt lat="43.0223742" lon="13.1161881"><ele>935.0000000000001</ele><time>2026-04-11T14:13:57.129Z</time></trkpt><trkpt lat="43.0224464" lon="13.1161719"><ele>935.0</ele><time>2026-04-11T14:13:58.128Z</time></trkpt><trkpt lat="43.0225089" lon="13.1161389"><ele>929.6</ele><time>2026-04-11T14:13:59.129Z</time></trkpt><trkpt lat="43.0225664" lon="13.1160693"><ele>924.2</ele><time>2026-04-11T14:14:00.129Z</time></trkpt><trkpt lat="43.0226308" lon="13.115982"><ele>918.8</ele><time>2026-04-11T14:14:01.128Z</time></trkpt><trkpt lat="43.0227067" lon="13.1158962"><ele>913.4</ele><time>2026-04-11T14:14:02.128Z</time></trkpt><trkpt lat="43.0227846" lon="13.1158336"><ele>908.0</ele><time>2026-04-11T14:14:03.129Z</time></trkpt><trkpt lat="43.0228871" lon="13.1157836"><ele>906.25</ele><time>2026-04-11T14:14:04.129Z</time></trkpt><trkpt lat="43.0230129" lon="13.1157275"><ele>904.5</ele><time>2026-04-11T14:14:05.128Z</time></trkpt><trkpt lat="43.0231294" lon="13.1156775"><ele>902.75</ele><time>2026-04-11T14:14:06.128Z</time></trkpt><trkpt lat="43.0232359" lon="13.115623"><ele>901.0</ele><time>2026-04-11T14:14:07.128Z</time></trkpt><trkpt lat="43.0233284" lon="13.1155635"><ele>901.0</ele><time>2026-04-11T14:14:08.128Z</time></trkpt><trkpt lat="43.023435" lon="13.1154963"><ele>901.0</ele><time>2026-04-11T14:14:09.129Z</time></trkpt><trkpt lat="43.0235535" lon="13.1154284"><ele>901.0</ele><time>2026-04-11T14:14:10.13Z</time></trkpt><trkpt lat="43.0236684" lon="13.1153575"><ele>901.0</ele><time>2026-04-11T14:14:11.128Z</time></trkpt><trkpt lat="43.0237769" lon="13.1152881"><ele>901.0</ele><time>2026-04-11T14:14:12.129Z</time></trkpt><trkpt lat="43.0238707" lon="13.11522"><ele>901.0</ele><time>2026-04-11T14:14:13.128Z</time></trkpt><trkpt lat="43.023972" lon="13.1151258"><ele>901.0</ele><time>2026-04-11T14:14:14.128Z</time></trkpt><trkpt lat="43.0240739" lon="13.1150316"><ele>901.0</ele><time>2026-04-11T14:14:15.128Z</time></trkpt><trkpt lat="43.0241643" lon="13.1149509"><ele>901.4</ele><time>2026-04-11T14:14:16.129Z</time></trkpt><trkpt lat="43.0242661" lon="13.1148947"><ele>901.8</ele><time>2026-04-11T14:14:17.129Z</time></trkpt><trkpt lat="43.0243668" lon="13.1148509"><ele>902.1999999999999</ele><time>2026-04-11T14:14:18.13Z</time></trkpt><trkpt lat="43.0244624" lon="13.114835"><ele>902.5999999999999</ele><time>2026-04-11T14:14:19.129Z</time></trkpt><trkpt lat="43.0245643" lon="13.1148276"><ele>903.0</ele><time>2026-04-11T14:14:20.128Z</time></trkpt><trkpt lat="43.0246653" lon="13.1148096"><ele>903.0</ele><time>2026-04-11T14:14:21.128Z</time></trkpt><trkpt lat="43.0247967" lon="13.114784"><ele>903.0</ele><time>2026-04-11T14:14:22.128Z</time></trkpt><trkpt lat="43.0249261" lon="13.1147709"><ele>903.0</ele><time>2026-04-11T14:14:23.129Z</time></trkpt><trkpt lat="43.0250539" lon="13.1147637"><ele>903.0</ele><time>2026-04-11T14:14:24.128Z</time></trkpt><trkpt lat="43.0251794" lon="13.1147534"><ele>895.5</ele><time>2026-04-11T14:14:25.128Z</time></trkpt><trkpt lat="43.0253176" lon="13.1147371"><ele>888.0</ele><time>2026-04-11T14:14:26.129Z</time></trkpt><trkpt lat="43.0254689" lon="13.1147203"><ele>880.5</ele><time>2026-04-11T14:14:27.128Z</time></trkpt><trkpt lat="43.0256114" lon="13.1146945"><ele>873.0</ele><time>2026-04-11T14:14:28.13Z</time></trkpt><trkpt lat="43.0257422" lon="13.1146682"><ele>866.5</ele><time>2026-04-11T14:14:29.13Z</time></trkpt><trkpt lat="43.0258747" lon="13.1146383"><ele>860.0</ele><time>2026-04-11T14:14:30.129Z</time></trkpt><trkpt lat="43.0260111" lon="13.1146073"><ele>853.5</ele><time>2026-04-11T14:14:31.129Z</time></trkpt><trkpt lat="43.026155" lon="13.1145751"><ele>847.0</ele><time>2026-04-11T14:14:32.128Z</time></trkpt><trkpt lat="43.0262944" lon="13.1145489"><ele>847.0</ele><time>2026-04-11T14:14:33.128Z</time></trkpt><trkpt lat="43.0264285" lon="13.1145326"><ele>847.0</ele><time>2026-04-11T14:14:34.13Z</time></trkpt><trkpt lat="43.0265681" lon="13.1145151"><ele>847.0</ele><time>2026-04-11T14:14:35.129Z</time></trkpt><trkpt lat="43.0267071" lon="13.1145018"><ele>847.0</ele><time>2026-04-11T14:14:36.129Z</time></trkpt><trkpt lat="43.0268468" lon="13.1144801"><ele>841.0</ele><time>2026-04-11T14:14:37.128Z</time></trkpt><trkpt lat="43.0269926" lon="13.1144559"><ele>835.0</ele><time>2026-04-11T14:14:38.129Z</time></trkpt><trkpt lat="43.0271349" lon="13.1144396"><ele>829.0</ele><time>2026-04-11T14:14:39.128Z</time></trkpt><trkpt lat="43.0272719" lon="13.1144235"><ele>823.0</ele><time>2026-04-11T14:14:40.129Z</time></trkpt><trkpt lat="43.0273954" lon="13.1143956"><ele>818.25</ele><time>2026-04-11T14:14:41.128Z</time></trkpt><trkpt lat="43.0275173" lon="13.1143597"><ele>813.5</ele><time>2026-04-11T14:14:42.129Z</time></trkpt><trkpt lat="43.0276472" lon="13.1143033"><ele>808.75</ele><time>2026-04-11T14:14:43.128Z</time></trkpt><trkpt lat="43.0277789" lon="13.1142449"><ele>804.0</ele><time>2026-04-11T14:14:44.128Z</time></trkpt><trkpt lat="43.0279033" lon="13.1141962"><ele>804.0</ele><time>2026-04-11T14:14:45.128Z</time></trkpt><trkpt lat="43.0280225" lon="13.1141558"><ele>804.0</ele><time>2026-04-11T14:14:46.129Z</time></trkpt><trkpt lat="43.0281264" lon="13.114119"><ele>804.0</ele><time>2026-04-11T14:14:47.128Z</time></trkpt><trkpt lat="43.0282173" lon="13.1140492"><ele>804.0</ele><time>2026-04-11T14:14:48.129Z</time></trkpt><trkpt lat="43.0282958" lon="13.113925"><ele>801.25</ele><time>2026-04-11T14:14:49.129Z</time></trkpt><trkpt lat="43.0283899" lon="13.1138187"><ele>798.5</ele><time>2026-04-11T14:14:50.128Z</time></trkpt><trkpt lat="43.0285184" lon="13.1137174"><ele>795.75</ele><time>2026-04-11T14:14:51.13Z</time></trkpt><trkpt lat="43.0286323" lon="13.1136446"><ele>793.0</ele><time>2026-04-11T14:14:52.129Z</time></trkpt><trkpt lat="43.0287299" lon="13.1135711"><ele>793.0</ele><time>2026-04-11T14:14:53.13Z</time></trkpt><trkpt lat="43.0288215" lon="13.1135263"><ele>793.0</ele><time>2026-04-11T14:14:54.129Z</time></trkpt><trkpt lat="43.0289156" lon="13.1134484"><ele>793.0</ele><time>2026-04-11T14:14:55.129Z</time></trkpt><trkpt lat="43.0289918" lon="13.1133655"><ele>793.0</ele><time>2026-04-11T14:14:56.129Z</time></trkpt><trkpt lat="43.0290394" lon="13.1132617"><ele>793.0</ele><time>2026-04-11T14:14:57.129Z</time></trkpt><trkpt lat="43.0290917" lon="13.1131703"><ele>789.3333333333333</ele><time>2026-04-11T14:14:58.129Z</time></trkpt><trkpt lat="43.0291572" lon="13.1130841"><ele>785.6666666666666</ele><time>2026-04-11T14:14:59.129Z</time></trkpt><trkpt lat="43.0291942" lon="13.1129908"><ele>782.0</ele><time>2026-04-11T14:15:00.129Z</time></trkpt><trkpt lat="43.029247" lon="13.1128652"><ele>778.3333333333333</ele><time>2026-04-11T14:15:01.129Z</time></trkpt><trkpt lat="43.0292708" lon="13.1127715"><ele>774.6666666666666</ele><time>2026-04-11T14:15:02.129Z</time></trkpt><trkpt lat="43.0293284" lon="13.112684"><ele>771.0</ele><time>2026-04-11T14:15:03.129Z</time></trkpt><trkpt lat="43.0294012" lon="13.1125999"><ele>771.0</ele><time>2026-04-11T14:15:04.128Z</time></trkpt><trkpt lat="43.0294658" lon="13.1125238"><ele>771.0</ele><time>2026-04-11T14:15:05.129Z</time></trkpt><trkpt lat="43.0295292" lon="13.1124564"><ele>771.0</ele><time>2026-04-11T14:15:06.129Z</time></trkpt><trkpt lat="43.0295865" lon="13.112348"><ele>771.0</ele><time>2026-04-11T14:15:07.129Z</time></trkpt><trkpt lat="43.0296583" lon="13.1122568"><ele>771.0</ele><time>2026-04-11T14:15:08.129Z</time></trkpt><trkpt lat="43.0297023" lon="13.1121795"><ele>771.0</ele><time>2026-04-11T14:15:09.13Z</time></trkpt><trkpt lat="43.0297619" lon="13.1121147"><ele>774.8333333333334</ele><time>2026-04-11T14:15:10.13Z</time></trkpt><trkpt lat="43.0298116" lon="13.1120513"><ele>778.6666666666667</ele><time>2026-04-11T14:15:11.129Z</time></trkpt><trkpt lat="43.0298742" lon="13.1119569"><ele>782.5</ele><time>2026-04-11T14:15:12.128Z</time></trkpt><trkpt lat="43.0299184" lon="13.1118757"><ele>786.3333333333334</ele><time>2026-04-11T14:15:13.128Z</time></trkpt><trkpt lat="43.0299564" lon="13.1118018"><ele>790.1666666666667</ele><time>2026-04-11T14:15:14.129Z</time></trkpt><trkpt lat="43.0299966" lon="13.111699"><ele>794.0</ele><time>2026-04-11T14:15:15.129Z</time></trkpt><trkpt lat="43.0300327" lon="13.1115938"><ele>785.5000000000001</ele><time>2026-04-11T14:15:16.13Z</time></trkpt><trkpt lat="43.030073" lon="13.1114883"><ele>777.0</ele><time>2026-04-11T14:15:17.128Z</time></trkpt><trkpt lat="43.0301149" lon="13.1113675"><ele>768.5</ele><time>2026-04-11T14:15:18.129Z</time></trkpt><trkpt lat="43.0301451" lon="13.1112678"><ele>760.0</ele><time>2026-04-11T14:15:19.129Z</time></trkpt><trkpt lat="43.0301707" lon="13.1111649"><ele>751.5</ele><time>2026-04-11T14:15:20.129Z</time></trkpt><trkpt lat="43.0301982" lon="13.1110852"><ele>743.0</ele><time>2026-04-11T14:15:21.129Z</time></trkpt><trkpt lat="43.0302504" lon="13.1109721"><ele>743.0</ele><time>2026-04-11T14:15:22.129Z</time></trkpt><trkpt lat="43.0302912" lon="13.1108553"><ele>743.0</ele><time>2026-04-11T14:15:23.128Z</time></trkpt><trkpt lat="43.0303344" lon="13.110734"><ele>743.0</ele><time>2026-04-11T14:15:24.128Z</time></trkpt><trkpt lat="43.0303681" lon="13.1106345"><ele>743.0</ele><time>2026-04-11T14:15:25.128Z</time></trkpt><trkpt lat="43.0304024" lon="13.1105327"><ele>743.0</ele><time>2026-04-11T14:15:26.128Z</time></trkpt><trkpt lat="43.0304363" lon="13.1104337"><ele>743.0</ele><time>2026-04-11T14:15:27.128Z</time></trkpt><trkpt lat="43.0304593" lon="13.110324"><ele>742.0</ele><time>2026-04-11T14:15:28.128Z</time></trkpt><trkpt lat="43.030467" lon="13.1101929"><ele>741.0</ele><time>2026-04-11T14:15:29.129Z</time></trkpt><trkpt lat="43.0304734" lon="13.1100418"><ele>740.0</ele><time>2026-04-11T14:15:30.128Z</time></trkpt><trkpt lat="43.0304667" lon="13.109898"><ele>739.0</ele><time>2026-04-11T14:15:31.128Z</time></trkpt><trkpt lat="43.0304637" lon="13.1097408"><ele>738.0</ele><time>2026-04-11T14:15:32.13Z</time></trkpt><trkpt lat="43.0304475" lon="13.1096258"><ele>735.8</ele><time>2026-04-11T14:15:33.128Z</time></trkpt><trkpt lat="43.0304332" lon="13.1094828"><ele>733.5999999999999</ele><time>2026-04-11T14:15:34.129Z</time></trkpt><trkpt lat="43.0304225" lon="13.1093497"><ele>731.4000000000001</ele><time>2026-04-11T14:15:35.13Z</time></trkpt><trkpt lat="43.0304247" lon="13.1092427"><ele>729.2</ele><time>2026-04-11T14:15:36.129Z</time></trkpt><trkpt lat="43.0305073" lon="13.1091404"><ele>727.0</ele><time>2026-04-11T14:15:38.129Z</time></trkpt><trkpt lat="43.0305928" lon="13.1090792"><ele>724.4000000000001</ele><time>2026-04-11T14:15:39.129Z</time></trkpt><trkpt lat="43.0306208" lon="13.1089749"><ele>721.8000000000001</ele><time>2026-04-11T14:15:40.128Z</time></trkpt><trkpt lat="43.0306445" lon="13.1088015"><ele>719.2</ele><time>2026-04-11T14:15:42.129Z</time></trkpt><trkpt lat="43.0306137" lon="13.1086494"><ele>716.6</ele><time>2026-04-11T14:15:43.129Z</time></trkpt><trkpt lat="43.0306193" lon="13.1085216"><ele>714.0</ele><time>2026-04-11T14:15:44.129Z</time></trkpt><trkpt lat="43.0306282" lon="13.1084026"><ele>714.0</ele><time>2026-04-11T14:15:45.128Z</time></trkpt><trkpt lat="43.0306249" lon="13.1082806"><ele>714.0</ele><time>2026-04-11T14:15:46.128Z</time></trkpt><trkpt lat="43.0305917" lon="13.1081586"><ele>714.0</ele><time>2026-04-11T14:15:47.129Z</time></trkpt><trkpt lat="43.0306065" lon="13.1080312"><ele>714.0</ele><time>2026-04-11T14:15:48.13Z</time></trkpt><trkpt lat="43.0306125" lon="13.1078952"><ele>714.0</ele><time>2026-04-11T14:15:49.128Z</time></trkpt><trkpt lat="43.0306168" lon="13.107728"><ele>714.1428571428571</ele><time>2026-04-11T14:15:50.129Z</time></trkpt><trkpt lat="43.0306289" lon="13.1076088"><ele>714.2857142857142</ele><time>2026-04-11T14:15:51.129Z</time></trkpt><trkpt lat="43.0306319" lon="13.1074963"><ele>714.4285714285714</ele><time>2026-04-11T14:15:52.128Z</time></trkpt><trkpt lat="43.0305973" lon="13.1074201"><ele>714.5714285714286</ele><time>2026-04-11T14:15:53.129Z</time></trkpt><trkpt lat="43.0305612" lon="13.1073455"><ele>714.7142857142857</ele><time>2026-04-11T14:15:54.129Z</time></trkpt><trkpt lat="43.0305633" lon="13.1072555"><ele>714.8571428571429</ele><time>2026-04-11T14:15:55.128Z</time></trkpt><trkpt lat="43.030573" lon="13.1071538"><ele>715.0</ele><time>2026-04-11T14:15:56.129Z</time></trkpt><trkpt lat="43.0305916" lon="13.1070156"><ele>715.0</ele><time>2026-04-11T14:15:57.129Z</time></trkpt><trkpt lat="43.0306108" lon="13.1068614"><ele>715.0</ele><time>2026-04-11T14:15:58.129Z</time></trkpt><trkpt lat="43.0306307" lon="13.1067182"><ele>715.0</ele><time>2026-04-11T14:15:59.129Z</time></trkpt><trkpt lat="43.0306262" lon="13.1065778"><ele>715.0</ele><time>2026-04-11T14:16:00.129Z</time></trkpt><trkpt lat="43.0306173" lon="13.1064432"><ele>715.0</ele><time>2026-04-11T14:16:01.129Z</time></trkpt><trkpt lat="43.0306264" lon="13.1063032"><ele>714.4</ele><time>2026-04-11T14:16:02.129Z</time></trkpt><trkpt lat="43.0306309" lon="13.1061575"><ele>713.8</ele><time>2026-04-11T14:16:03.128Z</time></trkpt><trkpt lat="43.030628" lon="13.1060233"><ele>713.2</ele><time>2026-04-11T14:16:04.128Z</time></trkpt><trkpt lat="43.030637" lon="13.1058731"><ele>712.6</ele><time>2026-04-11T14:16:05.129Z</time></trkpt><trkpt lat="43.0306649" lon="13.1057195"><ele>712.0</ele><time>2026-04-11T14:16:06.129Z</time></trkpt><trkpt lat="43.0307118" lon="13.1055658"><ele>710.5</ele><time>2026-04-11T14:16:07.129Z</time></trkpt><trkpt lat="43.0307415" lon="13.1054135"><ele>709.0</ele><time>2026-04-11T14:16:08.129Z</time></trkpt><trkpt lat="43.0307762" lon="13.1052705"><ele>707.5</ele><time>2026-04-11T14:16:09.129Z</time></trkpt><trkpt lat="43.0308085" lon="13.1051325"><ele>706.0</ele><time>2026-04-11T14:16:10.129Z</time></trkpt><trkpt lat="43.0308199" lon="13.1049697"><ele>694.25</ele><time>2026-04-11T14:16:11.129Z</time></trkpt><trkpt lat="43.0308434" lon="13.104803"><ele>682.5</ele><time>2026-04-11T14:16:12.13Z</time></trkpt><trkpt lat="43.0308839" lon="13.1046518"><ele>670.75</ele><time>2026-04-11T14:16:13.129Z</time></trkpt><trkpt lat="43.0309233" lon="13.1045023"><ele>659.0</ele><time>2026-04-11T14:16:14.129Z</time></trkpt><trkpt lat="43.0309434" lon="13.1043277"><ele>659.0</ele><time>2026-04-11T14:16:15.128Z</time></trkpt><trkpt lat="43.0309639" lon="13.1041493"><ele>659.0</ele><time>2026-04-11T14:16:16.129Z</time></trkpt><trkpt lat="43.0309955" lon="13.1039827"><ele>659.0</ele><time>2026-04-11T14:16:17.13Z</time></trkpt><trkpt lat="43.0310279" lon="13.1038084"><ele>659.0</ele><time>2026-04-11T14:16:18.129Z</time></trkpt><trkpt lat="43.0310663" lon="13.1036618"><ele>660.0</ele><time>2026-04-11T14:16:19.128Z</time></trkpt><trkpt lat="43.0311212" lon="13.1035051"><ele>661.0</ele><time>2026-04-11T14:16:20.128Z</time></trkpt><trkpt lat="43.0311699" lon="13.1033474"><ele>662.0</ele><time>2026-04-11T14:16:21.128Z</time></trkpt><trkpt lat="43.0312229" lon="13.1031965"><ele>663.0</ele><time>2026-04-11T14:16:22.128Z</time></trkpt><trkpt lat="43.0312926" lon="13.1030561"><ele>668.75</ele><time>2026-04-11T14:16:23.128Z</time></trkpt><trkpt lat="43.03136" lon="13.1029188"><ele>674.5</ele><time>2026-04-11T14:16:24.128Z</time></trkpt><trkpt lat="43.0314392" lon="13.1028141"><ele>680.25</ele><time>2026-04-11T14:16:25.129Z</time></trkpt><trkpt lat="43.031508" lon="13.1027116"><ele>686.0</ele><time>2026-04-11T14:16:26.129Z</time></trkpt><trkpt lat="43.0316019" lon="13.1025888"><ele>680.4</ele><time>2026-04-11T14:16:27.128Z</time></trkpt><trkpt lat="43.031667" lon="13.1024904"><ele>674.8</ele><time>2026-04-11T14:16:28.128Z</time></trkpt><trkpt lat="43.031754" lon="13.1023699"><ele>669.1999999999999</ele><time>2026-04-11T14:16:29.129Z</time></trkpt><trkpt lat="43.0318269" lon="13.1022913"><ele>663.5999999999999</ele><time>2026-04-11T14:16:30.129Z</time></trkpt><trkpt lat="43.0318914" lon="13.1022233"><ele>658.0</ele><time>2026-04-11T14:16:31.128Z</time></trkpt><trkpt lat="43.0319699" lon="13.1021387"><ele>658.0</ele><time>2026-04-11T14:16:32.128Z</time></trkpt><trkpt lat="43.0320428" lon="13.1020372"><ele>658.0</ele><time>2026-04-11T14:16:33.129Z</time></trkpt><trkpt lat="43.0320873" lon="13.1019571"><ele>658.0</ele><time>2026-04-11T14:16:34.13Z</time></trkpt><trkpt lat="43.0321311" lon="13.1018591"><ele>658.0</ele><time>2026-04-11T14:16:35.129Z</time></trkpt><trkpt lat="43.0321661" lon="13.1017578"><ele>658.0</ele><time>2026-04-11T14:16:36.129Z</time></trkpt><trkpt lat="43.0321909" lon="13.1016429"><ele>658.0</ele><time>2026-04-11T14:16:37.129Z</time></trkpt><trkpt lat="43.0322467" lon="13.1015294"><ele>662.4</ele><time>2026-04-11T14:16:38.129Z</time></trkpt><trkpt lat="43.0323085" lon="13.1014268"><ele>666.8</ele><time>2026-04-11T14:16:39.128Z</time></trkpt><trkpt lat="43.0323619" lon="13.1013053"><ele>671.2</ele><time>2026-04-11T14:16:40.128Z</time></trkpt><trkpt lat="43.0323817" lon="13.1011564"><ele>675.6</ele><time>2026-04-11T14:16:41.129Z</time></trkpt><trkpt lat="43.0324076" lon="13.1010242"><ele>680.0</ele><time>2026-04-11T14:16:42.129Z</time></trkpt><trkpt lat="43.0324585" lon="13.1008837"><ele>669.5</ele><time>2026-04-11T14:16:43.129Z</time></trkpt><trkpt lat="43.0325131" lon="13.10076"><ele>659.0</ele><time>2026-04-11T14:16:44.129Z</time></trkpt><trkpt lat="43.0325803" lon="13.100608"><ele>648.5</ele><time>2026-04-11T14:16:45.128Z</time></trkpt><trkpt lat="43.032647" lon="13.1004771"><ele>638.0</ele><time>2026-04-11T14:16:46.128Z</time></trkpt><trkpt lat="43.0327182" lon="13.1003782"><ele>638.0</ele><time>2026-04-11T14:16:47.128Z</time></trkpt><trkpt lat="43.0327883" lon="13.1002968"><ele>638.0</ele><time>2026-04-11T14:16:48.129Z</time></trkpt><trkpt lat="43.0328364" lon="13.1001963"><ele>638.0</ele><time>2026-04-11T14:16:49.129Z</time></trkpt><trkpt lat="43.0328565" lon="13.1000916"><ele>638.0</ele><time>2026-04-11T14:16:50.128Z</time></trkpt><trkpt lat="43.0328845" lon="13.0999644"><ele>638.0</ele><time>2026-04-11T14:16:51.129Z</time></trkpt><trkpt lat="43.0329249" lon="13.0998338"><ele>638.8</ele><time>2026-04-11T14:16:52.13Z</time></trkpt><trkpt lat="43.0329807" lon="13.0997098"><ele>639.5999999999999</ele><time>2026-04-11T14:16:53.128Z</time></trkpt><trkpt lat="43.033044" lon="13.0995932"><ele>640.4000000000001</ele><time>2026-04-11T14:16:54.128Z</time></trkpt><trkpt lat="43.0330955" lon="13.0994791"><ele>641.2</ele><time>2026-04-11T14:16:55.13Z</time></trkpt><trkpt lat="43.0331458" lon="13.0993735"><ele>642.0</ele><time>2026-04-11T14:16:56.129Z</time></trkpt><trkpt lat="43.033183" lon="13.099287"><ele>642.0</ele><time>2026-04-11T14:16:57.128Z</time></trkpt><trkpt lat="43.0332095" lon="13.0991971"><ele>642.0</ele><time>2026-04-11T14:16:58.129Z</time></trkpt><trkpt lat="43.03319" lon="13.0990927"><ele>642.0</ele><time>2026-04-11T14:16:59.129Z</time></trkpt><trkpt lat="43.0332175" lon="13.098996"><ele>642.0</ele><time>2026-04-11T14:17:00.129Z</time></trkpt><trkpt lat="43.0332568" lon="13.0988949"><ele>642.0</ele><time>2026-04-11T14:17:01.128Z</time></trkpt><trkpt lat="43.033306" lon="13.0988154"><ele>642.0</ele><time>2026-04-11T14:17:02.128Z</time></trkpt><trkpt lat="43.0333461" lon="13.0987345"><ele>635.8333333333334</ele><time>2026-04-11T14:17:03.129Z</time></trkpt><trkpt lat="43.0333632" lon="13.0986471"><ele>629.6666666666666</ele><time>2026-04-11T14:17:04.129Z</time></trkpt><trkpt lat="43.0333773" lon="13.0985359"><ele>623.5</ele><time>2026-04-11T14:17:05.128Z</time></trkpt><trkpt lat="43.0333918" lon="13.0984287"><ele>617.3333333333333</ele><time>2026-04-11T14:17:06.129Z</time></trkpt><trkpt lat="43.0333937" lon="13.0983232"><ele>611.1666666666666</ele><time>2026-04-11T14:17:07.128Z</time></trkpt><trkpt lat="43.0334007" lon="13.0982206"><ele>605.0</ele><time>2026-04-11T14:17:08.128Z</time></trkpt><trkpt lat="43.0334789" lon="13.0981088"><ele>605.0</ele><time>2026-04-11T14:17:10.129Z</time></trkpt><trkpt lat="43.0336067" lon="13.0980504"><ele>605.0</ele><time>2026-04-11T14:17:12.129Z</time></trkpt><trkpt lat="43.0336632" lon="13.0979417"><ele>605.0</ele><time>2026-04-11T14:17:14.129Z</time></trkpt><trkpt lat="43.0337429" lon="13.0978493"><ele>605.0</ele><time>2026-04-11T14:17:16.13Z</time></trkpt><trkpt lat="43.0337953" lon="13.0978003"><ele>605.0</ele><time>2026-04-11T14:17:17.128Z</time></trkpt><trkpt lat="43.0338561" lon="13.0977591"><ele>605.0</ele><time>2026-04-11T14:17:18.129Z</time></trkpt><trkpt lat="43.0339334" lon="13.0977168"><ele>605.0</ele><time>2026-04-11T14:17:19.128Z</time></trkpt><trkpt lat="43.0340056" lon="13.0976544"><ele>605.0</ele><time>2026-04-11T14:17:20.129Z</time></trkpt><trkpt lat="43.0340683" lon="13.0976126"><ele>605.0</ele><time>2026-04-11T14:17:21.129Z</time></trkpt><trkpt lat="43.0341391" lon="13.0975006"><ele>605.0</ele><time>2026-04-11T14:17:23.129Z</time></trkpt><trkpt lat="43.0341691" lon="13.0974098"><ele>605.0</ele><time>2026-04-11T14:17:24.128Z</time></trkpt><trkpt lat="43.0342022" lon="13.0973238"><ele>601.4</ele><time>2026-04-11T14:17:25.129Z</time></trkpt><trkpt lat="43.0342246" lon="13.0972326"><ele>597.8</ele><time>2026-04-11T14:17:26.129Z</time></trkpt><trkpt lat="43.0342962" lon="13.0971139"><ele>594.2</ele><time>2026-04-11T14:17:28.129Z</time></trkpt><trkpt lat="43.0343604" lon="13.0969757"><ele>590.6</ele><time>2026-04-11T14:17:30.129Z</time></trkpt><trkpt lat="43.0344298" lon="13.0968272"><ele>587.0</ele><time>2026-04-11T14:17:32.128Z</time></trkpt><trkpt lat="43.0344769" lon="13.0967319"><ele>587.0</ele><time>2026-04-11T14:17:33.129Z</time></trkpt><trkpt lat="43.0345349" lon="13.0966567"><ele>587.0</ele><time>2026-04-11T14:17:34.129Z</time></trkpt><trkpt lat="43.034602" lon="13.0965881"><ele>587.0</ele><time>2026-04-11T14:17:35.129Z</time></trkpt><trkpt lat="43.0346603" lon="13.0965179"><ele>587.0</ele><time>2026-04-11T14:17:36.128Z</time></trkpt><trkpt lat="43.0347252" lon="13.0964551"><ele>587.0</ele><time>2026-04-11T14:17:37.128Z</time></trkpt><trkpt lat="43.0347725" lon="13.096381"><ele>587.0</ele><time>2026-04-11T14:17:38.129Z</time></trkpt><trkpt lat="43.0347917" lon="13.0962766"><ele>589.0</ele><time>2026-04-11T14:17:39.128Z</time></trkpt><trkpt lat="43.0348127" lon="13.0961588"><ele>591.0</ele><time>2026-04-11T14:17:40.128Z</time></trkpt><trkpt lat="43.0348453" lon="13.0960697"><ele>593.0</ele><time>2026-04-11T14:17:41.129Z</time></trkpt><trkpt lat="43.0348841" lon="13.0959967"><ele>595.0</ele><time>2026-04-11T14:17:42.129Z</time></trkpt><trkpt lat="43.034908" lon="13.095871"><ele>597.0</ele><time>2026-04-11T14:17:44.128Z</time></trkpt><trkpt lat="43.0349553" lon="13.0957404"><ele>599.0</ele><time>2026-04-11T14:17:46.13Z</time></trkpt><trkpt lat="43.0350092" lon="13.0956425"><ele>593.8</ele><time>2026-04-11T14:17:48.128Z</time></trkpt><trkpt lat="43.0350823" lon="13.0956303"><ele>588.5999999999999</ele><time>2026-04-11T14:17:49.128Z</time></trkpt><trkpt lat="43.0351782" lon="13.095579"><ele>583.4</ele><time>2026-04-11T14:17:51.128Z</time></trkpt><trkpt lat="43.0352486" lon="13.0954853"><ele>578.1999999999999</ele><time>2026-04-11T14:17:53.129Z</time></trkpt><trkpt lat="43.0353179" lon="13.0953839"><ele>573.0</ele><time>2026-04-11T14:17:55.128Z</time></trkpt><trkpt lat="43.035386" lon="13.095256"><ele>573.0</ele><time>2026-04-11T14:17:57.129Z</time></trkpt><trkpt lat="43.0354225" lon="13.0951442"><ele>573.0</ele><time>2026-04-11T14:17:59.129Z</time></trkpt><trkpt lat="43.0354342" lon="13.0950405"><ele>573.0</ele><time>2026-04-11T14:18:01.13Z</time></trkpt><trkpt lat="43.0354038" lon="13.0949337"><ele>573.0</ele><time>2026-04-11T14:18:05.128Z</time></trkpt><trkpt lat="43.0353601" lon="13.0948079"><ele>573.0</ele><time>2026-04-11T14:18:07.128Z</time></trkpt><trkpt lat="43.0353588" lon="13.0946805"><ele>573.0</ele><time>2026-04-11T14:18:09.129Z</time></trkpt><trkpt lat="43.0353791" lon="13.0945963"><ele>574.0</ele><time>2026-04-11T14:18:12.128Z</time></trkpt><trkpt lat="43.0354227" lon="13.094525"><ele>575.0</ele><time>2026-04-11T14:18:16.129Z</time></trkpt><trkpt lat="43.0354888" lon="13.0944625"><ele>576.0</ele><time>2026-04-11T14:18:18.129Z</time></trkpt><trkpt lat="43.0355593" lon="13.0943527"><ele>577.0</ele><time>2026-04-11T14:18:20.128Z</time></trkpt><trkpt lat="43.0355861" lon="13.0942726"><ele>578.0</ele><time>2026-04-11T14:18:21.129Z</time></trkpt><trkpt lat="43.0356114" lon="13.0941904"><ele>579.0</ele><time>2026-04-11T14:18:22.129Z</time></trkpt><trkpt lat="43.035673" lon="13.0940546"><ele>579.0</ele><time>2026-04-11T14:18:24.129Z</time></trkpt><trkpt lat="43.0357229" lon="13.0939152"><ele>579.0</ele><time>2026-04-11T14:18:26.13Z</time></trkpt><trkpt lat="43.0357596" lon="13.0938341"><ele>579.0</ele><time>2026-04-11T14:18:27.129Z</time></trkpt><trkpt lat="43.0357672" lon="13.0937486"><ele>579.0</ele><time>2026-04-11T14:18:28.13Z</time></trkpt><trkpt lat="43.0357593" lon="13.0936464"><ele>579.0</ele><time>2026-04-11T14:18:29.128Z</time></trkpt><trkpt lat="43.0357691" lon="13.0934789"><ele>579.0</ele><time>2026-04-11T14:18:31.129Z</time></trkpt><trkpt lat="43.0357492" lon="13.0933945"><ele>578.9999999999999</ele><time>2026-04-11T14:18:32.129Z</time></trkpt><trkpt lat="43.0357269" lon="13.0933007"><ele>579.0</ele><time>2026-04-11T14:18:33.129Z</time></trkpt><trkpt lat="43.035714" lon="13.0932068"><ele>579.0</ele><time>2026-04-11T14:18:34.128Z</time></trkpt><trkpt lat="43.0357132" lon="13.0931109"><ele>579.0</ele><time>2026-04-11T14:18:35.13Z</time></trkpt><trkpt lat="43.0357236" lon="13.093013"><ele>579.0</ele><time>2026-04-11T14:18:36.129Z</time></trkpt><trkpt lat="43.0357372" lon="13.0929243"><ele>578.9999999999999</ele><time>2026-04-11T14:18:37.129Z</time></trkpt><trkpt lat="43.0357387" lon="13.0928313"><ele>579.0</ele><time>2026-04-11T14:18:38.129Z</time></trkpt><trkpt lat="43.0357311" lon="13.0927439"><ele>577.0</ele><time>2026-04-11T14:18:39.129Z</time></trkpt><trkpt lat="43.0357309" lon="13.0926277"><ele>575.0</ele><time>2026-04-11T14:18:40.128Z</time></trkpt><trkpt lat="43.0357293" lon="13.0925354"><ele>573.0</ele><time>2026-04-11T14:18:41.128Z</time></trkpt><trkpt lat="43.0357644" lon="13.0923971"><ele>571.0</ele><time>2026-04-11T14:18:43.129Z</time></trkpt><trkpt lat="43.0357655" lon="13.0922708"><ele>569.0</ele><time>2026-04-11T14:18:46.129Z</time></trkpt><trkpt lat="43.0357696" lon="13.0921661"><ele>567.0</ele><time>2026-04-11T14:18:48.13Z</time></trkpt><trkpt lat="43.0357801" lon="13.0920004"><ele>566.0</ele><time>2026-04-11T14:18:50.129Z</time></trkpt><trkpt lat="43.0358012" lon="13.0918873"><ele>565.0</ele><time>2026-04-11T14:18:52.128Z</time></trkpt><trkpt lat="43.035827" lon="13.0917929"><ele>564.0</ele><time>2026-04-11T14:18:54.129Z</time></trkpt><trkpt lat="43.0358772" lon="13.091703"><ele>563.0</ele><time>2026-04-11T14:18:57.129Z</time></trkpt><trkpt lat="43.035912" lon="13.091631"><ele>562.0</ele><time>2026-04-11T14:18:59.129Z</time></trkpt><trkpt lat="43.035942" lon="13.0914894"><ele>561.0</ele><time>2026-04-11T14:19:01.13Z</time></trkpt><trkpt lat="43.0359963" lon="13.091343"><ele>556.8</ele><time>2026-04-11T14:19:03.128Z</time></trkpt><trkpt lat="43.036056" lon="13.0912302"><ele>552.6</ele><time>2026-04-11T14:19:05.127Z</time></trkpt><trkpt lat="43.0360799" lon="13.0911071"><ele>548.4</ele><time>2026-04-11T14:19:07.128Z</time></trkpt><trkpt lat="43.0360858" lon="13.0909672"><ele>544.2</ele><time>2026-04-11T14:19:09.129Z</time></trkpt><trkpt lat="43.036093" lon="13.0908321"><ele>540.0</ele><time>2026-04-11T14:19:11.129Z</time></trkpt><trkpt lat="43.0360778" lon="13.090716"><ele>537.8333333333334</ele><time>2026-04-11T14:19:13.129Z</time></trkpt><trkpt lat="43.0360768" lon="13.0906185"><ele>535.6666666666666</ele><time>2026-04-11T14:19:15.129Z</time></trkpt><trkpt lat="43.036084" lon="13.0905135"><ele>533.5</ele><time>2026-04-11T14:19:17.129Z</time></trkpt><trkpt lat="43.0360815" lon="13.0904206"><ele>531.3333333333333</ele><time>2026-04-11T14:19:19.13Z</time></trkpt><trkpt lat="43.0360894" lon="13.090314"><ele>529.1666666666666</ele><time>2026-04-11T14:19:21.129Z</time></trkpt><trkpt lat="43.0361728" lon="13.090176"><ele>527.0</ele><time>2026-04-11T14:25:41.128Z</time></trkpt><trkpt lat="43.0362363" lon="13.0901029"><ele>527.0</ele><time>2026-04-11T14:25:42.129Z</time></trkpt><trkpt lat="43.036296" lon="13.0900207"><ele>527.0</ele><time>2026-04-11T14:25:43.128Z</time></trkpt><trkpt lat="43.0363476" lon="13.089934"><ele>527.0</ele><time>2026-04-11T14:25:44.128Z</time></trkpt><trkpt lat="43.0364038" lon="13.0898266"><ele>527.0</ele><time>2026-04-11T14:25:45.128Z</time></trkpt><trkpt lat="43.0364649" lon="13.0897143"><ele>527.0</ele><time>2026-04-11T14:25:46.129Z</time></trkpt><trkpt lat="43.0365262" lon="13.0896103"><ele>527.75</ele><time>2026-04-11T14:25:47.129Z</time></trkpt><trkpt lat="43.0366021" lon="13.0895141"><ele>528.5</ele><time>2026-04-11T14:25:48.128Z</time></trkpt><trkpt lat="43.0366882" lon="13.0894186"><ele>529.25</ele><time>2026-04-11T14:25:49.129Z</time></trkpt><trkpt lat="43.0368039" lon="13.0893277"><ele>530.0</ele><time>2026-04-11T14:25:50.129Z</time></trkpt><trkpt lat="43.0369456" lon="13.0892332"><ele>531.3333333333333</ele><time>2026-04-11T14:25:51.13Z</time></trkpt><trkpt lat="43.0371039" lon="13.0891387"><ele>532.6666666666666</ele><time>2026-04-11T14:25:52.129Z</time></trkpt><trkpt lat="43.0372643" lon="13.0890431"><ele>534.0</ele><time>2026-04-11T14:25:53.127Z</time></trkpt><trkpt lat="43.0374212" lon="13.0889426"><ele>530.3333333333334</ele><time>2026-04-11T14:25:54.128Z</time></trkpt><trkpt lat="43.0375661" lon="13.0888294"><ele>526.6666666666667</ele><time>2026-04-11T14:25:55.13Z</time></trkpt><trkpt lat="43.0377048" lon="13.0886895"><ele>523.0</ele><time>2026-04-11T14:25:56.127Z</time></trkpt><trkpt lat="43.0378286" lon="13.0885192"><ele>523.0</ele><time>2026-04-11T14:25:57.128Z</time></trkpt><trkpt lat="43.0379452" lon="13.0883367"><ele>523.0</ele><time>2026-04-11T14:25:58.127Z</time></trkpt><trkpt lat="43.0380633" lon="13.088144"><ele>523.0</ele><time>2026-04-11T14:25:59.129Z</time></trkpt><trkpt lat="43.03817" lon="13.0879499"><ele>521.0</ele><time>2026-04-11T14:26:00.128Z</time></trkpt><trkpt lat="43.0382855" lon="13.0877587"><ele>519.0</ele><time>2026-04-11T14:26:01.128Z</time></trkpt><trkpt lat="43.0384035" lon="13.0875671"><ele>517.0</ele><time>2026-04-11T14:26:02.127Z</time></trkpt><trkpt lat="43.0385325" lon="13.0873713"><ele>517.0</ele><time>2026-04-11T14:26:03.129Z</time></trkpt><trkpt lat="43.038666" lon="13.0872073"><ele>517.0</ele><time>2026-04-11T14:26:04.127Z</time></trkpt><trkpt lat="43.0388078" lon="13.0870746"><ele>517.0</ele><time>2026-04-11T14:26:05.128Z</time></trkpt><trkpt lat="43.0389736" lon="13.0869746"><ele>516.6666666666667</ele><time>2026-04-11T14:26:06.129Z</time></trkpt><trkpt lat="43.0391727" lon="13.0868933"><ele>516.3333333333334</ele><time>2026-04-11T14:26:07.129Z</time></trkpt><trkpt lat="43.039396" lon="13.0868099"><ele>516.0</ele><time>2026-04-11T14:26:08.128Z</time></trkpt><trkpt lat="43.0396136" lon="13.0867228"><ele>516.0</ele><time>2026-04-11T14:26:09.127Z</time></trkpt><trkpt lat="43.0398175" lon="13.0866324"><ele>516.0</ele><time>2026-04-11T14:26:10.128Z</time></trkpt><trkpt lat="43.0400157" lon="13.0865339"><ele>516.0</ele><time>2026-04-11T14:26:11.129Z</time></trkpt><trkpt lat="43.0402117" lon="13.0864232"><ele>514.6666666666666</ele><time>2026-04-11T14:26:12.128Z</time></trkpt><trkpt lat="43.0404082" lon="13.0862995"><ele>513.3333333333333</ele><time>2026-04-11T14:26:13.129Z</time></trkpt><trkpt lat="43.0405979" lon="13.086175"><ele>512.0</ele><time>2026-04-11T14:26:14.129Z</time></trkpt><trkpt lat="43.0407774" lon="13.0860624"><ele>512.6666666666666</ele><time>2026-04-11T14:26:15.129Z</time></trkpt><trkpt lat="43.0409608" lon="13.085952"><ele>513.3333333333334</ele><time>2026-04-11T14:26:16.128Z</time></trkpt><trkpt lat="43.0411408" lon="13.0858476"><ele>514.0</ele><time>2026-04-11T14:26:17.128Z</time></trkpt><trkpt lat="43.0413177" lon="13.0857495"><ele>515.3333333333334</ele><time>2026-04-11T14:26:18.13Z</time></trkpt><trkpt lat="43.0414843" lon="13.0856444"><ele>516.6666666666666</ele><time>2026-04-11T14:26:19.13Z</time></trkpt><trkpt lat="43.0416488" lon="13.0855373"><ele>518.0</ele><time>2026-04-11T14:26:20.129Z</time></trkpt><trkpt lat="43.0418099" lon="13.0854251"><ele>515.3333333333333</ele><time>2026-04-11T14:26:21.129Z</time></trkpt><trkpt lat="43.0419635" lon="13.0853158"><ele>512.6666666666666</ele><time>2026-04-11T14:26:22.128Z</time></trkpt><trkpt lat="43.0421132" lon="13.0852231"><ele>510.0</ele><time>2026-04-11T14:26:23.127Z</time></trkpt><trkpt lat="43.0422559" lon="13.0851643"><ele>510.0</ele><time>2026-04-11T14:26:24.128Z</time></trkpt><trkpt lat="43.0423891" lon="13.085116"><ele>510.0</ele><time>2026-04-11T14:26:25.128Z</time></trkpt><trkpt lat="43.0425177" lon="13.0850698"><ele>510.0</ele><time>2026-04-11T14:26:26.128Z</time></trkpt><trkpt lat="43.0426481" lon="13.0850188"><ele>510.0</ele><time>2026-04-11T14:26:27.129Z</time></trkpt><trkpt lat="43.042786" lon="13.0849621"><ele>509.5</ele><time>2026-04-11T14:26:28.129Z</time></trkpt><trkpt lat="43.0429181" lon="13.084895"><ele>509.0</ele><time>2026-04-11T14:26:29.128Z</time></trkpt><trkpt lat="43.0430604" lon="13.0848281"><ele>508.5</ele><time>2026-04-11T14:26:30.127Z</time></trkpt><trkpt lat="43.0431983" lon="13.0847618"><ele>508.0</ele><time>2026-04-11T14:26:31.129Z</time></trkpt><trkpt lat="43.0433507" lon="13.0847067"><ele>506.0</ele><time>2026-04-11T14:26:32.128Z</time></trkpt><trkpt lat="43.0434978" lon="13.0846423"><ele>504.0</ele><time>2026-04-11T14:26:33.129Z</time></trkpt><trkpt lat="43.0436506" lon="13.0845823"><ele>502.0</ele><time>2026-04-11T14:26:34.128Z</time></trkpt><trkpt lat="43.0438035" lon="13.0845327"><ele>502.0</ele><time>2026-04-11T14:26:35.128Z</time></trkpt><trkpt lat="43.0439637" lon="13.0844878"><ele>502.0</ele><time>2026-04-11T14:26:36.129Z</time></trkpt><trkpt lat="43.0441306" lon="13.0844467"><ele>502.0</ele><time>2026-04-11T14:26:37.129Z</time></trkpt><trkpt lat="43.0443001" lon="13.0844081"><ele>501.33333333333337</ele><time>2026-04-11T14:26:38.13Z</time></trkpt><trkpt lat="43.0444672" lon="13.0843713"><ele>500.66666666666663</ele><time>2026-04-11T14:26:39.128Z</time></trkpt><trkpt lat="43.0446386" lon="13.0843326"><ele>500.0</ele><time>2026-04-11T14:26:40.127Z</time></trkpt><trkpt lat="43.0448103" lon="13.0842917"><ele>500.0</ele><time>2026-04-11T14:26:41.128Z</time></trkpt><trkpt lat="43.0449853" lon="13.0842552"><ele>500.0</ele><time>2026-04-11T14:26:42.129Z</time></trkpt><trkpt lat="43.0451575" lon="13.084213"><ele>500.0</ele><time>2026-04-11T14:26:43.128Z</time></trkpt><trkpt lat="43.0453347" lon="13.084175"><ele>500.0</ele><time>2026-04-11T14:26:44.129Z</time></trkpt><trkpt lat="43.0455016" lon="13.0841665"><ele>500.0</ele><time>2026-04-11T14:26:45.128Z</time></trkpt><trkpt lat="43.0456662" lon="13.0841971"><ele>500.0</ele><time>2026-04-11T14:26:46.127Z</time></trkpt><trkpt lat="43.0458391" lon="13.08425"><ele>499.3333333333333</ele><time>2026-04-11T14:26:47.128Z</time></trkpt><trkpt lat="43.046014" lon="13.0843156"><ele>498.66666666666663</ele><time>2026-04-11T14:26:48.128Z</time></trkpt><trkpt lat="43.0461978" lon="13.0843772"><ele>498.0</ele><time>2026-04-11T14:26:49.128Z</time></trkpt><trkpt lat="43.046375" lon="13.0844466"><ele>498.0</ele><time>2026-04-11T14:26:50.128Z</time></trkpt><trkpt lat="43.0465527" lon="13.0845173"><ele>498.0</ele><time>2026-04-11T14:26:51.128Z</time></trkpt><trkpt lat="43.0467259" lon="13.0845837"><ele>498.0</ele><time>2026-04-11T14:26:52.128Z</time></trkpt><trkpt lat="43.0469021" lon="13.0846393"><ele>496.33333333333337</ele><time>2026-04-11T14:26:53.128Z</time></trkpt><trkpt lat="43.0470842" lon="13.0846692"><ele>494.6666666666667</ele><time>2026-04-11T14:26:54.128Z</time></trkpt><trkpt lat="43.0472717" lon="13.0846784"><ele>493.0</ele><time>2026-04-11T14:26:55.129Z</time></trkpt><trkpt lat="43.0474634" lon="13.0846735"><ele>491.6666666666667</ele><time>2026-04-11T14:26:56.127Z</time></trkpt><trkpt lat="43.0476603" lon="13.0846636"><ele>490.33333333333337</ele><time>2026-04-11T14:26:57.129Z</time></trkpt><trkpt lat="43.0478529" lon="13.0846646"><ele>489.0</ele><time>2026-04-11T14:26:58.128Z</time></trkpt><trkpt lat="43.0480346" lon="13.0847059"><ele>489.0</ele><time>2026-04-11T14:26:59.128Z</time></trkpt><trkpt lat="43.0482147" lon="13.0847799"><ele>489.0</ele><time>2026-04-11T14:27:00.13Z</time></trkpt><trkpt lat="43.0483981" lon="13.0848745"><ele>489.0</ele><time>2026-04-11T14:27:01.129Z</time></trkpt><trkpt lat="43.0485825" lon="13.0849848"><ele>489.66666666666663</ele><time>2026-04-11T14:27:02.129Z</time></trkpt><trkpt lat="43.0487573" lon="13.0851031"><ele>490.3333333333333</ele><time>2026-04-11T14:27:03.128Z</time></trkpt><trkpt lat="43.0489308" lon="13.0852217"><ele>491.0</ele><time>2026-04-11T14:27:04.129Z</time></trkpt><trkpt lat="43.0490984" lon="13.0853334"><ele>488.3333333333333</ele><time>2026-04-11T14:27:05.129Z</time></trkpt><trkpt lat="43.0492683" lon="13.085424"><ele>485.66666666666663</ele><time>2026-04-11T14:27:06.127Z</time></trkpt><trkpt lat="43.0494469" lon="13.0854866"><ele>483.0</ele><time>2026-04-11T14:27:07.13Z</time></trkpt><trkpt lat="43.0496351" lon="13.0855312"><ele>483.0</ele><time>2026-04-11T14:27:08.13Z</time></trkpt><trkpt lat="43.0498229" lon="13.0855803"><ele>483.0</ele><time>2026-04-11T14:27:09.129Z</time></trkpt><trkpt lat="43.0500099" lon="13.0856616"><ele>483.0</ele><time>2026-04-11T14:27:10.129Z</time></trkpt><trkpt lat="43.0501983" lon="13.0857686"><ele>486.0</ele><time>2026-04-11T14:27:11.13Z</time></trkpt><trkpt lat="43.0503657" lon="13.0859259"><ele>489.0</ele><time>2026-04-11T14:27:12.129Z</time></trkpt><trkpt lat="43.0505103" lon="13.0861088"><ele>492.0</ele><time>2026-04-11T14:27:13.127Z</time></trkpt><trkpt lat="43.0506539" lon="13.0862896"><ele>492.33333333333337</ele><time>2026-04-11T14:27:14.128Z</time></trkpt><trkpt lat="43.0508118" lon="13.0864541"><ele>492.6666666666667</ele><time>2026-04-11T14:27:15.129Z</time></trkpt><trkpt lat="43.0509874" lon="13.0865929"><ele>493.0</ele><time>2026-04-11T14:27:16.128Z</time></trkpt><trkpt lat="43.0511794" lon="13.0867175"><ele>493.0</ele><time>2026-04-11T14:27:17.129Z</time></trkpt><trkpt lat="43.0513744" lon="13.0868465"><ele>493.0</ele><time>2026-04-11T14:27:18.127Z</time></trkpt><trkpt lat="43.051574" lon="13.0869762"><ele>493.0</ele><time>2026-04-11T14:27:19.129Z</time></trkpt><trkpt lat="43.0517632" lon="13.0871168"><ele>492.0</ele><time>2026-04-11T14:27:20.128Z</time></trkpt><trkpt lat="43.0519319" lon="13.0872606"><ele>491.0</ele><time>2026-04-11T14:27:21.128Z</time></trkpt><trkpt lat="43.0520881" lon="13.0874128"><ele>490.0</ele><time>2026-04-11T14:27:22.128Z</time></trkpt><trkpt lat="43.0522367" lon="13.0875877"><ele>490.0</ele><time>2026-04-11T14:27:23.129Z</time></trkpt><trkpt lat="43.0523889" lon="13.0877652"><ele>490.0</ele><time>2026-04-11T14:27:24.129Z</time></trkpt><trkpt lat="43.0525446" lon="13.0879446"><ele>490.0</ele><time>2026-04-11T14:27:25.129Z</time></trkpt><trkpt lat="43.0527012" lon="13.0881042"><ele>485.6666666666667</ele><time>2026-04-11T14:27:26.128Z</time></trkpt><trkpt lat="43.052867" lon="13.0882437"><ele>481.33333333333337</ele><time>2026-04-11T14:27:27.128Z</time></trkpt><trkpt lat="43.0530384" lon="13.0883853"><ele>477.0</ele><time>2026-04-11T14:27:28.129Z</time></trkpt><trkpt lat="43.0531904" lon="13.0885666"><ele>474.66666666666663</ele><time>2026-04-11T14:27:29.129Z</time></trkpt><trkpt lat="43.0533472" lon="13.0887442"><ele>472.3333333333333</ele><time>2026-04-11T14:27:30.127Z</time></trkpt><trkpt lat="43.0535209" lon="13.0888993"><ele>470.0</ele><time>2026-04-11T14:27:31.128Z</time></trkpt><trkpt lat="43.053717" lon="13.0890186"><ele>472.5</ele><time>2026-04-11T14:27:32.129Z</time></trkpt><trkpt lat="43.0539308" lon="13.0891096"><ele>475.0</ele><time>2026-04-11T14:27:33.129Z</time></trkpt><trkpt lat="43.0541543" lon="13.0891681"><ele>475.0</ele><time>2026-04-11T14:27:34.129Z</time></trkpt><trkpt lat="43.0543783" lon="13.0892068"><ele>475.0</ele><time>2026-04-11T14:27:35.128Z</time></trkpt><trkpt lat="43.0545955" lon="13.0892242"><ele>475.0</ele><time>2026-04-11T14:27:36.129Z</time></trkpt><trkpt lat="43.0548105" lon="13.089213"><ele>474.33333333333337</ele><time>2026-04-11T14:27:37.128Z</time></trkpt><trkpt lat="43.0550099" lon="13.0891706"><ele>473.66666666666663</ele><time>2026-04-11T14:27:38.128Z</time></trkpt><trkpt lat="43.0552049" lon="13.089108"><ele>473.0</ele><time>2026-04-11T14:27:39.128Z</time></trkpt><trkpt lat="43.0553901" lon="13.0890651"><ele>470.66666666666663</ele><time>2026-04-11T14:27:40.128Z</time></trkpt><trkpt lat="43.0555762" lon="13.0890241"><ele>468.33333333333337</ele><time>2026-04-11T14:27:41.129Z</time></trkpt><trkpt lat="43.0557607" lon="13.0889776"><ele>466.0</ele><time>2026-04-11T14:27:42.129Z</time></trkpt><trkpt lat="43.0559285" lon="13.0888553"><ele>465.33333333333337</ele><time>2026-04-11T14:27:43.127Z</time></trkpt><trkpt lat="43.0560877" lon="13.0886997"><ele>464.66666666666663</ele><time>2026-04-11T14:27:44.129Z</time></trkpt><trkpt lat="43.0562273" lon="13.0885105"><ele>464.0</ele><time>2026-04-11T14:27:45.128Z</time></trkpt><trkpt lat="43.056356" lon="13.088309"><ele>463.66666666666663</ele><time>2026-04-11T14:27:46.129Z</time></trkpt><trkpt lat="43.0564768" lon="13.0881071"><ele>463.33333333333337</ele><time>2026-04-11T14:27:47.129Z</time></trkpt><trkpt lat="43.0565898" lon="13.0879091"><ele>463.0</ele><time>2026-04-11T14:27:48.128Z</time></trkpt><trkpt lat="43.0567018" lon="13.0877248"><ele>463.0</ele><time>2026-04-11T14:27:49.128Z</time></trkpt><trkpt lat="43.0568229" lon="13.0875492"><ele>463.0</ele><time>2026-04-11T14:27:50.128Z</time></trkpt><trkpt lat="43.0569616" lon="13.0873944"><ele>463.0</ele><time>2026-04-11T14:27:51.129Z</time></trkpt><trkpt lat="43.0571125" lon="13.087248"><ele>462.0</ele><time>2026-04-11T14:27:52.129Z</time></trkpt><trkpt lat="43.0572709" lon="13.0871075"><ele>461.0</ele><time>2026-04-11T14:27:53.129Z</time></trkpt><trkpt lat="43.0574338" lon="13.0869556"><ele>460.0</ele><time>2026-04-11T14:27:54.129Z</time></trkpt><trkpt lat="43.0575911" lon="13.0867885"><ele>460.0</ele><time>2026-04-11T14:27:55.128Z</time></trkpt><trkpt lat="43.0577473" lon="13.0866133"><ele>460.0</ele><time>2026-04-11T14:27:56.13Z</time></trkpt><trkpt lat="43.057896" lon="13.0864261"><ele>460.0</ele><time>2026-04-11T14:27:57.128Z</time></trkpt><trkpt lat="43.0580412" lon="13.0862336"><ele>459.6666666666667</ele><time>2026-04-11T14:27:58.128Z</time></trkpt><trkpt lat="43.0581799" lon="13.0860387"><ele>459.33333333333337</ele><time>2026-04-11T14:27:59.129Z</time></trkpt><trkpt lat="43.058311" lon="13.0858609"><ele>459.0</ele><time>2026-04-11T14:28:00.128Z</time></trkpt><trkpt lat="43.0584365" lon="13.0856866"><ele>455.66666666666663</ele><time>2026-04-11T14:28:01.129Z</time></trkpt><trkpt lat="43.0585597" lon="13.0855049"><ele>452.3333333333333</ele><time>2026-04-11T14:28:02.128Z</time></trkpt><trkpt lat="43.0586888" lon="13.0853187"><ele>449.0</ele><time>2026-04-11T14:28:03.129Z</time></trkpt><trkpt lat="43.0588139" lon="13.0851326"><ele>449.0</ele><time>2026-04-11T14:28:04.128Z</time></trkpt><trkpt lat="43.0589454" lon="13.0849613"><ele>449.0</ele><time>2026-04-11T14:28:05.128Z</time></trkpt><trkpt lat="43.0590745" lon="13.0848275"><ele>449.0</ele><time>2026-04-11T14:28:06.128Z</time></trkpt><trkpt lat="43.0592208" lon="13.0847176"><ele>448.66666666666663</ele><time>2026-04-11T14:28:07.128Z</time></trkpt><trkpt lat="43.0593658" lon="13.0846131"><ele>448.33333333333337</ele><time>2026-04-11T14:28:08.127Z</time></trkpt><trkpt lat="43.0595224" lon="13.0845237"><ele>448.0</ele><time>2026-04-11T14:28:09.129Z</time></trkpt><trkpt lat="43.059691" lon="13.0844388"><ele>448.0</ele><time>2026-04-11T14:28:10.129Z</time></trkpt><trkpt lat="43.059858" lon="13.084362"><ele>448.0</ele><time>2026-04-11T14:28:11.127Z</time></trkpt><trkpt lat="43.0600262" lon="13.0842764"><ele>448.0</ele><time>2026-04-11T14:28:12.127Z</time></trkpt><trkpt lat="43.06019" lon="13.0841739"><ele>447.0</ele><time>2026-04-11T14:28:13.129Z</time></trkpt><trkpt lat="43.0603497" lon="13.0840635"><ele>446.0</ele><time>2026-04-11T14:28:14.128Z</time></trkpt><trkpt lat="43.0605089" lon="13.0839555"><ele>445.0</ele><time>2026-04-11T14:28:15.128Z</time></trkpt><trkpt lat="43.060667" lon="13.0838449"><ele>445.0</ele><time>2026-04-11T14:28:16.129Z</time></trkpt><trkpt lat="43.060831" lon="13.083731"><ele>445.0</ele><time>2026-04-11T14:28:17.128Z</time></trkpt><trkpt lat="43.0609872" lon="13.0836146"><ele>445.0</ele><time>2026-04-11T14:28:18.128Z</time></trkpt><trkpt lat="43.0611497" lon="13.0835008"><ele>445.0</ele><time>2026-04-11T14:28:19.128Z</time></trkpt><trkpt lat="43.0613148" lon="13.0833834"><ele>445.0</ele><time>2026-04-11T14:28:20.128Z</time></trkpt><trkpt lat="43.0614774" lon="13.0832675"><ele>445.0</ele><time>2026-04-11T14:28:21.129Z</time></trkpt><trkpt lat="43.0616411" lon="13.0831464"><ele>444.0</ele><time>2026-04-11T14:28:22.128Z</time></trkpt><trkpt lat="43.0617969" lon="13.0830394"><ele>443.0</ele><time>2026-04-11T14:28:23.127Z</time></trkpt><trkpt lat="43.0619384" lon="13.082946"><ele>442.0</ele><time>2026-04-11T14:28:24.128Z</time></trkpt><trkpt lat="43.0620887" lon="13.0828486"><ele>442.0</ele><time>2026-04-11T14:28:25.128Z</time></trkpt><trkpt lat="43.0622299" lon="13.0827605"><ele>442.0</ele><time>2026-04-11T14:28:26.129Z</time></trkpt><trkpt lat="43.062376" lon="13.0826793"><ele>442.0</ele><time>2026-04-11T14:28:27.129Z</time></trkpt><trkpt lat="43.0625274" lon="13.0826119"><ele>442.0</ele><time>2026-04-11T14:28:28.128Z</time></trkpt><trkpt lat="43.0626721" lon="13.0825665"><ele>442.0</ele><time>2026-04-11T14:28:29.128Z</time></trkpt><trkpt lat="43.062796" lon="13.0825331"><ele>442.0</ele><time>2026-04-11T14:28:30.129Z</time></trkpt><trkpt lat="43.0629137" lon="13.0825071"><ele>442.0</ele><time>2026-04-11T14:28:31.127Z</time></trkpt><trkpt lat="43.0630215" lon="13.0824793"><ele>442.0</ele><time>2026-04-11T14:28:32.128Z</time></trkpt><trkpt lat="43.0631266" lon="13.0824524"><ele>442.0</ele><time>2026-04-11T14:28:33.129Z</time></trkpt><trkpt lat="43.0632351" lon="13.0824213"><ele>442.0</ele><time>2026-04-11T14:28:34.127Z</time></trkpt><trkpt lat="43.0633502" lon="13.0823965"><ele>442.0</ele><time>2026-04-11T14:28:35.129Z</time></trkpt><trkpt lat="43.0634804" lon="13.0823739"><ele>441.0</ele><time>2026-04-11T14:28:36.128Z</time></trkpt><trkpt lat="43.063613" lon="13.0823551"><ele>440.0</ele><time>2026-04-11T14:28:37.129Z</time></trkpt><trkpt lat="43.0637494" lon="13.0823312"><ele>439.0</ele><time>2026-04-11T14:28:38.129Z</time></trkpt><trkpt lat="43.06389" lon="13.0822831"><ele>438.0</ele><time>2026-04-11T14:28:39.129Z</time></trkpt><trkpt lat="43.0640229" lon="13.0822115"><ele>438.5</ele><time>2026-04-11T14:28:40.127Z</time></trkpt><trkpt lat="43.0641561" lon="13.0821434"><ele>439.0</ele><time>2026-04-11T14:28:41.13Z</time></trkpt><trkpt lat="43.0642972" lon="13.0820927"><ele>439.5</ele><time>2026-04-11T14:28:42.128Z</time></trkpt><trkpt lat="43.0644529" lon="13.0820738"><ele>440.0</ele><time>2026-04-11T14:28:43.127Z</time></trkpt><trkpt lat="43.0646123" lon="13.0820802"><ele>440.0</ele><time>2026-04-11T14:28:44.129Z</time></trkpt><trkpt lat="43.0647754" lon="13.0820812"><ele>440.0</ele><time>2026-04-11T14:28:45.127Z</time></trkpt><trkpt lat="43.0649363" lon="13.0821039"><ele>440.0</ele><time>2026-04-11T14:28:46.128Z</time></trkpt><trkpt lat="43.0650925" lon="13.0821458"><ele>442.66666666666663</ele><time>2026-04-11T14:28:47.129Z</time></trkpt><trkpt lat="43.065252" lon="13.0822219"><ele>445.33333333333337</ele><time>2026-04-11T14:28:48.127Z</time></trkpt><trkpt lat="43.0654109" lon="13.0823105"><ele>448.0</ele><time>2026-04-11T14:28:49.129Z</time></trkpt><trkpt lat="43.0655782" lon="13.0823997"><ele>444.33333333333337</ele><time>2026-04-11T14:28:50.128Z</time></trkpt><trkpt lat="43.0657429" lon="13.0824917"><ele>440.66666666666663</ele><time>2026-04-11T14:28:51.128Z</time></trkpt><trkpt lat="43.065908" lon="13.0825544"><ele>437.0</ele><time>2026-04-11T14:28:52.129Z</time></trkpt><trkpt lat="43.066079" lon="13.0825964"><ele>437.0</ele><time>2026-04-11T14:28:53.129Z</time></trkpt><trkpt lat="43.0662414" lon="13.0825881"><ele>437.0</ele><time>2026-04-11T14:28:54.13Z</time></trkpt><trkpt lat="43.066402" lon="13.0825481"><ele>437.0</ele><time>2026-04-11T14:28:55.13Z</time></trkpt><trkpt lat="43.0665672" lon="13.0824716"><ele>439.3333333333333</ele><time>2026-04-11T14:28:56.128Z</time></trkpt><trkpt lat="43.0667378" lon="13.082362"><ele>441.66666666666663</ele><time>2026-04-11T14:28:57.129Z</time></trkpt><trkpt lat="43.0669061" lon="13.0822444"><ele>444.0</ele><time>2026-04-11T14:28:58.129Z</time></trkpt><trkpt lat="43.0671047" lon="13.0821502"><ele>444.0</ele><time>2026-04-11T14:28:59.128Z</time></trkpt><trkpt lat="43.0672911" lon="13.0820666"><ele>444.0</ele><time>2026-04-11T14:29:00.129Z</time></trkpt><trkpt lat="43.0674858" lon="13.0820394"><ele>444.0</ele><time>2026-04-11T14:29:01.129Z</time></trkpt><trkpt lat="43.0676804" lon="13.0820326"><ele>442.33333333333337</ele><time>2026-04-11T14:29:02.128Z</time></trkpt><trkpt lat="43.0678765" lon="13.0820523"><ele>440.6666666666667</ele><time>2026-04-11T14:29:03.13Z</time></trkpt><trkpt lat="43.06807" lon="13.0820809"><ele>439.0</ele><time>2026-04-11T14:29:04.129Z</time></trkpt><trkpt lat="43.0682563" lon="13.0820925"><ele>437.6666666666667</ele><time>2026-04-11T14:29:05.129Z</time></trkpt><trkpt lat="43.0684394" lon="13.0820936"><ele>436.33333333333337</ele><time>2026-04-11T14:29:06.129Z</time></trkpt><trkpt lat="43.0686292" lon="13.0820882"><ele>435.0</ele><time>2026-04-11T14:29:07.129Z</time></trkpt><trkpt lat="43.0688186" lon="13.0820834"><ele>435.0</ele><time>2026-04-11T14:29:08.127Z</time></trkpt><trkpt lat="43.0690116" lon="13.0820991"><ele>435.0</ele><time>2026-04-11T14:29:09.129Z</time></trkpt><trkpt lat="43.0691981" lon="13.0821468"><ele>435.0</ele><time>2026-04-11T14:29:10.128Z</time></trkpt><trkpt lat="43.0693804" lon="13.0822287"><ele>435.33333333333337</ele><time>2026-04-11T14:29:11.129Z</time></trkpt><trkpt lat="43.0695498" lon="13.0823321"><ele>435.6666666666667</ele><time>2026-04-11T14:29:12.129Z</time></trkpt><trkpt lat="43.0697101" lon="13.0824213"><ele>436.0</ele><time>2026-04-11T14:29:13.129Z</time></trkpt><trkpt lat="43.0698657" lon="13.0824962"><ele>435.33333333333337</ele><time>2026-04-11T14:29:14.129Z</time></trkpt><trkpt lat="43.0700355" lon="13.08254"><ele>434.66666666666663</ele><time>2026-04-11T14:29:15.128Z</time></trkpt><trkpt lat="43.0702113" lon="13.0825566"><ele>434.0</ele><time>2026-04-11T14:29:16.128Z</time></trkpt><trkpt lat="43.0703904" lon="13.0825471"><ele>434.0</ele><time>2026-04-11T14:29:17.128Z</time></trkpt><trkpt lat="43.0705773" lon="13.0825292"><ele>434.0</ele><time>2026-04-11T14:29:18.129Z</time></trkpt><trkpt lat="43.0707672" lon="13.0825307"><ele>434.0</ele><time>2026-04-11T14:29:19.128Z</time></trkpt><trkpt lat="43.0709636" lon="13.0825657"><ele>432.3333333333333</ele><time>2026-04-11T14:29:20.127Z</time></trkpt><trkpt lat="43.0711659" lon="13.0826238"><ele>430.66666666666663</ele><time>2026-04-11T14:29:21.129Z</time></trkpt><trkpt lat="43.0713699" lon="13.0826972"><ele>429.0</ele><time>2026-04-11T14:29:22.129Z</time></trkpt><trkpt lat="43.0715769" lon="13.0827673"><ele>429.66666666666663</ele><time>2026-04-11T14:29:23.129Z</time></trkpt><trkpt lat="43.0717829" lon="13.0828317"><ele>430.3333333333333</ele><time>2026-04-11T14:29:24.128Z</time></trkpt><trkpt lat="43.0719895" lon="13.0828985"><ele>431.0</ele><time>2026-04-11T14:29:25.13Z</time></trkpt><trkpt lat="43.0721947" lon="13.0829669"><ele>431.0</ele><time>2026-04-11T14:29:26.129Z</time></trkpt><trkpt lat="43.0723998" lon="13.0830269"><ele>431.0</ele><time>2026-04-11T14:29:27.129Z</time></trkpt><trkpt lat="43.0725906" lon="13.0830866"><ele>431.0</ele><time>2026-04-11T14:29:28.128Z</time></trkpt><trkpt lat="43.0727828" lon="13.0831457"><ele>432.0</ele><time>2026-04-11T14:29:29.128Z</time></trkpt><trkpt lat="43.0729727" lon="13.0832034"><ele>433.0</ele><time>2026-04-11T14:29:30.129Z</time></trkpt><trkpt lat="43.0731605" lon="13.0832623"><ele>434.0</ele><time>2026-04-11T14:29:31.128Z</time></trkpt><trkpt lat="43.0733496" lon="13.0833207"><ele>430.66666666666663</ele><time>2026-04-11T14:29:32.129Z</time></trkpt><trkpt lat="43.0735323" lon="13.0833712"><ele>427.33333333333337</ele><time>2026-04-11T14:29:33.129Z</time></trkpt><trkpt lat="43.0737201" lon="13.0834121"><ele>424.0</ele><time>2026-04-11T14:29:34.128Z</time></trkpt><trkpt lat="43.0739101" lon="13.0834454"><ele>424.0</ele><time>2026-04-11T14:29:35.128Z</time></trkpt><trkpt lat="43.0741045" lon="13.0834446"><ele>424.0</ele><time>2026-04-11T14:29:36.129Z</time></trkpt><trkpt lat="43.0742896" lon="13.083433"><ele>424.0</ele><time>2026-04-11T14:29:37.127Z</time></trkpt><trkpt lat="43.0744781" lon="13.0833434"><ele>421.6666666666667</ele><time>2026-04-11T14:29:38.129Z</time></trkpt><trkpt lat="43.0746597" lon="13.0832351"><ele>419.33333333333337</ele><time>2026-04-11T14:29:39.128Z</time></trkpt><trkpt lat="43.0748418" lon="13.0831016"><ele>417.0</ele><time>2026-04-11T14:29:40.129Z</time></trkpt><trkpt lat="43.075007" lon="13.0829313"><ele>417.0</ele><time>2026-04-11T14:29:41.129Z</time></trkpt><trkpt lat="43.0751838" lon="13.0827764"><ele>417.0</ele><time>2026-04-11T14:29:42.129Z</time></trkpt><trkpt lat="43.0753705" lon="13.0826272"><ele>417.0</ele><time>2026-04-11T14:29:43.128Z</time></trkpt><trkpt lat="43.075556" lon="13.0824994"><ele>416.33333333333337</ele><time>2026-04-11T14:29:44.128Z</time></trkpt><trkpt lat="43.0757301" lon="13.082403"><ele>415.6666666666667</ele><time>2026-04-11T14:29:45.127Z</time></trkpt><trkpt lat="43.0759063" lon="13.0823049"><ele>415.0</ele><time>2026-04-11T14:29:46.128Z</time></trkpt><trkpt lat="43.0760865" lon="13.0822075"><ele>414.0</ele><time>2026-04-11T14:29:47.13Z</time></trkpt><trkpt lat="43.076266" lon="13.0821001"><ele>413.0</ele><time>2026-04-11T14:29:48.128Z</time></trkpt><trkpt lat="43.0764514" lon="13.0819909"><ele>412.0</ele><time>2026-04-11T14:29:49.128Z</time></trkpt><trkpt lat="43.0766365" lon="13.0818803"><ele>411.0</ele><time>2026-04-11T14:29:50.127Z</time></trkpt><trkpt lat="43.0768175" lon="13.081773"><ele>410.0</ele><time>2026-04-11T14:29:51.128Z</time></trkpt><trkpt lat="43.0769917" lon="13.0816691"><ele>409.0</ele><time>2026-04-11T14:29:52.129Z</time></trkpt><trkpt lat="43.077158" lon="13.0815686"><ele>409.0</ele><time>2026-04-11T14:29:53.13Z</time></trkpt><trkpt lat="43.0773287" lon="13.0814704"><ele>409.0</ele><time>2026-04-11T14:29:54.127Z</time></trkpt><trkpt lat="43.077497" lon="13.0813716"><ele>409.0</ele><time>2026-04-11T14:29:55.128Z</time></trkpt><trkpt lat="43.0776664" lon="13.0812695"><ele>409.0</ele><time>2026-04-11T14:29:56.129Z</time></trkpt><trkpt lat="43.0778316" lon="13.0811639"><ele>409.0</ele><time>2026-04-11T14:29:57.129Z</time></trkpt><trkpt lat="43.0779811" lon="13.0810617"><ele>409.0</ele><time>2026-04-11T14:29:58.128Z</time></trkpt><trkpt lat="43.0781237" lon="13.0809637"><ele>409.0</ele><time>2026-04-11T14:29:59.129Z</time></trkpt><trkpt lat="43.078243" lon="13.0808652"><ele>409.0</ele><time>2026-04-11T14:30:00.129Z</time></trkpt><trkpt lat="43.0783695" lon="13.0807754"><ele>409.0</ele><time>2026-04-11T14:30:01.129Z</time></trkpt><trkpt lat="43.0784959" lon="13.0806894"><ele>409.0</ele><time>2026-04-11T14:30:02.129Z</time></trkpt><trkpt lat="43.0786283" lon="13.0806311"><ele>409.0</ele><time>2026-04-11T14:30:03.128Z</time></trkpt><trkpt lat="43.0787468" lon="13.0805921"><ele>409.0</ele><time>2026-04-11T14:30:04.129Z</time></trkpt><trkpt lat="43.0788472" lon="13.0805746"><ele>409.0</ele><time>2026-04-11T14:30:05.129Z</time></trkpt><trkpt lat="43.0789176" lon="13.0805723"><ele>409.0</ele><time>2026-04-11T14:30:06.129Z</time></trkpt><trkpt lat="43.0789763" lon="13.080609"><ele>409.0</ele><time>2026-04-11T14:30:07.129Z</time></trkpt><trkpt lat="43.079028" lon="13.0807607"><ele>409.0</ele><time>2026-04-11T14:30:09.127Z</time></trkpt><trkpt lat="43.0789914" lon="13.0809073"><ele>409.0</ele><time>2026-04-11T14:30:10.128Z</time></trkpt><trkpt lat="43.0789592" lon="13.0810566"><ele>409.0</ele><time>2026-04-11T14:30:11.128Z</time></trkpt><trkpt lat="43.0789261" lon="13.0812192"><ele>409.0</ele><time>2026-04-11T14:30:12.13Z</time></trkpt><trkpt lat="43.0789043" lon="13.0814032"><ele>409.0</ele><time>2026-04-11T14:30:13.128Z</time></trkpt><trkpt lat="43.0789119" lon="13.0815879"><ele>409.0</ele><time>2026-04-11T14:30:14.127Z</time></trkpt><trkpt lat="43.0789261" lon="13.0817831"><ele>409.0</ele><time>2026-04-11T14:30:15.129Z</time></trkpt><trkpt lat="43.0789576" lon="13.081991"><ele>409.0</ele><time>2026-04-11T14:30:16.127Z</time></trkpt><trkpt lat="43.0789997" lon="13.0822032"><ele>408.6666666666667</ele><time>2026-04-11T14:30:17.128Z</time></trkpt><trkpt lat="43.0790479" lon="13.08241"><ele>408.33333333333337</ele><time>2026-04-11T14:30:18.128Z</time></trkpt><trkpt lat="43.0790913" lon="13.0826041"><ele>408.0</ele><time>2026-04-11T14:30:19.128Z</time></trkpt><trkpt lat="43.0791346" lon="13.0827904"><ele>408.59999999999997</ele><time>2026-04-11T14:30:20.13Z</time></trkpt><trkpt lat="43.0791716" lon="13.0829575"><ele>409.2</ele><time>2026-04-11T14:30:21.129Z</time></trkpt><trkpt lat="43.0792037" lon="13.0830975"><ele>409.8</ele><time>2026-04-11T14:30:22.128Z</time></trkpt><trkpt lat="43.0792328" lon="13.0832128"><ele>410.4</ele><time>2026-04-11T14:30:23.128Z</time></trkpt><trkpt lat="43.0792578" lon="13.0833175"><ele>411.0</ele><time>2026-04-11T14:30:24.127Z</time></trkpt><trkpt lat="43.0792896" lon="13.0834097"><ele>411.0</ele><time>2026-04-11T14:30:25.129Z</time></trkpt><trkpt lat="43.0793309" lon="13.0834823"><ele>411.0</ele><time>2026-04-11T14:30:26.128Z</time></trkpt><trkpt lat="43.0794527" lon="13.0835137"><ele>411.0</ele><time>2026-04-11T14:30:28.129Z</time></trkpt><trkpt lat="43.0795408" lon="13.0834814"><ele>411.0</ele><time>2026-04-11T14:30:29.129Z</time></trkpt><trkpt lat="43.0796554" lon="13.0834102"><ele>411.0</ele><time>2026-04-11T14:30:30.128Z</time></trkpt><trkpt lat="43.0797958" lon="13.0833139"><ele>415.0</ele><time>2026-04-11T14:30:31.128Z</time></trkpt><trkpt lat="43.07994" lon="13.0832108"><ele>419.0</ele><time>2026-04-11T14:30:32.128Z</time></trkpt><trkpt lat="43.0800683" lon="13.0831305"><ele>423.0</ele><time>2026-04-11T14:30:33.128Z</time></trkpt><trkpt lat="43.0801733" lon="13.083072"><ele>427.0</ele><time>2026-04-11T14:30:34.128Z</time></trkpt><trkpt lat="43.0802797" lon="13.0830185"><ele>427.0</ele><time>2026-04-11T14:30:35.128Z</time></trkpt><trkpt lat="43.080366" lon="13.082983"><ele>427.00000000000006</ele><time>2026-04-11T14:30:36.128Z</time></trkpt><trkpt lat="43.0804747" lon="13.0829636"><ele>427.00000000000006</ele><time>2026-04-11T14:30:38.128Z</time></trkpt><trkpt lat="43.0805307" lon="13.0829098"><ele>427.0</ele><time>2026-04-11T14:30:40.13Z</time></trkpt><trkpt lat="43.080556" lon="13.0827849"><ele>427.0</ele><time>2026-04-11T14:30:42.128Z</time></trkpt><trkpt lat="43.0804953" lon="13.0826215"><ele>427.0</ele><time>2026-04-11T14:30:44.13Z</time></trkpt><trkpt lat="43.0804519" lon="13.0825316"><ele>427.00000000000006</ele><time>2026-04-11T14:30:45.129Z</time></trkpt><trkpt lat="43.0803921" lon="13.0824252"><ele>427.00000000000006</ele><time>2026-04-11T14:30:46.128Z</time></trkpt><trkpt lat="43.080334" lon="13.0823102"><ele>427.0</ele><time>2026-04-11T14:30:47.128Z</time></trkpt><trkpt lat="43.0802829" lon="13.0821805"><ele>427.0</ele><time>2026-04-11T14:30:48.128Z</time></trkpt><trkpt lat="43.0802453" lon="13.082038"><ele>427.25</ele><time>2026-04-11T14:30:49.129Z</time></trkpt><trkpt lat="43.080218" lon="13.0818802"><ele>427.5</ele><time>2026-04-11T14:30:50.128Z</time></trkpt><trkpt lat="43.0802045" lon="13.0817167"><ele>427.75</ele><time>2026-04-11T14:30:51.13Z</time></trkpt><trkpt lat="43.080202" lon="13.0815409"><ele>428.0</ele><time>2026-04-11T14:30:52.129Z</time></trkpt><trkpt lat="43.0802134" lon="13.0813635"><ele>428.0</ele><time>2026-04-11T14:30:53.13Z</time></trkpt><trkpt lat="43.080219" lon="13.081183"><ele>428.0</ele><time>2026-04-11T14:30:54.129Z</time></trkpt><trkpt lat="43.0802207" lon="13.0810098"><ele>428.0</ele><time>2026-04-11T14:30:55.128Z</time></trkpt><trkpt lat="43.0802237" lon="13.0808504"><ele>428.0</ele><time>2026-04-11T14:30:56.128Z</time></trkpt><trkpt lat="43.0802254" lon="13.0807022"><ele>427.5</ele><time>2026-04-11T14:30:57.13Z</time></trkpt><trkpt lat="43.0802356" lon="13.0805353"><ele>427.0</ele><time>2026-04-11T14:30:58.129Z</time></trkpt><trkpt lat="43.0802449" lon="13.0803663"><ele>426.5</ele><time>2026-04-11T14:30:59.129Z</time></trkpt><trkpt lat="43.0802563" lon="13.0801829"><ele>426.0</ele><time>2026-04-11T14:31:00.128Z</time></trkpt><trkpt lat="43.0802568" lon="13.0800125"><ele>425.0</ele><time>2026-04-11T14:31:01.127Z</time></trkpt><trkpt lat="43.0802647" lon="13.0798507"><ele>424.0</ele><time>2026-04-11T14:31:02.129Z</time></trkpt><trkpt lat="43.0802865" lon="13.0796845"><ele>423.0</ele><time>2026-04-11T14:31:03.129Z</time></trkpt><trkpt lat="43.0803195" lon="13.0795244"><ele>422.0</ele><time>2026-04-11T14:31:04.128Z</time></trkpt><trkpt lat="43.0803621" lon="13.0793875"><ele>421.99999999999994</ele><time>2026-04-11T14:31:05.129Z</time></trkpt><trkpt lat="43.0804148" lon="13.0792591"><ele>422.0</ele><time>2026-04-11T14:31:06.129Z</time></trkpt><trkpt lat="43.0804738" lon="13.0791436"><ele>422.0</ele><time>2026-04-11T14:31:07.129Z</time></trkpt><trkpt lat="43.080514" lon="13.0790481"><ele>422.0</ele><time>2026-04-11T14:31:08.128Z</time></trkpt><trkpt lat="43.0805591" lon="13.0789475"><ele>421.99999999999994</ele><time>2026-04-11T14:31:10.128Z</time></trkpt><trkpt lat="43.0806" lon="13.0788669"><ele>422.0</ele><time>2026-04-11T14:31:12.129Z</time></trkpt><trkpt lat="43.0806574" lon="13.078762"><ele>421.40000000000003</ele><time>2026-04-11T14:31:14.129Z</time></trkpt><trkpt lat="43.0807166" lon="13.0786842"><ele>420.8</ele><time>2026-04-11T14:31:15.13Z</time></trkpt><trkpt lat="43.0807792" lon="13.0786227"><ele>420.2</ele><time>2026-04-11T14:31:16.127Z</time></trkpt><trkpt lat="43.0808646" lon="13.0785701"><ele>419.6</ele><time>2026-04-11T14:31:17.128Z</time></trkpt><trkpt lat="43.0809582" lon="13.0785254"><ele>419.0</ele><time>2026-04-11T14:31:18.128Z</time></trkpt><trkpt lat="43.0810813" lon="13.0785236"><ele>422.25</ele><time>2026-04-11T14:31:19.128Z</time></trkpt><trkpt lat="43.0811999" lon="13.0785196"><ele>425.5</ele><time>2026-04-11T14:31:20.128Z</time></trkpt><trkpt lat="43.0813179" lon="13.0785235"><ele>428.75</ele><time>2026-04-11T14:31:21.127Z</time></trkpt><trkpt lat="43.0814363" lon="13.0785173"><ele>432.0</ele><time>2026-04-11T14:31:22.128Z</time></trkpt><trkpt lat="43.0815546" lon="13.0785043"><ele>434.5</ele><time>2026-04-11T14:31:23.129Z</time></trkpt><trkpt lat="43.081676" lon="13.0784865"><ele>437.0</ele><time>2026-04-11T14:31:24.129Z</time></trkpt><trkpt lat="43.0817962" lon="13.078476"><ele>439.5</ele><time>2026-04-11T14:31:25.128Z</time></trkpt><trkpt lat="43.0819133" lon="13.0784569"><ele>442.0</ele><time>2026-04-11T14:31:26.129Z</time></trkpt><trkpt lat="43.082011" lon="13.0784205"><ele>442.0</ele><time>2026-04-11T14:31:27.127Z</time></trkpt><trkpt lat="43.0821092" lon="13.078372"><ele>442.0</ele><time>2026-04-11T14:31:28.129Z</time></trkpt><trkpt lat="43.0822241" lon="13.0783164"><ele>442.0</ele><time>2026-04-11T14:31:29.128Z</time></trkpt><trkpt lat="43.0823426" lon="13.078249"><ele>442.0</ele><time>2026-04-11T14:31:30.129Z</time></trkpt><trkpt lat="43.0824584" lon="13.0782099"><ele>443.00000000000006</ele><time>2026-04-11T14:31:31.129Z</time></trkpt><trkpt lat="43.082536" lon="13.0781626"><ele>444.0</ele><time>2026-04-11T14:31:32.129Z</time></trkpt><trkpt lat="43.0826198" lon="13.078101"><ele>445.0</ele><time>2026-04-11T14:31:34.129Z</time></trkpt><trkpt lat="43.0826811" lon="13.0780304"><ele>446.0</ele><time>2026-04-11T14:31:36.128Z</time></trkpt><trkpt lat="43.0827306" lon="13.0779677"><ele>447.00000000000006</ele><time>2026-04-11T14:31:37.128Z</time></trkpt><trkpt lat="43.082788" lon="13.077878"><ele>448.0</ele><time>2026-04-11T14:31:39.127Z</time></trkpt><trkpt lat="43.0828509" lon="13.0777369"><ele>448.0</ele><time>2026-04-11T14:31:41.129Z</time></trkpt><trkpt lat="43.0828968" lon="13.0776614"><ele>448.0</ele><time>2026-04-11T14:31:42.129Z</time></trkpt><trkpt lat="43.082944" lon="13.0775827"><ele>448.0</ele><time>2026-04-11T14:31:43.127Z</time></trkpt><trkpt lat="43.0829936" lon="13.0775099"><ele>448.0</ele><time>2026-04-11T14:31:44.129Z</time></trkpt><trkpt lat="43.0830555" lon="13.0774576"><ele>448.0</ele><time>2026-04-11T14:31:45.129Z</time></trkpt><trkpt lat="43.0831156" lon="13.0774149"><ele>448.0</ele><time>2026-04-11T14:31:46.128Z</time></trkpt><trkpt lat="43.0831821" lon="13.0773798"><ele>448.0</ele><time>2026-04-11T14:31:47.129Z</time></trkpt><trkpt lat="43.0832561" lon="13.0773722"><ele>447.83333333333337</ele><time>2026-04-11T14:31:48.129Z</time></trkpt><trkpt lat="43.0833305" lon="13.0773593"><ele>447.6666666666667</ele><time>2026-04-11T14:31:49.129Z</time></trkpt><trkpt lat="43.0834093" lon="13.0773264"><ele>447.5</ele><time>2026-04-11T14:31:50.129Z</time></trkpt><trkpt lat="43.0834773" lon="13.0772856"><ele>447.33333333333337</ele><time>2026-04-11T14:31:51.129Z</time></trkpt><trkpt lat="43.0835631" lon="13.0772333"><ele>447.1666666666667</ele><time>2026-04-11T14:31:52.128Z</time></trkpt><trkpt lat="43.0836517" lon="13.0771748"><ele>447.0</ele><time>2026-04-11T14:31:53.128Z</time></trkpt><trkpt lat="43.0837391" lon="13.0771439"><ele>447.0</ele><time>2026-04-11T14:31:54.128Z</time></trkpt><trkpt lat="43.0838097" lon="13.0771075"><ele>447.0</ele><time>2026-04-11T14:31:55.128Z</time></trkpt><trkpt lat="43.0838916" lon="13.0770596"><ele>447.0</ele><time>2026-04-11T14:31:56.128Z</time></trkpt><trkpt lat="43.0840002" lon="13.0769761"><ele>447.0</ele><time>2026-04-11T14:31:58.129Z</time></trkpt><trkpt lat="43.0840729" lon="13.0769306"><ele>447.0</ele><time>2026-04-11T14:31:59.128Z</time></trkpt><trkpt lat="43.0841296" lon="13.0768858"><ele>447.0</ele><time>2026-04-11T14:32:00.129Z</time></trkpt><trkpt lat="43.0841852" lon="13.0768226"><ele>448.20000000000005</ele><time>2026-04-11T14:32:01.129Z</time></trkpt><trkpt lat="43.0842838" lon="13.0767453"><ele>449.40000000000003</ele><time>2026-04-11T14:32:02.128Z</time></trkpt><trkpt lat="43.0843759" lon="13.0766932"><ele>450.59999999999997</ele><time>2026-04-11T14:32:03.129Z</time></trkpt><trkpt lat="43.0844663" lon="13.0766555"><ele>451.79999999999995</ele><time>2026-04-11T14:32:04.128Z</time></trkpt><trkpt lat="43.0845712" lon="13.0766202"><ele>453.0</ele><time>2026-04-11T14:32:05.127Z</time></trkpt><trkpt lat="43.0846786" lon="13.0765798"><ele>453.0</ele><time>2026-04-11T14:32:06.129Z</time></trkpt><trkpt lat="43.0847958" lon="13.076532"><ele>453.0</ele><time>2026-04-11T14:32:07.129Z</time></trkpt><trkpt lat="43.084911" lon="13.0764702"><ele>453.0</ele><time>2026-04-11T14:32:08.127Z</time></trkpt><trkpt lat="43.0850203" lon="13.0764045"><ele>453.0</ele><time>2026-04-11T14:32:09.128Z</time></trkpt><trkpt lat="43.0851431" lon="13.076351"><ele>453.25</ele><time>2026-04-11T14:32:10.13Z</time></trkpt><trkpt lat="43.0852761" lon="13.0762804"><ele>453.5</ele><time>2026-04-11T14:32:11.129Z</time></trkpt><trkpt lat="43.085401" lon="13.0762046"><ele>453.75</ele><time>2026-04-11T14:32:12.128Z</time></trkpt><trkpt lat="43.0855315" lon="13.0761434"><ele>454.0</ele><time>2026-04-11T14:32:13.129Z</time></trkpt><trkpt lat="43.0856605" lon="13.0760752"><ele>456.75</ele><time>2026-04-11T14:32:14.128Z</time></trkpt><trkpt lat="43.085791" lon="13.0760199"><ele>459.5</ele><time>2026-04-11T14:32:15.129Z</time></trkpt><trkpt lat="43.0859222" lon="13.0759693"><ele>462.25</ele><time>2026-04-11T14:32:16.127Z</time></trkpt><trkpt lat="43.0860519" lon="13.0759201"><ele>465.0</ele><time>2026-04-11T14:32:17.129Z</time></trkpt><trkpt lat="43.0861685" lon="13.0758552"><ele>465.0</ele><time>2026-04-11T14:32:18.128Z</time></trkpt><trkpt lat="43.0862771" lon="13.0757965"><ele>465.0</ele><time>2026-04-11T14:32:19.128Z</time></trkpt><trkpt lat="43.0863845" lon="13.0757781"><ele>465.0</ele><time>2026-04-11T14:32:20.128Z</time></trkpt><trkpt lat="43.086488" lon="13.0757812"><ele>465.0</ele><time>2026-04-11T14:32:21.128Z</time></trkpt><trkpt lat="43.0866088" lon="13.0757971"><ele>466.5</ele><time>2026-04-11T14:32:22.13Z</time></trkpt><trkpt lat="43.0867265" lon="13.0757965"><ele>468.0</ele><time>2026-04-11T14:32:23.127Z</time></trkpt><trkpt lat="43.0868354" lon="13.0757556"><ele>469.5</ele><time>2026-04-11T14:32:24.129Z</time></trkpt><trkpt lat="43.0869485" lon="13.0756813"><ele>471.0</ele><time>2026-04-11T14:32:25.128Z</time></trkpt><trkpt lat="43.08706" lon="13.0756244"><ele>471.0</ele><time>2026-04-11T14:32:26.129Z</time></trkpt><trkpt lat="43.0871859" lon="13.0755897"><ele>471.0</ele><time>2026-04-11T14:32:27.13Z</time></trkpt><trkpt lat="43.0873191" lon="13.0755585"><ele>471.0</ele><time>2026-04-11T14:32:28.129Z</time></trkpt><trkpt lat="43.0874505" lon="13.0755508"><ele>471.0</ele><time>2026-04-11T14:32:29.13Z</time></trkpt><trkpt lat="43.0875704" lon="13.0755494"><ele>473.20000000000005</ele><time>2026-04-11T14:32:30.128Z</time></trkpt><trkpt lat="43.0876848" lon="13.0755745"><ele>475.40000000000003</ele><time>2026-04-11T14:32:31.128Z</time></trkpt><trkpt lat="43.0878021" lon="13.0755982"><ele>477.6</ele><time>2026-04-11T14:32:32.128Z</time></trkpt><trkpt lat="43.0879096" lon="13.0756291"><ele>479.8</ele><time>2026-04-11T14:32:33.129Z</time></trkpt><trkpt lat="43.0880045" lon="13.0756246"><ele>482.0</ele><time>2026-04-11T14:32:34.128Z</time></trkpt><trkpt lat="43.0880742" lon="13.0755958"><ele>482.0</ele><time>2026-04-11T14:32:35.128Z</time></trkpt><trkpt lat="43.0881344" lon="13.0755247"><ele>482.0</ele><time>2026-04-11T14:32:36.129Z</time></trkpt><trkpt lat="43.0881981" lon="13.0754318"><ele>482.0</ele><time>2026-04-11T14:32:37.129Z</time></trkpt><trkpt lat="43.0882917" lon="13.0752786"><ele>482.0</ele><time>2026-04-11T14:32:38.127Z</time></trkpt><trkpt lat="43.088392" lon="13.0751625"><ele>484.25</ele><time>2026-04-11T14:32:39.128Z</time></trkpt><trkpt lat="43.0884937" lon="13.0750387"><ele>486.5</ele><time>2026-04-11T14:32:40.128Z</time></trkpt><trkpt lat="43.0885886" lon="13.0749288"><ele>488.75</ele><time>2026-04-11T14:32:41.13Z</time></trkpt><trkpt lat="43.088703" lon="13.0748415"><ele>491.0</ele><time>2026-04-11T14:32:42.129Z</time></trkpt><trkpt lat="43.0888186" lon="13.0747574"><ele>491.0</ele><time>2026-04-11T14:32:43.129Z</time></trkpt><trkpt lat="43.0889384" lon="13.0746916"><ele>491.0</ele><time>2026-04-11T14:32:44.127Z</time></trkpt><trkpt lat="43.089074" lon="13.0746252"><ele>491.0</ele><time>2026-04-11T14:32:45.127Z</time></trkpt><trkpt lat="43.0892137" lon="13.0745558"><ele>491.0</ele><time>2026-04-11T14:32:46.129Z</time></trkpt><trkpt lat="43.0893569" lon="13.0744762"><ele>491.66666666666663</ele><time>2026-04-11T14:32:47.129Z</time></trkpt><trkpt lat="43.0894489" lon="13.0744174"><ele>492.3333333333333</ele><time>2026-04-11T14:32:48.129Z</time></trkpt><trkpt lat="43.0895357" lon="13.0743773"><ele>493.0</ele><time>2026-04-11T14:32:49.129Z</time></trkpt><trkpt lat="43.0895965" lon="13.074337"><ele>493.66666666666663</ele><time>2026-04-11T14:32:50.129Z</time></trkpt><trkpt lat="43.0896606" lon="13.0743057"><ele>494.3333333333333</ele><time>2026-04-11T14:32:51.128Z</time></trkpt><trkpt lat="43.0897259" lon="13.0742696"><ele>495.0</ele><time>2026-04-11T14:32:52.128Z</time></trkpt><trkpt lat="43.0898131" lon="13.074195"><ele>496.4</ele><time>2026-04-11T14:32:54.129Z</time></trkpt><trkpt lat="43.0898515" lon="13.0740507"><ele>497.8</ele><time>2026-04-11T14:32:56.129Z</time></trkpt><trkpt lat="43.0898749" lon="13.0738711"><ele>499.20000000000005</ele><time>2026-04-11T14:32:58.129Z</time></trkpt><trkpt lat="43.0899127" lon="13.0737273"><ele>500.6</ele><time>2026-04-11T14:33:00.128Z</time></trkpt><trkpt lat="43.0899394" lon="13.0736412"><ele>502.0</ele><time>2026-04-11T14:33:02.128Z</time></trkpt><trkpt lat="43.0899705" lon="13.0735034"><ele>503.6</ele><time>2026-04-11T14:33:04.128Z</time></trkpt><trkpt lat="43.0900122" lon="13.0733826"><ele>505.20000000000005</ele><time>2026-04-11T14:33:06.127Z</time></trkpt><trkpt lat="43.0900549" lon="13.0732813"><ele>506.8</ele><time>2026-04-11T14:33:08.129Z</time></trkpt><trkpt lat="43.0901139" lon="13.0731549"><ele>508.4</ele><time>2026-04-11T14:33:10.128Z</time></trkpt><trkpt lat="43.0901921" lon="13.0731098"><ele>510.0</ele><time>2026-04-11T14:33:12.127Z</time></trkpt><trkpt lat="43.0902633" lon="13.0731326"><ele>511.0</ele><time>2026-04-11T14:33:15.128Z</time></trkpt><trkpt lat="43.0903352" lon="13.0731466"><ele>512.0</ele><time>2026-04-11T14:33:31.129Z</time></trkpt><trkpt lat="43.0904058" lon="13.0731375"><ele>513.0</ele><time>2026-04-11T14:33:39.129Z</time></trkpt><trkpt lat="43.0904716" lon="13.0731416"><ele>514.0</ele><time>2026-04-11T14:33:51.127Z</time></trkpt><trkpt lat="43.0905399" lon="13.0731548"><ele>515.0</ele><time>2026-04-11T14:33:55.128Z</time></trkpt><trkpt lat="43.0906132" lon="13.0731751"><ele>516.0</ele><time>2026-04-11T14:34:02.127Z</time></trkpt><trkpt lat="43.0906792" lon="13.0731981"><ele>517.0</ele><time>2026-04-11T14:34:04.129Z</time></trkpt><trkpt lat="43.0907468" lon="13.0732176"><ele>518.4</ele><time>2026-04-11T14:34:06.128Z</time></trkpt><trkpt lat="43.0908226" lon="13.0732218"><ele>519.8000000000001</ele><time>2026-04-11T14:34:09.127Z</time></trkpt><trkpt lat="43.0909244" lon="13.0732696"><ele>521.2</ele><time>2026-04-11T14:34:11.129Z</time></trkpt><trkpt lat="43.0909934" lon="13.0732976"><ele>522.6</ele><time>2026-04-11T14:34:12.129Z</time></trkpt><trkpt lat="43.0911254" lon="13.0733407"><ele>524.0</ele><time>2026-04-11T14:34:14.127Z</time></trkpt><trkpt lat="43.0911982" lon="13.0733727"><ele>524.6666666666666</ele><time>2026-04-11T14:34:15.128Z</time></trkpt><trkpt lat="43.0912654" lon="13.0733936"><ele>525.3333333333333</ele><time>2026-04-11T14:34:16.129Z</time></trkpt><trkpt lat="43.0913687" lon="13.0734074"><ele>526.0</ele><time>2026-04-11T14:34:17.128Z</time></trkpt><trkpt lat="43.091461" lon="13.0734082"><ele>526.6666666666666</ele><time>2026-04-11T14:34:18.128Z</time></trkpt><trkpt lat="43.091559" lon="13.0734037"><ele>527.3333333333334</ele><time>2026-04-11T14:34:19.127Z</time></trkpt><trkpt lat="43.0916275" lon="13.0734087"><ele>528.0</ele><time>2026-04-11T14:34:20.128Z</time></trkpt><trkpt lat="43.0917377" lon="13.0734405"><ele>531.4</ele><time>2026-04-11T14:34:22.129Z</time></trkpt><trkpt lat="43.0918154" lon="13.0734512"><ele>534.8</ele><time>2026-04-11T14:34:23.129Z</time></trkpt><trkpt lat="43.091909" lon="13.0734624"><ele>538.2</ele><time>2026-04-11T14:34:24.127Z</time></trkpt><trkpt lat="43.0920083" lon="13.073466"><ele>541.6</ele><time>2026-04-11T14:34:25.129Z</time></trkpt><trkpt lat="43.0921165" lon="13.0734547"><ele>545.0</ele><time>2026-04-11T14:34:26.127Z</time></trkpt><trkpt lat="43.0922244" lon="13.0734501"><ele>545.0</ele><time>2026-04-11T14:34:27.129Z</time></trkpt><trkpt lat="43.0923068" lon="13.0734666"><ele>545.0</ele><time>2026-04-11T14:34:28.129Z</time></trkpt><trkpt lat="43.0923813" lon="13.0734865"><ele>545.0</ele><time>2026-04-11T14:34:29.128Z</time></trkpt><trkpt lat="43.0924658" lon="13.0734954"><ele>545.0</ele><time>2026-04-11T14:34:30.129Z</time></trkpt><trkpt lat="43.0925441" lon="13.0734892"><ele>545.0</ele><time>2026-04-11T14:34:31.129Z</time></trkpt><trkpt lat="43.0926368" lon="13.0734778"><ele>545.0</ele><time>2026-04-11T14:34:32.129Z</time></trkpt><trkpt lat="43.0927164" lon="13.0734349"><ele>548.0</ele><time>2026-04-11T14:34:33.128Z</time></trkpt><trkpt lat="43.0928213" lon="13.0733983"><ele>551.0</ele><time>2026-04-11T14:34:34.128Z</time></trkpt><trkpt lat="43.0929139" lon="13.0733679"><ele>554.0</ele><time>2026-04-11T14:34:35.127Z</time></trkpt><trkpt lat="43.0930042" lon="13.0733349"><ele>557.0</ele><time>2026-04-11T14:34:36.129Z</time></trkpt><trkpt lat="43.0930859" lon="13.0733049"><ele>560.0</ele><time>2026-04-11T14:34:37.129Z</time></trkpt><trkpt lat="43.0931519" lon="13.0732633"><ele>562.0</ele><time>2026-04-11T14:34:38.129Z</time></trkpt><trkpt lat="43.0932627" lon="13.0732526"><ele>564.0</ele><time>2026-04-11T14:34:40.128Z</time></trkpt><trkpt lat="43.0933207" lon="13.0732059"><ele>566.0</ele><time>2026-04-11T14:35:07.128Z</time></trkpt><trkpt lat="43.0933574" lon="13.073134"><ele>568.0</ele><time>2026-04-11T14:35:09.127Z</time></trkpt><trkpt lat="43.0934188" lon="13.07307"><ele>570.0</ele><time>2026-04-11T14:35:11.129Z</time></trkpt><trkpt lat="43.0934827" lon="13.0730808"><ele>572.0</ele><time>2026-04-11T14:35:13.13Z</time></trkpt><trkpt lat="43.0935459" lon="13.0730967"><ele>574.0</ele><time>2026-04-11T14:35:14.128Z</time></trkpt><trkpt lat="43.0936264" lon="13.0731021"><ele>574.0</ele><time>2026-04-11T14:35:15.128Z</time></trkpt><trkpt lat="43.0937085" lon="13.0730986"><ele>574.0</ele><time>2026-04-11T14:35:16.13Z</time></trkpt><trkpt lat="43.0937716" lon="13.0730976"><ele>574.0</ele><time>2026-04-11T14:35:17.127Z</time></trkpt><trkpt lat="43.0938444" lon="13.0731281"><ele>574.0</ele><time>2026-04-11T14:35:18.128Z</time></trkpt><trkpt lat="43.0939261" lon="13.0731813"><ele>574.0</ele><time>2026-04-11T14:35:19.128Z</time></trkpt><trkpt lat="43.0940201" lon="13.0732366"><ele>574.0</ele><time>2026-04-11T14:35:20.129Z</time></trkpt><trkpt lat="43.0941181" lon="13.0732871"><ele>574.75</ele><time>2026-04-11T14:35:21.129Z</time></trkpt><trkpt lat="43.0942349" lon="13.0733229"><ele>575.5</ele><time>2026-04-11T14:35:22.128Z</time></trkpt><trkpt lat="43.0943548" lon="13.0733538"><ele>576.25</ele><time>2026-04-11T14:35:23.129Z</time></trkpt><trkpt lat="43.0944847" lon="13.0733746"><ele>577.0</ele><time>2026-04-11T14:35:24.13Z</time></trkpt><trkpt lat="43.0946219" lon="13.0733857"><ele>577.0</ele><time>2026-04-11T14:35:25.129Z</time></trkpt><trkpt lat="43.0947668" lon="13.0733854"><ele>577.0</ele><time>2026-04-11T14:35:26.128Z</time></trkpt><trkpt lat="43.0949126" lon="13.0733964"><ele>577.0</ele><time>2026-04-11T14:35:27.129Z</time></trkpt><trkpt lat="43.0950657" lon="13.0734296"><ele>577.0</ele><time>2026-04-11T14:35:28.128Z</time></trkpt><trkpt lat="43.0952238" lon="13.0734765"><ele>580.25</ele><time>2026-04-11T14:35:29.127Z</time></trkpt><trkpt lat="43.0953778" lon="13.0735243"><ele>583.5</ele><time>2026-04-11T14:35:30.128Z</time></trkpt><trkpt lat="43.0955268" lon="13.0735384"><ele>586.75</ele><time>2026-04-11T14:35:31.129Z</time></trkpt><trkpt lat="43.0956672" lon="13.0735376"><ele>590.0</ele><time>2026-04-11T14:35:32.128Z</time></trkpt><trkpt lat="43.0958077" lon="13.0735499"><ele>593.0</ele><time>2026-04-11T14:35:33.127Z</time></trkpt><trkpt lat="43.0959433" lon="13.07358"><ele>596.0</ele><time>2026-04-11T14:35:34.127Z</time></trkpt><trkpt lat="43.0960747" lon="13.0736192"><ele>599.0</ele><time>2026-04-11T14:35:35.129Z</time></trkpt><trkpt lat="43.0961818" lon="13.0736598"><ele>602.0</ele><time>2026-04-11T14:35:36.129Z</time></trkpt><trkpt lat="43.0962969" lon="13.0736919"><ele>602.0</ele><time>2026-04-11T14:35:37.129Z</time></trkpt><trkpt lat="43.096385" lon="13.073721"><ele>602.0</ele><time>2026-04-11T14:35:38.129Z</time></trkpt><trkpt lat="43.0964673" lon="13.0737504"><ele>602.0</ele><time>2026-04-11T14:35:39.129Z</time></trkpt><trkpt lat="43.0965497" lon="13.0737822"><ele>602.0</ele><time>2026-04-11T14:35:40.128Z</time></trkpt><trkpt lat="43.0966308" lon="13.0737941"><ele>602.0</ele><time>2026-04-11T14:35:41.128Z</time></trkpt><trkpt lat="43.0967068" lon="13.0738046"><ele>602.0</ele><time>2026-04-11T14:35:42.128Z</time></trkpt><trkpt lat="43.0967848" lon="13.0738208"><ele>602.6</ele><time>2026-04-11T14:35:43.127Z</time></trkpt><trkpt lat="43.0968667" lon="13.0738364"><ele>603.2</ele><time>2026-04-11T14:35:44.129Z</time></trkpt><trkpt lat="43.0969503" lon="13.0738559"><ele>603.8</ele><time>2026-04-11T14:35:45.13Z</time></trkpt><trkpt lat="43.0970493" lon="13.073876"><ele>604.4</ele><time>2026-04-11T14:35:46.129Z</time></trkpt><trkpt lat="43.097149" lon="13.0738935"><ele>605.0</ele><time>2026-04-11T14:35:47.127Z</time></trkpt><trkpt lat="43.0972445" lon="13.0738879"><ele>605.0</ele><time>2026-04-11T14:35:48.128Z</time></trkpt><trkpt lat="43.0973499" lon="13.0738857"><ele>605.0</ele><time>2026-04-11T14:35:49.128Z</time></trkpt><trkpt lat="43.0974474" lon="13.0738911"><ele>605.0</ele><time>2026-04-11T14:35:50.128Z</time></trkpt><trkpt lat="43.0975213" lon="13.0738956"><ele>605.0</ele><time>2026-04-11T14:35:51.128Z</time></trkpt><trkpt lat="43.0976176" lon="13.0739336"><ele>605.0</ele><time>2026-04-11T14:35:53.129Z</time></trkpt><trkpt lat="43.0976475" lon="13.0740145"><ele>605.0</ele><time>2026-04-11T14:35:55.127Z</time></trkpt><trkpt lat="43.0976054" lon="13.0741395"><ele>603.8</ele><time>2026-04-11T14:35:57.127Z</time></trkpt><trkpt lat="43.0975414" lon="13.0742124"><ele>602.6</ele><time>2026-04-11T14:35:58.129Z</time></trkpt><trkpt lat="43.097462" lon="13.0743034"><ele>601.4</ele><time>2026-04-11T14:35:59.128Z</time></trkpt><trkpt lat="43.0973682" lon="13.0744112"><ele>600.2</ele><time>2026-04-11T14:36:00.129Z</time></trkpt><trkpt lat="43.0972733" lon="13.0745327"><ele>599.0</ele><time>2026-04-11T14:36:01.128Z</time></trkpt><trkpt lat="43.0971759" lon="13.0746607"><ele>599.0</ele><time>2026-04-11T14:36:02.128Z</time></trkpt><trkpt lat="43.097077" lon="13.0747956"><ele>599.0</ele><time>2026-04-11T14:36:03.128Z</time></trkpt><trkpt lat="43.0969787" lon="13.074926"><ele>599.0</ele><time>2026-04-11T14:36:04.128Z</time></trkpt><trkpt lat="43.0968952" lon="13.0750435"><ele>599.0</ele><time>2026-04-11T14:36:05.128Z</time></trkpt><trkpt lat="43.0968162" lon="13.0751581"><ele>599.0</ele><time>2026-04-11T14:36:06.127Z</time></trkpt><trkpt lat="43.0967579" lon="13.0752738"><ele>599.0</ele><time>2026-04-11T14:36:07.129Z</time></trkpt><trkpt lat="43.0967104" lon="13.0754023"><ele>599.0</ele><time>2026-04-11T14:36:08.129Z</time></trkpt><trkpt lat="43.0966887" lon="13.0755426"><ele>599.0</ele><time>2026-04-11T14:36:09.128Z</time></trkpt><trkpt lat="43.0966983" lon="13.0756832"><ele>599.0</ele><time>2026-04-11T14:36:10.128Z</time></trkpt><trkpt lat="43.0967496" lon="13.075822"><ele>599.5</ele><time>2026-04-11T14:36:11.127Z</time></trkpt><trkpt lat="43.0968328" lon="13.0759315"><ele>600.0</ele><time>2026-04-11T14:36:12.128Z</time></trkpt><trkpt lat="43.0969413" lon="13.0760127"><ele>600.5</ele><time>2026-04-11T14:36:13.128Z</time></trkpt><trkpt lat="43.0970677" lon="13.0760894"><ele>601.0</ele><time>2026-04-11T14:36:14.128Z</time></trkpt><trkpt lat="43.0972022" lon="13.0761964"><ele>601.0</ele><time>2026-04-11T14:36:15.129Z</time></trkpt><trkpt lat="43.0973311" lon="13.0763104"><ele>601.0</ele><time>2026-04-11T14:36:16.128Z</time></trkpt><trkpt lat="43.0974209" lon="13.0764495"><ele>601.0</ele><time>2026-04-11T14:36:17.127Z</time></trkpt><trkpt lat="43.0974801" lon="13.0765918"><ele>601.0</ele><time>2026-04-11T14:36:18.128Z</time></trkpt><trkpt lat="43.0974923" lon="13.0767321"><ele>599.5</ele><time>2026-04-11T14:36:19.129Z</time></trkpt><trkpt lat="43.0974658" lon="13.0768888"><ele>598.0</ele><time>2026-04-11T14:36:20.129Z</time></trkpt><trkpt lat="43.0974131" lon="13.0770599"><ele>596.5</ele><time>2026-04-11T14:36:21.127Z</time></trkpt><trkpt lat="43.0973486" lon="13.077236"><ele>595.0</ele><time>2026-04-11T14:36:22.128Z</time></trkpt><trkpt lat="43.0972806" lon="13.07741"><ele>597.75</ele><time>2026-04-11T14:36:23.129Z</time></trkpt><trkpt lat="43.0972118" lon="13.0775851"><ele>600.5</ele><time>2026-04-11T14:36:24.129Z</time></trkpt><trkpt lat="43.0971409" lon="13.0777579"><ele>603.25</ele><time>2026-04-11T14:36:25.129Z</time></trkpt><trkpt lat="43.0970637" lon="13.0779239"><ele>606.0</ele><time>2026-04-11T14:36:26.128Z</time></trkpt><trkpt lat="43.0969847" lon="13.0780975"><ele>602.3333333333334</ele><time>2026-04-11T14:36:27.127Z</time></trkpt><trkpt lat="43.0968998" lon="13.0782788"><ele>598.6666666666667</ele><time>2026-04-11T14:36:28.128Z</time></trkpt><trkpt lat="43.0968175" lon="13.0784746"><ele>595.0</ele><time>2026-04-11T14:36:29.13Z</time></trkpt><trkpt lat="43.0967352" lon="13.0786528"><ele>595.0</ele><time>2026-04-11T14:36:30.128Z</time></trkpt><trkpt lat="43.0966632" lon="13.0788219"><ele>595.0</ele><time>2026-04-11T14:36:31.129Z</time></trkpt><trkpt lat="43.0965903" lon="13.0789984"><ele>595.0</ele><time>2026-04-11T14:36:32.127Z</time></trkpt><trkpt lat="43.0965194" lon="13.0791787"><ele>595.0</ele><time>2026-04-11T14:36:33.129Z</time></trkpt><trkpt lat="43.0964523" lon="13.0793701"><ele>594.6666666666667</ele><time>2026-04-11T14:36:34.129Z</time></trkpt><trkpt lat="43.0963908" lon="13.0795744"><ele>594.3333333333334</ele><time>2026-04-11T14:36:35.128Z</time></trkpt><trkpt lat="43.0963416" lon="13.0797983"><ele>594.0</ele><time>2026-04-11T14:36:36.127Z</time></trkpt><trkpt lat="43.096314" lon="13.0800302"><ele>594.0</ele><time>2026-04-11T14:36:37.128Z</time></trkpt><trkpt lat="43.0963036" lon="13.0802694"><ele>594.0</ele><time>2026-04-11T14:36:38.128Z</time></trkpt><trkpt lat="43.0963167" lon="13.0805039"><ele>594.0</ele><time>2026-04-11T14:36:39.127Z</time></trkpt><trkpt lat="43.0963408" lon="13.0807389"><ele>596.5</ele><time>2026-04-11T14:36:40.129Z</time></trkpt><trkpt lat="43.0963504" lon="13.0809464"><ele>599.0</ele><time>2026-04-11T14:36:41.128Z</time></trkpt><trkpt lat="43.0963438" lon="13.0811364"><ele>601.5</ele><time>2026-04-11T14:36:42.129Z</time></trkpt><trkpt lat="43.0963281" lon="13.0813222"><ele>604.0</ele><time>2026-04-11T14:36:43.127Z</time></trkpt><trkpt lat="43.096317" lon="13.0815081"><ele>604.75</ele><time>2026-04-11T14:36:44.13Z</time></trkpt><trkpt lat="43.096296" lon="13.081696"><ele>605.5</ele><time>2026-04-11T14:36:45.128Z</time></trkpt><trkpt lat="43.0962769" lon="13.0818763"><ele>606.25</ele><time>2026-04-11T14:36:46.128Z</time></trkpt><trkpt lat="43.0962609" lon="13.0820572"><ele>607.0</ele><time>2026-04-11T14:36:47.129Z</time></trkpt><trkpt lat="43.0962592" lon="13.0822473"><ele>604.75</ele><time>2026-04-11T14:36:48.129Z</time></trkpt><trkpt lat="43.096269" lon="13.0824391"><ele>602.5</ele><time>2026-04-11T14:36:49.129Z</time></trkpt><trkpt lat="43.0962923" lon="13.0826396"><ele>600.25</ele><time>2026-04-11T14:36:50.128Z</time></trkpt><trkpt lat="43.0963223" lon="13.0828398"><ele>598.0</ele><time>2026-04-11T14:36:51.127Z</time></trkpt><trkpt lat="43.0963589" lon="13.0830448"><ele>595.6666666666667</ele><time>2026-04-11T14:36:52.128Z</time></trkpt><trkpt lat="43.0963956" lon="13.0832694"><ele>593.3333333333334</ele><time>2026-04-11T14:36:53.129Z</time></trkpt><trkpt lat="43.0964323" lon="13.0835032"><ele>591.0</ele><time>2026-04-11T14:36:54.128Z</time></trkpt><trkpt lat="43.096469" lon="13.0837578"><ele>591.0</ele><time>2026-04-11T14:36:55.128Z</time></trkpt><trkpt lat="43.0965072" lon="13.0840169"><ele>591.0</ele><time>2026-04-11T14:36:56.128Z</time></trkpt><trkpt lat="43.0965497" lon="13.0842854"><ele>591.0</ele><time>2026-04-11T14:36:57.128Z</time></trkpt><trkpt lat="43.0965929" lon="13.0845406"><ele>591.3333333333334</ele><time>2026-04-11T14:36:58.128Z</time></trkpt><trkpt lat="43.0966398" lon="13.0847907"><ele>591.6666666666667</ele><time>2026-04-11T14:36:59.127Z</time></trkpt><trkpt lat="43.0966934" lon="13.0850359"><ele>592.0</ele><time>2026-04-11T14:37:00.129Z</time></trkpt><trkpt lat="43.0967528" lon="13.0852811"><ele>592.6666666666667</ele><time>2026-04-11T14:37:01.128Z</time></trkpt><trkpt lat="43.0968235" lon="13.0855166"><ele>593.3333333333334</ele><time>2026-04-11T14:37:02.129Z</time></trkpt><trkpt lat="43.0969038" lon="13.0857221"><ele>594.0</ele><time>2026-04-11T14:37:03.128Z</time></trkpt><trkpt lat="43.0970124" lon="13.0859083"><ele>594.3333333333334</ele><time>2026-04-11T14:37:04.13Z</time></trkpt><trkpt lat="43.0971522" lon="13.086074"><ele>594.6666666666667</ele><time>2026-04-11T14:37:05.129Z</time></trkpt><trkpt lat="43.0973099" lon="13.0862299"><ele>595.0</ele><time>2026-04-11T14:37:06.127Z</time></trkpt><trkpt lat="43.0974656" lon="13.0863857"><ele>595.0</ele><time>2026-04-11T14:37:07.129Z</time></trkpt><trkpt lat="43.0976261" lon="13.0865468"><ele>595.0</ele><time>2026-04-11T14:37:08.128Z</time></trkpt><trkpt lat="43.0977888" lon="13.0867128"><ele>595.0</ele><time>2026-04-11T14:37:09.128Z</time></trkpt><trkpt lat="43.0979617" lon="13.0868737"><ele>595.0</ele><time>2026-04-11T14:37:10.129Z</time></trkpt><trkpt lat="43.0981388" lon="13.0870324"><ele>595.0</ele><time>2026-04-11T14:37:11.127Z</time></trkpt><trkpt lat="43.0983064" lon="13.0871901"><ele>595.0</ele><time>2026-04-11T14:37:12.127Z</time></trkpt><trkpt lat="43.0984577" lon="13.0873551"><ele>598.6666666666667</ele><time>2026-04-11T14:37:13.128Z</time></trkpt><trkpt lat="43.0985916" lon="13.0875461"><ele>602.3333333333334</ele><time>2026-04-11T14:37:14.128Z</time></trkpt><trkpt lat="43.0987111" lon="13.0877583"><ele>606.0</ele><time>2026-04-11T14:37:15.128Z</time></trkpt><trkpt lat="43.0988181" lon="13.0879835"><ele>606.0</ele><time>2026-04-11T14:37:16.129Z</time></trkpt><trkpt lat="43.0989165" lon="13.0882137"><ele>606.0</ele><time>2026-04-11T14:37:17.128Z</time></trkpt><trkpt lat="43.0990007" lon="13.0884292"><ele>606.0</ele><time>2026-04-11T14:37:18.128Z</time></trkpt><trkpt lat="43.0990773" lon="13.0886553"><ele>607.6666666666666</ele><time>2026-04-11T14:37:19.128Z</time></trkpt><trkpt lat="43.0991259" lon="13.0888954"><ele>609.3333333333333</ele><time>2026-04-11T14:37:20.128Z</time></trkpt><trkpt lat="43.0991757" lon="13.0891402"><ele>611.0</ele><time>2026-04-11T14:37:21.127Z</time></trkpt><trkpt lat="43.0992221" lon="13.0893913"><ele>613.0</ele><time>2026-04-11T14:37:22.129Z</time></trkpt><trkpt lat="43.0992742" lon="13.0896429"><ele>615.0</ele><time>2026-04-11T14:37:23.128Z</time></trkpt><trkpt lat="43.0993275" lon="13.0898847"><ele>617.0</ele><time>2026-04-11T14:37:24.127Z</time></trkpt><trkpt lat="43.0993844" lon="13.0900956"><ele>618.0</ele><time>2026-04-11T14:37:25.128Z</time></trkpt><trkpt lat="43.0994436" lon="13.0902724"><ele>619.0</ele><time>2026-04-11T14:37:26.128Z</time></trkpt><trkpt lat="43.0995092" lon="13.090413"><ele>620.0</ele><time>2026-04-11T14:37:27.129Z</time></trkpt><trkpt lat="43.0995741" lon="13.0905442"><ele>621.0</ele><time>2026-04-11T14:37:28.129Z</time></trkpt><trkpt lat="43.0996249" lon="13.0906356"><ele>621.0</ele><time>2026-04-11T14:37:29.128Z</time></trkpt><trkpt lat="43.0996701" lon="13.090718"><ele>621.0</ele><time>2026-04-11T14:37:30.128Z</time></trkpt><trkpt lat="43.0997109" lon="13.0907856"><ele>621.0</ele><time>2026-04-11T14:37:31.128Z</time></trkpt><trkpt lat="43.0998096" lon="13.0908369"><ele>621.0</ele><time>2026-04-11T14:37:33.128Z</time></trkpt><trkpt lat="43.0999138" lon="13.090758"><ele>621.0</ele><time>2026-04-11T14:37:35.13Z</time></trkpt><trkpt lat="43.0999762" lon="13.0906786"><ele>621.0</ele><time>2026-04-11T14:37:36.128Z</time></trkpt><trkpt lat="43.100056" lon="13.0906061"><ele>621.6</ele><time>2026-04-11T14:37:37.128Z</time></trkpt><trkpt lat="43.1001529" lon="13.0905526"><ele>622.2</ele><time>2026-04-11T14:37:38.129Z</time></trkpt><trkpt lat="43.1002556" lon="13.0905126"><ele>622.8</ele><time>2026-04-11T14:37:39.129Z</time></trkpt><trkpt lat="43.1003642" lon="13.0904908"><ele>623.4</ele><time>2026-04-11T14:37:40.128Z</time></trkpt><trkpt lat="43.1004771" lon="13.0904651"><ele>624.0</ele><time>2026-04-11T14:37:41.129Z</time></trkpt><trkpt lat="43.1005733" lon="13.0904365"><ele>624.0</ele><time>2026-04-11T14:37:42.129Z</time></trkpt><trkpt lat="43.100665" lon="13.0904382"><ele>624.0</ele><time>2026-04-11T14:37:43.128Z</time></trkpt><trkpt lat="43.1007507" lon="13.0904575"><ele>624.0</ele><time>2026-04-11T14:37:44.127Z</time></trkpt><trkpt lat="43.1008356" lon="13.0905092"><ele>624.0</ele><time>2026-04-11T14:37:45.129Z</time></trkpt><trkpt lat="43.1009352" lon="13.0905722"><ele>624.0</ele><time>2026-04-11T14:37:46.128Z</time></trkpt><trkpt lat="43.1010267" lon="13.0906486"><ele>623.5</ele><time>2026-04-11T14:37:47.128Z</time></trkpt><trkpt lat="43.1011297" lon="13.0907236"><ele>623.0</ele><time>2026-04-11T14:37:48.13Z</time></trkpt><trkpt lat="43.1012396" lon="13.0908011"><ele>622.5</ele><time>2026-04-11T14:37:49.128Z</time></trkpt><trkpt lat="43.1013484" lon="13.090871"><ele>622.0</ele><time>2026-04-11T14:37:50.13Z</time></trkpt><trkpt lat="43.1014595" lon="13.0909191"><ele>622.6</ele><time>2026-04-11T14:37:51.128Z</time></trkpt><trkpt lat="43.1015656" lon="13.0909468"><ele>623.2</ele><time>2026-04-11T14:37:52.128Z</time></trkpt><trkpt lat="43.1016514" lon="13.0909402"><ele>623.8</ele><time>2026-04-11T14:37:53.127Z</time></trkpt><trkpt lat="43.1017215" lon="13.0909322"><ele>624.4</ele><time>2026-04-11T14:37:54.129Z</time></trkpt><trkpt lat="43.101765" lon="13.0908671"><ele>625.0</ele><time>2026-04-11T14:37:55.128Z</time></trkpt><trkpt lat="43.1018302" lon="13.0907013"><ele>623.6</ele><time>2026-04-11T14:37:57.128Z</time></trkpt><trkpt lat="43.1018638" lon="13.0905908"><ele>622.2</ele><time>2026-04-11T14:37:58.129Z</time></trkpt><trkpt lat="43.1019195" lon="13.0905262"><ele>620.8</ele><time>2026-04-11T14:37:59.127Z</time></trkpt><trkpt lat="43.1019905" lon="13.0904625"><ele>619.4</ele><time>2026-04-11T14:38:00.128Z</time></trkpt><trkpt lat="43.1020849" lon="13.0904299"><ele>618.0</ele><time>2026-04-11T14:38:01.128Z</time></trkpt><trkpt lat="43.1021959" lon="13.090418"><ele>618.0</ele><time>2026-04-11T14:38:02.129Z</time></trkpt><trkpt lat="43.1023149" lon="13.0904052"><ele>618.0</ele><time>2026-04-11T14:38:03.128Z</time></trkpt><trkpt lat="43.1024431" lon="13.0903919"><ele>618.0</ele><time>2026-04-11T14:38:04.128Z</time></trkpt><trkpt lat="43.1025794" lon="13.0903763"><ele>618.0</ele><time>2026-04-11T14:38:05.129Z</time></trkpt><trkpt lat="43.1027234" lon="13.0903655"><ele>619.0</ele><time>2026-04-11T14:38:06.128Z</time></trkpt><trkpt lat="43.1028498" lon="13.0903534"><ele>620.0</ele><time>2026-04-11T14:38:07.128Z</time></trkpt><trkpt lat="43.1029665" lon="13.0903449"><ele>621.0</ele><time>2026-04-11T14:38:08.127Z</time></trkpt><trkpt lat="43.1030738" lon="13.0903335"><ele>622.0</ele><time>2026-04-11T14:38:09.13Z</time></trkpt><trkpt lat="43.1031632" lon="13.090326"><ele>623.0</ele><time>2026-04-11T14:38:10.127Z</time></trkpt><trkpt lat="43.1032304" lon="13.0903276"><ele>622.6</ele><time>2026-04-11T14:38:11.127Z</time></trkpt><trkpt lat="43.1033364" lon="13.090321"><ele>622.1999999999999</ele><time>2026-04-11T14:38:13.128Z</time></trkpt><trkpt lat="43.1034642" lon="13.0902929"><ele>621.8</ele><time>2026-04-11T14:38:15.128Z</time></trkpt><trkpt lat="43.1035453" lon="13.0902918"><ele>621.4</ele><time>2026-04-11T14:38:16.128Z</time></trkpt><trkpt lat="43.1036453" lon="13.090307"><ele>621.0</ele><time>2026-04-11T14:38:17.128Z</time></trkpt><trkpt lat="43.1037664" lon="13.0903317"><ele>621.0</ele><time>2026-04-11T14:38:18.129Z</time></trkpt><trkpt lat="43.1039029" lon="13.0903693"><ele>621.0</ele><time>2026-04-11T14:38:19.127Z</time></trkpt><trkpt lat="43.1040411" lon="13.0903962"><ele>621.0</ele><time>2026-04-11T14:38:20.129Z</time></trkpt><trkpt lat="43.104181" lon="13.090432"><ele>621.0</ele><time>2026-04-11T14:38:21.128Z</time></trkpt><trkpt lat="43.1043159" lon="13.0904686"><ele>618.0</ele><time>2026-04-11T14:38:22.129Z</time></trkpt><trkpt lat="43.1044425" lon="13.09051"><ele>615.0</ele><time>2026-04-11T14:38:23.128Z</time></trkpt><trkpt lat="43.1045625" lon="13.090565"><ele>612.0</ele><time>2026-04-11T14:38:24.127Z</time></trkpt><trkpt lat="43.1046618" lon="13.0906428"><ele>609.0</ele><time>2026-04-11T14:38:25.128Z</time></trkpt><trkpt lat="43.1047489" lon="13.0907462"><ele>609.0</ele><time>2026-04-11T14:38:26.129Z</time></trkpt><trkpt lat="43.104833" lon="13.0908867"><ele>609.0</ele><time>2026-04-11T14:38:27.127Z</time></trkpt><trkpt lat="43.1049164" lon="13.0910449"><ele>609.0</ele><time>2026-04-11T14:38:28.127Z</time></trkpt><trkpt lat="43.1050052" lon="13.0911976"><ele>609.0</ele><time>2026-04-11T14:38:29.128Z</time></trkpt><trkpt lat="43.1050848" lon="13.0913389"><ele>605.25</ele><time>2026-04-11T14:38:30.128Z</time></trkpt><trkpt lat="43.1051632" lon="13.0914691"><ele>601.5</ele><time>2026-04-11T14:38:31.128Z</time></trkpt><trkpt lat="43.1052438" lon="13.0916021"><ele>597.75</ele><time>2026-04-11T14:38:32.129Z</time></trkpt><trkpt lat="43.105332" lon="13.0917263"><ele>594.0</ele><time>2026-04-11T14:38:33.129Z</time></trkpt><trkpt lat="43.1054308" lon="13.0918611"><ele>593.75</ele><time>2026-04-11T14:38:34.129Z</time></trkpt><trkpt lat="43.1055354" lon="13.092"><ele>593.5</ele><time>2026-04-11T14:38:35.128Z</time></trkpt><trkpt lat="43.105638" lon="13.09211"><ele>593.25</ele><time>2026-04-11T14:38:36.129Z</time></trkpt><trkpt lat="43.1057336" lon="13.0922091"><ele>593.0</ele><time>2026-04-11T14:38:37.127Z</time></trkpt><trkpt lat="43.1058113" lon="13.0922939"><ele>591.5</ele><time>2026-04-11T14:38:38.128Z</time></trkpt><trkpt lat="43.1058742" lon="13.0923648"><ele>590.0</ele><time>2026-04-11T14:38:39.127Z</time></trkpt><trkpt lat="43.1059092" lon="13.0924538"><ele>588.5</ele><time>2026-04-11T14:38:40.128Z</time></trkpt><trkpt lat="43.1059187" lon="13.0925494"><ele>587.0</ele><time>2026-04-11T14:38:41.129Z</time></trkpt><trkpt lat="43.105897" lon="13.0926456"><ele>585.5</ele><time>2026-04-11T14:38:42.129Z</time></trkpt><trkpt lat="43.1058437" lon="13.092731"><ele>584.0</ele><time>2026-04-11T14:38:43.128Z</time></trkpt><trkpt lat="43.1057799" lon="13.0927891"><ele>583.8333333333333</ele><time>2026-04-11T14:38:44.128Z</time></trkpt><trkpt lat="43.1057143" lon="13.0928589"><ele>583.6666666666666</ele><time>2026-04-11T14:38:45.129Z</time></trkpt><trkpt lat="43.1056778" lon="13.0929408"><ele>583.5</ele><time>2026-04-11T14:38:46.128Z</time></trkpt><trkpt lat="43.1056382" lon="13.0930401"><ele>583.3333333333334</ele><time>2026-04-11T14:38:47.13Z</time></trkpt><trkpt lat="43.1055947" lon="13.0931373"><ele>583.1666666666667</ele><time>2026-04-11T14:38:48.129Z</time></trkpt><trkpt lat="43.1055536" lon="13.0932616"><ele>583.0</ele><time>2026-04-11T14:38:49.128Z</time></trkpt><trkpt lat="43.1055196" lon="13.0933676"><ele>580.1666666666667</ele><time>2026-04-11T14:38:50.128Z</time></trkpt><trkpt lat="43.1055154" lon="13.0934892"><ele>577.3333333333334</ele><time>2026-04-11T14:38:51.129Z</time></trkpt><trkpt lat="43.1054997" lon="13.093613"><ele>574.5</ele><time>2026-04-11T14:38:52.128Z</time></trkpt><trkpt lat="43.1054839" lon="13.0937421"><ele>571.6666666666666</ele><time>2026-04-11T14:38:53.13Z</time></trkpt><trkpt lat="43.1054708" lon="13.0938558"><ele>568.8333333333333</ele><time>2026-04-11T14:38:54.127Z</time></trkpt><trkpt lat="43.1054596" lon="13.0939524"><ele>566.0</ele><time>2026-04-11T14:38:55.129Z</time></trkpt><trkpt lat="43.105446" lon="13.0940565"><ele>563.6666666666666</ele><time>2026-04-11T14:38:56.127Z</time></trkpt><trkpt lat="43.105423" lon="13.0941491"><ele>561.3333333333333</ele><time>2026-04-11T14:38:57.129Z</time></trkpt><trkpt lat="43.1054084" lon="13.0942415"><ele>559.0</ele><time>2026-04-11T14:38:58.127Z</time></trkpt><trkpt lat="43.1054007" lon="13.0943322"><ele>556.6666666666666</ele><time>2026-04-11T14:38:59.128Z</time></trkpt><trkpt lat="43.1054269" lon="13.0944842"><ele>554.3333333333334</ele><time>2026-04-11T14:39:01.128Z</time></trkpt><trkpt lat="43.1054479" lon="13.0945739"><ele>552.0</ele><time>2026-04-11T14:39:02.128Z</time></trkpt><trkpt lat="43.1054778" lon="13.094658"><ele>552.0</ele><time>2026-04-11T14:39:03.127Z</time></trkpt><trkpt lat="43.1055284" lon="13.0947641"><ele>552.0</ele><time>2026-04-11T14:39:04.128Z</time></trkpt><trkpt lat="43.1055834" lon="13.0948786"><ele>552.0</ele><time>2026-04-11T14:39:05.128Z</time></trkpt><trkpt lat="43.1056567" lon="13.0949724"><ele>552.0</ele><time>2026-04-11T14:39:06.129Z</time></trkpt><trkpt lat="43.1057384" lon="13.0950628"><ele>552.0</ele><time>2026-04-11T14:39:07.128Z</time></trkpt><trkpt lat="43.1058141" lon="13.0951424"><ele>551.8333333333334</ele><time>2026-04-11T14:39:08.129Z</time></trkpt><trkpt lat="43.1058797" lon="13.0952114"><ele>551.6666666666666</ele><time>2026-04-11T14:39:09.128Z</time></trkpt><trkpt lat="43.1059372" lon="13.095274"><ele>551.5</ele><time>2026-04-11T14:39:10.128Z</time></trkpt><trkpt lat="43.1060189" lon="13.0953171"><ele>551.3333333333333</ele><time>2026-04-11T14:39:12.127Z</time></trkpt><trkpt lat="43.1061132" lon="13.0952614"><ele>551.1666666666666</ele><time>2026-04-11T14:39:14.127Z</time></trkpt><trkpt lat="43.1061759" lon="13.0952017"><ele>551.0</ele><time>2026-04-11T14:39:15.127Z</time></trkpt><trkpt lat="43.1062393" lon="13.095139"><ele>551.0</ele><time>2026-04-11T14:39:16.128Z</time></trkpt><trkpt lat="43.1063087" lon="13.0950701"><ele>551.0</ele><time>2026-04-11T14:39:17.129Z</time></trkpt><trkpt lat="43.1063814" lon="13.094984"><ele>551.0</ele><time>2026-04-11T14:39:18.129Z</time></trkpt><trkpt lat="43.1064644" lon="13.0948881"><ele>551.0</ele><time>2026-04-11T14:39:19.128Z</time></trkpt><trkpt lat="43.1065465" lon="13.0947851"><ele>551.0</ele><time>2026-04-11T14:39:20.129Z</time></trkpt><trkpt lat="43.1066443" lon="13.0946751"><ele>551.0</ele><time>2026-04-11T14:39:21.129Z</time></trkpt><trkpt lat="43.1067333" lon="13.0945434"><ele>551.0</ele><time>2026-04-11T14:39:22.128Z</time></trkpt><trkpt lat="43.1068289" lon="13.0944019"><ele>551.0</ele><time>2026-04-11T14:39:23.127Z</time></trkpt><trkpt lat="43.106899" lon="13.094257"><ele>551.0</ele><time>2026-04-11T14:39:24.129Z</time></trkpt><trkpt lat="43.1069691" lon="13.0941117"><ele>554.0</ele><time>2026-04-11T14:39:25.128Z</time></trkpt><trkpt lat="43.1070414" lon="13.0939588"><ele>557.0</ele><time>2026-04-11T14:39:26.127Z</time></trkpt><trkpt lat="43.1070971" lon="13.0938045"><ele>560.0</ele><time>2026-04-11T14:39:27.128Z</time></trkpt><trkpt lat="43.1071399" lon="13.0936437"><ele>563.0</ele><time>2026-04-11T14:39:28.128Z</time></trkpt><trkpt lat="43.1071927" lon="13.0935032"><ele>563.0</ele><time>2026-04-11T14:39:29.128Z</time></trkpt><trkpt lat="43.1072611" lon="13.0933605"><ele>563.0</ele><time>2026-04-11T14:39:30.127Z</time></trkpt><trkpt lat="43.1073347" lon="13.093212"><ele>563.0</ele><time>2026-04-11T14:39:31.128Z</time></trkpt><trkpt lat="43.1074166" lon="13.0930516"><ele>563.0</ele><time>2026-04-11T14:39:32.127Z</time></trkpt><trkpt lat="43.1074867" lon="13.0928962"><ele>563.0</ele><time>2026-04-11T14:39:33.128Z</time></trkpt><trkpt lat="43.1075631" lon="13.0927367"><ele>563.0</ele><time>2026-04-11T14:39:34.129Z</time></trkpt><trkpt lat="43.1076334" lon="13.09258"><ele>563.0</ele><time>2026-04-11T14:39:35.129Z</time></trkpt><trkpt lat="43.1076976" lon="13.0924215"><ele>563.0</ele><time>2026-04-11T14:39:36.127Z</time></trkpt><trkpt lat="43.1077674" lon="13.0923172"><ele>563.0</ele><time>2026-04-11T14:39:37.129Z</time></trkpt><trkpt lat="43.1078446" lon="13.0922677"><ele>563.0</ele><time>2026-04-11T14:39:38.127Z</time></trkpt><trkpt lat="43.1079397" lon="13.0922493"><ele>563.0</ele><time>2026-04-11T14:39:39.127Z</time></trkpt><trkpt lat="43.1080575" lon="13.0922181"><ele>563.0</ele><time>2026-04-11T14:39:40.128Z</time></trkpt><trkpt lat="43.1081817" lon="13.0921819"><ele>563.0</ele><time>2026-04-11T14:39:41.129Z</time></trkpt><trkpt lat="43.1083088" lon="13.0921446"><ele>560.8</ele><time>2026-04-11T14:39:42.128Z</time></trkpt><trkpt lat="43.1084152" lon="13.0920884"><ele>558.5999999999999</ele><time>2026-04-11T14:39:43.127Z</time></trkpt><trkpt lat="43.108516" lon="13.0920146"><ele>556.4000000000001</ele><time>2026-04-11T14:39:44.127Z</time></trkpt><trkpt lat="43.1085953" lon="13.0919088"><ele>554.2</ele><time>2026-04-11T14:39:45.128Z</time></trkpt><trkpt lat="43.1086537" lon="13.0918033"><ele>552.0</ele><time>2026-04-11T14:39:46.127Z</time></trkpt><trkpt lat="43.1086907" lon="13.091703"><ele>551.6666666666666</ele><time>2026-04-11T14:39:47.129Z</time></trkpt><trkpt lat="43.1087086" lon="13.0915896"><ele>551.3333333333334</ele><time>2026-04-11T14:39:48.128Z</time></trkpt><trkpt lat="43.1087216" lon="13.0914907"><ele>551.0</ele><time>2026-04-11T14:39:49.128Z</time></trkpt><trkpt lat="43.1087028" lon="13.0913781"><ele>550.6666666666667</ele><time>2026-04-11T14:39:51.128Z</time></trkpt><trkpt lat="43.108639" lon="13.0912913"><ele>550.3333333333334</ele><time>2026-04-11T14:47:24.128Z</time></trkpt><trkpt lat="43.1086541" lon="13.0912002"><ele>550.0</ele><time>2026-04-11T14:48:03.127Z</time></trkpt><trkpt lat="43.1086371" lon="13.0910945"><ele>550.0</ele><time>2026-04-11T14:48:05.127Z</time></trkpt><trkpt lat="43.1086006" lon="13.0909441"><ele>550.0</ele><time>2026-04-11T14:48:07.127Z</time></trkpt><trkpt lat="43.1085605" lon="13.0907895"><ele>550.0</ele><time>2026-04-11T14:48:09.128Z</time></trkpt><trkpt lat="43.1085283" lon="13.0906873"><ele>550.0</ele><time>2026-04-11T14:48:10.129Z</time></trkpt><trkpt lat="43.1084984" lon="13.0905737"><ele>550.0</ele><time>2026-04-11T14:48:11.127Z</time></trkpt><trkpt lat="43.1084702" lon="13.090455"><ele>548.4</ele><time>2026-04-11T14:48:12.127Z</time></trkpt><trkpt lat="43.108447" lon="13.0903573"><ele>546.8</ele><time>2026-04-11T14:48:13.127Z</time></trkpt><trkpt lat="43.1084172" lon="13.0902254"><ele>545.2</ele><time>2026-04-11T14:48:15.127Z</time></trkpt><trkpt lat="43.1084233" lon="13.0901165"><ele>543.6</ele><time>2026-04-11T14:48:17.13Z</time></trkpt><trkpt lat="43.1084736" lon="13.0900118"><ele>542.0</ele><time>2026-04-11T14:48:19.128Z</time></trkpt><trkpt lat="43.1086153" lon="13.0899475"><ele>540.2</ele><time>2026-04-11T14:48:21.127Z</time></trkpt><trkpt lat="43.1087024" lon="13.0899203"><ele>538.4000000000001</ele><time>2026-04-11T14:48:22.127Z</time></trkpt><trkpt lat="43.1087907" lon="13.0898775"><ele>536.5999999999999</ele><time>2026-04-11T14:48:23.129Z</time></trkpt><trkpt lat="43.1088802" lon="13.0898379"><ele>534.8</ele><time>2026-04-11T14:48:24.128Z</time></trkpt><trkpt lat="43.1089725" lon="13.0897952"><ele>533.0</ele><time>2026-04-11T14:48:25.128Z</time></trkpt><trkpt lat="43.1090556" lon="13.0897373"><ele>531.0</ele><time>2026-04-11T14:48:26.128Z</time></trkpt><trkpt lat="43.1091379" lon="13.0896759"><ele>529.0</ele><time>2026-04-11T14:48:27.128Z</time></trkpt><trkpt lat="43.1092392" lon="13.0896213"><ele>527.0</ele><time>2026-04-11T14:48:28.127Z</time></trkpt><trkpt lat="43.1093295" lon="13.0895505"><ele>525.0</ele><time>2026-04-11T14:48:29.128Z</time></trkpt><trkpt lat="43.109429" lon="13.0894831"><ele>523.0</ele><time>2026-04-11T14:48:30.127Z</time></trkpt><trkpt lat="43.1095252" lon="13.0894298"><ele>523.0</ele><time>2026-04-11T14:48:31.129Z</time></trkpt><trkpt lat="43.109632" lon="13.0893793"><ele>523.0</ele><time>2026-04-11T14:48:32.127Z</time></trkpt><trkpt lat="43.1097453" lon="13.0893256"><ele>523.0</ele><time>2026-04-11T14:48:33.128Z</time></trkpt><trkpt lat="43.1098573" lon="13.0892769"><ele>523.0</ele><time>2026-04-11T14:48:34.127Z</time></trkpt><trkpt lat="43.1099554" lon="13.0892102"><ele>520.25</ele><time>2026-04-11T14:48:35.128Z</time></trkpt><trkpt lat="43.1100802" lon="13.0891322"><ele>517.5</ele><time>2026-04-11T14:48:36.128Z</time></trkpt><trkpt lat="43.1102005" lon="13.0890457"><ele>514.75</ele><time>2026-04-11T14:48:37.129Z</time></trkpt><trkpt lat="43.1103196" lon="13.0889841"><ele>512.0</ele><time>2026-04-11T14:48:38.128Z</time></trkpt><trkpt lat="43.1104287" lon="13.0889207"><ele>509.5</ele><time>2026-04-11T14:48:39.128Z</time></trkpt><trkpt lat="43.1105425" lon="13.088841"><ele>507.0</ele><time>2026-04-11T14:48:40.128Z</time></trkpt><trkpt lat="43.110656" lon="13.0887592"><ele>504.5</ele><time>2026-04-11T14:48:41.127Z</time></trkpt><trkpt lat="43.1107489" lon="13.0886663"><ele>502.0</ele><time>2026-04-11T14:48:42.128Z</time></trkpt><trkpt lat="43.110846" lon="13.088581"><ele>501.20000000000005</ele><time>2026-04-11T14:48:43.128Z</time></trkpt><trkpt lat="43.1109399" lon="13.0885055"><ele>500.40000000000003</ele><time>2026-04-11T14:48:44.127Z</time></trkpt><trkpt lat="43.1110286" lon="13.0884107"><ele>499.59999999999997</ele><time>2026-04-11T14:48:45.127Z</time></trkpt><trkpt lat="43.111107" lon="13.0883135"><ele>498.79999999999995</ele><time>2026-04-11T14:48:46.129Z</time></trkpt><trkpt lat="43.1111556" lon="13.0882003"><ele>498.0</ele><time>2026-04-11T14:48:47.128Z</time></trkpt><trkpt lat="43.1112127" lon="13.0880881"><ele>496.2</ele><time>2026-04-11T14:48:48.127Z</time></trkpt><trkpt lat="43.1112654" lon="13.0879753"><ele>494.4</ele><time>2026-04-11T14:48:49.127Z</time></trkpt><trkpt lat="43.1113208" lon="13.0878629"><ele>492.59999999999997</ele><time>2026-04-11T14:48:50.128Z</time></trkpt><trkpt lat="43.1113706" lon="13.0877465"><ele>490.79999999999995</ele><time>2026-04-11T14:48:51.128Z</time></trkpt><trkpt lat="43.1114314" lon="13.0876243"><ele>489.0</ele><time>2026-04-11T14:48:52.127Z</time></trkpt><trkpt lat="43.1114945" lon="13.0875161"><ele>487.0</ele><time>2026-04-11T14:48:53.129Z</time></trkpt><trkpt lat="43.1115559" lon="13.0874085"><ele>485.0</ele><time>2026-04-11T14:48:54.128Z</time></trkpt><trkpt lat="43.1116162" lon="13.0873051"><ele>483.0</ele><time>2026-04-11T14:48:55.128Z</time></trkpt><trkpt lat="43.1116867" lon="13.0871979"><ele>481.0</ele><time>2026-04-11T14:48:56.129Z</time></trkpt><trkpt lat="43.1117633" lon="13.0871299"><ele>479.0</ele><time>2026-04-11T14:48:57.128Z</time></trkpt><trkpt lat="43.1118563" lon="13.0870796"><ele>477.49999999999994</ele><time>2026-04-11T14:48:58.128Z</time></trkpt><trkpt lat="43.1119438" lon="13.087062"><ele>476.0</ele><time>2026-04-11T14:48:59.128Z</time></trkpt><trkpt lat="43.112024" lon="13.0870799"><ele>474.5</ele><time>2026-04-11T14:49:00.127Z</time></trkpt><trkpt lat="43.112104" lon="13.0870984"><ele>473.0</ele><time>2026-04-11T14:49:01.128Z</time></trkpt><trkpt lat="43.1121788" lon="13.0871099"><ele>471.49999999999994</ele><time>2026-04-11T14:49:02.128Z</time></trkpt><trkpt lat="43.1122652" lon="13.0871005"><ele>470.0</ele><time>2026-04-11T14:49:03.127Z</time></trkpt><trkpt lat="43.1123715" lon="13.0870688"><ele>466.25</ele><time>2026-04-11T14:49:04.129Z</time></trkpt><trkpt lat="43.1124922" lon="13.0870373"><ele>462.5</ele><time>2026-04-11T14:49:05.128Z</time></trkpt><trkpt lat="43.1126124" lon="13.0869955"><ele>458.75</ele><time>2026-04-11T14:49:06.128Z</time></trkpt><trkpt lat="43.112744" lon="13.0869643"><ele>455.0</ele><time>2026-04-11T14:49:07.127Z</time></trkpt><trkpt lat="43.1128563" lon="13.0869609"><ele>455.0</ele><time>2026-04-11T14:49:08.129Z</time></trkpt><trkpt lat="43.1129652" lon="13.0869613"><ele>455.0</ele><time>2026-04-11T14:49:09.127Z</time></trkpt><trkpt lat="43.1130772" lon="13.0869929"><ele>455.0</ele><time>2026-04-11T14:49:10.127Z</time></trkpt><trkpt lat="43.1131846" lon="13.0870376"><ele>455.0</ele><time>2026-04-11T14:49:11.127Z</time></trkpt><trkpt lat="43.1132796" lon="13.0870833"><ele>455.0</ele><time>2026-04-11T14:49:12.129Z</time></trkpt><trkpt lat="43.1133545" lon="13.0871172"><ele>453.3333333333333</ele><time>2026-04-11T14:49:13.128Z</time></trkpt><trkpt lat="43.1134592" lon="13.0871233"><ele>451.66666666666663</ele><time>2026-04-11T14:49:15.128Z</time></trkpt><trkpt lat="43.113547" lon="13.0870358"><ele>450.0</ele><time>2026-04-11T14:49:17.127Z</time></trkpt><trkpt lat="43.1136026" lon="13.086982"><ele>448.33333333333337</ele><time>2026-04-11T14:49:18.127Z</time></trkpt><trkpt lat="43.1136797" lon="13.0869592"><ele>446.6666666666667</ele><time>2026-04-11T14:49:19.128Z</time></trkpt><trkpt lat="43.1137646" lon="13.0869698"><ele>445.0</ele><time>2026-04-11T14:49:20.129Z</time></trkpt><trkpt lat="43.113852" lon="13.0869949"><ele>445.00000000000006</ele><time>2026-04-11T14:49:21.128Z</time></trkpt><trkpt lat="43.1139257" lon="13.0870351"><ele>445.0</ele><time>2026-04-11T14:49:22.129Z</time></trkpt><trkpt lat="43.1140082" lon="13.0871108"><ele>445.0</ele><time>2026-04-11T14:49:23.127Z</time></trkpt><trkpt lat="43.1140883" lon="13.0871738"><ele>445.0</ele><time>2026-04-11T14:49:24.127Z</time></trkpt><trkpt lat="43.1141714" lon="13.08723"><ele>445.00000000000006</ele><time>2026-04-11T14:49:25.128Z</time></trkpt><trkpt lat="43.1142469" lon="13.0872832"><ele>445.0</ele><time>2026-04-11T14:49:26.128Z</time></trkpt><trkpt lat="43.1143226" lon="13.0873389"><ele>443.1666666666667</ele><time>2026-04-11T14:49:27.127Z</time></trkpt><trkpt lat="43.1144021" lon="13.0873649"><ele>441.33333333333337</ele><time>2026-04-11T14:49:28.127Z</time></trkpt><trkpt lat="43.114485" lon="13.08738"><ele>439.5</ele><time>2026-04-11T14:49:29.128Z</time></trkpt><trkpt lat="43.1145654" lon="13.0873573"><ele>437.66666666666663</ele><time>2026-04-11T14:49:30.128Z</time></trkpt><trkpt lat="43.1146434" lon="13.0873167"><ele>435.8333333333333</ele><time>2026-04-11T14:49:31.129Z</time></trkpt><trkpt lat="43.1147066" lon="13.087255"><ele>434.0</ele><time>2026-04-11T14:49:32.129Z</time></trkpt><trkpt lat="43.1147661" lon="13.087169"><ele>434.0</ele><time>2026-04-11T14:49:33.128Z</time></trkpt><trkpt lat="43.1148219" lon="13.087067"><ele>434.0</ele><time>2026-04-11T14:49:34.127Z</time></trkpt><trkpt lat="43.1148648" lon="13.086953"><ele>434.0</ele><time>2026-04-11T14:49:35.127Z</time></trkpt><trkpt lat="43.114909" lon="13.0868409"><ele>434.0</ele><time>2026-04-11T14:49:36.128Z</time></trkpt><trkpt lat="43.1149562" lon="13.0867264"><ele>434.0</ele><time>2026-04-11T14:49:37.127Z</time></trkpt><trkpt lat="43.1149929" lon="13.0866115"><ele>430.2</ele><time>2026-04-11T14:49:38.128Z</time></trkpt><trkpt lat="43.1150334" lon="13.0864838"><ele>426.4</ele><time>2026-04-11T14:49:39.128Z</time></trkpt><trkpt lat="43.1150839" lon="13.0863579"><ele>422.6</ele><time>2026-04-11T14:49:40.128Z</time></trkpt><trkpt lat="43.1151439" lon="13.0862351"><ele>418.8</ele><time>2026-04-11T14:49:41.128Z</time></trkpt><trkpt lat="43.1152235" lon="13.0861136"><ele>415.0</ele><time>2026-04-11T14:49:42.127Z</time></trkpt><trkpt lat="43.1153117" lon="13.0859887"><ele>415.0</ele><time>2026-04-11T14:49:43.127Z</time></trkpt><trkpt lat="43.1154176" lon="13.0858563"><ele>415.0</ele><time>2026-04-11T14:49:44.127Z</time></trkpt><trkpt lat="43.115522" lon="13.0857342"><ele>415.0</ele><time>2026-04-11T14:49:45.127Z</time></trkpt><trkpt lat="43.1156331" lon="13.0855967"><ele>415.0</ele><time>2026-04-11T14:49:46.128Z</time></trkpt><trkpt lat="43.1157455" lon="13.085465"><ele>415.5</ele><time>2026-04-11T14:49:47.129Z</time></trkpt><trkpt lat="43.115859" lon="13.0853433"><ele>416.0</ele><time>2026-04-11T14:49:48.127Z</time></trkpt><trkpt lat="43.1159707" lon="13.0852211"><ele>416.5</ele><time>2026-04-11T14:49:49.128Z</time></trkpt><trkpt lat="43.116077" lon="13.0851165"><ele>417.0</ele><time>2026-04-11T14:49:50.128Z</time></trkpt><trkpt lat="43.116177" lon="13.0850156"><ele>416.25</ele><time>2026-04-11T14:49:51.128Z</time></trkpt><trkpt lat="43.1162878" lon="13.0849155"><ele>415.5</ele><time>2026-04-11T14:49:52.129Z</time></trkpt><trkpt lat="43.1163992" lon="13.084823"><ele>414.75</ele><time>2026-04-11T14:49:53.128Z</time></trkpt><trkpt lat="43.11651" lon="13.0847352"><ele>414.0</ele><time>2026-04-11T14:49:54.129Z</time></trkpt><trkpt lat="43.116629" lon="13.0846403"><ele>414.0</ele><time>2026-04-11T14:49:55.128Z</time></trkpt><trkpt lat="43.1167517" lon="13.0845423"><ele>414.0</ele><time>2026-04-11T14:49:56.128Z</time></trkpt><trkpt lat="43.1168802" lon="13.0844468"><ele>414.0</ele><time>2026-04-11T14:49:57.129Z</time></trkpt><trkpt lat="43.1170046" lon="13.0843542"><ele>414.0</ele><time>2026-04-11T14:49:58.129Z</time></trkpt><trkpt lat="43.1171284" lon="13.084254"><ele>414.0</ele><time>2026-04-11T14:49:59.129Z</time></trkpt><trkpt lat="43.1172514" lon="13.0841574"><ele>414.0</ele><time>2026-04-11T14:50:00.128Z</time></trkpt><trkpt lat="43.1173712" lon="13.0840691"><ele>414.0</ele><time>2026-04-11T14:50:01.127Z</time></trkpt><trkpt lat="43.1174846" lon="13.0839847"><ele>414.0</ele><time>2026-04-11T14:50:02.128Z</time></trkpt><trkpt lat="43.1175914" lon="13.0839083"><ele>413.79999999999995</ele><time>2026-04-11T14:50:03.129Z</time></trkpt><trkpt lat="43.117695" lon="13.083844"><ele>413.59999999999997</ele><time>2026-04-11T14:50:04.128Z</time></trkpt><trkpt lat="43.1177832" lon="13.0838024"><ele>413.4</ele><time>2026-04-11T14:50:05.129Z</time></trkpt><trkpt lat="43.1178677" lon="13.083781"><ele>413.2</ele><time>2026-04-11T14:50:06.128Z</time></trkpt><trkpt lat="43.1179294" lon="13.083827"><ele>413.0</ele><time>2026-04-11T14:50:07.128Z</time></trkpt><trkpt lat="43.1180144" lon="13.0839109"><ele>413.0</ele><time>2026-04-11T14:50:09.129Z</time></trkpt><trkpt lat="43.118054" lon="13.0839784"><ele>413.0</ele><time>2026-04-11T14:50:11.127Z</time></trkpt><trkpt lat="43.118115" lon="13.084005"><ele>413.0</ele><time>2026-04-11T14:50:13.127Z</time></trkpt><trkpt lat="43.1181887" lon="13.0839283"><ele>413.0</ele><time>2026-04-11T14:50:15.128Z</time></trkpt><trkpt lat="43.1182715" lon="13.083792"><ele>413.0</ele><time>2026-04-11T14:50:17.128Z</time></trkpt><trkpt lat="43.1183411" lon="13.083675"><ele>413.16666666666663</ele><time>2026-04-11T14:50:19.128Z</time></trkpt><trkpt lat="43.118391" lon="13.0835828"><ele>413.3333333333333</ele><time>2026-04-11T14:50:21.127Z</time></trkpt><trkpt lat="43.1184373" lon="13.0834904"><ele>413.5</ele><time>2026-04-11T14:50:23.127Z</time></trkpt><trkpt lat="43.1184839" lon="13.0834217"><ele>413.66666666666663</ele><time>2026-04-11T14:50:25.128Z</time></trkpt><trkpt lat="43.1185357" lon="13.0833346"><ele>413.8333333333333</ele><time>2026-04-11T14:50:27.129Z</time></trkpt><trkpt lat="43.1185779" lon="13.0832602"><ele>414.0</ele><time>2026-04-11T14:50:28.127Z</time></trkpt><trkpt lat="43.1186356" lon="13.0831715"><ele>414.0</ele><time>2026-04-11T14:50:29.129Z</time></trkpt><trkpt lat="43.1187181" lon="13.0830863"><ele>414.0</ele><time>2026-04-11T14:50:30.128Z</time></trkpt><trkpt lat="43.1188204" lon="13.0830124"><ele>414.0</ele><time>2026-04-11T14:50:31.128Z</time></trkpt><trkpt lat="43.1189435" lon="13.0829448"><ele>414.0</ele><time>2026-04-11T14:50:32.127Z</time></trkpt><trkpt lat="43.1190853" lon="13.0828959"><ele>414.66666666666663</ele><time>2026-04-11T14:50:33.128Z</time></trkpt><trkpt lat="43.1192429" lon="13.0828625"><ele>415.3333333333333</ele><time>2026-04-11T14:50:34.128Z</time></trkpt><trkpt lat="43.1194018" lon="13.0828335"><ele>416.0</ele><time>2026-04-11T14:50:35.128Z</time></trkpt><trkpt lat="43.1195675" lon="13.082807"><ele>416.0</ele><time>2026-04-11T14:50:36.128Z</time></trkpt><trkpt lat="43.1197354" lon="13.0827841"><ele>416.0</ele><time>2026-04-11T14:50:37.127Z</time></trkpt><trkpt lat="43.1199055" lon="13.0827669"><ele>416.0</ele><time>2026-04-11T14:50:38.128Z</time></trkpt><trkpt lat="43.1200853" lon="13.0827518"><ele>417.3333333333333</ele><time>2026-04-11T14:50:39.127Z</time></trkpt><trkpt lat="43.1202651" lon="13.0827419"><ele>418.66666666666663</ele><time>2026-04-11T14:50:40.128Z</time></trkpt><trkpt lat="43.1204435" lon="13.0827285"><ele>420.0</ele><time>2026-04-11T14:50:41.127Z</time></trkpt><trkpt lat="43.1206245" lon="13.0827143"><ele>421.33333333333337</ele><time>2026-04-11T14:50:42.127Z</time></trkpt><trkpt lat="43.1208095" lon="13.0826949"><ele>422.6666666666667</ele><time>2026-04-11T14:50:43.128Z</time></trkpt><trkpt lat="43.1209939" lon="13.082684"><ele>424.0</ele><time>2026-04-11T14:50:44.129Z</time></trkpt><trkpt lat="43.1211818" lon="13.0826843"><ele>424.0</ele><time>2026-04-11T14:50:45.127Z</time></trkpt><trkpt lat="43.1213694" lon="13.0826905"><ele>424.0</ele><time>2026-04-11T14:50:46.128Z</time></trkpt><trkpt lat="43.1215657" lon="13.0826896"><ele>424.0</ele><time>2026-04-11T14:50:47.127Z</time></trkpt><trkpt lat="43.1217575" lon="13.0826931"><ele>424.33333333333337</ele><time>2026-04-11T14:50:48.127Z</time></trkpt><trkpt lat="43.1219526" lon="13.0827014"><ele>424.66666666666663</ele><time>2026-04-11T14:50:49.128Z</time></trkpt><trkpt lat="43.12215" lon="13.0827033"><ele>425.0</ele><time>2026-04-11T14:50:50.128Z</time></trkpt><trkpt lat="43.1223488" lon="13.0826946"><ele>426.0</ele><time>2026-04-11T14:50:51.128Z</time></trkpt><trkpt lat="43.1225488" lon="13.0826673"><ele>427.0</ele><time>2026-04-11T14:50:52.128Z</time></trkpt><trkpt lat="43.1227597" lon="13.0826314"><ele>428.0</ele><time>2026-04-11T14:50:53.127Z</time></trkpt><trkpt lat="43.1229788" lon="13.082598"><ele>428.0</ele><time>2026-04-11T14:50:54.128Z</time></trkpt><trkpt lat="43.1231956" lon="13.0825641"><ele>428.0</ele><time>2026-04-11T14:50:55.128Z</time></trkpt><trkpt lat="43.1234155" lon="13.0825158"><ele>428.0</ele><time>2026-04-11T14:50:56.129Z</time></trkpt><trkpt lat="43.1236349" lon="13.0824747"><ele>427.66666666666663</ele><time>2026-04-11T14:50:57.127Z</time></trkpt><trkpt lat="43.1238483" lon="13.0824325"><ele>427.33333333333337</ele><time>2026-04-11T14:50:58.128Z</time></trkpt><trkpt lat="43.1240487" lon="13.0823916"><ele>427.0</ele><time>2026-04-11T14:50:59.128Z</time></trkpt><trkpt lat="43.1242249" lon="13.0823463"><ele>426.25</ele><time>2026-04-11T14:51:00.128Z</time></trkpt><trkpt lat="43.1243808" lon="13.0822816"><ele>425.5</ele><time>2026-04-11T14:51:01.128Z</time></trkpt><trkpt lat="43.1245026" lon="13.0822172"><ele>424.75</ele><time>2026-04-11T14:51:02.128Z</time></trkpt><trkpt lat="43.1245862" lon="13.0821678"><ele>424.0</ele><time>2026-04-11T14:51:03.128Z</time></trkpt><trkpt lat="43.1246457" lon="13.082131"><ele>424.0</ele><time>2026-04-11T14:51:04.128Z</time></trkpt><trkpt lat="43.1247151" lon="13.0821436"><ele>424.0</ele><time>2026-04-11T14:51:06.127Z</time></trkpt><trkpt lat="43.1247083" lon="13.0822315"><ele>424.0</ele><time>2026-04-11T14:51:08.129Z</time></trkpt><trkpt lat="43.1246516" lon="13.0823897"><ele>424.0</ele><time>2026-04-11T14:51:10.128Z</time></trkpt><trkpt lat="43.1246073" lon="13.0824939"><ele>424.0</ele><time>2026-04-11T14:51:11.127Z</time></trkpt><trkpt lat="43.124567" lon="13.0826206"><ele>425.25</ele><time>2026-04-11T14:51:12.128Z</time></trkpt><trkpt lat="43.1245241" lon="13.0827687"><ele>426.5</ele><time>2026-04-11T14:51:13.127Z</time></trkpt><trkpt lat="43.1244859" lon="13.082951"><ele>427.75</ele><time>2026-04-11T14:51:14.127Z</time></trkpt><trkpt lat="43.1244301" lon="13.0831388"><ele>429.0</ele><time>2026-04-11T14:51:15.128Z</time></trkpt><trkpt lat="43.1243719" lon="13.0833277"><ele>431.66666666666663</ele><time>2026-04-11T14:51:16.129Z</time></trkpt><trkpt lat="43.1243141" lon="13.0835295"><ele>434.3333333333333</ele><time>2026-04-11T14:51:17.127Z</time></trkpt><trkpt lat="43.1242472" lon="13.0837306"><ele>437.0</ele><time>2026-04-11T14:51:18.128Z</time></trkpt><trkpt lat="43.1241805" lon="13.0839265"><ele>439.66666666666663</ele><time>2026-04-11T14:51:19.128Z</time></trkpt><trkpt lat="43.1241102" lon="13.0841299"><ele>442.33333333333337</ele><time>2026-04-11T14:51:20.128Z</time></trkpt><trkpt lat="43.124045" lon="13.0843358"><ele>445.0</ele><time>2026-04-11T14:51:21.127Z</time></trkpt><trkpt lat="43.1239861" lon="13.084539"><ele>445.0</ele><time>2026-04-11T14:51:22.128Z</time></trkpt><trkpt lat="43.123929" lon="13.0847516"><ele>445.0</ele><time>2026-04-11T14:51:23.128Z</time></trkpt><trkpt lat="43.1238704" lon="13.084966"><ele>445.0</ele><time>2026-04-11T14:51:24.127Z</time></trkpt><trkpt lat="43.1238103" lon="13.0851758"><ele>447.6666666666667</ele><time>2026-04-11T14:51:25.128Z</time></trkpt><trkpt lat="43.123742" lon="13.0853859"><ele>450.33333333333337</ele><time>2026-04-11T14:51:26.127Z</time></trkpt><trkpt lat="43.1236662" lon="13.0855925"><ele>453.0</ele><time>2026-04-11T14:51:27.128Z</time></trkpt><trkpt lat="43.1235766" lon="13.0857946"><ele>455.66666666666663</ele><time>2026-04-11T14:51:28.128Z</time></trkpt><trkpt lat="43.1234776" lon="13.0859953"><ele>458.3333333333333</ele><time>2026-04-11T14:51:29.128Z</time></trkpt><trkpt lat="43.1233851" lon="13.0861899"><ele>461.0</ele><time>2026-04-11T14:51:30.128Z</time></trkpt><trkpt lat="43.1232967" lon="13.0863852"><ele>460.3333333333333</ele><time>2026-04-11T14:51:31.129Z</time></trkpt><trkpt lat="43.1232237" lon="13.0865783"><ele>459.66666666666663</ele><time>2026-04-11T14:51:32.127Z</time></trkpt><trkpt lat="43.1231757" lon="13.0867711"><ele>459.0</ele><time>2026-04-11T14:51:33.128Z</time></trkpt><trkpt lat="43.1231442" lon="13.0869705"><ele>462.33333333333337</ele><time>2026-04-11T14:51:34.127Z</time></trkpt><trkpt lat="43.123099" lon="13.0871678"><ele>465.6666666666667</ele><time>2026-04-11T14:51:35.128Z</time></trkpt><trkpt lat="43.1230438" lon="13.0873653"><ele>469.0</ele><time>2026-04-11T14:51:36.127Z</time></trkpt><trkpt lat="43.1229877" lon="13.087565"><ele>471.33333333333337</ele><time>2026-04-11T14:51:37.128Z</time></trkpt><trkpt lat="43.1229333" lon="13.087769"><ele>473.66666666666663</ele><time>2026-04-11T14:51:38.127Z</time></trkpt><trkpt lat="43.1228636" lon="13.0879554"><ele>476.0</ele><time>2026-04-11T14:51:39.128Z</time></trkpt><trkpt lat="43.1227995" lon="13.0881337"><ele>478.0</ele><time>2026-04-11T14:51:40.128Z</time></trkpt><trkpt lat="43.1227234" lon="13.0882883"><ele>480.0</ele><time>2026-04-11T14:51:41.128Z</time></trkpt><trkpt lat="43.1226624" lon="13.0884367"><ele>482.0</ele><time>2026-04-11T14:51:42.128Z</time></trkpt><trkpt lat="43.122622" lon="13.0886095"><ele>484.0</ele><time>2026-04-11T14:51:43.128Z</time></trkpt><trkpt lat="43.1226039" lon="13.0888055"><ele>484.0</ele><time>2026-04-11T14:51:44.128Z</time></trkpt><trkpt lat="43.1225836" lon="13.0890005"><ele>484.0</ele><time>2026-04-11T14:51:45.128Z</time></trkpt><trkpt lat="43.1225804" lon="13.0891923"><ele>484.0</ele><time>2026-04-11T14:51:46.128Z</time></trkpt><trkpt lat="43.1225716" lon="13.0893329"><ele>484.0</ele><time>2026-04-11T14:51:47.127Z</time></trkpt><trkpt lat="43.1225435" lon="13.0894537"><ele>485.79999999999995</ele><time>2026-04-11T14:51:48.127Z</time></trkpt><trkpt lat="43.1224835" lon="13.0895366"><ele>487.59999999999997</ele><time>2026-04-11T14:51:49.128Z</time></trkpt><trkpt lat="43.1223957" lon="13.0895897"><ele>489.4</ele><time>2026-04-11T14:51:50.127Z</time></trkpt><trkpt lat="43.1222849" lon="13.0896284"><ele>491.2</ele><time>2026-04-11T14:51:51.128Z</time></trkpt><trkpt lat="43.1221716" lon="13.0896566"><ele>493.0</ele><time>2026-04-11T14:51:52.128Z</time></trkpt><trkpt lat="43.1220499" lon="13.0896957"><ele>493.75</ele><time>2026-04-11T14:51:53.128Z</time></trkpt><trkpt lat="43.1219187" lon="13.0897443"><ele>494.5</ele><time>2026-04-11T14:51:54.129Z</time></trkpt><trkpt lat="43.1217858" lon="13.0897923"><ele>495.25</ele><time>2026-04-11T14:51:55.128Z</time></trkpt><trkpt lat="43.1216548" lon="13.0898491"><ele>496.0</ele><time>2026-04-11T14:51:56.127Z</time></trkpt><trkpt lat="43.1215282" lon="13.0899298"><ele>499.5</ele><time>2026-04-11T14:51:57.128Z</time></trkpt><trkpt lat="43.121401" lon="13.0900234"><ele>503.0</ele><time>2026-04-11T14:51:58.128Z</time></trkpt><trkpt lat="43.1212797" lon="13.0901182"><ele>506.5</ele><time>2026-04-11T14:51:59.127Z</time></trkpt><trkpt lat="43.121165" lon="13.0902058"><ele>510.0</ele><time>2026-04-11T14:52:00.128Z</time></trkpt><trkpt lat="43.1210603" lon="13.0902821"><ele>510.0</ele><time>2026-04-11T14:52:01.128Z</time></trkpt><trkpt lat="43.1209578" lon="13.0903659"><ele>510.0</ele><time>2026-04-11T14:52:02.128Z</time></trkpt><trkpt lat="43.120861" lon="13.0904549"><ele>510.0</ele><time>2026-04-11T14:52:03.128Z</time></trkpt><trkpt lat="43.1207869" lon="13.0905313"><ele>510.0</ele><time>2026-04-11T14:52:04.128Z</time></trkpt><trkpt lat="43.1207533" lon="13.0906141"><ele>510.0</ele><time>2026-04-11T14:52:05.129Z</time></trkpt><trkpt lat="43.1207645" lon="13.0907751"><ele>513.75</ele><time>2026-04-11T14:52:07.127Z</time></trkpt><trkpt lat="43.1208783" lon="13.0908299"><ele>517.5</ele><time>2026-04-11T14:52:08.128Z</time></trkpt><trkpt lat="43.1209856" lon="13.0908803"><ele>521.25</ele><time>2026-04-11T14:52:09.128Z</time></trkpt><trkpt lat="43.1211026" lon="13.0909327"><ele>525.0</ele><time>2026-04-11T14:52:10.128Z</time></trkpt><trkpt lat="43.1212289" lon="13.0910007"><ele>525.0</ele><time>2026-04-11T14:52:11.128Z</time></trkpt><trkpt lat="43.1213696" lon="13.0910791"><ele>525.0</ele><time>2026-04-11T14:52:12.127Z</time></trkpt><trkpt lat="43.1215065" lon="13.0911598"><ele>525.0</ele><time>2026-04-11T14:52:13.129Z</time></trkpt><trkpt lat="43.1216547" lon="13.0912398"><ele>525.0</ele><time>2026-04-11T14:52:14.128Z</time></trkpt><trkpt lat="43.1218047" lon="13.0913155"><ele>525.0</ele><time>2026-04-11T14:52:15.127Z</time></trkpt><trkpt lat="43.1219388" lon="13.0913863"><ele>525.0</ele><time>2026-04-11T14:52:16.128Z</time></trkpt><trkpt lat="43.1220357" lon="13.0914521"><ele>525.0</ele><time>2026-04-11T14:52:17.127Z</time></trkpt><trkpt lat="43.1220972" lon="13.0915411"><ele>528.6</ele><time>2026-04-11T14:52:18.128Z</time></trkpt><trkpt lat="43.1221161" lon="13.0916399"><ele>532.2</ele><time>2026-04-11T14:52:19.128Z</time></trkpt><trkpt lat="43.1220835" lon="13.0917363"><ele>535.8</ele><time>2026-04-11T14:52:20.127Z</time></trkpt><trkpt lat="43.1220138" lon="13.0918252"><ele>539.4</ele><time>2026-04-11T14:52:21.128Z</time></trkpt><trkpt lat="43.1219067" lon="13.0919045"><ele>543.0</ele><time>2026-04-11T14:52:22.129Z</time></trkpt><trkpt lat="43.1217983" lon="13.0919917"><ele>543.0</ele><time>2026-04-11T14:52:23.127Z</time></trkpt><trkpt lat="43.1216767" lon="13.0920844"><ele>543.0</ele><time>2026-04-11T14:52:24.129Z</time></trkpt><trkpt lat="43.121576" lon="13.0921626"><ele>543.0</ele><time>2026-04-11T14:52:25.127Z</time></trkpt><trkpt lat="43.1214978" lon="13.0922436"><ele>543.0</ele><time>2026-04-11T14:52:26.128Z</time></trkpt><trkpt lat="43.121466" lon="13.0923342"><ele>543.0</ele><time>2026-04-11T14:52:27.127Z</time></trkpt><trkpt lat="43.1214728" lon="13.0924362"><ele>543.8</ele><time>2026-04-11T14:52:28.127Z</time></trkpt><trkpt lat="43.121507" lon="13.0925232"><ele>544.5999999999999</ele><time>2026-04-11T14:52:29.127Z</time></trkpt><trkpt lat="43.1215547" lon="13.0926321"><ele>545.4000000000001</ele><time>2026-04-11T14:52:30.128Z</time></trkpt><trkpt lat="43.1216201" lon="13.0927617"><ele>546.2</ele><time>2026-04-11T14:52:31.128Z</time></trkpt><trkpt lat="43.1216843" lon="13.092894"><ele>547.0</ele><time>2026-04-11T14:52:32.127Z</time></trkpt><trkpt lat="43.1217433" lon="13.0930221"><ele>548.8000000000001</ele><time>2026-04-11T14:52:33.128Z</time></trkpt><trkpt lat="43.1217829" lon="13.0931356"><ele>550.6</ele><time>2026-04-11T14:52:34.127Z</time></trkpt><trkpt lat="43.1218275" lon="13.0932533"><ele>552.4000000000001</ele><time>2026-04-11T14:52:35.127Z</time></trkpt><trkpt lat="43.1218639" lon="13.0933764"><ele>554.2</ele><time>2026-04-11T14:52:36.128Z</time></trkpt><trkpt lat="43.121884" lon="13.09351"><ele>556.0</ele><time>2026-04-11T14:52:37.127Z</time></trkpt><trkpt lat="43.1218772" lon="13.0936528"><ele>558.5</ele><time>2026-04-11T14:52:38.128Z</time></trkpt><trkpt lat="43.1218611" lon="13.0938071"><ele>561.0</ele><time>2026-04-11T14:52:39.127Z</time></trkpt><trkpt lat="43.1218099" lon="13.0939835"><ele>563.5</ele><time>2026-04-11T14:52:40.129Z</time></trkpt><trkpt lat="43.1217604" lon="13.0941488"><ele>566.0</ele><time>2026-04-11T14:52:41.127Z</time></trkpt><trkpt lat="43.1217037" lon="13.0943011"><ele>569.0</ele><time>2026-04-11T14:52:42.127Z</time></trkpt><trkpt lat="43.1216468" lon="13.0944576"><ele>572.0</ele><time>2026-04-11T14:52:43.129Z</time></trkpt><trkpt lat="43.1216445" lon="13.0946093"><ele>575.0</ele><time>2026-04-11T14:52:44.127Z</time></trkpt><trkpt lat="43.1216586" lon="13.0947669"><ele>578.0</ele><time>2026-04-11T14:52:45.128Z</time></trkpt><trkpt lat="43.1217051" lon="13.0949217"><ele>580.0</ele><time>2026-04-11T14:52:46.128Z</time></trkpt><trkpt lat="43.1217767" lon="13.0950763"><ele>582.0</ele><time>2026-04-11T14:52:47.128Z</time></trkpt><trkpt lat="43.1218597" lon="13.0952321"><ele>584.0</ele><time>2026-04-11T14:52:48.127Z</time></trkpt><trkpt lat="43.1219448" lon="13.0953934"><ele>586.0</ele><time>2026-04-11T14:52:49.127Z</time></trkpt><trkpt lat="43.1220259" lon="13.0955651"><ele>586.0</ele><time>2026-04-11T14:52:50.129Z</time></trkpt><trkpt lat="43.1220982" lon="13.0957179"><ele>586.0</ele><time>2026-04-11T14:52:51.128Z</time></trkpt><trkpt lat="43.1221291" lon="13.0958459"><ele>586.0</ele><time>2026-04-11T14:52:52.128Z</time></trkpt><trkpt lat="43.1221192" lon="13.0959567"><ele>586.0</ele><time>2026-04-11T14:52:53.127Z</time></trkpt><trkpt lat="43.1220824" lon="13.0960763"><ele>586.0</ele><time>2026-04-11T14:52:55.128Z</time></trkpt><trkpt lat="43.122119" lon="13.0961875"><ele>587.4</ele><time>2026-04-11T14:52:59.128Z</time></trkpt><trkpt lat="43.1222412" lon="13.0962285"><ele>588.8</ele><time>2026-04-11T14:53:01.128Z</time></trkpt><trkpt lat="43.1223195" lon="13.096262"><ele>590.1999999999999</ele><time>2026-04-11T14:53:02.128Z</time></trkpt><trkpt lat="43.1223992" lon="13.0962945"><ele>591.6</ele><time>2026-04-11T14:53:03.128Z</time></trkpt><trkpt lat="43.1224818" lon="13.0963317"><ele>593.0</ele><time>2026-04-11T14:53:04.127Z</time></trkpt><trkpt lat="43.1225668" lon="13.0963975"><ele>593.1666666666666</ele><time>2026-04-11T14:53:05.129Z</time></trkpt><trkpt lat="43.1226634" lon="13.0964804"><ele>593.3333333333333</ele><time>2026-04-11T14:53:06.129Z</time></trkpt><trkpt lat="43.122741" lon="13.0965554"><ele>593.5</ele><time>2026-04-11T14:53:07.127Z</time></trkpt><trkpt lat="43.1227891" lon="13.0966233"><ele>593.6666666666666</ele><time>2026-04-11T14:53:08.127Z</time></trkpt><trkpt lat="43.122841" lon="13.0966844"><ele>593.8333333333334</ele><time>2026-04-11T14:53:09.128Z</time></trkpt><trkpt lat="43.1228787" lon="13.0967619"><ele>594.0</ele><time>2026-04-11T14:53:11.129Z</time></trkpt><trkpt lat="43.1228612" lon="13.0968586"><ele>597.8</ele><time>2026-04-11T14:53:14.128Z</time></trkpt><trkpt lat="43.1227393" lon="13.0968477"><ele>601.5999999999999</ele><time>2026-04-11T14:53:17.128Z</time></trkpt><trkpt lat="43.1226493" lon="13.0968222"><ele>605.4</ele><time>2026-04-11T14:53:18.127Z</time></trkpt><trkpt lat="43.1225807" lon="13.0968172"><ele>609.1999999999999</ele><time>2026-04-11T14:53:19.129Z</time></trkpt><trkpt lat="43.1225025" lon="13.0968268"><ele>613.0</ele><time>2026-04-11T14:53:20.127Z</time></trkpt><trkpt lat="43.1224032" lon="13.0968716"><ele>612.0</ele><time>2026-04-11T14:53:21.129Z</time></trkpt><trkpt lat="43.1223046" lon="13.0969139"><ele>611.0</ele><time>2026-04-11T14:53:22.128Z</time></trkpt><trkpt lat="43.1221994" lon="13.0969683"><ele>610.0</ele><time>2026-04-11T14:53:23.128Z</time></trkpt><trkpt lat="43.1221144" lon="13.0970293"><ele>609.0</ele><time>2026-04-11T14:53:24.127Z</time></trkpt><trkpt lat="43.1220366" lon="13.0970948"><ele>608.0</ele><time>2026-04-11T14:53:25.128Z</time></trkpt><trkpt lat="43.1219682" lon="13.0971703"><ele>608.0</ele><time>2026-04-11T14:53:26.129Z</time></trkpt><trkpt lat="43.1219229" lon="13.0972481"><ele>608.0</ele><time>2026-04-11T14:53:27.126Z</time></trkpt><trkpt lat="43.1218883" lon="13.0973348"><ele>608.0</ele><time>2026-04-11T14:53:28.128Z</time></trkpt><trkpt lat="43.1218675" lon="13.0974374"><ele>608.0</ele><time>2026-04-11T14:53:29.127Z</time></trkpt><trkpt lat="43.121858" lon="13.0975613"><ele>608.0</ele><time>2026-04-11T14:53:30.128Z</time></trkpt><trkpt lat="43.1218616" lon="13.0976777"><ele>608.0</ele><time>2026-04-11T14:53:31.128Z</time></trkpt><trkpt lat="43.1218653" lon="13.0978"><ele>611.1999999999999</ele><time>2026-04-11T14:53:32.128Z</time></trkpt><trkpt lat="43.1218751" lon="13.0979247"><ele>614.4</ele><time>2026-04-11T14:53:33.128Z</time></trkpt><trkpt lat="43.1218829" lon="13.0980553"><ele>617.5999999999999</ele><time>2026-04-11T14:53:34.128Z</time></trkpt><trkpt lat="43.1218943" lon="13.098194"><ele>620.8</ele><time>2026-04-11T14:53:35.128Z</time></trkpt><trkpt lat="43.1219133" lon="13.098327"><ele>624.0</ele><time>2026-04-11T14:53:36.127Z</time></trkpt><trkpt lat="43.1219434" lon="13.0984302"><ele>624.5</ele><time>2026-04-11T14:53:37.128Z</time></trkpt><trkpt lat="43.1219944" lon="13.0985147"><ele>625.0</ele><time>2026-04-11T14:53:38.129Z</time></trkpt><trkpt lat="43.1220667" lon="13.0985759"><ele>625.5</ele><time>2026-04-11T14:53:39.128Z</time></trkpt><trkpt lat="43.1221488" lon="13.0986092"><ele>626.0</ele><time>2026-04-11T14:53:40.127Z</time></trkpt><trkpt lat="43.1222343" lon="13.0986082"><ele>626.5</ele><time>2026-04-11T14:53:41.128Z</time></trkpt><trkpt lat="43.1223285" lon="13.0985838"><ele>627.0</ele><time>2026-04-11T14:53:42.127Z</time></trkpt><trkpt lat="43.122425" lon="13.0985469"><ele>629.8</ele><time>2026-04-11T14:53:43.127Z</time></trkpt><trkpt lat="43.1225291" lon="13.0984992"><ele>632.6</ele><time>2026-04-11T14:53:44.128Z</time></trkpt><trkpt lat="43.1226217" lon="13.0984471"><ele>635.4</ele><time>2026-04-11T14:53:45.127Z</time></trkpt><trkpt lat="43.1227179" lon="13.0984071"><ele>638.1999999999999</ele><time>2026-04-11T14:53:46.128Z</time></trkpt><trkpt lat="43.1227969" lon="13.0984103"><ele>641.0</ele><time>2026-04-11T14:53:47.128Z</time></trkpt><trkpt lat="43.1228598" lon="13.0984202"><ele>641.0</ele><time>2026-04-11T14:53:48.127Z</time></trkpt><trkpt lat="43.1229287" lon="13.0984303"><ele>641.0</ele><time>2026-04-11T14:53:50.128Z</time></trkpt><trkpt lat="43.1230352" lon="13.098484"><ele>641.0</ele><time>2026-04-11T14:54:00.128Z</time></trkpt><trkpt lat="43.1231425" lon="13.098561"><ele>641.0</ele><time>2026-04-11T14:54:02.128Z</time></trkpt><trkpt lat="43.1232016" lon="13.0986288"><ele>641.0</ele><time>2026-04-11T14:54:03.129Z</time></trkpt><trkpt lat="43.1232474" lon="13.0987006"><ele>641.75</ele><time>2026-04-11T14:54:04.128Z</time></trkpt><trkpt lat="43.1233242" lon="13.0988394"><ele>642.5</ele><time>2026-04-11T14:54:06.128Z</time></trkpt><trkpt lat="43.1233493" lon="13.0990077"><ele>643.25</ele><time>2026-04-11T14:54:08.129Z</time></trkpt><trkpt lat="43.1232888" lon="13.0991766"><ele>644.0</ele><time>2026-04-11T14:54:10.127Z</time></trkpt><trkpt lat="43.1232417" lon="13.0992808"><ele>643.0</ele><time>2026-04-11T14:54:11.128Z</time></trkpt><trkpt lat="43.1232141" lon="13.0993925"><ele>642.0</ele><time>2026-04-11T14:54:12.127Z</time></trkpt><trkpt lat="43.123187" lon="13.0995131"><ele>641.0</ele><time>2026-04-11T14:54:13.128Z</time></trkpt><trkpt lat="43.1231745" lon="13.0996505"><ele>640.0</ele><time>2026-04-11T14:54:14.129Z</time></trkpt><trkpt lat="43.1231593" lon="13.0997905"><ele>639.0</ele><time>2026-04-11T14:54:15.127Z</time></trkpt><trkpt lat="43.1231612" lon="13.099927"><ele>639.0</ele><time>2026-04-11T14:54:16.128Z</time></trkpt><trkpt lat="43.1231501" lon="13.1000526"><ele>639.0</ele><time>2026-04-11T14:54:17.128Z</time></trkpt><trkpt lat="43.1231426" lon="13.1001708"><ele>639.0</ele><time>2026-04-11T14:54:18.127Z</time></trkpt><trkpt lat="43.1231543" lon="13.1002605"><ele>639.0</ele><time>2026-04-11T14:54:19.129Z</time></trkpt><trkpt lat="43.1231624" lon="13.1003529"><ele>639.0</ele><time>2026-04-11T14:54:20.128Z</time></trkpt><trkpt lat="43.123174" lon="13.1004593"><ele>639.0</ele><time>2026-04-11T14:54:21.128Z</time></trkpt><trkpt lat="43.123184" lon="13.1005791"><ele>639.0</ele><time>2026-04-11T14:54:22.126Z</time></trkpt><trkpt lat="43.1232082" lon="13.1007094"><ele>639.0</ele><time>2026-04-11T14:54:23.128Z</time></trkpt><trkpt lat="43.1232419" lon="13.1008515"><ele>639.0</ele><time>2026-04-11T14:54:24.127Z</time></trkpt><trkpt lat="43.123276" lon="13.1009958"><ele>639.0</ele><time>2026-04-11T14:54:25.128Z</time></trkpt><trkpt lat="43.1232847" lon="13.1011354"><ele>639.0</ele><time>2026-04-11T14:54:26.128Z</time></trkpt><trkpt lat="43.1232797" lon="13.1012781"><ele>639.4285714285714</ele><time>2026-04-11T14:54:27.128Z</time></trkpt><trkpt lat="43.1232351" lon="13.1013706"><ele>639.8571428571429</ele><time>2026-04-11T14:54:28.128Z</time></trkpt><trkpt lat="43.1231824" lon="13.1014381"><ele>640.2857142857142</ele><time>2026-04-11T14:54:29.126Z</time></trkpt><trkpt lat="43.1231257" lon="13.1014973"><ele>640.7142857142858</ele><time>2026-04-11T14:54:30.128Z</time></trkpt><trkpt lat="43.1230632" lon="13.1015485"><ele>641.1428571428571</ele><time>2026-04-11T14:54:31.127Z</time></trkpt><trkpt lat="43.1230052" lon="13.1015874"><ele>641.5714285714286</ele><time>2026-04-11T14:54:32.128Z</time></trkpt><trkpt lat="43.1229344" lon="13.1016182"><ele>642.0</ele><time>2026-04-11T14:54:33.126Z</time></trkpt><trkpt lat="43.1228136" lon="13.1016472"><ele>644.2</ele><time>2026-04-11T14:54:35.128Z</time></trkpt><trkpt lat="43.1226984" lon="13.1017246"><ele>646.4000000000001</ele><time>2026-04-11T14:54:37.128Z</time></trkpt><trkpt lat="43.1226363" lon="13.1018511"><ele>648.5999999999999</ele><time>2026-04-11T14:54:38.128Z</time></trkpt><trkpt lat="43.122586" lon="13.1019396"><ele>650.8</ele><time>2026-04-11T14:54:39.129Z</time></trkpt><trkpt lat="43.1225208" lon="13.1020808"><ele>653.0</ele><time>2026-04-11T14:54:40.128Z</time></trkpt><trkpt lat="43.1224705" lon="13.1021844"><ele>653.0</ele><time>2026-04-11T14:54:41.127Z</time></trkpt><trkpt lat="43.122414" lon="13.102293"><ele>653.0</ele><time>2026-04-11T14:54:42.128Z</time></trkpt><trkpt lat="43.1223311" lon="13.1023755"><ele>653.0</ele><time>2026-04-11T14:54:43.127Z</time></trkpt><trkpt lat="43.1222588" lon="13.1024359"><ele>653.0</ele><time>2026-04-11T14:54:44.128Z</time></trkpt><trkpt lat="43.1221618" lon="13.1024992"><ele>653.0</ele><time>2026-04-11T14:54:46.128Z</time></trkpt><trkpt lat="43.1220922" lon="13.1025133"><ele>653.0</ele><time>2026-04-11T14:54:48.128Z</time></trkpt><trkpt lat="43.1220204" lon="13.1025546"><ele>653.0</ele><time>2026-04-11T14:54:51.128Z</time></trkpt><trkpt lat="43.1221187" lon="13.102527"><ele>653.0</ele><time>2026-04-11T14:54:55.129Z</time></trkpt><trkpt lat="43.1222382" lon="13.1024164"><ele>653.0</ele><time>2026-04-11T14:54:57.128Z</time></trkpt><trkpt lat="43.1223328" lon="13.1023174"><ele>653.0</ele><time>2026-04-11T14:54:58.127Z</time></trkpt><trkpt lat="43.1224072" lon="13.1022045"><ele>653.0</ele><time>2026-04-11T14:54:59.128Z</time></trkpt><trkpt lat="43.1224747" lon="13.1020679"><ele>653.0</ele><time>2026-04-11T14:55:00.128Z</time></trkpt><trkpt lat="43.1225382" lon="13.101926"><ele>653.0</ele><time>2026-04-11T14:55:01.128Z</time></trkpt><trkpt lat="43.1226072" lon="13.1018033"><ele>653.0</ele><time>2026-04-11T14:55:02.129Z</time></trkpt><trkpt lat="43.1226936" lon="13.1017238"><ele>653.0</ele><time>2026-04-11T14:55:03.127Z</time></trkpt><trkpt lat="43.1227533" lon="13.1016537"><ele>653.0</ele><time>2026-04-11T14:55:04.128Z</time></trkpt><trkpt lat="43.122817" lon="13.1015954"><ele>653.0</ele><time>2026-04-11T14:55:05.127Z</time></trkpt><trkpt lat="43.1229095" lon="13.1016"><ele>653.0</ele><time>2026-04-11T14:55:06.128Z</time></trkpt><trkpt lat="43.1229938" lon="13.1015638"><ele>653.0</ele><time>2026-04-11T14:55:07.127Z</time></trkpt><trkpt lat="43.1230737" lon="13.1014973"><ele>653.0</ele><time>2026-04-11T14:55:08.127Z</time></trkpt><trkpt lat="43.123155" lon="13.10143"><ele>650.8</ele><time>2026-04-11T14:55:09.128Z</time></trkpt><trkpt lat="43.1232215" lon="13.1013443"><ele>648.5999999999999</ele><time>2026-04-11T14:55:10.127Z</time></trkpt><trkpt lat="43.123276" lon="13.1012457"><ele>646.4000000000001</ele><time>2026-04-11T14:55:11.128Z</time></trkpt><trkpt lat="43.1233032" lon="13.1011203"><ele>644.2</ele><time>2026-04-11T14:55:12.128Z</time></trkpt><trkpt lat="43.1232951" lon="13.1009883"><ele>642.0</ele><time>2026-04-11T14:55:13.127Z</time></trkpt><trkpt lat="43.123258" lon="13.1008426"><ele>641.25</ele><time>2026-04-11T14:55:14.128Z</time></trkpt><trkpt lat="43.1232254" lon="13.1006891"><ele>640.5</ele><time>2026-04-11T14:55:15.128Z</time></trkpt><trkpt lat="43.1231992" lon="13.1005282"><ele>639.75</ele><time>2026-04-11T14:55:16.128Z</time></trkpt><trkpt lat="43.123178" lon="13.1003704"><ele>639.0</ele><time>2026-04-11T14:55:17.128Z</time></trkpt><trkpt lat="43.1231683" lon="13.1002042"><ele>639.0</ele><time>2026-04-11T14:55:18.127Z</time></trkpt><trkpt lat="43.1231667" lon="13.1000435"><ele>639.0</ele><time>2026-04-11T14:55:19.128Z</time></trkpt><trkpt lat="43.1231739" lon="13.0998808"><ele>639.0</ele><time>2026-04-11T14:55:20.127Z</time></trkpt><trkpt lat="43.1231928" lon="13.0997154"><ele>639.0</ele><time>2026-04-11T14:55:21.128Z</time></trkpt><trkpt lat="43.1232045" lon="13.0995702"><ele>638.8333333333334</ele><time>2026-04-11T14:55:22.128Z</time></trkpt><trkpt lat="43.1232238" lon="13.099444"><ele>638.6666666666666</ele><time>2026-04-11T14:55:23.128Z</time></trkpt><trkpt lat="43.1232418" lon="13.0993249"><ele>638.5</ele><time>2026-04-11T14:55:24.127Z</time></trkpt><trkpt lat="43.1232763" lon="13.0992214"><ele>638.3333333333333</ele><time>2026-04-11T14:55:25.127Z</time></trkpt><trkpt lat="43.1233122" lon="13.0991466"><ele>638.1666666666666</ele><time>2026-04-11T14:55:26.129Z</time></trkpt><trkpt lat="43.1233418" lon="13.0990662"><ele>638.0</ele><time>2026-04-11T14:55:27.127Z</time></trkpt><trkpt lat="43.1233769" lon="13.0989695"><ele>639.2</ele><time>2026-04-11T14:55:29.128Z</time></trkpt><trkpt lat="43.1234689" lon="13.0989915"><ele>640.4</ele><time>2026-04-11T14:55:33.127Z</time></trkpt><trkpt lat="43.1235411" lon="13.0991295"><ele>641.6</ele><time>2026-04-11T14:55:35.128Z</time></trkpt><trkpt lat="43.1235869" lon="13.0992128"><ele>642.8000000000001</ele><time>2026-04-11T14:55:36.126Z</time></trkpt><trkpt lat="43.1236311" lon="13.0993095"><ele>644.0</ele><time>2026-04-11T14:55:37.128Z</time></trkpt><trkpt lat="43.1236754" lon="13.0994386"><ele>647.0</ele><time>2026-04-11T14:55:38.128Z</time></trkpt><trkpt lat="43.1237328" lon="13.0995688"><ele>650.0</ele><time>2026-04-11T14:55:39.127Z</time></trkpt><trkpt lat="43.1238049" lon="13.099732"><ele>653.0</ele><time>2026-04-11T14:55:40.128Z</time></trkpt><trkpt lat="43.1238607" lon="13.0998982"><ele>656.0</ele><time>2026-04-11T14:55:41.127Z</time></trkpt><trkpt lat="43.123896" lon="13.1000609"><ele>658.25</ele><time>2026-04-11T14:55:42.129Z</time></trkpt><trkpt lat="43.1239182" lon="13.1002311"><ele>660.5</ele><time>2026-04-11T14:55:43.127Z</time></trkpt><trkpt lat="43.1239224" lon="13.1004181"><ele>662.75</ele><time>2026-04-11T14:55:44.128Z</time></trkpt><trkpt lat="43.1239094" lon="13.1006258"><ele>665.0</ele><time>2026-04-11T14:55:45.127Z</time></trkpt><trkpt lat="43.1238831" lon="13.1008313"><ele>665.6666666666666</ele><time>2026-04-11T14:55:46.129Z</time></trkpt><trkpt lat="43.1238511" lon="13.1010422"><ele>666.3333333333334</ele><time>2026-04-11T14:55:47.127Z</time></trkpt><trkpt lat="43.1238141" lon="13.101252"><ele>667.0</ele><time>2026-04-11T14:55:48.128Z</time></trkpt><trkpt lat="43.1237774" lon="13.1014777"><ele>668.25</ele><time>2026-04-11T14:55:49.128Z</time></trkpt><trkpt lat="43.1237385" lon="13.101676"><ele>669.5</ele><time>2026-04-11T14:55:50.127Z</time></trkpt><trkpt lat="43.1237013" lon="13.1018661"><ele>670.75</ele><time>2026-04-11T14:55:51.128Z</time></trkpt><trkpt lat="43.1236743" lon="13.1020505"><ele>672.0</ele><time>2026-04-11T14:55:52.128Z</time></trkpt><trkpt lat="43.1236429" lon="13.1022423"><ele>674.25</ele><time>2026-04-11T14:55:53.127Z</time></trkpt><trkpt lat="43.1236158" lon="13.1024317"><ele>676.5</ele><time>2026-04-11T14:55:54.128Z</time></trkpt><trkpt lat="43.1235898" lon="13.102622"><ele>678.75</ele><time>2026-04-11T14:55:55.129Z</time></trkpt><trkpt lat="43.1235713" lon="13.1028211"><ele>681.0</ele><time>2026-04-11T14:55:56.127Z</time></trkpt><trkpt lat="43.1235538" lon="13.1030062"><ele>681.0</ele><time>2026-04-11T14:55:57.129Z</time></trkpt><trkpt lat="43.1235348" lon="13.1031821"><ele>681.0</ele><time>2026-04-11T14:55:58.128Z</time></trkpt><trkpt lat="43.1235214" lon="13.1033313"><ele>681.0</ele><time>2026-04-11T14:55:59.128Z</time></trkpt><trkpt lat="43.1235143" lon="13.103472"><ele>681.0</ele><time>2026-04-11T14:56:00.127Z</time></trkpt><trkpt lat="43.1235349" lon="13.1035893"><ele>681.0</ele><time>2026-04-11T14:56:01.127Z</time></trkpt><trkpt lat="43.1235936" lon="13.1036945"><ele>682.25</ele><time>2026-04-11T14:56:02.128Z</time></trkpt><trkpt lat="43.1236724" lon="13.10379"><ele>683.5</ele><time>2026-04-11T14:56:03.127Z</time></trkpt><trkpt lat="43.1237593" lon="13.103884"><ele>684.75</ele><time>2026-04-11T14:56:04.128Z</time></trkpt><trkpt lat="43.1238509" lon="13.1040098"><ele>686.0</ele><time>2026-04-11T14:56:05.128Z</time></trkpt><trkpt lat="43.1239399" lon="13.1041338"><ele>687.5</ele><time>2026-04-11T14:56:06.127Z</time></trkpt><trkpt lat="43.1240416" lon="13.1042351"><ele>689.0</ele><time>2026-04-11T14:56:07.128Z</time></trkpt><trkpt lat="43.1241597" lon="13.1043235"><ele>690.5</ele><time>2026-04-11T14:56:08.128Z</time></trkpt><trkpt lat="43.1242773" lon="13.104418"><ele>692.0</ele><time>2026-04-11T14:56:09.127Z</time></trkpt><trkpt lat="43.1244031" lon="13.1045203"><ele>693.25</ele><time>2026-04-11T14:56:10.127Z</time></trkpt><trkpt lat="43.1245334" lon="13.1046266"><ele>694.5</ele><time>2026-04-11T14:56:11.128Z</time></trkpt><trkpt lat="43.1246523" lon="13.1047386"><ele>695.75</ele><time>2026-04-11T14:56:12.127Z</time></trkpt><trkpt lat="43.1247656" lon="13.1048376"><ele>697.0</ele><time>2026-04-11T14:56:13.128Z</time></trkpt><trkpt lat="43.1248741" lon="13.1049227"><ele>697.75</ele><time>2026-04-11T14:56:14.128Z</time></trkpt><trkpt lat="43.1249933" lon="13.105007"><ele>698.5</ele><time>2026-04-11T14:56:15.128Z</time></trkpt><trkpt lat="43.1251108" lon="13.1050844"><ele>699.25</ele><time>2026-04-11T14:56:16.126Z</time></trkpt><trkpt lat="43.1252528" lon="13.1051635"><ele>700.0</ele><time>2026-04-11T14:56:17.127Z</time></trkpt><trkpt lat="43.1253889" lon="13.1052379"><ele>700.0</ele><time>2026-04-11T14:56:18.129Z</time></trkpt><trkpt lat="43.125524" lon="13.1053182"><ele>700.0</ele><time>2026-04-11T14:56:19.128Z</time></trkpt><trkpt lat="43.1256588" lon="13.1054037"><ele>700.0</ele><time>2026-04-11T14:56:20.127Z</time></trkpt><trkpt lat="43.1257847" lon="13.1054829"><ele>700.0</ele><time>2026-04-11T14:56:21.127Z</time></trkpt><trkpt lat="43.1259161" lon="13.1055619"><ele>699.75</ele><time>2026-04-11T14:56:22.127Z</time></trkpt><trkpt lat="43.1260188" lon="13.1056354"><ele>699.5</ele><time>2026-04-11T14:56:23.127Z</time></trkpt><trkpt lat="43.1261293" lon="13.1057089"><ele>699.25</ele><time>2026-04-11T14:56:24.127Z</time></trkpt><trkpt lat="43.126244" lon="13.1057639"><ele>699.0</ele><time>2026-04-11T14:56:25.128Z</time></trkpt><trkpt lat="43.1263498" lon="13.1057835"><ele>699.0</ele><time>2026-04-11T14:56:26.128Z</time></trkpt><trkpt lat="43.126458" lon="13.1057771"><ele>699.0</ele><time>2026-04-11T14:56:27.128Z</time></trkpt><trkpt lat="43.1265684" lon="13.1057404"><ele>699.0</ele><time>2026-04-11T14:56:28.128Z</time></trkpt><trkpt lat="43.1266858" lon="13.1056833"><ele>699.0</ele><time>2026-04-11T14:56:29.128Z</time></trkpt><trkpt lat="43.1268177" lon="13.1056085"><ele>697.3333333333334</ele><time>2026-04-11T14:56:30.129Z</time></trkpt><trkpt lat="43.1269536" lon="13.105522"><ele>695.6666666666667</ele><time>2026-04-11T14:56:31.127Z</time></trkpt><trkpt lat="43.1270977" lon="13.1054384"><ele>694.0</ele><time>2026-04-11T14:56:32.129Z</time></trkpt><trkpt lat="43.1272428" lon="13.1053683"><ele>694.0</ele><time>2026-04-11T14:56:33.128Z</time></trkpt><trkpt lat="43.1273888" lon="13.1053031"><ele>694.0</ele><time>2026-04-11T14:56:34.127Z</time></trkpt><trkpt lat="43.1275247" lon="13.1052508"><ele>694.0</ele><time>2026-04-11T14:56:35.127Z</time></trkpt><trkpt lat="43.1276703" lon="13.1052019"><ele>694.0</ele><time>2026-04-11T14:56:36.128Z</time></trkpt><trkpt lat="43.1278205" lon="13.105142"><ele>692.0</ele><time>2026-04-11T14:56:37.128Z</time></trkpt><trkpt lat="43.1279757" lon="13.1050761"><ele>690.0</ele><time>2026-04-11T14:56:38.127Z</time></trkpt><trkpt lat="43.12814" lon="13.1049931"><ele>688.0</ele><time>2026-04-11T14:56:39.127Z</time></trkpt><trkpt lat="43.1283164" lon="13.1048831"><ele>687.0</ele><time>2026-04-11T14:56:40.127Z</time></trkpt><trkpt lat="43.1284972" lon="13.104756"><ele>686.0</ele><time>2026-04-11T14:56:41.128Z</time></trkpt><trkpt lat="43.1286673" lon="13.1046311"><ele>685.0</ele><time>2026-04-11T14:56:42.127Z</time></trkpt><trkpt lat="43.1288325" lon="13.1045219"><ele>685.0</ele><time>2026-04-11T14:56:43.128Z</time></trkpt><trkpt lat="43.1289892" lon="13.1044384"><ele>685.0</ele><time>2026-04-11T14:56:44.128Z</time></trkpt><trkpt lat="43.1291683" lon="13.10437"><ele>685.0</ele><time>2026-04-11T14:56:45.129Z</time></trkpt><trkpt lat="43.129337" lon="13.104316"><ele>687.3333333333334</ele><time>2026-04-11T14:56:46.127Z</time></trkpt><trkpt lat="43.1294952" lon="13.1042704"><ele>689.6666666666666</ele><time>2026-04-11T14:56:47.127Z</time></trkpt><trkpt lat="43.129652" lon="13.1042309"><ele>692.0</ele><time>2026-04-11T14:56:48.128Z</time></trkpt><trkpt lat="43.1297845" lon="13.1041917"><ele>693.25</ele><time>2026-04-11T14:56:49.127Z</time></trkpt><trkpt lat="43.1298961" lon="13.1041608"><ele>694.5</ele><time>2026-04-11T14:56:50.127Z</time></trkpt><trkpt lat="43.1300097" lon="13.1041289"><ele>695.75</ele><time>2026-04-11T14:56:51.127Z</time></trkpt><trkpt lat="43.13012" lon="13.1041275"><ele>697.0</ele><time>2026-04-11T14:56:52.127Z</time></trkpt><trkpt lat="43.1302384" lon="13.104141"><ele>697.0</ele><time>2026-04-11T14:56:53.128Z</time></trkpt><trkpt lat="43.1303691" lon="13.1041633"><ele>697.0</ele><time>2026-04-11T14:56:54.127Z</time></trkpt><trkpt lat="43.1305109" lon="13.1041864"><ele>697.0</ele><time>2026-04-11T14:56:55.126Z</time></trkpt><trkpt lat="43.1306599" lon="13.1042024"><ele>697.0</ele><time>2026-04-11T14:56:56.128Z</time></trkpt><trkpt lat="43.1308115" lon="13.1041936"><ele>697.5</ele><time>2026-04-11T14:56:57.127Z</time></trkpt><trkpt lat="43.130958" lon="13.1041534"><ele>698.0</ele><time>2026-04-11T14:56:58.128Z</time></trkpt><trkpt lat="43.1310961" lon="13.1040954"><ele>698.5</ele><time>2026-04-11T14:56:59.126Z</time></trkpt><trkpt lat="43.1312085" lon="13.104019"><ele>699.0</ele><time>2026-04-11T14:57:00.128Z</time></trkpt><trkpt lat="43.1313274" lon="13.1039063"><ele>699.0</ele><time>2026-04-11T14:57:01.126Z</time></trkpt><trkpt lat="43.1314427" lon="13.1037817"><ele>699.0</ele><time>2026-04-11T14:57:02.127Z</time></trkpt><trkpt lat="43.1315565" lon="13.1036602"><ele>699.0</ele><time>2026-04-11T14:57:03.128Z</time></trkpt><trkpt lat="43.1316738" lon="13.1035326"><ele>699.0</ele><time>2026-04-11T14:57:04.126Z</time></trkpt><trkpt lat="43.1317908" lon="13.103417"><ele>701.5</ele><time>2026-04-11T14:57:05.127Z</time></trkpt><trkpt lat="43.1319153" lon="13.1033194"><ele>704.0</ele><time>2026-04-11T14:57:06.127Z</time></trkpt><trkpt lat="43.1320532" lon="13.1032329"><ele>706.5</ele><time>2026-04-11T14:57:07.127Z</time></trkpt><trkpt lat="43.1321767" lon="13.1031583"><ele>709.0</ele><time>2026-04-11T14:57:08.128Z</time></trkpt><trkpt lat="43.1322809" lon="13.1030648"><ele>709.0</ele><time>2026-04-11T14:57:09.128Z</time></trkpt><trkpt lat="43.1323692" lon="13.1029732"><ele>709.0</ele><time>2026-04-11T14:57:10.127Z</time></trkpt><trkpt lat="43.1324336" lon="13.1028466"><ele>709.0</ele><time>2026-04-11T14:57:11.128Z</time></trkpt><trkpt lat="43.1324696" lon="13.1027089"><ele>709.0</ele><time>2026-04-11T14:57:12.127Z</time></trkpt><trkpt lat="43.1325245" lon="13.1025656"><ele>709.0</ele><time>2026-04-11T14:57:13.128Z</time></trkpt><trkpt lat="43.1325962" lon="13.1024239"><ele>711.5</ele><time>2026-04-11T14:57:14.128Z</time></trkpt><trkpt lat="43.1326936" lon="13.1023084"><ele>714.0</ele><time>2026-04-11T14:57:15.128Z</time></trkpt><trkpt lat="43.1327985" lon="13.1022152"><ele>716.5</ele><time>2026-04-11T14:57:16.127Z</time></trkpt><trkpt lat="43.1329036" lon="13.1021536"><ele>719.0</ele><time>2026-04-11T14:57:17.127Z</time></trkpt><trkpt lat="43.133003" lon="13.1021204"><ele>719.0</ele><time>2026-04-11T14:57:18.128Z</time></trkpt><trkpt lat="43.1331114" lon="13.1021247"><ele>719.0</ele><time>2026-04-11T14:57:19.127Z</time></trkpt><trkpt lat="43.1332276" lon="13.1021835"><ele>719.0</ele><time>2026-04-11T14:57:20.126Z</time></trkpt><trkpt lat="43.1333411" lon="13.1022266"><ele>719.0</ele><time>2026-04-11T14:57:21.127Z</time></trkpt><trkpt lat="43.1334611" lon="13.1022468"><ele>719.5</ele><time>2026-04-11T14:57:22.128Z</time></trkpt><trkpt lat="43.1335889" lon="13.1022561"><ele>720.0</ele><time>2026-04-11T14:57:23.127Z</time></trkpt><trkpt lat="43.1337048" lon="13.102273"><ele>720.5</ele><time>2026-04-11T14:57:24.128Z</time></trkpt><trkpt lat="43.1338137" lon="13.102283"><ele>721.0</ele><time>2026-04-11T14:57:25.128Z</time></trkpt><trkpt lat="43.1339139" lon="13.1022923"><ele>721.0</ele><time>2026-04-11T14:57:26.127Z</time></trkpt><trkpt lat="43.1340091" lon="13.1023004"><ele>721.0</ele><time>2026-04-11T14:57:27.127Z</time></trkpt><trkpt lat="43.1341156" lon="13.1023271"><ele>721.0</ele><time>2026-04-11T14:57:28.126Z</time></trkpt><trkpt lat="43.1342113" lon="13.1023806"><ele>721.0</ele><time>2026-04-11T14:57:29.126Z</time></trkpt><trkpt lat="43.1343101" lon="13.102461"><ele>721.0</ele><time>2026-04-11T14:57:30.127Z</time></trkpt><trkpt lat="43.1344178" lon="13.1025492"><ele>721.0</ele><time>2026-04-11T14:57:31.128Z</time></trkpt><trkpt lat="43.1345022" lon="13.1026318"><ele>721.0</ele><time>2026-04-11T14:57:32.128Z</time></trkpt><trkpt lat="43.1345702" lon="13.1027067"><ele>721.0</ele><time>2026-04-11T14:57:33.127Z</time></trkpt><trkpt lat="43.1346366" lon="13.1027804"><ele>721.0</ele><time>2026-04-11T14:57:34.126Z</time></trkpt><trkpt lat="43.134698" lon="13.102845"><ele>721.0</ele><time>2026-04-11T14:57:35.128Z</time></trkpt><trkpt lat="43.1347624" lon="13.1028878"><ele>721.0</ele><time>2026-04-11T14:57:36.128Z</time></trkpt><trkpt lat="43.1348295" lon="13.1029096"><ele>720.4</ele><time>2026-04-11T14:57:37.126Z</time></trkpt><trkpt lat="43.1349118" lon="13.1029165"><ele>719.8</ele><time>2026-04-11T14:57:38.127Z</time></trkpt><trkpt lat="43.1350202" lon="13.1029097"><ele>719.1999999999999</ele><time>2026-04-11T14:57:39.128Z</time></trkpt><trkpt lat="43.1351304" lon="13.1029035"><ele>718.5999999999999</ele><time>2026-04-11T14:57:40.129Z</time></trkpt><trkpt lat="43.135254" lon="13.1028996"><ele>718.0</ele><time>2026-04-11T14:57:41.128Z</time></trkpt><trkpt lat="43.135388" lon="13.1028973"><ele>718.0</ele><time>2026-04-11T14:57:42.129Z</time></trkpt><trkpt lat="43.1355205" lon="13.1028931"><ele>718.0</ele><time>2026-04-11T14:57:43.128Z</time></trkpt><trkpt lat="43.135647" lon="13.1028848"><ele>718.0</ele><time>2026-04-11T14:57:44.128Z</time></trkpt><trkpt lat="43.1357728" lon="13.1028758"><ele>718.0</ele><time>2026-04-11T14:57:45.128Z</time></trkpt><trkpt lat="43.1358858" lon="13.1028738"><ele>717.0</ele><time>2026-04-11T14:57:46.129Z</time></trkpt><trkpt lat="43.1359819" lon="13.1028742"><ele>716.0</ele><time>2026-04-11T14:57:47.129Z</time></trkpt><trkpt lat="43.1360691" lon="13.1028776"><ele>715.0</ele><time>2026-04-11T14:57:48.127Z</time></trkpt><trkpt lat="43.1361484" lon="13.102877"><ele>714.0</ele><time>2026-04-11T14:57:49.127Z</time></trkpt><trkpt lat="43.1362194" lon="13.1028774"><ele>713.0</ele><time>2026-04-11T14:57:50.129Z</time></trkpt><trkpt lat="43.1362944" lon="13.1028873"><ele>712.0</ele><time>2026-04-11T14:57:51.127Z</time></trkpt><trkpt lat="43.1363687" lon="13.1029119"><ele>712.0</ele><time>2026-04-11T14:57:52.128Z</time></trkpt><trkpt lat="43.136452" lon="13.1029609"><ele>712.0</ele><time>2026-04-11T14:57:53.128Z</time></trkpt><trkpt lat="43.1365406" lon="13.1030259"><ele>712.0</ele><time>2026-04-11T14:57:54.128Z</time></trkpt><trkpt lat="43.1366406" lon="13.1030884"><ele>712.0</ele><time>2026-04-11T14:57:55.128Z</time></trkpt><trkpt lat="43.1367524" lon="13.1031637"><ele>712.0</ele><time>2026-04-11T14:57:56.129Z</time></trkpt><trkpt lat="43.1368717" lon="13.1032513"><ele>711.5</ele><time>2026-04-11T14:57:57.129Z</time></trkpt><trkpt lat="43.1369953" lon="13.1033285"><ele>711.0</ele><time>2026-04-11T14:57:58.127Z</time></trkpt><trkpt lat="43.1371193" lon="13.1034065"><ele>710.5</ele><time>2026-04-11T14:57:59.128Z</time></trkpt><trkpt lat="43.1372425" lon="13.1034892"><ele>710.0</ele><time>2026-04-11T14:58:00.127Z</time></trkpt><trkpt lat="43.1373581" lon="13.1035629"><ele>708.25</ele><time>2026-04-11T14:58:01.126Z</time></trkpt><trkpt lat="43.1374723" lon="13.1036283"><ele>706.5</ele><time>2026-04-11T14:58:02.128Z</time></trkpt><trkpt lat="43.1375848" lon="13.1036856"><ele>704.75</ele><time>2026-04-11T14:58:03.128Z</time></trkpt><trkpt lat="43.1376941" lon="13.1037481"><ele>703.0</ele><time>2026-04-11T14:58:04.128Z</time></trkpt><trkpt lat="43.1378005" lon="13.1038095"><ele>703.0</ele><time>2026-04-11T14:58:05.127Z</time></trkpt><trkpt lat="43.1379033" lon="13.1038717"><ele>703.0</ele><time>2026-04-11T14:58:06.127Z</time></trkpt><trkpt lat="43.1380011" lon="13.1039357"><ele>703.0</ele><time>2026-04-11T14:58:07.127Z</time></trkpt><trkpt lat="43.1380799" lon="13.1039976"><ele>703.0</ele><time>2026-04-11T14:58:08.128Z</time></trkpt><trkpt lat="43.1381714" lon="13.1040945"><ele>703.0</ele><time>2026-04-11T14:58:10.128Z</time></trkpt><trkpt lat="43.1382158" lon="13.1041586"><ele>700.4</ele><time>2026-04-11T14:58:11.128Z</time></trkpt><trkpt lat="43.1382456" lon="13.1042396"><ele>697.8</ele><time>2026-04-11T14:58:12.128Z</time></trkpt><trkpt lat="43.1382567" lon="13.1043523"><ele>695.2</ele><time>2026-04-11T14:58:13.127Z</time></trkpt><trkpt lat="43.1382707" lon="13.1044865"><ele>692.6</ele><time>2026-04-11T14:58:14.127Z</time></trkpt><trkpt lat="43.1382834" lon="13.1046398"><ele>690.0</ele><time>2026-04-11T14:58:15.128Z</time></trkpt><trkpt lat="43.1382983" lon="13.1047876"><ele>690.0</ele><time>2026-04-11T14:58:16.128Z</time></trkpt><trkpt lat="43.1383051" lon="13.1049462"><ele>690.0</ele><time>2026-04-11T14:58:17.126Z</time></trkpt><trkpt lat="43.1383205" lon="13.1051086"><ele>690.0</ele><time>2026-04-11T14:58:18.128Z</time></trkpt><trkpt lat="43.1383406" lon="13.1052715"><ele>690.0</ele><time>2026-04-11T14:58:19.127Z</time></trkpt><trkpt lat="43.1383448" lon="13.1054226"><ele>690.0</ele><time>2026-04-11T14:58:20.127Z</time></trkpt><trkpt lat="43.1383419" lon="13.1055758"><ele>690.0</ele><time>2026-04-11T14:58:21.128Z</time></trkpt><trkpt lat="43.1383338" lon="13.1057584"><ele>690.0</ele><time>2026-04-11T14:58:22.127Z</time></trkpt><trkpt lat="43.1383271" lon="13.10595"><ele>690.0</ele><time>2026-04-11T14:58:23.126Z</time></trkpt><trkpt lat="43.1383273" lon="13.1061474"><ele>689.0</ele><time>2026-04-11T14:58:24.129Z</time></trkpt><trkpt lat="43.1383352" lon="13.1063135"><ele>688.0</ele><time>2026-04-11T14:58:25.128Z</time></trkpt><trkpt lat="43.1383333" lon="13.1064696"><ele>687.0</ele><time>2026-04-11T14:58:26.127Z</time></trkpt><trkpt lat="43.138341" lon="13.1065603"><ele>686.0</ele><time>2026-04-11T14:58:27.127Z</time></trkpt><trkpt lat="43.1383358" lon="13.1067004"><ele>685.0</ele><time>2026-04-11T14:58:29.127Z</time></trkpt><trkpt lat="43.1383653" lon="13.1067786"><ele>684.0</ele><time>2026-04-11T14:58:31.128Z</time></trkpt><trkpt lat="43.1384387" lon="13.106835"><ele>683.0</ele><time>2026-04-11T14:58:34.128Z</time></trkpt><trkpt lat="43.1385106" lon="13.106844"><ele>682.0</ele><time>2026-04-11T14:58:36.128Z</time></trkpt><trkpt lat="43.1385898" lon="13.1068567"><ele>681.0</ele><time>2026-04-11T14:58:39.127Z</time></trkpt><trkpt lat="43.1386999" lon="13.1068365"><ele>680.0</ele><time>2026-04-11T14:58:48.126Z</time></trkpt><trkpt lat="43.1387734" lon="13.1068412"><ele>679.0</ele><time>2026-04-11T14:58:49.127Z</time></trkpt><trkpt lat="43.1388758" lon="13.1068421"><ele>679.0</ele><time>2026-04-11T14:58:50.127Z</time></trkpt><trkpt lat="43.1389979" lon="13.1068414"><ele>679.0</ele><time>2026-04-11T14:58:51.128Z</time></trkpt><trkpt lat="43.1391348" lon="13.1068331"><ele>679.0</ele><time>2026-04-11T14:58:52.128Z</time></trkpt><trkpt lat="43.1392657" lon="13.1068232"><ele>679.0</ele><time>2026-04-11T14:58:53.128Z</time></trkpt><trkpt lat="43.139403" lon="13.1068121"><ele>677.0</ele><time>2026-04-11T14:58:54.127Z</time></trkpt><trkpt lat="43.1395261" lon="13.1068192"><ele>675.0</ele><time>2026-04-11T14:58:55.127Z</time></trkpt><trkpt lat="43.1396293" lon="13.1068479"><ele>673.0</ele><time>2026-04-11T14:58:56.127Z</time></trkpt><trkpt lat="43.1397278" lon="13.106903"><ele>671.0</ele><time>2026-04-11T14:58:57.127Z</time></trkpt><trkpt lat="43.1398338" lon="13.1069824"><ele>670.0</ele><time>2026-04-11T14:58:58.126Z</time></trkpt><trkpt lat="43.1399485" lon="13.1070713"><ele>669.0</ele><time>2026-04-11T14:58:59.128Z</time></trkpt><trkpt lat="43.1400762" lon="13.1071577"><ele>668.0</ele><time>2026-04-11T14:59:00.128Z</time></trkpt><trkpt lat="43.1402053" lon="13.1072302"><ele>667.0</ele><time>2026-04-11T14:59:01.127Z</time></trkpt><trkpt lat="43.1403541" lon="13.1072819"><ele>667.0</ele><time>2026-04-11T14:59:02.127Z</time></trkpt><trkpt lat="43.1405083" lon="13.1073002"><ele>667.0</ele><time>2026-04-11T14:59:03.127Z</time></trkpt><trkpt lat="43.1406727" lon="13.1073207"><ele>667.0</ele><time>2026-04-11T14:59:04.128Z</time></trkpt><trkpt lat="43.1408245" lon="13.1073353"><ele>665.0</ele><time>2026-04-11T14:59:05.128Z</time></trkpt><trkpt lat="43.1409443" lon="13.107373"><ele>663.0</ele><time>2026-04-11T14:59:06.127Z</time></trkpt><trkpt lat="43.1410719" lon="13.1074183"><ele>661.0</ele><time>2026-04-11T14:59:07.129Z</time></trkpt><trkpt lat="43.1411739" lon="13.1074983"><ele>659.0</ele><time>2026-04-11T14:59:08.128Z</time></trkpt><trkpt lat="43.1412567" lon="13.1075825"><ele>661.3333333333333</ele><time>2026-04-11T14:59:09.128Z</time></trkpt><trkpt lat="43.1412932" lon="13.1076873"><ele>663.6666666666666</ele><time>2026-04-11T14:59:10.127Z</time></trkpt><trkpt lat="43.1413519" lon="13.1077909"><ele>666.0</ele><time>2026-04-11T14:59:11.126Z</time></trkpt><trkpt lat="43.1414201" lon="13.1078882"><ele>668.3333333333334</ele><time>2026-04-11T14:59:12.126Z</time></trkpt><trkpt lat="43.1414941" lon="13.1079356"><ele>670.6666666666667</ele><time>2026-04-11T14:59:13.128Z</time></trkpt><trkpt lat="43.1415752" lon="13.1079562"><ele>673.0</ele><time>2026-04-11T14:59:14.128Z</time></trkpt><trkpt lat="43.1416669" lon="13.1079325"><ele>673.0</ele><time>2026-04-11T14:59:15.128Z</time></trkpt><trkpt lat="43.1417714" lon="13.1078945"><ele>673.0</ele><time>2026-04-11T14:59:16.127Z</time></trkpt><trkpt lat="43.1419025" lon="13.1078355"><ele>673.0</ele><time>2026-04-11T14:59:17.127Z</time></trkpt><trkpt lat="43.1420396" lon="13.1077691"><ele>673.0</ele><time>2026-04-11T14:59:18.127Z</time></trkpt><trkpt lat="43.1421967" lon="13.1076915"><ele>673.0</ele><time>2026-04-11T14:59:19.126Z</time></trkpt><trkpt lat="43.1423594" lon="13.1076176"><ele>673.0</ele><time>2026-04-11T14:59:20.128Z</time></trkpt><trkpt lat="43.1425292" lon="13.1075659"><ele>673.0</ele><time>2026-04-11T14:59:21.128Z</time></trkpt><trkpt lat="43.1427002" lon="13.1075291"><ele>673.6666666666667</ele><time>2026-04-11T14:59:22.128Z</time></trkpt><trkpt lat="43.1428569" lon="13.1074949"><ele>674.3333333333334</ele><time>2026-04-11T14:59:23.126Z</time></trkpt><trkpt lat="43.1430098" lon="13.1074671"><ele>675.0</ele><time>2026-04-11T14:59:24.128Z</time></trkpt><trkpt lat="43.1431498" lon="13.107435"><ele>675.5</ele><time>2026-04-11T14:59:25.129Z</time></trkpt><trkpt lat="43.1432531" lon="13.1074193"><ele>676.0</ele><time>2026-04-11T14:59:26.127Z</time></trkpt><trkpt lat="43.1433682" lon="13.107431"><ele>676.5</ele><time>2026-04-11T14:59:27.129Z</time></trkpt><trkpt lat="43.1434843" lon="13.107474"><ele>677.0</ele><time>2026-04-11T14:59:28.127Z</time></trkpt><trkpt lat="43.1435974" lon="13.1075241"><ele>677.0</ele><time>2026-04-11T14:59:29.128Z</time></trkpt><trkpt lat="43.1437112" lon="13.1075711"><ele>677.0</ele><time>2026-04-11T14:59:30.127Z</time></trkpt><trkpt lat="43.1438281" lon="13.1076083"><ele>677.0</ele><time>2026-04-11T14:59:31.127Z</time></trkpt><trkpt lat="43.143963" lon="13.107614"><ele>677.0</ele><time>2026-04-11T14:59:32.128Z</time></trkpt><trkpt lat="43.1441124" lon="13.1075903"><ele>675.3333333333333</ele><time>2026-04-11T14:59:33.128Z</time></trkpt><trkpt lat="43.1442552" lon="13.1075704"><ele>673.6666666666666</ele><time>2026-04-11T14:59:34.128Z</time></trkpt><trkpt lat="43.1444103" lon="13.1075888"><ele>672.0</ele><time>2026-04-11T14:59:35.127Z</time></trkpt><trkpt lat="43.1445706" lon="13.1076257"><ele>672.0</ele><time>2026-04-11T14:59:36.127Z</time></trkpt><trkpt lat="43.1447029" lon="13.107676"><ele>672.0</ele><time>2026-04-11T14:59:37.127Z</time></trkpt><trkpt lat="43.144831" lon="13.1077369"><ele>672.0</ele><time>2026-04-11T14:59:38.129Z</time></trkpt><trkpt lat="43.1449587" lon="13.1078285"><ele>672.0</ele><time>2026-04-11T14:59:39.126Z</time></trkpt><trkpt lat="43.1450827" lon="13.1079322"><ele>668.75</ele><time>2026-04-11T14:59:40.127Z</time></trkpt><trkpt lat="43.1452063" lon="13.1080317"><ele>665.5</ele><time>2026-04-11T14:59:41.127Z</time></trkpt><trkpt lat="43.1453269" lon="13.1081284"><ele>662.25</ele><time>2026-04-11T14:59:42.129Z</time></trkpt><trkpt lat="43.145439" lon="13.1082133"><ele>659.0</ele><time>2026-04-11T14:59:43.127Z</time></trkpt><trkpt lat="43.1455493" lon="13.1083043"><ele>657.75</ele><time>2026-04-11T14:59:44.127Z</time></trkpt><trkpt lat="43.1456513" lon="13.1083993"><ele>656.5</ele><time>2026-04-11T14:59:45.127Z</time></trkpt><trkpt lat="43.1457574" lon="13.1084886"><ele>655.25</ele><time>2026-04-11T14:59:46.127Z</time></trkpt><trkpt lat="43.1458697" lon="13.108567"><ele>654.0</ele><time>2026-04-11T14:59:47.127Z</time></trkpt><trkpt lat="43.1459935" lon="13.1086488"><ele>654.0</ele><time>2026-04-11T14:59:48.127Z</time></trkpt><trkpt lat="43.1461308" lon="13.1087245"><ele>654.0</ele><time>2026-04-11T14:59:49.127Z</time></trkpt><trkpt lat="43.1462798" lon="13.1087707"><ele>654.0</ele><time>2026-04-11T14:59:50.128Z</time></trkpt><trkpt lat="43.1464392" lon="13.1087985"><ele>653.6666666666666</ele><time>2026-04-11T14:59:51.126Z</time></trkpt><trkpt lat="43.1465939" lon="13.1087778"><ele>653.3333333333333</ele><time>2026-04-11T14:59:52.127Z</time></trkpt><trkpt lat="43.1467478" lon="13.1087237"><ele>653.0</ele><time>2026-04-11T14:59:53.127Z</time></trkpt><trkpt lat="43.1469104" lon="13.1086558"><ele>653.0</ele><time>2026-04-11T14:59:54.128Z</time></trkpt><trkpt lat="43.1470343" lon="13.1085468"><ele>653.0</ele><time>2026-04-11T14:59:55.127Z</time></trkpt><trkpt lat="43.1471598" lon="13.1084487"><ele>653.0</ele><time>2026-04-11T14:59:56.127Z</time></trkpt><trkpt lat="43.1472811" lon="13.1083662"><ele>653.0</ele><time>2026-04-11T14:59:57.129Z</time></trkpt><trkpt lat="43.1474086" lon="13.1082973"><ele>651.0</ele><time>2026-04-11T14:59:58.128Z</time></trkpt><trkpt lat="43.1475438" lon="13.108242"><ele>649.0</ele><time>2026-04-11T14:59:59.128Z</time></trkpt><trkpt lat="43.1476744" lon="13.1081935"><ele>647.0</ele><time>2026-04-11T15:00:00.126Z</time></trkpt><trkpt lat="43.1477871" lon="13.1081594"><ele>645.0</ele><time>2026-04-11T15:00:01.128Z</time></trkpt><trkpt lat="43.1478816" lon="13.1081409"><ele>645.0</ele><time>2026-04-11T15:00:02.128Z</time></trkpt><trkpt lat="43.147952" lon="13.1081451"><ele>645.0</ele><time>2026-04-11T15:00:03.128Z</time></trkpt><trkpt lat="43.1480543" lon="13.1081947"><ele>645.0</ele><time>2026-04-11T15:00:05.127Z</time></trkpt><trkpt lat="43.1481033" lon="13.1083247"><ele>645.0</ele><time>2026-04-11T15:00:07.127Z</time></trkpt><trkpt lat="43.14813" lon="13.1084051"><ele>645.0</ele><time>2026-04-11T15:00:08.128Z</time></trkpt><trkpt lat="43.1481567" lon="13.1084941"><ele>645.0</ele><time>2026-04-11T15:00:09.127Z</time></trkpt><trkpt lat="43.1481916" lon="13.1086169"><ele>646.6666666666666</ele><time>2026-04-11T15:00:11.127Z</time></trkpt><trkpt lat="43.1482296" lon="13.1086938"><ele>648.3333333333334</ele><time>2026-04-11T15:00:14.129Z</time></trkpt><trkpt lat="43.1482989" lon="13.1086591"><ele>650.0</ele><time>2026-04-11T15:00:23.127Z</time></trkpt><trkpt lat="43.1483529" lon="13.1085722"><ele>651.6666666666667</ele><time>2026-04-11T15:00:24.128Z</time></trkpt><trkpt lat="43.1484017" lon="13.108503"><ele>653.3333333333334</ele><time>2026-04-11T15:00:25.128Z</time></trkpt><trkpt lat="43.1484502" lon="13.1084323"><ele>655.0</ele><time>2026-04-11T15:00:26.127Z</time></trkpt><trkpt lat="43.1485173" lon="13.1083492"><ele>655.0</ele><time>2026-04-11T15:00:27.128Z</time></trkpt><trkpt lat="43.148601" lon="13.1082615"><ele>655.0</ele><time>2026-04-11T15:00:28.128Z</time></trkpt><trkpt lat="43.1486986" lon="13.1081966"><ele>655.0</ele><time>2026-04-11T15:00:29.128Z</time></trkpt><trkpt lat="43.1488081" lon="13.1081349"><ele>655.0</ele><time>2026-04-11T15:00:30.127Z</time></trkpt><trkpt lat="43.148928" lon="13.1080743"><ele>656.5</ele><time>2026-04-11T15:00:31.127Z</time></trkpt><trkpt lat="43.1490565" lon="13.10801"><ele>658.0</ele><time>2026-04-11T15:00:32.128Z</time></trkpt><trkpt lat="43.1491965" lon="13.1079471"><ele>659.5</ele><time>2026-04-11T15:00:33.126Z</time></trkpt><trkpt lat="43.1493454" lon="13.1078756"><ele>661.0</ele><time>2026-04-11T15:00:34.127Z</time></trkpt><trkpt lat="43.1495077" lon="13.1078076"><ele>661.0</ele><time>2026-04-11T15:00:35.128Z</time></trkpt><trkpt lat="43.1496723" lon="13.1077581"><ele>661.0</ele><time>2026-04-11T15:00:36.127Z</time></trkpt><trkpt lat="43.1498117" lon="13.1077184"><ele>661.0</ele><time>2026-04-11T15:00:37.127Z</time></trkpt><trkpt lat="43.1499459" lon="13.1076798"><ele>661.0</ele><time>2026-04-11T15:00:38.127Z</time></trkpt><trkpt lat="43.1500692" lon="13.1076372"><ele>661.8</ele><time>2026-04-11T15:00:39.128Z</time></trkpt><trkpt lat="43.1501807" lon="13.1076025"><ele>662.5999999999999</ele><time>2026-04-11T15:00:40.126Z</time></trkpt><trkpt lat="43.1502815" lon="13.1075733"><ele>663.4</ele><time>2026-04-11T15:00:41.127Z</time></trkpt><trkpt lat="43.1503764" lon="13.107555"><ele>664.2</ele><time>2026-04-11T15:00:42.129Z</time></trkpt><trkpt lat="43.1504706" lon="13.107549"><ele>665.0</ele><time>2026-04-11T15:00:43.127Z</time></trkpt><trkpt lat="43.1505745" lon="13.1075309"><ele>665.0</ele><time>2026-04-11T15:00:44.127Z</time></trkpt><trkpt lat="43.1506772" lon="13.1075208"><ele>665.0</ele><time>2026-04-11T15:00:45.128Z</time></trkpt><trkpt lat="43.1507888" lon="13.1075254"><ele>665.0</ele><time>2026-04-11T15:00:46.128Z</time></trkpt><trkpt lat="43.1509141" lon="13.10756"><ele>665.0</ele><time>2026-04-11T15:00:47.127Z</time></trkpt><trkpt lat="43.1510452" lon="13.1076162"><ele>666.0</ele><time>2026-04-11T15:00:48.129Z</time></trkpt><trkpt lat="43.1511785" lon="13.1076738"><ele>667.0</ele><time>2026-04-11T15:00:49.128Z</time></trkpt><trkpt lat="43.1513209" lon="13.1077328"><ele>668.0</ele><time>2026-04-11T15:00:50.127Z</time></trkpt><trkpt lat="43.1514553" lon="13.1077891"><ele>669.0</ele><time>2026-04-11T15:00:51.128Z</time></trkpt><trkpt lat="43.1515892" lon="13.1078492"><ele>670.5</ele><time>2026-04-11T15:00:52.128Z</time></trkpt><trkpt lat="43.1517205" lon="13.107904"><ele>672.0</ele><time>2026-04-11T15:00:53.128Z</time></trkpt><trkpt lat="43.1518531" lon="13.1079518"><ele>673.5</ele><time>2026-04-11T15:00:54.129Z</time></trkpt><trkpt lat="43.1519856" lon="13.1079981"><ele>675.0</ele><time>2026-04-11T15:00:55.127Z</time></trkpt><trkpt lat="43.1521261" lon="13.1080425"><ele>675.0</ele><time>2026-04-11T15:00:56.128Z</time></trkpt><trkpt lat="43.1522846" lon="13.1080999"><ele>675.0</ele><time>2026-04-11T15:00:57.128Z</time></trkpt><trkpt lat="43.152429" lon="13.1081772"><ele>675.0</ele><time>2026-04-11T15:00:58.127Z</time></trkpt><trkpt lat="43.152554" lon="13.108265"><ele>672.25</ele><time>2026-04-11T15:00:59.127Z</time></trkpt><trkpt lat="43.1526472" lon="13.1083729"><ele>669.5</ele><time>2026-04-11T15:01:00.128Z</time></trkpt><trkpt lat="43.1527301" lon="13.1084921"><ele>666.75</ele><time>2026-04-11T15:01:01.129Z</time></trkpt><trkpt lat="43.1528133" lon="13.1085948"><ele>664.0</ele><time>2026-04-11T15:01:02.127Z</time></trkpt><trkpt lat="43.152906" lon="13.1086691"><ele>664.0</ele><time>2026-04-11T15:01:03.126Z</time></trkpt><trkpt lat="43.152999" lon="13.1087227"><ele>664.0</ele><time>2026-04-11T15:01:04.126Z</time></trkpt><trkpt lat="43.153084" lon="13.1087616"><ele>664.0</ele><time>2026-04-11T15:01:05.128Z</time></trkpt><trkpt lat="43.1531553" lon="13.1087788"><ele>664.0</ele><time>2026-04-11T15:01:06.128Z</time></trkpt><trkpt lat="43.1532263" lon="13.1088014"><ele>664.0</ele><time>2026-04-11T15:01:07.128Z</time></trkpt><trkpt lat="43.1533164" lon="13.1088257"><ele>664.0</ele><time>2026-04-11T15:01:08.127Z</time></trkpt><trkpt lat="43.1534029" lon="13.1088617"><ele>665.8000000000001</ele><time>2026-04-11T15:01:09.128Z</time></trkpt><trkpt lat="43.1534987" lon="13.1089087"><ele>667.6</ele><time>2026-04-11T15:01:10.127Z</time></trkpt><trkpt lat="43.1536009" lon="13.1089544"><ele>669.4</ele><time>2026-04-11T15:01:11.127Z</time></trkpt><trkpt lat="43.1536902" lon="13.1089755"><ele>671.2</ele><time>2026-04-11T15:01:12.128Z</time></trkpt><trkpt lat="43.1537819" lon="13.1089908"><ele>673.0</ele><time>2026-04-11T15:01:13.127Z</time></trkpt><trkpt lat="43.1538774" lon="13.1089639"><ele>673.0</ele><time>2026-04-11T15:01:14.127Z</time></trkpt><trkpt lat="43.1539779" lon="13.1089432"><ele>673.0</ele><time>2026-04-11T15:01:15.127Z</time></trkpt><trkpt lat="43.154091" lon="13.1088987"><ele>673.0</ele><time>2026-04-11T15:01:16.129Z</time></trkpt><trkpt lat="43.1542366" lon="13.1088561"><ele>673.0</ele><time>2026-04-11T15:01:17.129Z</time></trkpt><trkpt lat="43.1543719" lon="13.1088372"><ele>671.8</ele><time>2026-04-11T15:01:18.127Z</time></trkpt><trkpt lat="43.1544957" lon="13.1088591"><ele>670.5999999999999</ele><time>2026-04-11T15:01:19.127Z</time></trkpt><trkpt lat="43.1546063" lon="13.1088871"><ele>669.4000000000001</ele><time>2026-04-11T15:01:20.129Z</time></trkpt><trkpt lat="43.1547167" lon="13.1088984"><ele>668.2</ele><time>2026-04-11T15:01:21.127Z</time></trkpt><trkpt lat="43.1548126" lon="13.1089341"><ele>667.0</ele><time>2026-04-11T15:01:22.128Z</time></trkpt><trkpt lat="43.1549036" lon="13.1089954"><ele>661.2</ele><time>2026-04-11T15:01:23.128Z</time></trkpt><trkpt lat="43.1549772" lon="13.1091021"><ele>655.4000000000001</ele><time>2026-04-11T15:01:24.128Z</time></trkpt><trkpt lat="43.1550633" lon="13.1092001"><ele>649.5999999999999</ele><time>2026-04-11T15:01:25.127Z</time></trkpt><trkpt lat="43.1551467" lon="13.1092803"><ele>643.8</ele><time>2026-04-11T15:01:26.128Z</time></trkpt><trkpt lat="43.1552342" lon="13.1093485"><ele>638.0</ele><time>2026-04-11T15:01:27.128Z</time></trkpt><trkpt lat="43.1553265" lon="13.1094197"><ele>638.0</ele><time>2026-04-11T15:01:28.128Z</time></trkpt><trkpt lat="43.1554263" lon="13.1094998"><ele>638.0</ele><time>2026-04-11T15:01:29.128Z</time></trkpt><trkpt lat="43.1555289" lon="13.109585"><ele>638.0</ele><time>2026-04-11T15:01:30.127Z</time></trkpt><trkpt lat="43.1556392" lon="13.1096722"><ele>638.0</ele><time>2026-04-11T15:01:31.126Z</time></trkpt><trkpt lat="43.155746" lon="13.1097627"><ele>636.25</ele><time>2026-04-11T15:01:32.127Z</time></trkpt><trkpt lat="43.1558525" lon="13.1098627"><ele>634.5</ele><time>2026-04-11T15:01:33.128Z</time></trkpt><trkpt lat="43.1559585" lon="13.1099737"><ele>632.75</ele><time>2026-04-11T15:01:34.127Z</time></trkpt><trkpt lat="43.1560558" lon="13.1100811"><ele>631.0</ele><time>2026-04-11T15:01:35.128Z</time></trkpt><trkpt lat="43.1561499" lon="13.1101886"><ele>631.0</ele><time>2026-04-11T15:01:36.127Z</time></trkpt><trkpt lat="43.1562366" lon="13.1102846"><ele>631.0</ele><time>2026-04-11T15:01:37.127Z</time></trkpt><trkpt lat="43.1563119" lon="13.1103677"><ele>631.0</ele><time>2026-04-11T15:01:38.128Z</time></trkpt><trkpt lat="43.1563939" lon="13.1104491"><ele>631.0</ele><time>2026-04-11T15:01:39.127Z</time></trkpt><trkpt lat="43.1564814" lon="13.1105279"><ele>631.0</ele><time>2026-04-11T15:01:40.127Z</time></trkpt><trkpt lat="43.1565695" lon="13.1106074"><ele>628.25</ele><time>2026-04-11T15:01:41.127Z</time></trkpt><trkpt lat="43.1566734" lon="13.110697"><ele>625.5</ele><time>2026-04-11T15:01:42.129Z</time></trkpt><trkpt lat="43.1567783" lon="13.110784"><ele>622.75</ele><time>2026-04-11T15:01:43.127Z</time></trkpt><trkpt lat="43.1568788" lon="13.1108617"><ele>620.0</ele><time>2026-04-11T15:01:44.127Z</time></trkpt><trkpt lat="43.156971" lon="13.1109271"><ele>620.0</ele><time>2026-04-11T15:01:45.128Z</time></trkpt><trkpt lat="43.1570656" lon="13.1109873"><ele>620.0</ele><time>2026-04-11T15:01:46.128Z</time></trkpt><trkpt lat="43.1571742" lon="13.1110347"><ele>620.0</ele><time>2026-04-11T15:01:47.128Z</time></trkpt><trkpt lat="43.1572896" lon="13.1110856"><ele>620.0</ele><time>2026-04-11T15:01:48.127Z</time></trkpt><trkpt lat="43.1574086" lon="13.111141"><ele>615.4</ele><time>2026-04-11T15:01:49.128Z</time></trkpt><trkpt lat="43.1575096" lon="13.1112076"><ele>610.8</ele><time>2026-04-11T15:01:50.127Z</time></trkpt><trkpt lat="43.1576003" lon="13.1112899"><ele>606.2</ele><time>2026-04-11T15:01:51.127Z</time></trkpt><trkpt lat="43.1576681" lon="13.1113717"><ele>601.6</ele><time>2026-04-11T15:01:52.128Z</time></trkpt><trkpt lat="43.1577131" lon="13.1114612"><ele>597.0</ele><time>2026-04-11T15:01:53.127Z</time></trkpt><trkpt lat="43.1577483" lon="13.111544"><ele>597.0000000000001</ele><time>2026-04-11T15:01:54.127Z</time></trkpt><trkpt lat="43.1577892" lon="13.1116165"><ele>597.0</ele><time>2026-04-11T15:01:55.127Z</time></trkpt><trkpt lat="43.1578621" lon="13.1116728"><ele>597.0</ele><time>2026-04-11T15:01:57.126Z</time></trkpt><trkpt lat="43.157902" lon="13.1115758"><ele>597.0</ele><time>2026-04-11T15:02:00.128Z</time></trkpt><trkpt lat="43.1579346" lon="13.1114855"><ele>597.0</ele><time>2026-04-11T15:02:02.128Z</time></trkpt><trkpt lat="43.1579498" lon="13.1113856"><ele>597.0000000000001</ele><time>2026-04-11T15:02:21.128Z</time></trkpt><trkpt lat="43.1579426" lon="13.1112973"><ele>597.0</ele><time>2026-04-11T15:02:23.128Z</time></trkpt><trkpt lat="43.1579155" lon="13.111206"><ele>597.0</ele><time>2026-04-11T15:02:25.127Z</time></trkpt><trkpt lat="43.1578912" lon="13.1110889"><ele>597.0</ele><time>2026-04-11T15:02:27.128Z</time></trkpt><trkpt lat="43.157863" lon="13.1109557"><ele>597.0</ele><time>2026-04-11T15:02:29.127Z</time></trkpt><trkpt lat="43.1577774" lon="13.1108659"><ele>597.0</ele><time>2026-04-11T15:02:31.128Z</time></trkpt><trkpt lat="43.1576806" lon="13.1108166"><ele>597.0</ele><time>2026-04-11T15:02:33.127Z</time></trkpt><trkpt lat="43.157638" lon="13.1107101"><ele>593.0</ele><time>2026-04-11T15:02:36.126Z</time></trkpt><trkpt lat="43.1576605" lon="13.1105972"><ele>589.0</ele><time>2026-04-11T15:02:38.127Z</time></trkpt><trkpt lat="43.157642" lon="13.1104628"><ele>585.0</ele><time>2026-04-11T15:02:40.127Z</time></trkpt><trkpt lat="43.1575996" lon="13.110331"><ele>581.0</ele><time>2026-04-11T15:02:42.128Z</time></trkpt><trkpt lat="43.1576085" lon="13.1101749"><ele>577.0</ele><time>2026-04-11T15:02:44.129Z</time></trkpt><trkpt lat="43.1575965" lon="13.1100849"><ele>577.0</ele><time>2026-04-11T15:02:45.128Z</time></trkpt><trkpt lat="43.1575464" lon="13.1099735"><ele>577.0</ele><time>2026-04-11T15:02:47.127Z</time></trkpt><trkpt lat="43.1574756" lon="13.109879"><ele>577.0</ele><time>2026-04-11T15:02:49.127Z</time></trkpt><trkpt lat="43.1574507" lon="13.1097663"><ele>577.0</ele><time>2026-04-11T15:02:51.128Z</time></trkpt><trkpt lat="43.1574378" lon="13.1096673"><ele>577.0</ele><time>2026-04-11T15:02:53.127Z</time></trkpt><trkpt lat="43.1574104" lon="13.1095858"><ele>577.0</ele><time>2026-04-11T15:02:55.128Z</time></trkpt><trkpt lat="43.1573699" lon="13.1095136"><ele>578.6666666666667</ele><time>2026-04-11T15:02:57.127Z</time></trkpt><trkpt lat="43.1573669" lon="13.1094088"><ele>580.3333333333334</ele><time>2026-04-11T15:04:22.127Z</time></trkpt><trkpt lat="43.1574127" lon="13.1093319"><ele>582.0</ele><time>2026-04-11T15:04:25.129Z</time></trkpt><trkpt lat="43.1574852" lon="13.109307"><ele>583.6666666666666</ele><time>2026-04-11T15:04:29.127Z</time></trkpt><trkpt lat="43.1575493" lon="13.1093533"><ele>585.3333333333333</ele><time>2026-04-11T15:04:32.127Z</time></trkpt><trkpt lat="43.1576065" lon="13.1094418"><ele>587.0</ele><time>2026-04-11T15:04:34.127Z</time></trkpt><trkpt lat="43.1576869" lon="13.1094663"><ele>583.6666666666666</ele><time>2026-04-11T15:04:36.126Z</time></trkpt><trkpt lat="43.1577751" lon="13.1094604"><ele>580.3333333333333</ele><time>2026-04-11T15:04:38.127Z</time></trkpt><trkpt lat="43.157846" lon="13.1095154"><ele>577.0</ele><time>2026-04-11T15:04:40.127Z</time></trkpt><trkpt lat="43.1579385" lon="13.1095408"><ele>573.6666666666666</ele><time>2026-04-11T15:04:42.128Z</time></trkpt><trkpt lat="43.1580014" lon="13.1095531"><ele>570.3333333333334</ele><time>2026-04-11T15:04:43.127Z</time></trkpt><trkpt lat="43.1580768" lon="13.1096041"><ele>567.0</ele><time>2026-04-11T15:04:44.128Z</time></trkpt><trkpt lat="43.1581372" lon="13.1096425"><ele>567.0</ele><time>2026-04-11T15:04:45.126Z</time></trkpt><trkpt lat="43.1581966" lon="13.1096865"><ele>567.0</ele><time>2026-04-11T15:04:46.128Z</time></trkpt><trkpt lat="43.1582617" lon="13.1097392"><ele>567.0</ele><time>2026-04-11T15:04:47.127Z</time></trkpt><trkpt lat="43.1583219" lon="13.1097737"><ele>567.0</ele><time>2026-04-11T15:04:48.127Z</time></trkpt><trkpt lat="43.1583826" lon="13.1098164"><ele>567.0</ele><time>2026-04-11T15:04:49.128Z</time></trkpt><trkpt lat="43.1584328" lon="13.1098732"><ele>567.0</ele><time>2026-04-11T15:04:50.126Z</time></trkpt><trkpt lat="43.1584873" lon="13.1099231"><ele>567.0</ele><time>2026-04-11T15:04:51.129Z</time></trkpt><trkpt lat="43.1585813" lon="13.1099856"><ele>566.0</ele><time>2026-04-11T15:04:53.128Z</time></trkpt><trkpt lat="43.1586564" lon="13.1100359"><ele>565.0</ele><time>2026-04-11T15:04:55.127Z</time></trkpt><trkpt lat="43.1587453" lon="13.1100964"><ele>564.0</ele><time>2026-04-11T15:04:57.127Z</time></trkpt><trkpt lat="43.1588684" lon="13.1101339"><ele>563.0</ele><time>2026-04-11T15:04:59.127Z</time></trkpt><trkpt lat="43.1589344" lon="13.1101569"><ele>562.0</ele><time>2026-04-11T15:05:00.127Z</time></trkpt><trkpt lat="43.1590069" lon="13.1101702"><ele>560.6666666666667</ele><time>2026-04-11T15:05:01.127Z</time></trkpt><trkpt lat="43.1590788" lon="13.1101811"><ele>559.3333333333334</ele><time>2026-04-11T15:05:02.128Z</time></trkpt><trkpt lat="43.1591436" lon="13.1101897"><ele>558.0</ele><time>2026-04-11T15:05:03.127Z</time></trkpt><trkpt lat="43.1592454" lon="13.1102485"><ele>556.6666666666666</ele><time>2026-04-11T15:05:05.128Z</time></trkpt><trkpt lat="43.1593159" lon="13.110341"><ele>555.3333333333333</ele><time>2026-04-11T15:05:07.127Z</time></trkpt><trkpt lat="43.1593555" lon="13.1104647"><ele>554.0</ele><time>2026-04-11T15:05:09.129Z</time></trkpt><trkpt lat="43.1594105" lon="13.110547"><ele>554.0</ele><time>2026-04-11T15:05:11.127Z</time></trkpt><trkpt lat="43.1594774" lon="13.1105708"><ele>554.0</ele><time>2026-04-11T15:05:13.128Z</time></trkpt><trkpt lat="43.1595727" lon="13.110556"><ele>554.0</ele><time>2026-04-11T15:05:16.126Z</time></trkpt><trkpt lat="43.159633" lon="13.1106102"><ele>554.0</ele><time>2026-04-11T15:05:18.129Z</time></trkpt><trkpt lat="43.15962" lon="13.1107399"><ele>554.0</ele><time>2026-04-11T15:05:20.129Z</time></trkpt><trkpt lat="43.1595961" lon="13.1108362"><ele>554.0</ele><time>2026-04-11T15:05:21.127Z</time></trkpt><trkpt lat="43.1595464" lon="13.110956"><ele>553.1666666666666</ele><time>2026-04-11T15:05:22.127Z</time></trkpt><trkpt lat="43.1595146" lon="13.1110572"><ele>552.3333333333333</ele><time>2026-04-11T15:05:23.127Z</time></trkpt><trkpt lat="43.1595455" lon="13.1112191"><ele>551.5</ele><time>2026-04-11T15:05:25.128Z</time></trkpt><trkpt lat="43.1595864" lon="13.1112899"><ele>550.6666666666666</ele><time>2026-04-11T15:05:26.128Z</time></trkpt><trkpt lat="43.1596414" lon="13.1113823"><ele>549.8333333333334</ele><time>2026-04-11T15:05:27.127Z</time></trkpt><trkpt lat="43.1596847" lon="13.1114472"><ele>549.0</ele><time>2026-04-11T15:05:28.127Z</time></trkpt><trkpt lat="43.1597315" lon="13.1115182"><ele>549.0</ele><time>2026-04-11T15:05:30.128Z</time></trkpt><trkpt lat="43.1598048" lon="13.1115233"><ele>549.0</ele><time>2026-04-11T15:05:52.127Z</time></trkpt><trkpt lat="43.1598758" lon="13.1115111"><ele>549.0</ele><time>2026-04-11T15:05:54.126Z</time></trkpt><trkpt lat="43.1599731" lon="13.1114725"><ele>549.0</ele><time>2026-04-11T15:05:56.128Z</time></trkpt><trkpt lat="43.1600733" lon="13.1114319"><ele>549.0</ele><time>2026-04-11T15:05:58.127Z</time></trkpt><trkpt lat="43.1601629" lon="13.1114437"><ele>549.0</ele><time>2026-04-11T15:06:00.127Z</time></trkpt><trkpt lat="43.1602198" lon="13.1115559"><ele>546.0</ele><time>2026-04-11T15:06:02.127Z</time></trkpt><trkpt lat="43.1602907" lon="13.1116519"><ele>543.0</ele><time>2026-04-11T15:06:04.129Z</time></trkpt><trkpt lat="43.1603616" lon="13.1117933"><ele>540.0</ele><time>2026-04-11T15:06:06.127Z</time></trkpt><trkpt lat="43.1604171" lon="13.11193"><ele>537.0</ele><time>2026-04-11T15:06:08.126Z</time></trkpt><trkpt lat="43.1605187" lon="13.1120207"><ele>537.0</ele><time>2026-04-11T15:06:10.127Z</time></trkpt><trkpt lat="43.1605887" lon="13.1120986"><ele>537.0</ele><time>2026-04-11T15:06:11.128Z</time></trkpt><trkpt lat="43.1606557" lon="13.112174"><ele>537.0</ele><time>2026-04-11T15:06:12.128Z</time></trkpt><trkpt lat="43.1607188" lon="13.1122416"><ele>537.0</ele><time>2026-04-11T15:06:13.128Z</time></trkpt><trkpt lat="43.1607745" lon="13.1123122"><ele>537.0</ele><time>2026-04-11T15:06:14.127Z</time></trkpt><trkpt lat="43.1608232" lon="13.1123923"><ele>537.0</ele><time>2026-04-11T15:06:15.127Z</time></trkpt><trkpt lat="43.1608837" lon="13.1124695"><ele>533.6666666666666</ele><time>2026-04-11T15:06:16.127Z</time></trkpt><trkpt lat="43.1609357" lon="13.1125434"><ele>530.3333333333334</ele><time>2026-04-11T15:06:17.127Z</time></trkpt><trkpt lat="43.1609867" lon="13.1126305"><ele>527.0</ele><time>2026-04-11T15:06:18.128Z</time></trkpt><trkpt lat="43.1610358" lon="13.1127093"><ele>523.6666666666667</ele><time>2026-04-11T15:06:19.128Z</time></trkpt><trkpt lat="43.1610859" lon="13.1127955"><ele>520.3333333333334</ele><time>2026-04-11T15:06:20.127Z</time></trkpt><trkpt lat="43.161136" lon="13.1128909"><ele>517.0</ele><time>2026-04-11T15:06:21.128Z</time></trkpt><trkpt lat="43.1611908" lon="13.1129854"><ele>517.0</ele><time>2026-04-11T15:06:22.127Z</time></trkpt><trkpt lat="43.1612545" lon="13.1130778"><ele>517.0</ele><time>2026-04-11T15:06:23.127Z</time></trkpt><trkpt lat="43.1613122" lon="13.1131657"><ele>517.0</ele><time>2026-04-11T15:06:24.128Z</time></trkpt><trkpt lat="43.1613733" lon="13.113252"><ele>517.0</ele><time>2026-04-11T15:06:25.127Z</time></trkpt><trkpt lat="43.1614244" lon="13.1133375"><ele>517.0</ele><time>2026-04-11T15:06:26.127Z</time></trkpt><trkpt lat="43.1614727" lon="13.1134038"><ele>517.0</ele><time>2026-04-11T15:06:27.128Z</time></trkpt><trkpt lat="43.1615212" lon="13.1134779"><ele>518.2</ele><time>2026-04-11T15:06:28.127Z</time></trkpt><trkpt lat="43.1615934" lon="13.1135478"><ele>519.4000000000001</ele><time>2026-04-11T15:06:29.128Z</time></trkpt><trkpt lat="43.1616658" lon="13.113656"><ele>520.5999999999999</ele><time>2026-04-11T15:06:30.127Z</time></trkpt><trkpt lat="43.1617401" lon="13.113759"><ele>521.8</ele><time>2026-04-11T15:06:31.129Z</time></trkpt><trkpt lat="43.1618135" lon="13.1138546"><ele>523.0</ele><time>2026-04-11T15:06:32.128Z</time></trkpt><trkpt lat="43.1618762" lon="13.1139524"><ele>523.0</ele><time>2026-04-11T15:06:33.128Z</time></trkpt><trkpt lat="43.1619215" lon="13.1140454"><ele>523.0</ele><time>2026-04-11T15:06:34.127Z</time></trkpt><trkpt lat="43.1619655" lon="13.1141335"><ele>523.0</ele><time>2026-04-11T15:06:35.127Z</time></trkpt><trkpt lat="43.1620168" lon="13.1142985"><ele>523.0</ele><time>2026-04-11T15:06:37.127Z</time></trkpt><trkpt lat="43.1620515" lon="13.1143825"><ele>523.0</ele><time>2026-04-11T15:06:38.127Z</time></trkpt><trkpt lat="43.1620649" lon="13.114548"><ele>517.8</ele><time>2026-04-11T15:06:40.128Z</time></trkpt><trkpt lat="43.1620449" lon="13.114648"><ele>512.5999999999999</ele><time>2026-04-11T15:06:41.127Z</time></trkpt><trkpt lat="43.1620876" lon="13.1147928"><ele>507.40000000000003</ele><time>2026-04-11T15:06:43.129Z</time></trkpt><trkpt lat="43.1621912" lon="13.1148739"><ele>502.20000000000005</ele><time>2026-04-11T15:06:45.128Z</time></trkpt><trkpt lat="43.1622545" lon="13.1149483"><ele>497.0</ele><time>2026-04-11T15:06:46.128Z</time></trkpt><trkpt lat="43.1623316" lon="13.1149912"><ele>495.3333333333333</ele><time>2026-04-11T15:06:47.128Z</time></trkpt><trkpt lat="43.162426" lon="13.1150337"><ele>493.66666666666663</ele><time>2026-04-11T15:06:48.128Z</time></trkpt><trkpt lat="43.1625009" lon="13.1150778"><ele>492.0</ele><time>2026-04-11T15:06:49.127Z</time></trkpt><trkpt lat="43.162561" lon="13.1151273"><ele>490.33333333333337</ele><time>2026-04-11T15:06:50.129Z</time></trkpt><trkpt lat="43.1626316" lon="13.1151835"><ele>488.6666666666667</ele><time>2026-04-11T15:06:51.128Z</time></trkpt><trkpt lat="43.1626859" lon="13.1152566"><ele>487.0</ele><time>2026-04-11T15:06:53.128Z</time></trkpt><trkpt lat="43.1626501" lon="13.1153435"><ele>487.00000000000006</ele><time>2026-04-11T15:06:58.127Z</time></trkpt><trkpt lat="43.162585" lon="13.1154735"><ele>487.0</ele><time>2026-04-11T15:07:00.128Z</time></trkpt><trkpt lat="43.1625605" lon="13.1155811"><ele>487.0</ele><time>2026-04-11T15:07:02.128Z</time></trkpt><trkpt lat="43.1626146" lon="13.1156446"><ele>487.0</ele><time>2026-04-11T15:07:05.127Z</time></trkpt><trkpt lat="43.1627091" lon="13.1156379"><ele>487.00000000000006</ele><time>2026-04-11T15:07:07.128Z</time></trkpt><trkpt lat="43.1627721" lon="13.1156377"><ele>487.0</ele><time>2026-04-11T15:07:08.127Z</time></trkpt><trkpt lat="43.162841" lon="13.1156481"><ele>487.00000000000006</ele><time>2026-04-11T15:07:09.127Z</time></trkpt><trkpt lat="43.1629048" lon="13.1156633"><ele>487.0</ele><time>2026-04-11T15:07:10.127Z</time></trkpt><trkpt lat="43.1629655" lon="13.1156971"><ele>487.0</ele><time>2026-04-11T15:07:11.127Z</time></trkpt><trkpt lat="43.1630334" lon="13.1157257"><ele>487.0</ele><time>2026-04-11T15:07:14.126Z</time></trkpt><trkpt lat="43.1629858" lon="13.1158171"><ele>487.00000000000006</ele><time>2026-04-11T15:07:22.127Z</time></trkpt><trkpt lat="43.162894" lon="13.1158234"><ele>487.0</ele><time>2026-04-11T15:07:25.129Z</time></trkpt><trkpt lat="43.1628185" lon="13.1158488"><ele>486.8</ele><time>2026-04-11T15:07:27.127Z</time></trkpt><trkpt lat="43.1626991" lon="13.115921"><ele>486.6</ele><time>2026-04-11T15:07:29.129Z</time></trkpt><trkpt lat="43.1626234" lon="13.1159546"><ele>486.40000000000003</ele><time>2026-04-11T15:07:30.128Z</time></trkpt><trkpt lat="43.1625323" lon="13.1159974"><ele>486.20000000000005</ele><time>2026-04-11T15:07:31.129Z</time></trkpt><trkpt lat="43.1624325" lon="13.116038"><ele>486.0</ele><time>2026-04-11T15:07:32.128Z</time></trkpt><trkpt lat="43.1623033" lon="13.1160699"><ele>483.75</ele><time>2026-04-11T15:07:33.128Z</time></trkpt><trkpt lat="43.1621675" lon="13.1161043"><ele>481.5</ele><time>2026-04-11T15:07:34.128Z</time></trkpt><trkpt lat="43.1620428" lon="13.1161304"><ele>479.25</ele><time>2026-04-11T15:07:35.128Z</time></trkpt><trkpt lat="43.1619286" lon="13.116151"><ele>477.0</ele><time>2026-04-11T15:07:36.127Z</time></trkpt><trkpt lat="43.161834" lon="13.1161608"><ele>477.0</ele><time>2026-04-11T15:07:37.126Z</time></trkpt><trkpt lat="43.1617386" lon="13.116158"><ele>477.00000000000006</ele><time>2026-04-11T15:07:38.127Z</time></trkpt><trkpt lat="43.1616316" lon="13.1161457"><ele>477.00000000000006</ele><time>2026-04-11T15:07:39.128Z</time></trkpt><trkpt lat="43.1615184" lon="13.1161276"><ele>477.0</ele><time>2026-04-11T15:07:40.128Z</time></trkpt><trkpt lat="43.1614011" lon="13.1161091"><ele>477.0</ele><time>2026-04-11T15:07:41.128Z</time></trkpt><trkpt lat="43.1612879" lon="13.1160894"><ele>476.40000000000003</ele><time>2026-04-11T15:07:42.128Z</time></trkpt><trkpt lat="43.1611811" lon="13.116066"><ele>475.80000000000007</ele><time>2026-04-11T15:07:43.128Z</time></trkpt><trkpt lat="43.1610753" lon="13.1160555"><ele>475.2</ele><time>2026-04-11T15:07:44.127Z</time></trkpt><trkpt lat="43.1609576" lon="13.1160619"><ele>474.6</ele><time>2026-04-11T15:07:45.128Z</time></trkpt><trkpt lat="43.1608429" lon="13.1160764"><ele>474.0</ele><time>2026-04-11T15:07:46.127Z</time></trkpt><trkpt lat="43.1607373" lon="13.1160821"><ele>475.0</ele><time>2026-04-11T15:07:47.126Z</time></trkpt><trkpt lat="43.1606306" lon="13.1160878"><ele>476.0</ele><time>2026-04-11T15:07:48.127Z</time></trkpt><trkpt lat="43.1605374" lon="13.1161094"><ele>477.0</ele><time>2026-04-11T15:07:49.126Z</time></trkpt><trkpt lat="43.1604587" lon="13.1161656"><ele>478.0</ele><time>2026-04-11T15:07:50.127Z</time></trkpt><trkpt lat="43.1603812" lon="13.1162424"><ele>479.0</ele><time>2026-04-11T15:07:51.127Z</time></trkpt><trkpt lat="43.1602952" lon="13.1163571"><ele>479.0</ele><time>2026-04-11T15:07:52.126Z</time></trkpt><trkpt lat="43.1601907" lon="13.1164693"><ele>479.0</ele><time>2026-04-11T15:07:53.126Z</time></trkpt><trkpt lat="43.1600719" lon="13.1165778"><ele>479.0</ele><time>2026-04-11T15:07:54.127Z</time></trkpt><trkpt lat="43.1599463" lon="13.1166815"><ele>479.0</ele><time>2026-04-11T15:07:55.128Z</time></trkpt><trkpt lat="43.1598319" lon="13.1167833"><ele>480.0</ele><time>2026-04-11T15:07:56.127Z</time></trkpt><trkpt lat="43.1597297" lon="13.1169041"><ele>481.0</ele><time>2026-04-11T15:07:57.128Z</time></trkpt><trkpt lat="43.1596388" lon="13.1170372"><ele>482.0</ele><time>2026-04-11T15:07:58.126Z</time></trkpt><trkpt lat="43.1595597" lon="13.1171498"><ele>483.0</ele><time>2026-04-11T15:07:59.127Z</time></trkpt><trkpt lat="43.1594694" lon="13.1172446"><ele>483.0</ele><time>2026-04-11T15:08:00.126Z</time></trkpt><trkpt lat="43.1593682" lon="13.1173228"><ele>483.0</ele><time>2026-04-11T15:08:01.126Z</time></trkpt><trkpt lat="43.1592653" lon="13.1174023"><ele>483.0</ele><time>2026-04-11T15:08:02.126Z</time></trkpt><trkpt lat="43.1591623" lon="13.1174827"><ele>483.0</ele><time>2026-04-11T15:08:03.128Z</time></trkpt><trkpt lat="43.159062" lon="13.1175841"><ele>481.0</ele><time>2026-04-11T15:08:04.129Z</time></trkpt><trkpt lat="43.1589847" lon="13.1176762"><ele>478.99999999999994</ele><time>2026-04-11T15:08:05.126Z</time></trkpt><trkpt lat="43.1589089" lon="13.1177528"><ele>476.99999999999994</ele><time>2026-04-11T15:08:06.127Z</time></trkpt><trkpt lat="43.1588305" lon="13.1177898"><ele>475.0</ele><time>2026-04-11T15:08:07.126Z</time></trkpt><trkpt lat="43.158739" lon="13.1177845"><ele>473.0</ele><time>2026-04-11T15:08:08.127Z</time></trkpt><trkpt lat="43.1586427" lon="13.1177918"><ele>473.0</ele><time>2026-04-11T15:08:09.127Z</time></trkpt><trkpt lat="43.1585196" lon="13.1177767"><ele>472.99999999999994</ele><time>2026-04-11T15:08:10.128Z</time></trkpt><trkpt lat="43.1583975" lon="13.1177665"><ele>472.99999999999994</ele><time>2026-04-11T15:08:11.129Z</time></trkpt><trkpt lat="43.1582909" lon="13.117784"><ele>473.0</ele><time>2026-04-11T15:08:12.128Z</time></trkpt><trkpt lat="43.1582132" lon="13.1178472"><ele>473.0</ele><time>2026-04-11T15:08:13.126Z</time></trkpt><trkpt lat="43.1581444" lon="13.1179406"><ele>475.5</ele><time>2026-04-11T15:08:14.128Z</time></trkpt><trkpt lat="43.1580781" lon="13.1180626"><ele>478.0</ele><time>2026-04-11T15:08:15.126Z</time></trkpt><trkpt lat="43.1580001" lon="13.1182098"><ele>480.5</ele><time>2026-04-11T15:08:16.127Z</time></trkpt><trkpt lat="43.1579082" lon="13.1183516"><ele>483.0</ele><time>2026-04-11T15:08:17.127Z</time></trkpt><trkpt lat="43.1578089" lon="13.1184668"><ele>477.25</ele><time>2026-04-11T15:08:18.127Z</time></trkpt><trkpt lat="43.157703" lon="13.1185621"><ele>471.5</ele><time>2026-04-11T15:08:19.127Z</time></trkpt><trkpt lat="43.1576067" lon="13.1186221"><ele>465.75</ele><time>2026-04-11T15:08:20.126Z</time></trkpt><trkpt lat="43.1574958" lon="13.1186623"><ele>460.0</ele><time>2026-04-11T15:08:21.127Z</time></trkpt><trkpt lat="43.1573738" lon="13.1187103"><ele>462.75</ele><time>2026-04-11T15:08:22.127Z</time></trkpt><trkpt lat="43.157245" lon="13.118768"><ele>465.5</ele><time>2026-04-11T15:08:23.127Z</time></trkpt><trkpt lat="43.1571147" lon="13.1188177"><ele>468.25</ele><time>2026-04-11T15:08:24.126Z</time></trkpt><trkpt lat="43.156981" lon="13.1188529"><ele>471.0</ele><time>2026-04-11T15:08:25.127Z</time></trkpt><trkpt lat="43.1568471" lon="13.1188866"><ele>471.0</ele><time>2026-04-11T15:08:26.129Z</time></trkpt><trkpt lat="43.1567292" lon="13.1189299"><ele>471.0</ele><time>2026-04-11T15:08:27.126Z</time></trkpt><trkpt lat="43.1566184" lon="13.1189935"><ele>471.0</ele><time>2026-04-11T15:08:28.127Z</time></trkpt><trkpt lat="43.1565248" lon="13.1191002"><ele>471.0</ele><time>2026-04-11T15:08:29.128Z</time></trkpt><trkpt lat="43.1564298" lon="13.1192319"><ele>468.0</ele><time>2026-04-11T15:08:30.129Z</time></trkpt><trkpt lat="43.1563282" lon="13.1193807"><ele>465.0</ele><time>2026-04-11T15:08:31.128Z</time></trkpt><trkpt lat="43.15623" lon="13.1195099"><ele>462.0</ele><time>2026-04-11T15:08:32.126Z</time></trkpt><trkpt lat="43.1561276" lon="13.1196081"><ele>459.0</ele><time>2026-04-11T15:08:33.126Z</time></trkpt><trkpt lat="43.1560198" lon="13.1196638"><ele>459.0</ele><time>2026-04-11T15:08:34.128Z</time></trkpt><trkpt lat="43.1558981" lon="13.1197262"><ele>459.0</ele><time>2026-04-11T15:08:35.126Z</time></trkpt><trkpt lat="43.1557809" lon="13.1198031"><ele>459.0</ele><time>2026-04-11T15:08:36.128Z</time></trkpt><trkpt lat="43.1556675" lon="13.1198846"><ele>459.0</ele><time>2026-04-11T15:08:37.127Z</time></trkpt><trkpt lat="43.1555535" lon="13.1199696"><ele>456.75</ele><time>2026-04-11T15:08:38.128Z</time></trkpt><trkpt lat="43.1554515" lon="13.1200609"><ele>454.5</ele><time>2026-04-11T15:08:39.126Z</time></trkpt><trkpt lat="43.1553683" lon="13.1201706"><ele>452.25</ele><time>2026-04-11T15:08:40.126Z</time></trkpt><trkpt lat="43.1552822" lon="13.1202893"><ele>450.0</ele><time>2026-04-11T15:08:41.127Z</time></trkpt><trkpt lat="43.1551857" lon="13.1204172"><ele>450.0</ele><time>2026-04-11T15:08:42.126Z</time></trkpt><trkpt lat="43.1551022" lon="13.1205497"><ele>450.0</ele><time>2026-04-11T15:08:43.128Z</time></trkpt><trkpt lat="43.1550349" lon="13.1206809"><ele>450.0</ele><time>2026-04-11T15:08:44.127Z</time></trkpt><trkpt lat="43.1549881" lon="13.120815"><ele>450.0</ele><time>2026-04-11T15:08:45.127Z</time></trkpt><trkpt lat="43.1549519" lon="13.1209457"><ele>449.2</ele><time>2026-04-11T15:08:46.127Z</time></trkpt><trkpt lat="43.1549416" lon="13.1210629"><ele>448.4</ele><time>2026-04-11T15:08:47.127Z</time></trkpt><trkpt lat="43.1549037" lon="13.1211901"><ele>447.6</ele><time>2026-04-11T15:08:48.128Z</time></trkpt><trkpt lat="43.1548469" lon="13.1213142"><ele>446.8</ele><time>2026-04-11T15:08:49.127Z</time></trkpt><trkpt lat="43.154777" lon="13.121429"><ele>446.0</ele><time>2026-04-11T15:08:50.126Z</time></trkpt><trkpt lat="43.1547261" lon="13.1215427"><ele>448.0</ele><time>2026-04-11T15:08:51.126Z</time></trkpt><trkpt lat="43.1546822" lon="13.1216784"><ele>450.0</ele><time>2026-04-11T15:08:52.128Z</time></trkpt><trkpt lat="43.154654" lon="13.1218209"><ele>452.0</ele><time>2026-04-11T15:08:53.129Z</time></trkpt><trkpt lat="43.1546286" lon="13.1219786"><ele>454.0</ele><time>2026-04-11T15:08:54.127Z</time></trkpt><trkpt lat="43.1545867" lon="13.1221461"><ele>454.0</ele><time>2026-04-11T15:08:55.127Z</time></trkpt><trkpt lat="43.1545378" lon="13.1223105"><ele>454.0</ele><time>2026-04-11T15:08:56.128Z</time></trkpt><trkpt lat="43.154471" lon="13.1224738"><ele>454.0</ele><time>2026-04-11T15:08:57.128Z</time></trkpt><trkpt lat="43.1544031" lon="13.1226471"><ele>454.0</ele><time>2026-04-11T15:08:58.126Z</time></trkpt><trkpt lat="43.1543214" lon="13.122824"><ele>452.5</ele><time>2026-04-11T15:08:59.128Z</time></trkpt><trkpt lat="43.1542372" lon="13.1229926"><ele>451.0</ele><time>2026-04-11T15:09:00.127Z</time></trkpt><trkpt lat="43.154159" lon="13.1231602"><ele>449.5</ele><time>2026-04-11T15:09:01.127Z</time></trkpt><trkpt lat="43.1540929" lon="13.1233305"><ele>448.0</ele><time>2026-04-11T15:09:02.127Z</time></trkpt><trkpt lat="43.154029" lon="13.123472"><ele>448.0</ele><time>2026-04-11T15:09:03.128Z</time></trkpt><trkpt lat="43.1539556" lon="13.1235816"><ele>447.99999999999994</ele><time>2026-04-11T15:09:04.128Z</time></trkpt><trkpt lat="43.1538573" lon="13.1236623"><ele>447.99999999999994</ele><time>2026-04-11T15:09:05.126Z</time></trkpt><trkpt lat="43.1537521" lon="13.1237301"><ele>448.0</ele><time>2026-04-11T15:09:06.127Z</time></trkpt><trkpt lat="43.1536612" lon="13.1237966"><ele>448.0</ele><time>2026-04-11T15:09:07.128Z</time></trkpt><trkpt lat="43.1535895" lon="13.1239004"><ele>448.0</ele><time>2026-04-11T15:09:08.126Z</time></trkpt><trkpt lat="43.1535315" lon="13.1240214"><ele>448.0</ele><time>2026-04-11T15:09:09.127Z</time></trkpt><trkpt lat="43.1534808" lon="13.1241735"><ele>448.0</ele><time>2026-04-11T15:09:10.128Z</time></trkpt><trkpt lat="43.1534271" lon="13.1243545"><ele>448.0</ele><time>2026-04-11T15:09:11.127Z</time></trkpt><trkpt lat="43.1533747" lon="13.1245311"><ele>447.59999999999997</ele><time>2026-04-11T15:09:12.128Z</time></trkpt><trkpt lat="43.1533321" lon="13.1246847"><ele>447.19999999999993</ele><time>2026-04-11T15:09:13.127Z</time></trkpt><trkpt lat="43.1532902" lon="13.1248121"><ele>446.8</ele><time>2026-04-11T15:09:14.127Z</time></trkpt><trkpt lat="43.1532525" lon="13.1249205"><ele>446.4</ele><time>2026-04-11T15:09:15.127Z</time></trkpt><trkpt lat="43.1532236" lon="13.1250134"><ele>446.0</ele><time>2026-04-11T15:09:16.127Z</time></trkpt><trkpt lat="43.1531856" lon="13.1251638"><ele>445.99999999999994</ele><time>2026-04-11T15:09:18.127Z</time></trkpt><trkpt lat="43.1531773" lon="13.1252665"><ele>446.0</ele><time>2026-04-11T15:09:19.127Z</time></trkpt><trkpt lat="43.1531621" lon="13.1253829"><ele>446.0</ele><time>2026-04-11T15:09:20.127Z</time></trkpt><trkpt lat="43.1531407" lon="13.1254876"><ele>446.0</ele><time>2026-04-11T15:09:21.128Z</time></trkpt><trkpt lat="43.1531117" lon="13.1256017"><ele>445.99999999999994</ele><time>2026-04-11T15:09:22.127Z</time></trkpt><trkpt lat="43.1530728" lon="13.1257138"><ele>446.0</ele><time>2026-04-11T15:09:23.127Z</time></trkpt><trkpt lat="43.1530229" lon="13.1258333"><ele>442.4</ele><time>2026-04-11T15:09:24.127Z</time></trkpt><trkpt lat="43.1529655" lon="13.125966"><ele>438.8</ele><time>2026-04-11T15:09:25.129Z</time></trkpt><trkpt lat="43.1529092" lon="13.1260906"><ele>435.19999999999993</ele><time>2026-04-11T15:09:26.127Z</time></trkpt><trkpt lat="43.1528542" lon="13.1262003"><ele>431.59999999999997</ele><time>2026-04-11T15:09:27.126Z</time></trkpt><trkpt lat="43.1527852" lon="13.1263058"><ele>428.0</ele><time>2026-04-11T15:09:28.128Z</time></trkpt><trkpt lat="43.1527011" lon="13.1264009"><ele>428.0</ele><time>2026-04-11T15:09:29.127Z</time></trkpt><trkpt lat="43.1526007" lon="13.1264827"><ele>428.0</ele><time>2026-04-11T15:09:30.126Z</time></trkpt><trkpt lat="43.1524934" lon="13.1265606"><ele>428.0</ele><time>2026-04-11T15:09:31.127Z</time></trkpt><trkpt lat="43.1524003" lon="13.1266339"><ele>428.0</ele><time>2026-04-11T15:09:32.128Z</time></trkpt><trkpt lat="43.1523152" lon="13.1267265"><ele>427.0</ele><time>2026-04-11T15:09:33.127Z</time></trkpt><trkpt lat="43.1522313" lon="13.1268357"><ele>426.0</ele><time>2026-04-11T15:09:34.127Z</time></trkpt><trkpt lat="43.1521498" lon="13.126962"><ele>425.0</ele><time>2026-04-11T15:09:35.127Z</time></trkpt><trkpt lat="43.152075" lon="13.127102"><ele>424.0</ele><time>2026-04-11T15:09:36.128Z</time></trkpt><trkpt lat="43.1520035" lon="13.1272396"><ele>424.0</ele><time>2026-04-11T15:09:37.128Z</time></trkpt><trkpt lat="43.1519349" lon="13.1273814"><ele>424.0</ele><time>2026-04-11T15:09:38.128Z</time></trkpt><trkpt lat="43.1518625" lon="13.1275254"><ele>424.0</ele><time>2026-04-11T15:09:39.127Z</time></trkpt><trkpt lat="43.1517869" lon="13.1276788"><ele>424.0</ele><time>2026-04-11T15:09:40.128Z</time></trkpt><trkpt lat="43.1517048" lon="13.1278224"><ele>422.75</ele><time>2026-04-11T15:09:41.127Z</time></trkpt><trkpt lat="43.15162" lon="13.1279488"><ele>421.5</ele><time>2026-04-11T15:09:42.127Z</time></trkpt><trkpt lat="43.1515185" lon="13.1280589"><ele>420.25</ele><time>2026-04-11T15:09:43.127Z</time></trkpt><trkpt lat="43.1513984" lon="13.1281517"><ele>419.0</ele><time>2026-04-11T15:09:44.129Z</time></trkpt><trkpt lat="43.1512628" lon="13.1282352"><ele>425.0</ele><time>2026-04-11T15:09:45.127Z</time></trkpt><trkpt lat="43.1511206" lon="13.1283119"><ele>431.0</ele><time>2026-04-11T15:09:46.127Z</time></trkpt><trkpt lat="43.1509748" lon="13.1283936"><ele>437.0</ele><time>2026-04-11T15:09:47.127Z</time></trkpt><trkpt lat="43.1508289" lon="13.1284789"><ele>432.0</ele><time>2026-04-11T15:09:48.126Z</time></trkpt><trkpt lat="43.1506806" lon="13.1285771"><ele>427.0</ele><time>2026-04-11T15:09:49.128Z</time></trkpt><trkpt lat="43.1505375" lon="13.1286943"><ele>422.0</ele><time>2026-04-11T15:09:50.128Z</time></trkpt><trkpt lat="43.1503971" lon="13.1288178"><ele>422.0</ele><time>2026-04-11T15:09:51.128Z</time></trkpt><trkpt lat="43.150255" lon="13.1289535"><ele>422.0</ele><time>2026-04-11T15:09:52.126Z</time></trkpt><trkpt lat="43.1501127" lon="13.1290963"><ele>422.0</ele><time>2026-04-11T15:09:53.127Z</time></trkpt><trkpt lat="43.1499684" lon="13.1292472"><ele>423.66666666666663</ele><time>2026-04-11T15:09:54.129Z</time></trkpt><trkpt lat="43.1498321" lon="13.1293916"><ele>425.33333333333337</ele><time>2026-04-11T15:09:55.127Z</time></trkpt><trkpt lat="43.1497032" lon="13.1295419"><ele>427.0</ele><time>2026-04-11T15:09:56.127Z</time></trkpt><trkpt lat="43.1495854" lon="13.1297131"><ele>434.6666666666667</ele><time>2026-04-11T15:09:57.126Z</time></trkpt><trkpt lat="43.1494792" lon="13.1298995"><ele>442.33333333333337</ele><time>2026-04-11T15:09:58.128Z</time></trkpt><trkpt lat="43.1493746" lon="13.1301"><ele>450.0</ele><time>2026-04-11T15:09:59.127Z</time></trkpt><trkpt lat="43.1492724" lon="13.130317"><ele>450.0</ele><time>2026-04-11T15:10:00.126Z</time></trkpt><trkpt lat="43.1491736" lon="13.1305412"><ele>450.0</ele><time>2026-04-11T15:10:01.128Z</time></trkpt><trkpt lat="43.1490709" lon="13.1307632"><ele>450.0</ele><time>2026-04-11T15:10:02.127Z</time></trkpt><trkpt lat="43.1489657" lon="13.1309797"><ele>453.66666666666663</ele><time>2026-04-11T15:10:03.127Z</time></trkpt><trkpt lat="43.1488623" lon="13.131193"><ele>457.3333333333333</ele><time>2026-04-11T15:10:04.126Z</time></trkpt><trkpt lat="43.1487674" lon="13.1314145"><ele>461.0</ele><time>2026-04-11T15:10:05.128Z</time></trkpt><trkpt lat="43.1486836" lon="13.1316493"><ele>461.0</ele><time>2026-04-11T15:10:06.127Z</time></trkpt><trkpt lat="43.1485989" lon="13.1318805"><ele>461.0</ele><time>2026-04-11T15:10:07.126Z</time></trkpt><trkpt lat="43.1485138" lon="13.1321218"><ele>461.0</ele><time>2026-04-11T15:10:08.126Z</time></trkpt><trkpt lat="43.1484248" lon="13.1323566"><ele>457.66666666666663</ele><time>2026-04-11T15:10:09.128Z</time></trkpt><trkpt lat="43.1483274" lon="13.1325865"><ele>454.33333333333337</ele><time>2026-04-11T15:10:10.127Z</time></trkpt><trkpt lat="43.1482331" lon="13.1328108"><ele>451.0</ele><time>2026-04-11T15:10:11.127Z</time></trkpt><trkpt lat="43.1481538" lon="13.133006"><ele>451.0</ele><time>2026-04-11T15:10:12.126Z</time></trkpt><trkpt lat="43.148094" lon="13.133189"><ele>451.0</ele><time>2026-04-11T15:10:13.127Z</time></trkpt><trkpt lat="43.1480534" lon="13.1333849"><ele>451.0</ele><time>2026-04-11T15:10:14.126Z</time></trkpt><trkpt lat="43.1480207" lon="13.1336007"><ele>456.6666666666667</ele><time>2026-04-11T15:10:15.127Z</time></trkpt><trkpt lat="43.1480077" lon="13.1338447"><ele>462.33333333333337</ele><time>2026-04-11T15:10:16.127Z</time></trkpt><trkpt lat="43.1479834" lon="13.1340929"><ele>468.0</ele><time>2026-04-11T15:10:17.127Z</time></trkpt><trkpt lat="43.1479577" lon="13.1343417"><ele>471.66666666666663</ele><time>2026-04-11T15:10:18.128Z</time></trkpt><trkpt lat="43.1479347" lon="13.1346042"><ele>475.3333333333333</ele><time>2026-04-11T15:10:19.127Z</time></trkpt><trkpt lat="43.1479118" lon="13.1348631"><ele>479.0</ele><time>2026-04-11T15:10:20.126Z</time></trkpt><trkpt lat="43.1478872" lon="13.1351213"><ele>480.66666666666663</ele><time>2026-04-11T15:10:21.128Z</time></trkpt><trkpt lat="43.1478608" lon="13.1353696"><ele>482.33333333333337</ele><time>2026-04-11T15:10:22.127Z</time></trkpt><trkpt lat="43.1478299" lon="13.1356101"><ele>484.0</ele><time>2026-04-11T15:10:23.126Z</time></trkpt><trkpt lat="43.1478009" lon="13.1358457"><ele>485.6666666666667</ele><time>2026-04-11T15:10:24.127Z</time></trkpt><trkpt lat="43.1477741" lon="13.1360696"><ele>487.33333333333337</ele><time>2026-04-11T15:10:25.128Z</time></trkpt><trkpt lat="43.1477559" lon="13.1362927"><ele>489.0</ele><time>2026-04-11T15:10:26.127Z</time></trkpt><trkpt lat="43.1477417" lon="13.136521"><ele>491.66666666666663</ele><time>2026-04-11T15:10:27.127Z</time></trkpt><trkpt lat="43.1477278" lon="13.1367549"><ele>494.3333333333333</ele><time>2026-04-11T15:10:28.126Z</time></trkpt><trkpt lat="43.1477205" lon="13.137002"><ele>497.0</ele><time>2026-04-11T15:10:29.126Z</time></trkpt><trkpt lat="43.1477083" lon="13.137258"><ele>499.66666666666663</ele><time>2026-04-11T15:10:30.127Z</time></trkpt><trkpt lat="43.1476912" lon="13.1375092"><ele>502.33333333333337</ele><time>2026-04-11T15:10:31.127Z</time></trkpt><trkpt lat="43.1476737" lon="13.1377519"><ele>505.0</ele><time>2026-04-11T15:10:32.128Z</time></trkpt><trkpt lat="43.1476604" lon="13.1379946"><ele>509.0</ele><time>2026-04-11T15:10:33.128Z</time></trkpt><trkpt lat="43.147642" lon="13.1382358"><ele>513.0</ele><time>2026-04-11T15:10:34.128Z</time></trkpt><trkpt lat="43.1476245" lon="13.138475"><ele>517.0</ele><time>2026-04-11T15:10:35.127Z</time></trkpt><trkpt lat="43.1476016" lon="13.1387284"><ele>517.0</ele><time>2026-04-11T15:10:36.127Z</time></trkpt><trkpt lat="43.1475738" lon="13.1389844"><ele>517.0</ele><time>2026-04-11T15:10:37.127Z</time></trkpt><trkpt lat="43.1475335" lon="13.1392501"><ele>517.0</ele><time>2026-04-11T15:10:38.126Z</time></trkpt><trkpt lat="43.1474924" lon="13.1394881"><ele>516.0</ele><time>2026-04-11T15:10:39.127Z</time></trkpt><trkpt lat="43.147447" lon="13.1396899"><ele>515.0</ele><time>2026-04-11T15:10:40.126Z</time></trkpt><trkpt lat="43.1473913" lon="13.1398583"><ele>514.0</ele><time>2026-04-11T15:10:41.128Z</time></trkpt><trkpt lat="43.1473034" lon="13.1400103"><ele>513.0</ele><time>2026-04-11T15:10:42.126Z</time></trkpt><trkpt lat="43.1472001" lon="13.1401664"><ele>513.0</ele><time>2026-04-11T15:10:43.126Z</time></trkpt><trkpt lat="43.1470981" lon="13.1403162"><ele>513.0</ele><time>2026-04-11T15:10:44.127Z</time></trkpt><trkpt lat="43.1470034" lon="13.1404633"><ele>513.0</ele><time>2026-04-11T15:10:45.128Z</time></trkpt><trkpt lat="43.1469233" lon="13.1406099"><ele>513.0</ele><time>2026-04-11T15:10:46.127Z</time></trkpt><trkpt lat="43.1468716" lon="13.1407638"><ele>516.75</ele><time>2026-04-11T15:10:47.126Z</time></trkpt><trkpt lat="43.1468367" lon="13.1409337"><ele>520.5</ele><time>2026-04-11T15:10:48.127Z</time></trkpt><trkpt lat="43.1468251" lon="13.1411156"><ele>524.25</ele><time>2026-04-11T15:10:49.127Z</time></trkpt><trkpt lat="43.1468231" lon="13.1413191"><ele>528.0</ele><time>2026-04-11T15:10:50.128Z</time></trkpt><trkpt lat="43.1468301" lon="13.141562"><ele>530.0</ele><time>2026-04-11T15:10:51.128Z</time></trkpt><trkpt lat="43.1468274" lon="13.1418472"><ele>532.0</ele><time>2026-04-11T15:10:52.127Z</time></trkpt><trkpt lat="43.1468228" lon="13.1421093"><ele>534.0</ele><time>2026-04-11T15:10:53.128Z</time></trkpt><trkpt lat="43.1467995" lon="13.1423559"><ele>536.3333333333334</ele><time>2026-04-11T15:10:54.127Z</time></trkpt><trkpt lat="43.1467732" lon="13.142591"><ele>538.6666666666667</ele><time>2026-04-11T15:10:55.128Z</time></trkpt><trkpt lat="43.1467439" lon="13.1428205"><ele>541.0</ele><time>2026-04-11T15:10:56.126Z</time></trkpt><trkpt lat="43.1467206" lon="13.14305"><ele>544.0</ele><time>2026-04-11T15:10:57.127Z</time></trkpt><trkpt lat="43.1466996" lon="13.143276"><ele>547.0</ele><time>2026-04-11T15:10:58.127Z</time></trkpt><trkpt lat="43.1466763" lon="13.143515"><ele>550.0</ele><time>2026-04-11T15:10:59.127Z</time></trkpt><trkpt lat="43.1466571" lon="13.1437165"><ele>550.0</ele><time>2026-04-11T15:11:00.127Z</time></trkpt><trkpt lat="43.1466426" lon="13.1438689"><ele>550.0</ele><time>2026-04-11T15:11:01.127Z</time></trkpt><trkpt lat="43.1466301" lon="13.1439782"><ele>550.0</ele><time>2026-04-11T15:11:02.127Z</time></trkpt><trkpt lat="43.1466184" lon="13.1440651"><ele>550.0</ele><time>2026-04-11T15:11:03.129Z</time></trkpt><trkpt lat="43.1466099" lon="13.1442092"><ele>550.0</ele><time>2026-04-11T15:11:05.129Z</time></trkpt><trkpt lat="43.1465873" lon="13.1443368"><ele>551.4</ele><time>2026-04-11T15:11:07.127Z</time></trkpt><trkpt lat="43.1465797" lon="13.144512"><ele>552.8</ele><time>2026-04-11T15:11:09.127Z</time></trkpt><trkpt lat="43.1465801" lon="13.1446775"><ele>554.2</ele><time>2026-04-11T15:11:11.127Z</time></trkpt><trkpt lat="43.146579" lon="13.1447662"><ele>555.6</ele><time>2026-04-11T15:11:12.127Z</time></trkpt><trkpt lat="43.1465758" lon="13.1448616"><ele>557.0</ele><time>2026-04-11T15:11:13.128Z</time></trkpt><trkpt lat="43.1465681" lon="13.1449544"><ele>557.8571428571429</ele><time>2026-04-11T15:11:14.128Z</time></trkpt><trkpt lat="43.146561" lon="13.1450504"><ele>558.7142857142857</ele><time>2026-04-11T15:11:15.127Z</time></trkpt><trkpt lat="43.1465509" lon="13.145149"><ele>559.5714285714286</ele><time>2026-04-11T15:11:16.127Z</time></trkpt><trkpt lat="43.1465397" lon="13.1452534"><ele>560.4285714285714</ele><time>2026-04-11T15:11:17.126Z</time></trkpt><trkpt lat="43.1465357" lon="13.14536"><ele>561.2857142857143</ele><time>2026-04-11T15:11:18.128Z</time></trkpt><trkpt lat="43.1465265" lon="13.1454515"><ele>562.1428571428571</ele><time>2026-04-11T15:11:19.128Z</time></trkpt><trkpt lat="43.1465206" lon="13.1455383"><ele>563.0</ele><time>2026-04-11T15:11:20.127Z</time></trkpt><trkpt lat="43.1465056" lon="13.1456928"><ele>564.6666666666666</ele><time>2026-04-11T15:11:22.127Z</time></trkpt><trkpt lat="43.1465051" lon="13.1457866"><ele>566.3333333333333</ele><time>2026-04-11T15:11:23.127Z</time></trkpt><trkpt lat="43.146506" lon="13.1458942"><ele>568.0</ele><time>2026-04-11T15:11:24.127Z</time></trkpt><trkpt lat="43.1465113" lon="13.1459971"><ele>569.6666666666666</ele><time>2026-04-11T15:11:25.128Z</time></trkpt><trkpt lat="43.1465381" lon="13.1460972"><ele>571.3333333333334</ele><time>2026-04-11T15:11:26.126Z</time></trkpt><trkpt lat="43.1465583" lon="13.1462064"><ele>573.0</ele><time>2026-04-11T15:11:27.127Z</time></trkpt><trkpt lat="43.1465697" lon="13.1463055"><ele>573.0</ele><time>2026-04-11T15:11:28.128Z</time></trkpt><trkpt lat="43.1465762" lon="13.1463969"><ele>573.0</ele><time>2026-04-11T15:11:29.126Z</time></trkpt><trkpt lat="43.1465065" lon="13.1464736"><ele>573.0</ele><time>2026-04-11T15:11:31.126Z</time></trkpt><trkpt lat="43.1464031" lon="13.1465112"><ele>573.0</ele><time>2026-04-11T15:11:33.126Z</time></trkpt><trkpt lat="43.1462966" lon="13.1465742"><ele>573.0</ele><time>2026-04-11T15:11:35.126Z</time></trkpt><trkpt lat="43.1462336" lon="13.1466596"><ele>567.0</ele><time>2026-04-11T15:11:37.128Z</time></trkpt><trkpt lat="43.1462075" lon="13.146773"><ele>561.0</ele><time>2026-04-11T15:11:39.128Z</time></trkpt><trkpt lat="43.1462193" lon="13.146936"><ele>555.0</ele><time>2026-04-11T15:11:41.126Z</time></trkpt><trkpt lat="43.1462288" lon="13.1470422"><ele>549.0</ele><time>2026-04-11T15:11:42.127Z</time></trkpt><trkpt lat="43.14624" lon="13.1471459"><ele>543.0</ele><time>2026-04-11T15:11:43.127Z</time></trkpt><trkpt lat="43.1462555" lon="13.1472669"><ele>546.0</ele><time>2026-04-11T15:11:44.127Z</time></trkpt><trkpt lat="43.1462624" lon="13.1473869"><ele>549.0</ele><time>2026-04-11T15:11:45.126Z</time></trkpt><trkpt lat="43.1462708" lon="13.1475073"><ele>552.0</ele><time>2026-04-11T15:11:46.127Z</time></trkpt><trkpt lat="43.1462666" lon="13.1475994"><ele>555.0</ele><time>2026-04-11T15:11:47.128Z</time></trkpt><trkpt lat="43.1462469" lon="13.1476862"><ele>558.0</ele><time>2026-04-11T15:11:48.127Z</time></trkpt><trkpt lat="43.1461841" lon="13.1478222"><ele>561.0</ele><time>2026-04-11T15:11:50.126Z</time></trkpt><trkpt lat="43.1461473" lon="13.1478938"><ele>561.0</ele><time>2026-04-11T15:11:51.127Z</time></trkpt><trkpt lat="43.1460818" lon="13.1479537"><ele>561.0</ele><time>2026-04-11T15:11:53.128Z</time></trkpt><trkpt lat="43.1460162" lon="13.1479407"><ele>561.0</ele><time>2026-04-11T15:11:55.128Z</time></trkpt><trkpt lat="43.1459286" lon="13.1479157"><ele>561.0</ele><time>2026-04-11T15:11:57.127Z</time></trkpt><trkpt lat="43.1458267" lon="13.1479035"><ele>561.0</ele><time>2026-04-11T15:11:59.127Z</time></trkpt><trkpt lat="43.1457307" lon="13.1479116"><ele>561.0</ele><time>2026-04-11T15:12:01.127Z</time></trkpt><trkpt lat="43.1456568" lon="13.1479186"><ele>561.0</ele><time>2026-04-11T15:12:03.127Z</time></trkpt><trkpt lat="43.1455524" lon="13.1479544"><ele>561.0</ele><time>2026-04-11T15:12:05.127Z</time></trkpt><trkpt lat="43.1455475" lon="13.1480464"><ele>561.0</ele><time>2026-04-11T15:12:10.127Z</time></trkpt><trkpt lat="43.1456284" lon="13.1480869"><ele>561.0</ele><time>2026-04-11T15:12:12.127Z</time></trkpt><trkpt lat="43.1457364" lon="13.148164"><ele>561.0</ele><time>2026-04-11T15:12:14.128Z</time></trkpt><trkpt lat="43.1458246" lon="13.1482833"><ele>566.4</ele><time>2026-04-11T15:12:16.128Z</time></trkpt><trkpt lat="43.1458734" lon="13.1483585"><ele>571.8</ele><time>2026-04-11T15:12:17.127Z</time></trkpt><trkpt lat="43.1459266" lon="13.1484486"><ele>577.1999999999999</ele><time>2026-04-11T15:12:18.129Z</time></trkpt><trkpt lat="43.1459582" lon="13.1486356"><ele>582.6</ele><time>2026-04-11T15:12:20.128Z</time></trkpt><trkpt lat="43.1459664" lon="13.148755"><ele>588.0</ele><time>2026-04-11T15:12:21.127Z</time></trkpt><trkpt lat="43.1459775" lon="13.1488567"><ele>588.0</ele><time>2026-04-11T15:12:22.127Z</time></trkpt><trkpt lat="43.145994" lon="13.1489506"><ele>588.0</ele><time>2026-04-11T15:12:23.127Z</time></trkpt><trkpt lat="43.1460664" lon="13.1490888"><ele>588.0</ele><time>2026-04-11T15:12:25.126Z</time></trkpt><trkpt lat="43.1461204" lon="13.149139"><ele>588.0</ele><time>2026-04-11T15:12:26.127Z</time></trkpt><trkpt lat="43.1462232" lon="13.1491695"><ele>588.0</ele><time>2026-04-11T15:12:28.127Z</time></trkpt><trkpt lat="43.1462937" lon="13.1491629"><ele>588.0</ele><time>2026-04-11T15:12:29.128Z</time></trkpt><trkpt lat="43.1463641" lon="13.1491574"><ele>587.8333333333334</ele><time>2026-04-11T15:12:30.127Z</time></trkpt><trkpt lat="43.1464347" lon="13.1491541"><ele>587.6666666666666</ele><time>2026-04-11T15:12:31.128Z</time></trkpt><trkpt lat="43.1465114" lon="13.1491542"><ele>587.5</ele><time>2026-04-11T15:12:32.128Z</time></trkpt><trkpt lat="43.1465742" lon="13.1491605"><ele>587.3333333333333</ele><time>2026-04-11T15:12:33.126Z</time></trkpt><trkpt lat="43.1466805" lon="13.1492105"><ele>587.1666666666666</ele><time>2026-04-11T15:12:35.127Z</time></trkpt><trkpt lat="43.1467817" lon="13.1492185"><ele>587.0</ele><time>2026-04-11T15:12:37.127Z</time></trkpt><trkpt lat="43.1468471" lon="13.1492337"><ele>590.3333333333333</ele><time>2026-04-11T15:12:42.127Z</time></trkpt><trkpt lat="43.1469495" lon="13.1492419"><ele>593.6666666666666</ele><time>2026-04-11T15:12:44.127Z</time></trkpt><trkpt lat="43.1470208" lon="13.1492465"><ele>597.0</ele><time>2026-04-11T15:12:45.126Z</time></trkpt><trkpt lat="43.1470882" lon="13.1492568"><ele>600.3333333333334</ele><time>2026-04-11T15:12:46.126Z</time></trkpt><trkpt lat="43.1471508" lon="13.1492731"><ele>603.6666666666667</ele><time>2026-04-11T15:12:47.128Z</time></trkpt><trkpt lat="43.1472701" lon="13.1493378"><ele>607.0</ele><time>2026-04-11T15:12:49.127Z</time></trkpt><trkpt lat="43.1473341" lon="13.1493921"><ele>609.4</ele><time>2026-04-11T15:12:50.126Z</time></trkpt><trkpt lat="43.1474175" lon="13.1494509"><ele>611.8000000000001</ele><time>2026-04-11T15:12:51.129Z</time></trkpt><trkpt lat="43.1475087" lon="13.1494979"><ele>614.2</ele><time>2026-04-11T15:12:52.126Z</time></trkpt><trkpt lat="43.147601" lon="13.1495505"><ele>616.6</ele><time>2026-04-11T15:12:53.127Z</time></trkpt><trkpt lat="43.1476796" lon="13.1495842"><ele>619.0</ele><time>2026-04-11T15:12:54.126Z</time></trkpt><trkpt lat="43.1477583" lon="13.1496051"><ele>619.0</ele><time>2026-04-11T15:12:55.128Z</time></trkpt><trkpt lat="43.1478425" lon="13.1496133"><ele>619.0</ele><time>2026-04-11T15:12:56.127Z</time></trkpt><trkpt lat="43.1479302" lon="13.1496167"><ele>619.0</ele><time>2026-04-11T15:12:57.127Z</time></trkpt><trkpt lat="43.148015" lon="13.1496204"><ele>619.0</ele><time>2026-04-11T15:12:58.127Z</time></trkpt><trkpt lat="43.1481094" lon="13.1496166"><ele>619.0</ele><time>2026-04-11T15:12:59.128Z</time></trkpt><trkpt lat="43.148208" lon="13.1496006"><ele>621.5</ele><time>2026-04-11T15:13:00.127Z</time></trkpt><trkpt lat="43.1482884" lon="13.1495811"><ele>624.0</ele><time>2026-04-11T15:13:01.127Z</time></trkpt><trkpt lat="43.148339" lon="13.1495121"><ele>626.5</ele><time>2026-04-11T15:13:02.128Z</time></trkpt><trkpt lat="43.1483857" lon="13.1494311"><ele>629.0</ele><time>2026-04-11T15:13:03.126Z</time></trkpt><trkpt lat="43.1484241" lon="13.1493248"><ele>631.5</ele><time>2026-04-11T15:13:04.128Z</time></trkpt><trkpt lat="43.1484673" lon="13.1492"><ele>634.0</ele><time>2026-04-11T15:13:05.126Z</time></trkpt><trkpt lat="43.148507" lon="13.1490536"><ele>634.75</ele><time>2026-04-11T15:13:06.127Z</time></trkpt><trkpt lat="43.1485558" lon="13.1488947"><ele>635.5</ele><time>2026-04-11T15:13:07.127Z</time></trkpt><trkpt lat="43.1485969" lon="13.1487378"><ele>636.25</ele><time>2026-04-11T15:13:08.128Z</time></trkpt><trkpt lat="43.1486356" lon="13.148586"><ele>637.0</ele><time>2026-04-11T15:13:09.129Z</time></trkpt><trkpt lat="43.1486716" lon="13.1484339"><ele>637.0</ele><time>2026-04-11T15:13:10.126Z</time></trkpt><trkpt lat="43.1487042" lon="13.1482823"><ele>637.0</ele><time>2026-04-11T15:13:11.126Z</time></trkpt><trkpt lat="43.1487309" lon="13.1481644"><ele>637.0</ele><time>2026-04-11T15:13:12.128Z</time></trkpt><trkpt lat="43.1487609" lon="13.1480622"><ele>637.0</ele><time>2026-04-11T15:13:13.127Z</time></trkpt><trkpt lat="43.1488" lon="13.1479633"><ele>637.0</ele><time>2026-04-11T15:13:14.127Z</time></trkpt><trkpt lat="43.148839" lon="13.1478588"><ele>637.0</ele><time>2026-04-11T15:13:15.128Z</time></trkpt><trkpt lat="43.1488785" lon="13.1477471"><ele>637.0</ele><time>2026-04-11T15:13:16.128Z</time></trkpt><trkpt lat="43.1489218" lon="13.1476336"><ele>637.0</ele><time>2026-04-11T15:13:17.128Z</time></trkpt><trkpt lat="43.1489609" lon="13.1475077"><ele>637.0</ele><time>2026-04-11T15:13:18.128Z</time></trkpt><trkpt lat="43.1490006" lon="13.1474069"><ele>637.0</ele><time>2026-04-11T15:13:19.127Z</time></trkpt><trkpt lat="43.1490351" lon="13.1473036"><ele>643.6</ele><time>2026-04-11T15:13:20.129Z</time></trkpt><trkpt lat="43.1490899" lon="13.1472139"><ele>650.2</ele><time>2026-04-11T15:13:22.128Z</time></trkpt><trkpt lat="43.1491651" lon="13.1473097"><ele>656.8</ele><time>2026-04-11T15:13:25.128Z</time></trkpt><trkpt lat="43.1492373" lon="13.1474467"><ele>663.4</ele><time>2026-04-11T15:13:27.127Z</time></trkpt><trkpt lat="43.1492846" lon="13.1475384"><ele>670.0</ele><time>2026-04-11T15:13:28.126Z</time></trkpt><trkpt lat="43.1493218" lon="13.1476398"><ele>670.0</ele><time>2026-04-11T15:13:29.128Z</time></trkpt><trkpt lat="43.1493568" lon="13.1477447"><ele>670.0</ele><time>2026-04-11T15:13:30.126Z</time></trkpt><trkpt lat="43.1493796" lon="13.1478606"><ele>670.0</ele><time>2026-04-11T15:13:31.127Z</time></trkpt><trkpt lat="43.1494098" lon="13.1479787"><ele>670.0</ele><time>2026-04-11T15:13:32.127Z</time></trkpt><trkpt lat="43.1494455" lon="13.1481008"><ele>670.0</ele><time>2026-04-11T15:13:33.127Z</time></trkpt><trkpt lat="43.1494896" lon="13.1482192"><ele>669.8</ele><time>2026-04-11T15:13:34.128Z</time></trkpt><trkpt lat="43.1495266" lon="13.1483462"><ele>669.6</ele><time>2026-04-11T15:13:35.128Z</time></trkpt><trkpt lat="43.1495668" lon="13.1484798"><ele>669.4000000000001</ele><time>2026-04-11T15:13:36.127Z</time></trkpt><trkpt lat="43.1496075" lon="13.1486102"><ele>669.2</ele><time>2026-04-11T15:13:37.128Z</time></trkpt><trkpt lat="43.1496547" lon="13.1487413"><ele>669.0</ele><time>2026-04-11T15:13:38.126Z</time></trkpt><trkpt lat="43.1497116" lon="13.148881"><ele>669.0</ele><time>2026-04-11T15:13:39.126Z</time></trkpt><trkpt lat="43.1497554" lon="13.148993"><ele>669.0</ele><time>2026-04-11T15:13:40.127Z</time></trkpt><trkpt lat="43.1497988" lon="13.1490866"><ele>669.0</ele><time>2026-04-11T15:13:41.128Z</time></trkpt><trkpt lat="43.149845" lon="13.1491762"><ele>669.0</ele><time>2026-04-11T15:13:42.127Z</time></trkpt><trkpt lat="43.149899" lon="13.1492786"><ele>669.0</ele><time>2026-04-11T15:13:43.126Z</time></trkpt><trkpt lat="43.1499509" lon="13.1493851"><ele>669.0</ele><time>2026-04-11T15:13:44.126Z</time></trkpt><trkpt lat="43.1500068" lon="13.1494856"><ele>672.1666666666666</ele><time>2026-04-11T15:13:45.129Z</time></trkpt><trkpt lat="43.1500667" lon="13.1495791"><ele>675.3333333333334</ele><time>2026-04-11T15:13:46.127Z</time></trkpt><trkpt lat="43.1501167" lon="13.1496859"><ele>678.5</ele><time>2026-04-11T15:13:47.126Z</time></trkpt><trkpt lat="43.1501692" lon="13.1497684"><ele>681.6666666666667</ele><time>2026-04-11T15:13:48.127Z</time></trkpt><trkpt lat="43.150226" lon="13.1498442"><ele>684.8333333333334</ele><time>2026-04-11T15:13:49.126Z</time></trkpt><trkpt lat="43.1502915" lon="13.1499217"><ele>688.0</ele><time>2026-04-11T15:13:50.128Z</time></trkpt><trkpt lat="43.150348" lon="13.1499977"><ele>688.0</ele><time>2026-04-11T15:13:51.127Z</time></trkpt><trkpt lat="43.1503954" lon="13.1500878"><ele>688.0</ele><time>2026-04-11T15:13:52.128Z</time></trkpt><trkpt lat="43.1504477" lon="13.1501663"><ele>688.0</ele><time>2026-04-11T15:13:53.128Z</time></trkpt><trkpt lat="43.1504983" lon="13.1502605"><ele>688.0</ele><time>2026-04-11T15:13:54.126Z</time></trkpt><trkpt lat="43.1505645" lon="13.1503548"><ele>688.0</ele><time>2026-04-11T15:13:55.127Z</time></trkpt><trkpt lat="43.1506242" lon="13.1504369"><ele>688.0</ele><time>2026-04-11T15:13:56.127Z</time></trkpt><trkpt lat="43.1506791" lon="13.1505165"><ele>693.1666666666667</ele><time>2026-04-11T15:13:57.127Z</time></trkpt><trkpt lat="43.1507309" lon="13.1505873"><ele>698.3333333333334</ele><time>2026-04-11T15:13:58.127Z</time></trkpt><trkpt lat="43.1507755" lon="13.1506668"><ele>703.5</ele><time>2026-04-11T15:13:59.127Z</time></trkpt><trkpt lat="43.1508295" lon="13.1507597"><ele>708.6666666666666</ele><time>2026-04-11T15:14:00.127Z</time></trkpt><trkpt lat="43.1508877" lon="13.1508805"><ele>713.8333333333333</ele><time>2026-04-11T15:14:01.128Z</time></trkpt><trkpt lat="43.1509371" lon="13.1510042"><ele>719.0</ele><time>2026-04-11T15:14:02.127Z</time></trkpt><trkpt lat="43.1509768" lon="13.1511379"><ele>719.0</ele><time>2026-04-11T15:14:03.127Z</time></trkpt><trkpt lat="43.1510114" lon="13.1512805"><ele>719.0</ele><time>2026-04-11T15:14:04.127Z</time></trkpt><trkpt lat="43.1510479" lon="13.1514276"><ele>719.0</ele><time>2026-04-11T15:14:05.128Z</time></trkpt><trkpt lat="43.1510945" lon="13.1515815"><ele>719.0</ele><time>2026-04-11T15:14:06.127Z</time></trkpt><trkpt lat="43.1511465" lon="13.1517369"><ele>716.0</ele><time>2026-04-11T15:14:07.127Z</time></trkpt><trkpt lat="43.1511933" lon="13.151885"><ele>713.0</ele><time>2026-04-11T15:14:08.126Z</time></trkpt><trkpt lat="43.1512455" lon="13.1520296"><ele>710.0</ele><time>2026-04-11T15:14:09.128Z</time></trkpt><trkpt lat="43.1513008" lon="13.1521719"><ele>707.0</ele><time>2026-04-11T15:14:10.128Z</time></trkpt><trkpt lat="43.1513516" lon="13.1523274"><ele>703.75</ele><time>2026-04-11T15:14:11.127Z</time></trkpt><trkpt lat="43.1514029" lon="13.1524941"><ele>700.5</ele><time>2026-04-11T15:14:12.126Z</time></trkpt><trkpt lat="43.1514616" lon="13.1526827"><ele>697.25</ele><time>2026-04-11T15:14:13.128Z</time></trkpt><trkpt lat="43.1515207" lon="13.1528653"><ele>694.0</ele><time>2026-04-11T15:14:14.128Z</time></trkpt><trkpt lat="43.1515741" lon="13.1530337"><ele>701.5</ele><time>2026-04-11T15:14:15.128Z</time></trkpt><trkpt lat="43.151615" lon="13.1532053"><ele>709.0</ele><time>2026-04-11T15:14:16.126Z</time></trkpt><trkpt lat="43.1516569" lon="13.1533977"><ele>716.5</ele><time>2026-04-11T15:14:17.127Z</time></trkpt><trkpt lat="43.1517022" lon="13.1536029"><ele>724.0</ele><time>2026-04-11T15:14:18.126Z</time></trkpt><trkpt lat="43.1517398" lon="13.1537924"><ele>724.0</ele><time>2026-04-11T15:14:19.126Z</time></trkpt><trkpt lat="43.1517908" lon="13.1539896"><ele>724.0</ele><time>2026-04-11T15:14:20.128Z</time></trkpt><trkpt lat="43.1518555" lon="13.1541954"><ele>724.0</ele><time>2026-04-11T15:14:21.126Z</time></trkpt><trkpt lat="43.15192" lon="13.1543858"><ele>721.8000000000001</ele><time>2026-04-11T15:14:22.128Z</time></trkpt><trkpt lat="43.1519776" lon="13.1545438"><ele>719.6</ele><time>2026-04-11T15:14:23.127Z</time></trkpt><trkpt lat="43.1520316" lon="13.1546652"><ele>717.4</ele><time>2026-04-11T15:14:24.127Z</time></trkpt><trkpt lat="43.1520833" lon="13.1547484"><ele>715.2</ele><time>2026-04-11T15:14:25.127Z</time></trkpt><trkpt lat="43.1521385" lon="13.1547939"><ele>713.0</ele><time>2026-04-11T15:14:26.128Z</time></trkpt><trkpt lat="43.1522178" lon="13.1548102"><ele>713.0</ele><time>2026-04-11T15:14:27.127Z</time></trkpt><trkpt lat="43.1523243" lon="13.1548171"><ele>713.0</ele><time>2026-04-11T15:14:28.127Z</time></trkpt><trkpt lat="43.1524413" lon="13.1548239"><ele>713.0</ele><time>2026-04-11T15:14:29.127Z</time></trkpt><trkpt lat="43.1525575" lon="13.1548261"><ele>713.0</ele><time>2026-04-11T15:14:30.128Z</time></trkpt><trkpt lat="43.1526535" lon="13.1548208"><ele>713.0</ele><time>2026-04-11T15:14:31.126Z</time></trkpt><trkpt lat="43.1527649" lon="13.1549213"><ele>713.3333333333333</ele><time>2026-04-11T15:14:33.128Z</time></trkpt><trkpt lat="43.1528138" lon="13.1550017"><ele>713.6666666666666</ele><time>2026-04-11T15:14:34.128Z</time></trkpt><trkpt lat="43.1528681" lon="13.1550847"><ele>714.0</ele><time>2026-04-11T15:14:35.127Z</time></trkpt><trkpt lat="43.1529382" lon="13.1551231"><ele>714.3333333333334</ele><time>2026-04-11T15:14:36.127Z</time></trkpt><trkpt lat="43.153018" lon="13.1551402"><ele>714.6666666666667</ele><time>2026-04-11T15:14:37.126Z</time></trkpt><trkpt lat="43.1530936" lon="13.1551254"><ele>715.0</ele><time>2026-04-11T15:14:38.127Z</time></trkpt><trkpt lat="43.1531523" lon="13.1550661"><ele>718.3333333333334</ele><time>2026-04-11T15:14:39.127Z</time></trkpt><trkpt lat="43.1532159" lon="13.1549766"><ele>721.6666666666667</ele><time>2026-04-11T15:14:40.127Z</time></trkpt><trkpt lat="43.1532884" lon="13.1549167"><ele>725.0</ele><time>2026-04-11T15:14:41.127Z</time></trkpt><trkpt lat="43.1533709" lon="13.1548941"><ele>728.3333333333334</ele><time>2026-04-11T15:14:42.127Z</time></trkpt><trkpt lat="43.1534429" lon="13.1549278"><ele>731.6666666666666</ele><time>2026-04-11T15:14:43.127Z</time></trkpt><trkpt lat="43.1535064" lon="13.1550089"><ele>735.0</ele><time>2026-04-11T15:14:44.127Z</time></trkpt><trkpt lat="43.1535514" lon="13.1551338"><ele>735.0</ele><time>2026-04-11T15:14:45.127Z</time></trkpt><trkpt lat="43.1535915" lon="13.155278"><ele>735.0</ele><time>2026-04-11T15:14:46.126Z</time></trkpt><trkpt lat="43.1536288" lon="13.1553834"><ele>735.0</ele><time>2026-04-11T15:14:47.127Z</time></trkpt><trkpt lat="43.1536856" lon="13.1554631"><ele>735.0</ele><time>2026-04-11T15:14:48.127Z</time></trkpt><trkpt lat="43.1537558" lon="13.1555137"><ele>735.0</ele><time>2026-04-11T15:14:49.126Z</time></trkpt><trkpt lat="43.1538441" lon="13.155549"><ele>735.0</ele><time>2026-04-11T15:14:50.127Z</time></trkpt><trkpt lat="43.1539428" lon="13.1555612"><ele>735.0</ele><time>2026-04-11T15:14:51.127Z</time></trkpt><trkpt lat="43.1540471" lon="13.155551"><ele>735.0</ele><time>2026-04-11T15:14:52.129Z</time></trkpt><trkpt lat="43.1541492" lon="13.1555344"><ele>735.0</ele><time>2026-04-11T15:14:53.129Z</time></trkpt><trkpt lat="43.1542152" lon="13.1555212"><ele>735.0</ele><time>2026-04-11T15:14:54.126Z</time></trkpt><trkpt lat="43.1542894" lon="13.1556051"><ele>733.5</ele><time>2026-04-11T15:14:56.128Z</time></trkpt><trkpt lat="43.1542376" lon="13.155724"><ele>732.0</ele><time>2026-04-11T15:14:58.127Z</time></trkpt><trkpt lat="43.1541958" lon="13.1557905"><ele>730.5</ele><time>2026-04-11T15:14:59.128Z</time></trkpt><trkpt lat="43.1541624" lon="13.1558882"><ele>729.0</ele><time>2026-04-11T15:15:00.126Z</time></trkpt><trkpt lat="43.1541295" lon="13.1560058"><ele>727.5</ele><time>2026-04-11T15:15:01.126Z</time></trkpt><trkpt lat="43.1540958" lon="13.1561365"><ele>726.0</ele><time>2026-04-11T15:15:02.128Z</time></trkpt><trkpt lat="43.154074" lon="13.1562457"><ele>726.0</ele><time>2026-04-11T15:15:03.128Z</time></trkpt><trkpt lat="43.154049" lon="13.1563583"><ele>726.0</ele><time>2026-04-11T15:15:04.127Z</time></trkpt><trkpt lat="43.1540357" lon="13.1564652"><ele>726.0</ele><time>2026-04-11T15:15:05.127Z</time></trkpt><trkpt lat="43.1540232" lon="13.15657"><ele>726.0</ele><time>2026-04-11T15:15:06.129Z</time></trkpt><trkpt lat="43.1540009" lon="13.156682"><ele>726.0</ele><time>2026-04-11T15:15:07.127Z</time></trkpt><trkpt lat="43.1539741" lon="13.1567923"><ele>726.0</ele><time>2026-04-11T15:15:08.127Z</time></trkpt><trkpt lat="43.1539281" lon="13.1569123"><ele>725.0</ele><time>2026-04-11T15:15:09.127Z</time></trkpt><trkpt lat="43.1538831" lon="13.1570192"><ele>724.0</ele><time>2026-04-11T15:15:10.128Z</time></trkpt><trkpt lat="43.1538404" lon="13.1571333"><ele>723.0</ele><time>2026-04-11T15:15:11.127Z</time></trkpt><trkpt lat="43.1537907" lon="13.1572198"><ele>722.0</ele><time>2026-04-11T15:15:12.126Z</time></trkpt><trkpt lat="43.1537263" lon="13.1573208"><ele>721.0</ele><time>2026-04-11T15:15:13.126Z</time></trkpt><trkpt lat="43.1536664" lon="13.157429"><ele>721.0</ele><time>2026-04-11T15:15:14.126Z</time></trkpt><trkpt lat="43.1536091" lon="13.1575312"><ele>721.0</ele><time>2026-04-11T15:15:15.127Z</time></trkpt><trkpt lat="43.1535496" lon="13.1576186"><ele>721.0</ele><time>2026-04-11T15:15:16.126Z</time></trkpt><trkpt lat="43.1535205" lon="13.1577028"><ele>721.0</ele><time>2026-04-11T15:15:17.127Z</time></trkpt><trkpt lat="43.1534841" lon="13.1578101"><ele>721.0</ele><time>2026-04-11T15:15:18.126Z</time></trkpt><trkpt lat="43.1534595" lon="13.1579195"><ele>721.0</ele><time>2026-04-11T15:15:19.127Z</time></trkpt><trkpt lat="43.153451" lon="13.1580285"><ele>721.0</ele><time>2026-04-11T15:15:20.127Z</time></trkpt><trkpt lat="43.1534525" lon="13.1581465"><ele>721.0</ele><time>2026-04-11T15:15:21.127Z</time></trkpt><trkpt lat="43.1534664" lon="13.1582661"><ele>721.0</ele><time>2026-04-11T15:15:22.127Z</time></trkpt><trkpt lat="43.1534872" lon="13.1583942"><ele>721.0</ele><time>2026-04-11T15:15:23.126Z</time></trkpt><trkpt lat="43.1535244" lon="13.1585371"><ele>721.0</ele><time>2026-04-11T15:15:24.126Z</time></trkpt><trkpt lat="43.1535638" lon="13.1586713"><ele>723.8</ele><time>2026-04-11T15:15:25.128Z</time></trkpt><trkpt lat="43.1536192" lon="13.1588031"><ele>726.5999999999999</ele><time>2026-04-11T15:15:26.127Z</time></trkpt><trkpt lat="43.1536744" lon="13.1589216"><ele>729.4</ele><time>2026-04-11T15:15:27.126Z</time></trkpt><trkpt lat="43.1537384" lon="13.1590188"><ele>732.2</ele><time>2026-04-11T15:15:28.128Z</time></trkpt><trkpt lat="43.1538062" lon="13.1590973"><ele>735.0</ele><time>2026-04-11T15:15:29.126Z</time></trkpt><trkpt lat="43.1538834" lon="13.1591896"><ele>735.0</ele><time>2026-04-11T15:15:30.127Z</time></trkpt><trkpt lat="43.1539532" lon="13.1592776"><ele>735.0</ele><time>2026-04-11T15:15:31.126Z</time></trkpt><trkpt lat="43.1540161" lon="13.1593728"><ele>735.0</ele><time>2026-04-11T15:15:32.127Z</time></trkpt><trkpt lat="43.1540688" lon="13.1594585"><ele>735.0</ele><time>2026-04-11T15:15:33.126Z</time></trkpt><trkpt lat="43.1541208" lon="13.1595501"><ele>735.0</ele><time>2026-04-11T15:15:34.127Z</time></trkpt><trkpt lat="43.1541626" lon="13.1596444"><ele>735.0</ele><time>2026-04-11T15:15:35.127Z</time></trkpt><trkpt lat="43.1542099" lon="13.1597504"><ele>743.2</ele><time>2026-04-11T15:15:36.129Z</time></trkpt><trkpt lat="43.1542628" lon="13.1598648"><ele>751.4</ele><time>2026-04-11T15:15:37.126Z</time></trkpt><trkpt lat="43.1543203" lon="13.1599874"><ele>759.5999999999999</ele><time>2026-04-11T15:15:38.128Z</time></trkpt><trkpt lat="43.1543832" lon="13.1601133"><ele>767.8</ele><time>2026-04-11T15:15:39.127Z</time></trkpt><trkpt lat="43.1544531" lon="13.1602542"><ele>776.0</ele><time>2026-04-11T15:15:40.128Z</time></trkpt><trkpt lat="43.1545168" lon="13.1603843"><ele>776.0</ele><time>2026-04-11T15:15:41.126Z</time></trkpt><trkpt lat="43.1545824" lon="13.1605148"><ele>776.0</ele><time>2026-04-11T15:15:42.127Z</time></trkpt><trkpt lat="43.1546374" lon="13.1606437"><ele>776.0</ele><time>2026-04-11T15:15:43.128Z</time></trkpt><trkpt lat="43.1546642" lon="13.1607701"><ele>776.0</ele><time>2026-04-11T15:15:44.128Z</time></trkpt><trkpt lat="43.1546932" lon="13.1608953"><ele>776.0</ele><time>2026-04-11T15:15:45.126Z</time></trkpt><trkpt lat="43.1547255" lon="13.1610266"><ele>777.4</ele><time>2026-04-11T15:15:46.127Z</time></trkpt><trkpt lat="43.1547637" lon="13.1611623"><ele>778.8</ele><time>2026-04-11T15:15:47.127Z</time></trkpt><trkpt lat="43.1547952" lon="13.161299"><ele>780.1999999999999</ele><time>2026-04-11T15:15:48.128Z</time></trkpt><trkpt lat="43.1548274" lon="13.1614426"><ele>781.5999999999999</ele><time>2026-04-11T15:15:49.128Z</time></trkpt><trkpt lat="43.1548562" lon="13.161561"><ele>783.0</ele><time>2026-04-11T15:15:50.128Z</time></trkpt><trkpt lat="43.1548889" lon="13.1616705"><ele>789.2</ele><time>2026-04-11T15:15:51.127Z</time></trkpt><trkpt lat="43.1549285" lon="13.1617719"><ele>795.4</ele><time>2026-04-11T15:15:52.129Z</time></trkpt><trkpt lat="43.1549755" lon="13.1618797"><ele>801.6</ele><time>2026-04-11T15:15:53.127Z</time></trkpt><trkpt lat="43.1550109" lon="13.161993"><ele>807.8000000000001</ele><time>2026-04-11T15:15:54.127Z</time></trkpt><trkpt lat="43.1550471" lon="13.1621163"><ele>814.0</ele><time>2026-04-11T15:15:55.128Z</time></trkpt><trkpt lat="43.1550889" lon="13.1622355"><ele>813.9999999999999</ele><time>2026-04-11T15:15:56.127Z</time></trkpt><trkpt lat="43.155124" lon="13.1623278"><ele>814.0</ele><time>2026-04-11T15:15:57.127Z</time></trkpt><trkpt lat="43.1551664" lon="13.1624116"><ele>814.0</ele><time>2026-04-11T15:15:58.126Z</time></trkpt><trkpt lat="43.1552041" lon="13.1624945"><ele>814.0</ele><time>2026-04-11T15:15:59.127Z</time></trkpt><trkpt lat="43.1552563" lon="13.1625841"><ele>813.9999999999999</ele><time>2026-04-11T15:16:00.127Z</time></trkpt><trkpt lat="43.1553195" lon="13.1627014"><ele>814.0</ele><time>2026-04-11T15:16:01.127Z</time></trkpt><trkpt lat="43.1553891" lon="13.162832"><ele>815.6</ele><time>2026-04-11T15:16:02.126Z</time></trkpt><trkpt lat="43.1554633" lon="13.162961"><ele>817.2</ele><time>2026-04-11T15:16:03.127Z</time></trkpt><trkpt lat="43.1555374" lon="13.1630857"><ele>818.8000000000001</ele><time>2026-04-11T15:16:04.126Z</time></trkpt><trkpt lat="43.1555872" lon="13.1631797"><ele>820.4000000000001</ele><time>2026-04-11T15:16:05.128Z</time></trkpt><trkpt lat="43.1556464" lon="13.1632912"><ele>822.0</ele><time>2026-04-11T15:16:07.127Z</time></trkpt><trkpt lat="43.1556868" lon="13.1633607"><ele>824.1666666666666</ele><time>2026-04-11T15:16:25.128Z</time></trkpt><trkpt lat="43.1557301" lon="13.1634528"><ele>826.3333333333333</ele><time>2026-04-11T15:19:41.127Z</time></trkpt><trkpt lat="43.1557833" lon="13.1635094"><ele>828.5</ele><time>2026-04-11T15:19:42.127Z</time></trkpt><trkpt lat="43.1558523" lon="13.1635678"><ele>830.6666666666666</ele><time>2026-04-11T15:19:43.126Z</time></trkpt><trkpt lat="43.1559374" lon="13.1636221"><ele>832.8333333333333</ele><time>2026-04-11T15:19:44.127Z</time></trkpt><trkpt lat="43.1560326" lon="13.1636693"><ele>835.0</ele><time>2026-04-11T15:19:45.128Z</time></trkpt><trkpt lat="43.1561421" lon="13.1637068"><ele>835.0</ele><time>2026-04-11T15:19:46.127Z</time></trkpt><trkpt lat="43.1562662" lon="13.1637328"><ele>835.0</ele><time>2026-04-11T15:19:47.128Z</time></trkpt><trkpt lat="43.1564029" lon="13.1637664"><ele>835.0</ele><time>2026-04-11T15:19:48.127Z</time></trkpt><trkpt lat="43.1565439" lon="13.1638243"><ele>835.0</ele><time>2026-04-11T15:19:49.127Z</time></trkpt><trkpt lat="43.1566926" lon="13.1638974"><ele>834.0</ele><time>2026-04-11T15:19:50.127Z</time></trkpt><trkpt lat="43.1568402" lon="13.1639668"><ele>833.0</ele><time>2026-04-11T15:19:51.128Z</time></trkpt><trkpt lat="43.1569893" lon="13.1640326"><ele>832.0</ele><time>2026-04-11T15:19:52.127Z</time></trkpt><trkpt lat="43.1571068" lon="13.1640769"><ele>831.0</ele><time>2026-04-11T15:19:53.126Z</time></trkpt><trkpt lat="43.1572168" lon="13.1641524"><ele>831.0</ele><time>2026-04-11T15:19:54.127Z</time></trkpt><trkpt lat="43.1573226" lon="13.164251"><ele>831.0</ele><time>2026-04-11T15:19:55.126Z</time></trkpt><trkpt lat="43.1574367" lon="13.1643716"><ele>831.0</ele><time>2026-04-11T15:19:56.128Z</time></trkpt><trkpt lat="43.1575585" lon="13.1644871"><ele>831.0</ele><time>2026-04-11T15:19:57.126Z</time></trkpt><trkpt lat="43.1576914" lon="13.1646106"><ele>828.3333333333333</ele><time>2026-04-11T15:19:58.127Z</time></trkpt><trkpt lat="43.157836" lon="13.164731"><ele>825.6666666666666</ele><time>2026-04-11T15:19:59.127Z</time></trkpt><trkpt lat="43.1579839" lon="13.1648576"><ele>823.0</ele><time>2026-04-11T15:20:00.126Z</time></trkpt><trkpt lat="43.1581427" lon="13.1649791"><ele>828.6666666666666</ele><time>2026-04-11T15:20:01.127Z</time></trkpt><trkpt lat="43.1582924" lon="13.1650985"><ele>834.3333333333333</ele><time>2026-04-11T15:20:02.127Z</time></trkpt><trkpt lat="43.1584331" lon="13.1652312"><ele>840.0</ele><time>2026-04-11T15:20:03.127Z</time></trkpt><trkpt lat="43.1585683" lon="13.1653678"><ele>840.0</ele><time>2026-04-11T15:20:04.127Z</time></trkpt><trkpt lat="43.1586996" lon="13.1655136"><ele>840.0</ele><time>2026-04-11T15:20:05.128Z</time></trkpt><trkpt lat="43.1588259" lon="13.1656428"><ele>840.0</ele><time>2026-04-11T15:20:06.127Z</time></trkpt><trkpt lat="43.1589447" lon="13.1657535"><ele>838.75</ele><time>2026-04-11T15:20:07.127Z</time></trkpt><trkpt lat="43.1590745" lon="13.1658392"><ele>837.5</ele><time>2026-04-11T15:20:08.126Z</time></trkpt><trkpt lat="43.1592082" lon="13.1659173"><ele>836.25</ele><time>2026-04-11T15:20:09.127Z</time></trkpt><trkpt lat="43.1593472" lon="13.165982"><ele>835.0</ele><time>2026-04-11T15:20:10.126Z</time></trkpt><trkpt lat="43.1594853" lon="13.1660478"><ele>835.0</ele><time>2026-04-11T15:20:11.127Z</time></trkpt><trkpt lat="43.1595951" lon="13.1661032"><ele>835.0</ele><time>2026-04-11T15:20:12.127Z</time></trkpt><trkpt lat="43.1596961" lon="13.1661665"><ele>835.0</ele><time>2026-04-11T15:20:13.127Z</time></trkpt><trkpt lat="43.1597777" lon="13.166244"><ele>835.0</ele><time>2026-04-11T15:20:14.128Z</time></trkpt><trkpt lat="43.1598094" lon="13.1663671"><ele>835.0</ele><time>2026-04-11T15:20:15.127Z</time></trkpt><trkpt lat="43.1598302" lon="13.1665236"><ele>834.25</ele><time>2026-04-11T15:20:16.127Z</time></trkpt><trkpt lat="43.1598399" lon="13.1667"><ele>833.5</ele><time>2026-04-11T15:20:17.126Z</time></trkpt><trkpt lat="43.1598624" lon="13.1668813"><ele>832.75</ele><time>2026-04-11T15:20:18.127Z</time></trkpt><trkpt lat="43.1598948" lon="13.1670607"><ele>832.0</ele><time>2026-04-11T15:20:19.127Z</time></trkpt><trkpt lat="43.1599403" lon="13.1672321"><ele>834.0</ele><time>2026-04-11T15:20:20.128Z</time></trkpt><trkpt lat="43.1599926" lon="13.1674073"><ele>836.0</ele><time>2026-04-11T15:20:21.127Z</time></trkpt><trkpt lat="43.1600485" lon="13.1676059"><ele>838.0</ele><time>2026-04-11T15:20:22.127Z</time></trkpt><trkpt lat="43.1600863" lon="13.1678208"><ele>838.0</ele><time>2026-04-11T15:20:23.126Z</time></trkpt><trkpt lat="43.160122" lon="13.1680474"><ele>838.0</ele><time>2026-04-11T15:20:24.127Z</time></trkpt><trkpt lat="43.1601676" lon="13.1682585"><ele>838.0</ele><time>2026-04-11T15:20:25.127Z</time></trkpt><trkpt lat="43.1602101" lon="13.168463"><ele>841.5</ele><time>2026-04-11T15:20:26.127Z</time></trkpt><trkpt lat="43.1602541" lon="13.1686474"><ele>845.0</ele><time>2026-04-11T15:20:27.126Z</time></trkpt><trkpt lat="43.1603048" lon="13.1688264"><ele>848.5</ele><time>2026-04-11T15:20:28.127Z</time></trkpt><trkpt lat="43.1603725" lon="13.1690146"><ele>852.0</ele><time>2026-04-11T15:20:29.127Z</time></trkpt><trkpt lat="43.1604427" lon="13.1692345"><ele>855.3333333333333</ele><time>2026-04-11T15:20:30.126Z</time></trkpt><trkpt lat="43.1605155" lon="13.1694705"><ele>858.6666666666666</ele><time>2026-04-11T15:20:31.127Z</time></trkpt><trkpt lat="43.1605836" lon="13.1697197"><ele>862.0</ele><time>2026-04-11T15:20:32.126Z</time></trkpt><trkpt lat="43.1606585" lon="13.1699967"><ele>863.6666666666666</ele><time>2026-04-11T15:20:33.127Z</time></trkpt><trkpt lat="43.1607373" lon="13.1702507"><ele>865.3333333333333</ele><time>2026-04-11T15:20:34.126Z</time></trkpt><trkpt lat="43.1608002" lon="13.170451"><ele>867.0</ele><time>2026-04-11T15:20:35.126Z</time></trkpt><trkpt lat="43.1608496" lon="13.1705923"><ele>867.5</ele><time>2026-04-11T15:20:36.126Z</time></trkpt><trkpt lat="43.1608766" lon="13.1706955"><ele>868.0</ele><time>2026-04-11T15:20:37.127Z</time></trkpt><trkpt lat="43.1608589" lon="13.1708151"><ele>868.5</ele><time>2026-04-11T15:20:39.126Z</time></trkpt><trkpt lat="43.1607989" lon="13.1708448"><ele>869.0</ele><time>2026-04-11T15:20:41.126Z</time></trkpt><trkpt lat="43.1607192" lon="13.1708205"><ele>869.5</ele><time>2026-04-11T15:20:44.127Z</time></trkpt><trkpt lat="43.16063" lon="13.1708176"><ele>870.0</ele><time>2026-04-11T15:20:47.127Z</time></trkpt><trkpt lat="43.1605618" lon="13.170868"><ele>870.0</ele><time>2026-04-11T15:20:49.127Z</time></trkpt><trkpt lat="43.1604532" lon="13.1709457"><ele>870.0</ele><time>2026-04-11T15:20:51.126Z</time></trkpt><trkpt lat="43.1603917" lon="13.1710116"><ele>870.0</ele><time>2026-04-11T15:20:52.128Z</time></trkpt><trkpt lat="43.1603359" lon="13.1711007"><ele>870.0</ele><time>2026-04-11T15:20:53.127Z</time></trkpt><trkpt lat="43.1603033" lon="13.1712181"><ele>870.0</ele><time>2026-04-11T15:20:54.127Z</time></trkpt><trkpt lat="43.1603038" lon="13.1713633"><ele>870.0</ele><time>2026-04-11T15:20:55.128Z</time></trkpt><trkpt lat="43.1603252" lon="13.1715342"><ele>870.0</ele><time>2026-04-11T15:20:56.126Z</time></trkpt><trkpt lat="43.1603356" lon="13.1717209"><ele>870.0</ele><time>2026-04-11T15:20:57.127Z</time></trkpt><trkpt lat="43.1603361" lon="13.1719176"><ele>870.0</ele><time>2026-04-11T15:20:58.126Z</time></trkpt><trkpt lat="43.1603364" lon="13.1721141"><ele>870.0</ele><time>2026-04-11T15:20:59.126Z</time></trkpt><trkpt lat="43.1603166" lon="13.1722776"><ele>870.0</ele><time>2026-04-11T15:21:00.127Z</time></trkpt><trkpt lat="43.1602751" lon="13.1724278"><ele>870.0</ele><time>2026-04-11T15:21:01.126Z</time></trkpt><trkpt lat="43.1602058" lon="13.1725688"><ele>870.0</ele><time>2026-04-11T15:21:02.128Z</time></trkpt><trkpt lat="43.1601193" lon="13.1727055"><ele>869.75</ele><time>2026-04-11T15:21:03.126Z</time></trkpt><trkpt lat="43.1600302" lon="13.1728579"><ele>869.5</ele><time>2026-04-11T15:21:04.127Z</time></trkpt><trkpt lat="43.1599471" lon="13.1730224"><ele>869.25</ele><time>2026-04-11T15:21:05.126Z</time></trkpt><trkpt lat="43.1598768" lon="13.1731761"><ele>869.0</ele><time>2026-04-11T15:21:06.126Z</time></trkpt><trkpt lat="43.1598218" lon="13.1733188"><ele>869.5</ele><time>2026-04-11T15:21:07.127Z</time></trkpt><trkpt lat="43.1597753" lon="13.1734746"><ele>870.0</ele><time>2026-04-11T15:21:08.127Z</time></trkpt><trkpt lat="43.1597412" lon="13.17366"><ele>870.5</ele><time>2026-04-11T15:21:09.126Z</time></trkpt><trkpt lat="43.1597085" lon="13.1738524"><ele>871.0</ele><time>2026-04-11T15:21:10.126Z</time></trkpt><trkpt lat="43.1596809" lon="13.1740272"><ele>871.0</ele><time>2026-04-11T15:21:11.127Z</time></trkpt><trkpt lat="43.1596673" lon="13.1742071"><ele>871.0</ele><time>2026-04-11T15:21:12.127Z</time></trkpt><trkpt lat="43.1596657" lon="13.1743614"><ele>871.0</ele><time>2026-04-11T15:21:13.126Z</time></trkpt><trkpt lat="43.1596488" lon="13.1745135"><ele>871.0</ele><time>2026-04-11T15:21:14.127Z</time></trkpt><trkpt lat="43.1596206" lon="13.1746747"><ele>871.0</ele><time>2026-04-11T15:21:15.128Z</time></trkpt><trkpt lat="43.1595875" lon="13.1748316"><ele>871.0</ele><time>2026-04-11T15:21:16.127Z</time></trkpt><trkpt lat="43.1595561" lon="13.174983"><ele>871.0</ele><time>2026-04-11T15:21:17.126Z</time></trkpt><trkpt lat="43.1595306" lon="13.1751396"><ele>871.0</ele><time>2026-04-11T15:21:18.126Z</time></trkpt><trkpt lat="43.1594915" lon="13.1752888"><ele>869.5999999999999</ele><time>2026-04-11T15:21:19.127Z</time></trkpt><trkpt lat="43.159473" lon="13.1754348"><ele>868.1999999999999</ele><time>2026-04-11T15:21:20.127Z</time></trkpt><trkpt lat="43.1594756" lon="13.1755746"><ele>866.8000000000001</ele><time>2026-04-11T15:21:21.126Z</time></trkpt><trkpt lat="43.1594774" lon="13.1757322"><ele>865.4000000000001</ele><time>2026-04-11T15:21:22.125Z</time></trkpt><trkpt lat="43.1594683" lon="13.1758896"><ele>864.0</ele><time>2026-04-11T15:21:23.126Z</time></trkpt><trkpt lat="43.1594681" lon="13.176043"><ele>863.0</ele><time>2026-04-11T15:21:24.126Z</time></trkpt><trkpt lat="43.1594644" lon="13.1761868"><ele>862.0000000000001</ele><time>2026-04-11T15:21:25.127Z</time></trkpt><trkpt lat="43.1594597" lon="13.1763366"><ele>861.0000000000001</ele><time>2026-04-11T15:21:26.127Z</time></trkpt><trkpt lat="43.1594484" lon="13.1764871"><ele>860.0</ele><time>2026-04-11T15:21:27.126Z</time></trkpt><trkpt lat="43.1594428" lon="13.1766435"><ele>859.0</ele><time>2026-04-11T15:21:28.128Z</time></trkpt><trkpt lat="43.1594406" lon="13.1767906"><ele>857.6666666666666</ele><time>2026-04-11T15:21:29.126Z</time></trkpt><trkpt lat="43.1594485" lon="13.1769185"><ele>856.3333333333333</ele><time>2026-04-11T15:21:30.127Z</time></trkpt><trkpt lat="43.1594575" lon="13.1770187"><ele>855.0</ele><time>2026-04-11T15:21:31.126Z</time></trkpt><trkpt lat="43.1594581" lon="13.177128"><ele>853.6666666666667</ele><time>2026-04-11T15:21:32.127Z</time></trkpt><trkpt lat="43.1594595" lon="13.1772576"><ele>852.3333333333334</ele><time>2026-04-11T15:21:33.127Z</time></trkpt><trkpt lat="43.1594833" lon="13.1773657"><ele>851.0</ele><time>2026-04-11T15:21:34.128Z</time></trkpt><trkpt lat="43.1595208" lon="13.1774799"><ele>849.8333333333334</ele><time>2026-04-11T15:21:35.127Z</time></trkpt><trkpt lat="43.1595517" lon="13.177583"><ele>848.6666666666667</ele><time>2026-04-11T15:21:36.126Z</time></trkpt><trkpt lat="43.1595716" lon="13.1776937"><ele>847.5</ele><time>2026-04-11T15:21:37.127Z</time></trkpt><trkpt lat="43.1595812" lon="13.1777998"><ele>846.3333333333333</ele><time>2026-04-11T15:21:38.128Z</time></trkpt><trkpt lat="43.1595861" lon="13.1779076"><ele>845.1666666666666</ele><time>2026-04-11T15:21:39.127Z</time></trkpt><trkpt lat="43.1595858" lon="13.1780198"><ele>844.0</ele><time>2026-04-11T15:21:40.126Z</time></trkpt><trkpt lat="43.1595813" lon="13.1781247"><ele>841.9999999999999</ele><time>2026-04-11T15:21:41.127Z</time></trkpt><trkpt lat="43.1595761" lon="13.178226"><ele>840.0</ele><time>2026-04-11T15:21:42.126Z</time></trkpt><trkpt lat="43.1595836" lon="13.1783241"><ele>838.0</ele><time>2026-04-11T15:21:43.127Z</time></trkpt><trkpt lat="43.1595706" lon="13.1784521"><ele>836.0</ele><time>2026-04-11T15:21:45.127Z</time></trkpt><trkpt lat="43.1595476" lon="13.1786103"><ele>833.9999999999999</ele><time>2026-04-11T15:21:47.126Z</time></trkpt><trkpt lat="43.1595354" lon="13.1787262"><ele>832.0</ele><time>2026-04-11T15:21:48.127Z</time></trkpt><trkpt lat="43.1595195" lon="13.1788322"><ele>832.0</ele><time>2026-04-11T15:21:49.126Z</time></trkpt><trkpt lat="43.1594919" lon="13.1789327"><ele>832.0</ele><time>2026-04-11T15:21:50.127Z</time></trkpt><trkpt lat="43.1594735" lon="13.1790328"><ele>832.0</ele><time>2026-04-11T15:21:51.127Z</time></trkpt><trkpt lat="43.1594514" lon="13.1791247"><ele>832.0</ele><time>2026-04-11T15:21:52.127Z</time></trkpt><trkpt lat="43.1594207" lon="13.1792085"><ele>832.0</ele><time>2026-04-11T15:21:53.127Z</time></trkpt><trkpt lat="43.1593742" lon="13.1792901"><ele>832.0</ele><time>2026-04-11T15:21:54.127Z</time></trkpt><trkpt lat="43.1593208" lon="13.1793635"><ele>832.0</ele><time>2026-04-11T15:21:55.127Z</time></trkpt><trkpt lat="43.1592664" lon="13.1794202"><ele>830.4999999999999</ele><time>2026-04-11T15:21:56.127Z</time></trkpt><trkpt lat="43.1591965" lon="13.1794949"><ele>829.0</ele><time>2026-04-11T15:21:57.126Z</time></trkpt><trkpt lat="43.1591194" lon="13.1795693"><ele>827.5</ele><time>2026-04-11T15:21:58.128Z</time></trkpt><trkpt lat="43.1590542" lon="13.1796277"><ele>826.0</ele><time>2026-04-11T15:21:59.128Z</time></trkpt><trkpt lat="43.1590183" lon="13.1797078"><ele>824.4999999999999</ele><time>2026-04-11T15:22:00.127Z</time></trkpt><trkpt lat="43.1589793" lon="13.1797885"><ele>823.0</ele><time>2026-04-11T15:22:01.127Z</time></trkpt><trkpt lat="43.1589125" lon="13.1799103"><ele>821.6666666666666</ele><time>2026-04-11T15:22:03.126Z</time></trkpt><trkpt lat="43.1588531" lon="13.1800596"><ele>820.3333333333333</ele><time>2026-04-11T15:22:05.126Z</time></trkpt><trkpt lat="43.1588245" lon="13.1801463"><ele>819.0</ele><time>2026-04-11T15:22:06.126Z</time></trkpt><trkpt lat="43.158816" lon="13.1802363"><ele>817.6666666666667</ele><time>2026-04-11T15:22:07.127Z</time></trkpt><trkpt lat="43.1587962" lon="13.1803452"><ele>816.3333333333334</ele><time>2026-04-11T15:22:08.127Z</time></trkpt><trkpt lat="43.1587775" lon="13.1804443"><ele>815.0</ele><time>2026-04-11T15:22:09.126Z</time></trkpt><trkpt lat="43.1587615" lon="13.1805516"><ele>815.0000000000001</ele><time>2026-04-11T15:22:10.127Z</time></trkpt><trkpt lat="43.1587485" lon="13.1806516"><ele>815.0</ele><time>2026-04-11T15:22:11.126Z</time></trkpt><trkpt lat="43.1587501" lon="13.1807491"><ele>815.0</ele><time>2026-04-11T15:22:12.128Z</time></trkpt><trkpt lat="43.1587558" lon="13.1809099"><ele>815.0</ele><time>2026-04-11T15:22:14.128Z</time></trkpt><trkpt lat="43.158755" lon="13.1810119"><ele>815.0000000000001</ele><time>2026-04-11T15:22:15.126Z</time></trkpt><trkpt lat="43.1587524" lon="13.1811034"><ele>815.0</ele><time>2026-04-11T15:22:16.128Z</time></trkpt><trkpt lat="43.158753" lon="13.1811904"><ele>812.8333333333334</ele><time>2026-04-11T15:22:17.126Z</time></trkpt><trkpt lat="43.1587581" lon="13.1812815"><ele>810.6666666666667</ele><time>2026-04-11T15:22:18.126Z</time></trkpt><trkpt lat="43.1587601" lon="13.181368"><ele>808.5</ele><time>2026-04-11T15:22:19.126Z</time></trkpt><trkpt lat="43.158775" lon="13.1814541"><ele>806.3333333333333</ele><time>2026-04-11T15:22:20.126Z</time></trkpt><trkpt lat="43.1587825" lon="13.1815427"><ele>804.1666666666666</ele><time>2026-04-11T15:22:21.127Z</time></trkpt><trkpt lat="43.1587942" lon="13.1816919"><ele>802.0</ele><time>2026-04-11T15:22:23.127Z</time></trkpt><trkpt lat="43.1587567" lon="13.1818239"><ele>799.0</ele><time>2026-04-11T15:22:25.126Z</time></trkpt><trkpt lat="43.1587004" lon="13.1819542"><ele>796.0</ele><time>2026-04-11T15:22:27.125Z</time></trkpt><trkpt lat="43.1586477" lon="13.1820636"><ele>793.0</ele><time>2026-04-11T15:22:28.128Z</time></trkpt><trkpt lat="43.1585974" lon="13.1821739"><ele>790.0</ele><time>2026-04-11T15:22:29.125Z</time></trkpt><trkpt lat="43.1585382" lon="13.1822991"><ele>787.0</ele><time>2026-04-11T15:22:30.127Z</time></trkpt><trkpt lat="43.1584646" lon="13.1824313"><ele>784.8</ele><time>2026-04-11T15:22:31.127Z</time></trkpt><trkpt lat="43.1583842" lon="13.1825547"><ele>782.6</ele><time>2026-04-11T15:22:32.126Z</time></trkpt><trkpt lat="43.1583008" lon="13.1826803"><ele>780.4</ele><time>2026-04-11T15:22:33.128Z</time></trkpt><trkpt lat="43.1582262" lon="13.1827782"><ele>778.1999999999999</ele><time>2026-04-11T15:22:34.127Z</time></trkpt><trkpt lat="43.158152" lon="13.1828677"><ele>776.0</ele><time>2026-04-11T15:22:35.128Z</time></trkpt><trkpt lat="43.1580696" lon="13.1829564"><ele>776.0</ele><time>2026-04-11T15:22:36.127Z</time></trkpt><trkpt lat="43.1579809" lon="13.1830485"><ele>776.0</ele><time>2026-04-11T15:22:37.127Z</time></trkpt><trkpt lat="43.1578826" lon="13.1831456"><ele>776.0</ele><time>2026-04-11T15:22:38.127Z</time></trkpt><trkpt lat="43.15778" lon="13.1832444"><ele>776.0</ele><time>2026-04-11T15:22:39.127Z</time></trkpt><trkpt lat="43.1576672" lon="13.183333"><ele>772.0</ele><time>2026-04-11T15:22:40.127Z</time></trkpt><trkpt lat="43.1575418" lon="13.1834039"><ele>768.0</ele><time>2026-04-11T15:22:41.127Z</time></trkpt><trkpt lat="43.1574167" lon="13.183487"><ele>764.0</ele><time>2026-04-11T15:22:42.127Z</time></trkpt><trkpt lat="43.1572886" lon="13.1835725"><ele>760.0</ele><time>2026-04-11T15:22:43.127Z</time></trkpt><trkpt lat="43.1571782" lon="13.1836415"><ele>758.4</ele><time>2026-04-11T15:22:44.127Z</time></trkpt><trkpt lat="43.1570748" lon="13.1837087"><ele>756.8</ele><time>2026-04-11T15:22:45.126Z</time></trkpt><trkpt lat="43.1569705" lon="13.1837617"><ele>755.2</ele><time>2026-04-11T15:22:46.127Z</time></trkpt><trkpt lat="43.1568788" lon="13.1837916"><ele>753.6</ele><time>2026-04-11T15:22:47.127Z</time></trkpt><trkpt lat="43.1568013" lon="13.1838087"><ele>752.0</ele><time>2026-04-11T15:22:48.126Z</time></trkpt><trkpt lat="43.1567276" lon="13.1838478"><ele>752.0</ele><time>2026-04-11T15:22:49.128Z</time></trkpt><trkpt lat="43.1566628" lon="13.1838938"><ele>752.0</ele><time>2026-04-11T15:22:50.127Z</time></trkpt><trkpt lat="43.1566006" lon="13.1839234"><ele>752.0</ele><time>2026-04-11T15:22:51.127Z</time></trkpt><trkpt lat="43.1565241" lon="13.1839356"><ele>752.0</ele><time>2026-04-11T15:22:52.127Z</time></trkpt><trkpt lat="43.1564413" lon="13.1839305"><ele>752.0</ele><time>2026-04-11T15:22:53.127Z</time></trkpt><trkpt lat="43.156361" lon="13.1839299"><ele>752.0</ele><time>2026-04-11T15:22:54.128Z</time></trkpt><trkpt lat="43.1562824" lon="13.1839665"><ele>746.8</ele><time>2026-04-11T15:22:55.127Z</time></trkpt><trkpt lat="43.1562057" lon="13.1840162"><ele>741.6</ele><time>2026-04-11T15:22:56.126Z</time></trkpt><trkpt lat="43.1561428" lon="13.1841672"><ele>736.4</ele><time>2026-04-11T15:22:57.125Z</time></trkpt><trkpt lat="43.1560887" lon="13.1843083"><ele>731.1999999999999</ele><time>2026-04-11T15:22:58.127Z</time></trkpt><trkpt lat="43.1560512" lon="13.1844432"><ele>726.0</ele><time>2026-04-11T15:22:59.127Z</time></trkpt><trkpt lat="43.1560047" lon="13.1845752"><ele>726.0</ele><time>2026-04-11T15:23:00.126Z</time></trkpt><trkpt lat="43.1559447" lon="13.1846845"><ele>726.0</ele><time>2026-04-11T15:23:01.126Z</time></trkpt><trkpt lat="43.1558795" lon="13.1847798"><ele>726.0</ele><time>2026-04-11T15:23:02.126Z</time></trkpt><trkpt lat="43.155821" lon="13.1848452"><ele>726.0</ele><time>2026-04-11T15:23:03.126Z</time></trkpt><trkpt lat="43.1557496" lon="13.1849243"><ele>726.0</ele><time>2026-04-11T15:23:05.127Z</time></trkpt><trkpt lat="43.1556811" lon="13.1849"><ele>726.0</ele><time>2026-04-11T15:23:09.128Z</time></trkpt><trkpt lat="43.1556115" lon="13.1848198"><ele>725.4</ele><time>2026-04-11T15:23:12.127Z</time></trkpt><trkpt lat="43.1555416" lon="13.1848337"><ele>724.8</ele><time>2026-04-11T15:23:16.127Z</time></trkpt><trkpt lat="43.155464" lon="13.1848561"><ele>724.1999999999999</ele><time>2026-04-11T15:23:33.126Z</time></trkpt><trkpt lat="43.1553419" lon="13.1849225"><ele>723.5999999999999</ele><time>2026-04-11T15:23:35.127Z</time></trkpt><trkpt lat="43.1552573" lon="13.1849715"><ele>723.0</ele><time>2026-04-11T15:23:36.127Z</time></trkpt><trkpt lat="43.1551666" lon="13.1850429"><ele>720.0</ele><time>2026-04-11T15:23:37.127Z</time></trkpt><trkpt lat="43.1550748" lon="13.185129"><ele>717.0</ele><time>2026-04-11T15:23:38.126Z</time></trkpt><trkpt lat="43.1549881" lon="13.1851758"><ele>714.0</ele><time>2026-04-11T15:23:39.126Z</time></trkpt><trkpt lat="43.1548834" lon="13.1852203"><ele>711.0</ele><time>2026-04-11T15:23:40.125Z</time></trkpt><trkpt lat="43.1547752" lon="13.185248"><ele>708.0</ele><time>2026-04-11T15:23:41.126Z</time></trkpt><trkpt lat="43.1546729" lon="13.1852796"><ele>707.2</ele><time>2026-04-11T15:23:42.126Z</time></trkpt><trkpt lat="43.1545752" lon="13.1852992"><ele>706.4</ele><time>2026-04-11T15:23:43.126Z</time></trkpt><trkpt lat="43.1544827" lon="13.1853127"><ele>705.6</ele><time>2026-04-11T15:23:44.128Z</time></trkpt><trkpt lat="43.1543813" lon="13.1853249"><ele>704.8000000000001</ele><time>2026-04-11T15:23:45.127Z</time></trkpt><trkpt lat="43.154276" lon="13.1853247"><ele>704.0</ele><time>2026-04-11T15:23:46.128Z</time></trkpt><trkpt lat="43.1541681" lon="13.1853128"><ele>704.0</ele><time>2026-04-11T15:23:47.126Z</time></trkpt><trkpt lat="43.154054" lon="13.1853089"><ele>704.0</ele><time>2026-04-11T15:23:48.127Z</time></trkpt><trkpt lat="43.1539386" lon="13.1853314"><ele>704.0</ele><time>2026-04-11T15:23:49.127Z</time></trkpt><trkpt lat="43.1538574" lon="13.1853586"><ele>704.0</ele><time>2026-04-11T15:23:50.127Z</time></trkpt><trkpt lat="43.1537899" lon="13.1853597"><ele>704.0</ele><time>2026-04-11T15:23:51.127Z</time></trkpt><trkpt lat="43.1537214" lon="13.1854012"><ele>703.4000000000001</ele><time>2026-04-11T15:23:52.128Z</time></trkpt><trkpt lat="43.1536617" lon="13.1854495"><ele>702.8</ele><time>2026-04-11T15:23:53.127Z</time></trkpt><trkpt lat="43.1536032" lon="13.1855385"><ele>702.2</ele><time>2026-04-11T15:23:54.126Z</time></trkpt><trkpt lat="43.1535892" lon="13.1856736"><ele>701.5999999999999</ele><time>2026-04-11T15:23:55.127Z</time></trkpt><trkpt lat="43.1535331" lon="13.1857955"><ele>701.0</ele><time>2026-04-11T15:23:56.126Z</time></trkpt><trkpt lat="43.1534706" lon="13.1859199"><ele>697.5999999999999</ele><time>2026-04-11T15:23:57.126Z</time></trkpt><trkpt lat="43.1533849" lon="13.1860006"><ele>694.2</ele><time>2026-04-11T15:23:58.128Z</time></trkpt><trkpt lat="43.1532991" lon="13.1860911"><ele>690.8</ele><time>2026-04-11T15:23:59.127Z</time></trkpt><trkpt lat="43.1532108" lon="13.1861685"><ele>687.4000000000001</ele><time>2026-04-11T15:24:00.126Z</time></trkpt><trkpt lat="43.1531407" lon="13.1862515"><ele>684.0</ele><time>2026-04-11T15:24:01.127Z</time></trkpt><trkpt lat="43.1530899" lon="13.1863099"><ele>683.6</ele><time>2026-04-11T15:24:02.126Z</time></trkpt><trkpt lat="43.1530415" lon="13.1864176"><ele>683.2</ele><time>2026-04-11T15:24:03.127Z</time></trkpt><trkpt lat="43.1530062" lon="13.1865512"><ele>682.8000000000001</ele><time>2026-04-11T15:24:04.127Z</time></trkpt><trkpt lat="43.152957" lon="13.1866819"><ele>682.4000000000001</ele><time>2026-04-11T15:24:05.128Z</time></trkpt><trkpt lat="43.1528878" lon="13.1868213"><ele>682.0</ele><time>2026-04-11T15:24:06.127Z</time></trkpt><trkpt lat="43.1527936" lon="13.1869475"><ele>678.2</ele><time>2026-04-11T15:24:07.127Z</time></trkpt><trkpt lat="43.1527095" lon="13.1870626"><ele>674.4000000000001</ele><time>2026-04-11T15:24:08.127Z</time></trkpt><trkpt lat="43.1526377" lon="13.187157"><ele>670.5999999999999</ele><time>2026-04-11T15:24:09.126Z</time></trkpt><trkpt lat="43.152567" lon="13.1872177"><ele>666.8</ele><time>2026-04-11T15:24:10.126Z</time></trkpt><trkpt lat="43.1525097" lon="13.1872984"><ele>663.0</ele><time>2026-04-11T15:24:11.127Z</time></trkpt><trkpt lat="43.1524401" lon="13.1873781"><ele>658.5</ele><time>2026-04-11T15:24:12.127Z</time></trkpt><trkpt lat="43.1523661" lon="13.1874439"><ele>654.0</ele><time>2026-04-11T15:24:13.127Z</time></trkpt><trkpt lat="43.1522911" lon="13.1874867"><ele>649.5</ele><time>2026-04-11T15:24:14.126Z</time></trkpt><trkpt lat="43.152222" lon="13.1875496"><ele>645.0</ele><time>2026-04-11T15:24:15.126Z</time></trkpt><trkpt lat="43.1521701" lon="13.1876016"><ele>640.5</ele><time>2026-04-11T15:24:16.126Z</time></trkpt><trkpt lat="43.1521003" lon="13.187726"><ele>636.0</ele><time>2026-04-11T15:24:18.126Z</time></trkpt><trkpt lat="43.1520645" lon="13.1878051"><ele>636.0</ele><time>2026-04-11T15:24:19.125Z</time></trkpt><trkpt lat="43.151987" lon="13.1878478"><ele>636.0</ele><time>2026-04-11T15:24:20.126Z</time></trkpt><trkpt lat="43.1519193" lon="13.1878918"><ele>636.0</ele><time>2026-04-11T15:24:21.127Z</time></trkpt><trkpt lat="43.1518495" lon="13.1879367"><ele>636.0</ele><time>2026-04-11T15:24:22.126Z</time></trkpt><trkpt lat="43.1517996" lon="13.1880118"><ele>636.0</ele><time>2026-04-11T15:24:23.127Z</time></trkpt><trkpt lat="43.1517402" lon="13.1881201"><ele>636.0</ele><time>2026-04-11T15:24:24.126Z</time></trkpt><trkpt lat="43.1516607" lon="13.1882262"><ele>633.2</ele><time>2026-04-11T15:24:25.128Z</time></trkpt><trkpt lat="43.1515744" lon="13.1883248"><ele>630.4000000000001</ele><time>2026-04-11T15:24:26.126Z</time></trkpt><trkpt lat="43.1514922" lon="13.188392"><ele>627.6</ele><time>2026-04-11T15:24:27.126Z</time></trkpt><trkpt lat="43.1514302" lon="13.1884596"><ele>624.8000000000001</ele><time>2026-04-11T15:24:28.127Z</time></trkpt><trkpt lat="43.151372" lon="13.1885778"><ele>622.0</ele><time>2026-04-11T15:24:30.128Z</time></trkpt><trkpt lat="43.151392" lon="13.1887512"><ele>622.0</ele><time>2026-04-11T15:24:32.126Z</time></trkpt><trkpt lat="43.1514161" lon="13.1888819"><ele>622.0</ele><time>2026-04-11T15:24:33.128Z</time></trkpt><trkpt lat="43.151436" lon="13.1890279"><ele>622.0</ele><time>2026-04-11T15:24:34.126Z</time></trkpt><trkpt lat="43.1514455" lon="13.1891537"><ele>622.0</ele><time>2026-04-11T15:24:35.126Z</time></trkpt><trkpt lat="43.1514361" lon="13.189275"><ele>622.0</ele><time>2026-04-11T15:24:36.126Z</time></trkpt><trkpt lat="43.1513955" lon="13.1893837"><ele>618.0</ele><time>2026-04-11T15:24:37.127Z</time></trkpt><trkpt lat="43.1513345" lon="13.1894826"><ele>614.0</ele><time>2026-04-11T15:24:38.127Z</time></trkpt><trkpt lat="43.1512871" lon="13.1895557"><ele>610.0</ele><time>2026-04-11T15:24:39.125Z</time></trkpt><trkpt lat="43.151233" lon="13.1896699"><ele>606.0</ele><time>2026-04-11T15:24:41.127Z</time></trkpt><trkpt lat="43.1512246" lon="13.1898231"><ele>602.0</ele><time>2026-04-11T15:24:44.128Z</time></trkpt><trkpt lat="43.1512025" lon="13.1899646"><ele>598.0</ele><time>2026-04-11T15:24:46.128Z</time></trkpt><trkpt lat="43.1511415" lon="13.1900424"><ele>594.0</ele><time>2026-04-11T15:24:48.127Z</time></trkpt><trkpt lat="43.1511021" lon="13.1901137"><ele>590.0</ele><time>2026-04-11T15:24:50.125Z</time></trkpt><trkpt lat="43.1510483" lon="13.1902203"><ele>586.0</ele><time>2026-04-11T15:24:52.128Z</time></trkpt><trkpt lat="43.150965" lon="13.1902919"><ele>582.0</ele><time>2026-04-11T15:24:54.128Z</time></trkpt><trkpt lat="43.1508458" lon="13.1902658"><ele>582.0</ele><time>2026-04-11T15:24:56.127Z</time></trkpt><trkpt lat="43.1507778" lon="13.190233"><ele>582.0</ele><time>2026-04-11T15:24:59.126Z</time></trkpt><trkpt lat="43.150758" lon="13.1903343"><ele>582.0</ele><time>2026-04-11T15:25:03.126Z</time></trkpt><trkpt lat="43.1508092" lon="13.1904025"><ele>582.0</ele><time>2026-04-11T15:25:04.126Z</time></trkpt><trkpt lat="43.1508858" lon="13.1904741"><ele>582.0</ele><time>2026-04-11T15:25:05.126Z</time></trkpt><trkpt lat="43.1509886" lon="13.1905469"><ele>582.0</ele><time>2026-04-11T15:25:06.128Z</time></trkpt><trkpt lat="43.1510884" lon="13.1906305"><ele>577.4</ele><time>2026-04-11T15:25:07.125Z</time></trkpt><trkpt lat="43.15119" lon="13.1907252"><ele>572.8000000000001</ele><time>2026-04-11T15:25:08.127Z</time></trkpt><trkpt lat="43.1512696" lon="13.190835"><ele>568.2</ele><time>2026-04-11T15:25:09.127Z</time></trkpt><trkpt lat="43.1513428" lon="13.1909309"><ele>563.6</ele><time>2026-04-11T15:25:10.128Z</time></trkpt><trkpt lat="43.1514144" lon="13.1910055"><ele>559.0</ele><time>2026-04-11T15:25:11.126Z</time></trkpt><trkpt lat="43.1515016" lon="13.1910278"><ele>562.2</ele><time>2026-04-11T15:25:12.127Z</time></trkpt><trkpt lat="43.1516007" lon="13.191015"><ele>565.4</ele><time>2026-04-11T15:25:13.127Z</time></trkpt><trkpt lat="43.151705" lon="13.1909808"><ele>568.6</ele><time>2026-04-11T15:25:14.125Z</time></trkpt><trkpt lat="43.151799" lon="13.1909664"><ele>571.8</ele><time>2026-04-11T15:25:15.127Z</time></trkpt><trkpt lat="43.1518881" lon="13.1909896"><ele>575.0</ele><time>2026-04-11T15:25:16.127Z</time></trkpt><trkpt lat="43.1519515" lon="13.1910579"><ele>575.0</ele><time>2026-04-11T15:25:17.127Z</time></trkpt><trkpt lat="43.1519816" lon="13.19115"><ele>575.0</ele><time>2026-04-11T15:25:18.127Z</time></trkpt><trkpt lat="43.1519697" lon="13.1912708"><ele>575.0</ele><time>2026-04-11T15:25:19.126Z</time></trkpt><trkpt lat="43.1519327" lon="13.1914022"><ele>575.0</ele><time>2026-04-11T15:25:20.127Z</time></trkpt><trkpt lat="43.1518968" lon="13.1915147"><ele>575.0</ele><time>2026-04-11T15:25:21.125Z</time></trkpt><trkpt lat="43.1518574" lon="13.1915999"><ele>575.0</ele><time>2026-04-11T15:25:22.127Z</time></trkpt><trkpt lat="43.1517742" lon="13.1917075"><ele>571.4</ele><time>2026-04-11T15:25:24.126Z</time></trkpt><trkpt lat="43.1517269" lon="13.1918351"><ele>567.8</ele><time>2026-04-11T15:25:26.127Z</time></trkpt><trkpt lat="43.1516683" lon="13.1919675"><ele>564.2</ele><time>2026-04-11T15:25:28.125Z</time></trkpt><trkpt lat="43.1516357" lon="13.1920423"><ele>560.6</ele><time>2026-04-11T15:25:29.127Z</time></trkpt><trkpt lat="43.1515712" lon="13.1921684"><ele>557.0</ele><time>2026-04-11T15:25:31.127Z</time></trkpt><trkpt lat="43.1515299" lon="13.1923076"><ele>555.2</ele><time>2026-04-11T15:25:33.126Z</time></trkpt><trkpt lat="43.1515394" lon="13.1924595"><ele>553.4000000000001</ele><time>2026-04-11T15:25:35.127Z</time></trkpt><trkpt lat="43.1515915" lon="13.1925894"><ele>551.5999999999999</ele><time>2026-04-11T15:25:37.128Z</time></trkpt><trkpt lat="43.1516198" lon="13.1926873"><ele>549.8</ele><time>2026-04-11T15:25:39.127Z</time></trkpt><trkpt lat="43.1515247" lon="13.1927387"><ele>548.0</ele><time>2026-04-11T15:25:42.128Z</time></trkpt><trkpt lat="43.151455" lon="13.1926784"><ele>548.0</ele><time>2026-04-11T15:25:44.126Z</time></trkpt><trkpt lat="43.1514085" lon="13.1927829"><ele>548.0</ele><time>2026-04-11T15:25:47.125Z</time></trkpt><trkpt lat="43.1514664" lon="13.1928703"><ele>548.0</ele><time>2026-04-11T15:25:48.126Z</time></trkpt><trkpt lat="43.1515228" lon="13.1929579"><ele>548.0</ele><time>2026-04-11T15:25:49.127Z</time></trkpt><trkpt lat="43.1515806" lon="13.1930567"><ele>548.0</ele><time>2026-04-11T15:25:50.126Z</time></trkpt><trkpt lat="43.151625" lon="13.1931593"><ele>548.0</ele><time>2026-04-11T15:25:51.126Z</time></trkpt><trkpt lat="43.1517051" lon="13.1932708"><ele>544.0</ele><time>2026-04-11T15:25:52.126Z</time></trkpt><trkpt lat="43.151812" lon="13.1933917"><ele>540.0</ele><time>2026-04-11T15:25:53.126Z</time></trkpt><trkpt lat="43.1519481" lon="13.1935188"><ele>536.0</ele><time>2026-04-11T15:25:54.127Z</time></trkpt><trkpt lat="43.1520878" lon="13.1936642"><ele>536.0</ele><time>2026-04-11T15:25:55.126Z</time></trkpt><trkpt lat="43.1522291" lon="13.1938056"><ele>536.0</ele><time>2026-04-11T15:25:56.128Z</time></trkpt><trkpt lat="43.1523643" lon="13.1939326"><ele>536.0</ele><time>2026-04-11T15:25:57.127Z</time></trkpt><trkpt lat="43.1525009" lon="13.1940495"><ele>531.3333333333333</ele><time>2026-04-11T15:25:58.127Z</time></trkpt><trkpt lat="43.1526387" lon="13.1941556"><ele>526.6666666666666</ele><time>2026-04-11T15:25:59.127Z</time></trkpt><trkpt lat="43.152783" lon="13.1942408"><ele>522.0</ele><time>2026-04-11T15:26:00.127Z</time></trkpt><trkpt lat="43.152944" lon="13.1943101"><ele>522.0</ele><time>2026-04-11T15:26:01.126Z</time></trkpt><trkpt lat="43.1531188" lon="13.1943632"><ele>522.0</ele><time>2026-04-11T15:26:02.126Z</time></trkpt><trkpt lat="43.1532919" lon="13.1944055"><ele>522.0</ele><time>2026-04-11T15:26:03.127Z</time></trkpt><trkpt lat="43.1534582" lon="13.1944634"><ele>523.0</ele><time>2026-04-11T15:26:04.127Z</time></trkpt><trkpt lat="43.1536108" lon="13.1945462"><ele>524.0</ele><time>2026-04-11T15:26:05.127Z</time></trkpt><trkpt lat="43.1537461" lon="13.1946629"><ele>525.0</ele><time>2026-04-11T15:26:06.127Z</time></trkpt><trkpt lat="43.1538732" lon="13.1948111"><ele>518.3333333333334</ele><time>2026-04-11T15:26:07.126Z</time></trkpt><trkpt lat="43.1539989" lon="13.1949779"><ele>511.6666666666667</ele><time>2026-04-11T15:26:08.128Z</time></trkpt><trkpt lat="43.1541166" lon="13.195149"><ele>505.0</ele><time>2026-04-11T15:26:09.127Z</time></trkpt><trkpt lat="43.1542266" lon="13.1953257"><ele>505.0</ele><time>2026-04-11T15:26:10.127Z</time></trkpt><trkpt lat="43.1543284" lon="13.1954952"><ele>505.0</ele><time>2026-04-11T15:26:11.127Z</time></trkpt><trkpt lat="43.1544421" lon="13.1956359"><ele>505.0</ele><time>2026-04-11T15:26:12.126Z</time></trkpt><trkpt lat="43.1545656" lon="13.1957462"><ele>500.33333333333337</ele><time>2026-04-11T15:26:13.127Z</time></trkpt><trkpt lat="43.1547046" lon="13.1958348"><ele>495.66666666666663</ele><time>2026-04-11T15:26:14.127Z</time></trkpt><trkpt lat="43.1548595" lon="13.1959233"><ele>491.0</ele><time>2026-04-11T15:26:15.125Z</time></trkpt><trkpt lat="43.1550263" lon="13.1960116"><ele>491.0</ele><time>2026-04-11T15:26:16.126Z</time></trkpt><trkpt lat="43.1551953" lon="13.1960988"><ele>491.0</ele><time>2026-04-11T15:26:17.126Z</time></trkpt><trkpt lat="43.1553614" lon="13.1961892"><ele>491.0</ele><time>2026-04-11T15:26:18.125Z</time></trkpt><trkpt lat="43.1554907" lon="13.1962602"><ele>491.0</ele><time>2026-04-11T15:26:19.126Z</time></trkpt><trkpt lat="43.1555772" lon="13.1963312"><ele>491.0</ele><time>2026-04-11T15:26:20.128Z</time></trkpt><trkpt lat="43.1556382" lon="13.1964109"><ele>491.0</ele><time>2026-04-11T15:26:21.128Z</time></trkpt><trkpt lat="43.1556675" lon="13.1964953"><ele>491.0</ele><time>2026-04-11T15:26:22.126Z</time></trkpt><trkpt lat="43.1556574" lon="13.1966391"><ele>491.0</ele><time>2026-04-11T15:26:24.127Z</time></trkpt><trkpt lat="43.1555538" lon="13.1966961"><ele>488.5</ele><time>2026-04-11T15:26:26.127Z</time></trkpt><trkpt lat="43.1554641" lon="13.1966865"><ele>486.0</ele><time>2026-04-11T15:26:27.127Z</time></trkpt><trkpt lat="43.1553451" lon="13.1966727"><ele>483.5</ele><time>2026-04-11T15:26:28.127Z</time></trkpt><trkpt lat="43.1552066" lon="13.1966678"><ele>481.0</ele><time>2026-04-11T15:26:29.127Z</time></trkpt><trkpt lat="43.1550641" lon="13.1966782"><ele>481.0</ele><time>2026-04-11T15:26:30.127Z</time></trkpt><trkpt lat="43.1549404" lon="13.1967291"><ele>481.0</ele><time>2026-04-11T15:26:31.128Z</time></trkpt><trkpt lat="43.154843" lon="13.1968269"><ele>481.0</ele><time>2026-04-11T15:26:32.127Z</time></trkpt><trkpt lat="43.1547783" lon="13.196984"><ele>481.0</ele><time>2026-04-11T15:26:33.127Z</time></trkpt><trkpt lat="43.1547556" lon="13.197182"><ele>475.6666666666667</ele><time>2026-04-11T15:26:34.127Z</time></trkpt><trkpt lat="43.1547552" lon="13.1974296"><ele>470.33333333333337</ele><time>2026-04-11T15:26:35.126Z</time></trkpt><trkpt lat="43.1547336" lon="13.1977103"><ele>465.0</ele><time>2026-04-11T15:26:36.125Z</time></trkpt><trkpt lat="43.1546947" lon="13.197985"><ele>462.66666666666663</ele><time>2026-04-11T15:26:37.127Z</time></trkpt><trkpt lat="43.1546572" lon="13.1982499"><ele>460.3333333333333</ele><time>2026-04-11T15:26:38.126Z</time></trkpt><trkpt lat="43.1546238" lon="13.198493"><ele>458.0</ele><time>2026-04-11T15:26:39.126Z</time></trkpt><trkpt lat="43.1545975" lon="13.1987177"><ele>458.0</ele><time>2026-04-11T15:26:40.126Z</time></trkpt><trkpt lat="43.1545713" lon="13.1989206"><ele>458.0</ele><time>2026-04-11T15:26:41.126Z</time></trkpt><trkpt lat="43.1545208" lon="13.1990772"><ele>458.0</ele><time>2026-04-11T15:26:42.127Z</time></trkpt><trkpt lat="43.1544547" lon="13.1991998"><ele>458.0</ele><time>2026-04-11T15:26:43.127Z</time></trkpt><trkpt lat="43.1543516" lon="13.1992769"><ele>457.75</ele><time>2026-04-11T15:26:44.126Z</time></trkpt><trkpt lat="43.1542217" lon="13.1993141"><ele>457.5</ele><time>2026-04-11T15:26:45.127Z</time></trkpt><trkpt lat="43.1540742" lon="13.1993346"><ele>457.25</ele><time>2026-04-11T15:26:46.126Z</time></trkpt><trkpt lat="43.1539264" lon="13.1993585"><ele>457.0</ele><time>2026-04-11T15:26:47.126Z</time></trkpt><trkpt lat="43.1537752" lon="13.1993958"><ele>453.33333333333337</ele><time>2026-04-11T15:26:48.126Z</time></trkpt><trkpt lat="43.1536282" lon="13.1994428"><ele>449.66666666666663</ele><time>2026-04-11T15:26:49.127Z</time></trkpt><trkpt lat="43.1534873" lon="13.1995407"><ele>446.0</ele><time>2026-04-11T15:26:50.127Z</time></trkpt><trkpt lat="43.1533627" lon="13.1996359"><ele>446.0</ele><time>2026-04-11T15:26:51.126Z</time></trkpt><trkpt lat="43.1532666" lon="13.1997298"><ele>446.0</ele><time>2026-04-11T15:26:52.127Z</time></trkpt><trkpt lat="43.1532017" lon="13.1998495"><ele>446.0</ele><time>2026-04-11T15:26:53.128Z</time></trkpt><trkpt lat="43.1531661" lon="13.2000066"><ele>446.0</ele><time>2026-04-11T15:26:54.127Z</time></trkpt><trkpt lat="43.1531713" lon="13.2001779"><ele>446.6</ele><time>2026-04-11T15:26:55.127Z</time></trkpt><trkpt lat="43.1532156" lon="13.2003478"><ele>447.20000000000005</ele><time>2026-04-11T15:26:56.126Z</time></trkpt><trkpt lat="43.1532903" lon="13.2004847"><ele>447.79999999999995</ele><time>2026-04-11T15:26:57.126Z</time></trkpt><trkpt lat="43.1533495" lon="13.2006081"><ele>448.4</ele><time>2026-04-11T15:26:58.126Z</time></trkpt><trkpt lat="43.1533719" lon="13.2007156"><ele>449.0</ele><time>2026-04-11T15:26:59.127Z</time></trkpt><trkpt lat="43.1533717" lon="13.2008067"><ele>449.0</ele><time>2026-04-11T15:27:00.127Z</time></trkpt><trkpt lat="43.1532931" lon="13.200809"><ele>449.0</ele><time>2026-04-11T15:27:01.127Z</time></trkpt><trkpt lat="43.1532267" lon="13.200766"><ele>449.0</ele><time>2026-04-11T15:27:02.127Z</time></trkpt><trkpt lat="43.1531434" lon="13.200652"><ele>449.0</ele><time>2026-04-11T15:27:03.127Z</time></trkpt><trkpt lat="43.1530554" lon="13.2004823"><ele>449.0</ele><time>2026-04-11T15:27:04.127Z</time></trkpt><trkpt lat="43.152957" lon="13.200299"><ele>445.0</ele><time>2026-04-11T15:27:05.126Z</time></trkpt><trkpt lat="43.1528707" lon="13.2001134"><ele>441.0</ele><time>2026-04-11T15:27:06.127Z</time></trkpt><trkpt lat="43.1528055" lon="13.1999177"><ele>437.0</ele><time>2026-04-11T15:27:07.126Z</time></trkpt><trkpt lat="43.1527639" lon="13.1997304"><ele>435.25</ele><time>2026-04-11T15:27:08.126Z</time></trkpt><trkpt lat="43.1527637" lon="13.199563"><ele>433.5</ele><time>2026-04-11T15:27:09.127Z</time></trkpt><trkpt lat="43.1528162" lon="13.1994201"><ele>431.75</ele><time>2026-04-11T15:27:10.127Z</time></trkpt><trkpt lat="43.152902" lon="13.1992767"><ele>430.0</ele><time>2026-04-11T15:27:11.126Z</time></trkpt><trkpt lat="43.1529918" lon="13.1991252"><ele>429.75</ele><time>2026-04-11T15:27:12.126Z</time></trkpt><trkpt lat="43.153071" lon="13.1989723"><ele>429.5</ele><time>2026-04-11T15:27:13.127Z</time></trkpt><trkpt lat="43.1531317" lon="13.1988352"><ele>429.25</ele><time>2026-04-11T15:27:14.127Z</time></trkpt><trkpt lat="43.1531634" lon="13.1986938"><ele>429.0</ele><time>2026-04-11T15:27:15.125Z</time></trkpt><trkpt lat="43.153168" lon="13.1985469"><ele>429.0</ele><time>2026-04-11T15:27:16.127Z</time></trkpt><trkpt lat="43.1530903" lon="13.1983825"><ele>429.0</ele><time>2026-04-11T15:27:17.126Z</time></trkpt><trkpt lat="43.1530177" lon="13.1982257"><ele>429.0</ele><time>2026-04-11T15:27:18.127Z</time></trkpt><trkpt lat="43.1529164" lon="13.1980805"><ele>429.0</ele><time>2026-04-11T15:27:19.128Z</time></trkpt><trkpt lat="43.1528006" lon="13.1979519"><ele>432.0</ele><time>2026-04-11T15:27:20.126Z</time></trkpt><trkpt lat="43.1526712" lon="13.1978495"><ele>435.0</ele><time>2026-04-11T15:27:21.127Z</time></trkpt><trkpt lat="43.1525254" lon="13.1977551"><ele>438.0</ele><time>2026-04-11T15:27:22.126Z</time></trkpt><trkpt lat="43.1523805" lon="13.1976696"><ele>436.5</ele><time>2026-04-11T15:27:23.127Z</time></trkpt><trkpt lat="43.1522526" lon="13.1976113"><ele>435.0</ele><time>2026-04-11T15:27:24.126Z</time></trkpt><trkpt lat="43.1521221" lon="13.1975673"><ele>433.5</ele><time>2026-04-11T15:27:25.127Z</time></trkpt><trkpt lat="43.151993" lon="13.1975723"><ele>432.0</ele><time>2026-04-11T15:27:26.127Z</time></trkpt><trkpt lat="43.1518603" lon="13.1975878"><ele>432.0</ele><time>2026-04-11T15:27:27.126Z</time></trkpt><trkpt lat="43.1517248" lon="13.1975993"><ele>432.0</ele><time>2026-04-11T15:27:28.127Z</time></trkpt><trkpt lat="43.1515751" lon="13.1976197"><ele>432.0</ele><time>2026-04-11T15:27:29.126Z</time></trkpt><trkpt lat="43.1514211" lon="13.1976503"><ele>432.0</ele><time>2026-04-11T15:27:30.126Z</time></trkpt><trkpt lat="43.1512738" lon="13.1976725"><ele>430.5</ele><time>2026-04-11T15:27:31.127Z</time></trkpt><trkpt lat="43.1511298" lon="13.1976831"><ele>429.0</ele><time>2026-04-11T15:27:32.127Z</time></trkpt><trkpt lat="43.1509879" lon="13.1976862"><ele>427.5</ele><time>2026-04-11T15:27:33.128Z</time></trkpt><trkpt lat="43.1508618" lon="13.1976218"><ele>426.0</ele><time>2026-04-11T15:27:34.125Z</time></trkpt><trkpt lat="43.1507358" lon="13.1975671"><ele>424.25</ele><time>2026-04-11T15:27:35.127Z</time></trkpt><trkpt lat="43.1506114" lon="13.1975004"><ele>422.5</ele><time>2026-04-11T15:27:36.127Z</time></trkpt><trkpt lat="43.1504756" lon="13.1974421"><ele>420.75</ele><time>2026-04-11T15:27:37.125Z</time></trkpt><trkpt lat="43.1503369" lon="13.1973903"><ele>419.0</ele><time>2026-04-11T15:27:38.126Z</time></trkpt><trkpt lat="43.1502162" lon="13.1973403"><ele>419.0</ele><time>2026-04-11T15:27:39.127Z</time></trkpt><trkpt lat="43.1501024" lon="13.1972909"><ele>419.0</ele><time>2026-04-11T15:27:40.127Z</time></trkpt><trkpt lat="43.1499928" lon="13.1972746"><ele>419.0</ele><time>2026-04-11T15:27:41.126Z</time></trkpt><trkpt lat="43.1498883" lon="13.1973181"><ele>419.0</ele><time>2026-04-11T15:27:42.125Z</time></trkpt><trkpt lat="43.1497851" lon="13.1974187"><ele>419.0</ele><time>2026-04-11T15:27:43.127Z</time></trkpt><trkpt lat="43.1496943" lon="13.1975583"><ele>419.0</ele><time>2026-04-11T15:27:44.126Z</time></trkpt><trkpt lat="43.1495791" lon="13.1976886"><ele>419.0</ele><time>2026-04-11T15:27:45.126Z</time></trkpt><trkpt lat="43.1494705" lon="13.1977689"><ele>419.0</ele><time>2026-04-11T15:27:46.127Z</time></trkpt><trkpt lat="43.1493754" lon="13.1978327"><ele>418.99999999999994</ele><time>2026-04-11T15:27:47.126Z</time></trkpt><trkpt lat="43.1492918" lon="13.1978826"><ele>419.0</ele><time>2026-04-11T15:27:48.127Z</time></trkpt><trkpt lat="43.1492105" lon="13.1979309"><ele>419.0</ele><time>2026-04-11T15:27:49.126Z</time></trkpt><trkpt lat="43.1491421" lon="13.1979937"><ele>419.0</ele><time>2026-04-11T15:27:50.126Z</time></trkpt><trkpt lat="43.1490894" lon="13.19806"><ele>418.99999999999994</ele><time>2026-04-11T15:27:51.126Z</time></trkpt><trkpt lat="43.1490283" lon="13.1981776"><ele>419.0</ele><time>2026-04-11T15:27:53.126Z</time></trkpt><trkpt lat="43.1489929" lon="13.1983067"><ele>414.3333333333333</ele><time>2026-04-11T15:27:55.126Z</time></trkpt><trkpt lat="43.1489853" lon="13.1983968"><ele>409.66666666666663</ele><time>2026-04-11T15:27:56.127Z</time></trkpt><trkpt lat="43.1489706" lon="13.1984814"><ele>405.0</ele><time>2026-04-11T15:27:57.127Z</time></trkpt><trkpt lat="43.1489199" lon="13.1986324"><ele>400.33333333333337</ele><time>2026-04-11T15:27:59.126Z</time></trkpt><trkpt lat="43.1488253" lon="13.1986415"><ele>395.6666666666667</ele><time>2026-04-11T15:28:01.126Z</time></trkpt><trkpt lat="43.1487393" lon="13.1987048"><ele>391.0</ele><time>2026-04-11T15:28:03.127Z</time></trkpt><trkpt lat="43.1486904" lon="13.1988482"><ele>391.0</ele><time>2026-04-11T15:28:05.126Z</time></trkpt><trkpt lat="43.1486726" lon="13.1989919"><ele>391.0</ele><time>2026-04-11T15:28:07.127Z</time></trkpt><trkpt lat="43.1486582" lon="13.1991123"><ele>391.0</ele><time>2026-04-11T15:28:09.127Z</time></trkpt><trkpt lat="43.1486036" lon="13.1992425"><ele>391.0</ele><time>2026-04-11T15:28:11.127Z</time></trkpt><trkpt lat="43.1485278" lon="13.1993686"><ele>391.0</ele><time>2026-04-11T15:28:13.125Z</time></trkpt><trkpt lat="43.1484594" lon="13.19947"><ele>389.00000000000006</ele><time>2026-04-11T15:28:15.126Z</time></trkpt><trkpt lat="43.1483696" lon="13.199514"><ele>387.0</ele><time>2026-04-11T15:28:17.126Z</time></trkpt><trkpt lat="43.148277" lon="13.1995262"><ele>385.0</ele><time>2026-04-11T15:28:19.125Z</time></trkpt><trkpt lat="43.1482117" lon="13.1995696"><ele>383.0</ele><time>2026-04-11T15:28:21.126Z</time></trkpt><trkpt lat="43.1481424" lon="13.1996245"><ele>381.0</ele><time>2026-04-11T15:28:24.127Z</time></trkpt><trkpt lat="43.1480465" lon="13.1996747"><ele>379.0</ele><time>2026-04-11T15:28:27.126Z</time></trkpt><trkpt lat="43.147964" lon="13.1997089"><ele>376.14285714285717</ele><time>2026-04-11T15:28:29.125Z</time></trkpt><trkpt lat="43.1479032" lon="13.199737"><ele>373.2857142857143</ele><time>2026-04-11T15:28:31.128Z</time></trkpt><trkpt lat="43.1478431" lon="13.1997816"><ele>370.42857142857144</ele><time>2026-04-11T15:28:33.127Z</time></trkpt><trkpt lat="43.1477758" lon="13.1998111"><ele>367.57142857142856</ele><time>2026-04-11T15:28:35.126Z</time></trkpt><trkpt lat="43.1476935" lon="13.1998567"><ele>364.7142857142857</ele><time>2026-04-11T15:28:38.127Z</time></trkpt><trkpt lat="43.147627" lon="13.1998978"><ele>361.8571428571429</ele><time>2026-04-11T15:28:40.126Z</time></trkpt><trkpt lat="43.1475576" lon="13.199935"><ele>359.0</ele><time>2026-04-11T15:28:42.127Z</time></trkpt><trkpt lat="43.1474914" lon="13.1999647"><ele>356.2</ele><time>2026-04-11T15:28:44.127Z</time></trkpt><trkpt lat="43.1474003" lon="13.2000244"><ele>353.4</ele><time>2026-04-11T15:28:46.128Z</time></trkpt><trkpt lat="43.1473346" lon="13.2000831"><ele>350.6</ele><time>2026-04-11T15:28:48.126Z</time></trkpt><trkpt lat="43.1473381" lon="13.2001812"><ele>347.8</ele><time>2026-04-11T15:28:50.126Z</time></trkpt><trkpt lat="43.1473739" lon="13.200361"><ele>345.0</ele><time>2026-04-11T15:28:52.126Z</time></trkpt><trkpt lat="43.1473887" lon="13.2004528"><ele>345.0</ele><time>2026-04-11T15:28:53.126Z</time></trkpt><trkpt lat="43.1474031" lon="13.200618"><ele>345.0</ele><time>2026-04-11T15:28:55.126Z</time></trkpt><trkpt lat="43.1473688" lon="13.200748"><ele>345.0</ele><time>2026-04-11T15:28:57.128Z</time></trkpt><trkpt lat="43.147312" lon="13.2008471"><ele>345.0</ele><time>2026-04-11T15:28:59.126Z</time></trkpt><trkpt lat="43.1472452" lon="13.2009593"><ele>345.0</ele><time>2026-04-11T15:29:01.125Z</time></trkpt><trkpt lat="43.1471968" lon="13.2010844"><ele>338.0</ele><time>2026-04-11T15:29:03.126Z</time></trkpt><trkpt lat="43.1471423" lon="13.2012082"><ele>331.0</ele><time>2026-04-11T15:29:05.126Z</time></trkpt><trkpt lat="43.1471485" lon="13.2013463"><ele>324.0</ele><time>2026-04-11T15:29:07.126Z</time></trkpt><trkpt lat="43.1471835" lon="13.2014963"><ele>317.0</ele><time>2026-04-11T15:29:09.126Z</time></trkpt><trkpt lat="43.147219" lon="13.2016556"><ele>310.0</ele><time>2026-04-11T15:29:11.127Z</time></trkpt><trkpt lat="43.1472301" lon="13.2017551"><ele>309.0</ele><time>2026-04-11T15:29:12.126Z</time></trkpt><trkpt lat="43.1472525" lon="13.201836"><ele>308.0</ele><time>2026-04-11T15:29:13.127Z</time></trkpt><trkpt lat="43.1472564" lon="13.2019461"><ele>307.0</ele><time>2026-04-11T15:29:15.125Z</time></trkpt><trkpt lat="43.1472129" lon="13.2020499"><ele>306.0</ele><time>2026-04-11T15:29:17.127Z</time></trkpt><trkpt lat="43.1471133" lon="13.2021125"><ele>305.0</ele><time>2026-04-11T15:29:19.128Z</time></trkpt><trkpt lat="43.146996" lon="13.2021343"><ele>305.0</ele><time>2026-04-11T15:29:21.125Z</time></trkpt><trkpt lat="43.1467155" lon="13.2022513"><ele>305.0</ele><time>2026-04-11T15:29:26.126Z</time></trkpt><trkpt lat="43.1466499" lon="13.202297"><ele>305.0</ele><time>2026-04-11T15:29:28.127Z</time></trkpt><trkpt lat="43.1465957" lon="13.2023648"><ele>305.0</ele><time>2026-04-11T15:29:30.126Z</time></trkpt><trkpt lat="43.1466235" lon="13.2025178"><ele>304.4</ele><time>2026-04-11T15:29:32.126Z</time></trkpt><trkpt lat="43.1466458" lon="13.2026386"><ele>303.8</ele><time>2026-04-11T15:29:33.126Z</time></trkpt><trkpt lat="43.1466636" lon="13.202735"><ele>303.2</ele><time>2026-04-11T15:29:34.127Z</time></trkpt><trkpt lat="43.146728" lon="13.2028365"><ele>302.6</ele><time>2026-04-11T15:29:36.127Z</time></trkpt><trkpt lat="43.1468283" lon="13.2028293"><ele>302.0</ele><time>2026-04-11T15:29:39.127Z</time></trkpt><trkpt lat="43.1468651" lon="13.202942"><ele>302.0</ele><time>2026-04-11T15:29:41.126Z</time></trkpt><trkpt lat="43.1468714" lon="13.2030579"><ele>302.0</ele><time>2026-04-11T15:29:42.127Z</time></trkpt><trkpt lat="43.1468741" lon="13.2032151"><ele>302.0</ele><time>2026-04-11T15:29:43.127Z</time></trkpt><trkpt lat="43.1468829" lon="13.2034302"><ele>302.0</ele><time>2026-04-11T15:29:44.127Z</time></trkpt><trkpt lat="43.1468941" lon="13.2036492"><ele>301.6666666666667</ele><time>2026-04-11T15:29:45.126Z</time></trkpt><trkpt lat="43.1469055" lon="13.2038612"><ele>301.3333333333333</ele><time>2026-04-11T15:29:46.125Z</time></trkpt><trkpt lat="43.1469122" lon="13.204083"><ele>301.0</ele><time>2026-04-11T15:29:47.127Z</time></trkpt><trkpt lat="43.1469142" lon="13.2043115"><ele>301.0</ele><time>2026-04-11T15:29:48.127Z</time></trkpt><trkpt lat="43.1469081" lon="13.2045514"><ele>301.0</ele><time>2026-04-11T15:29:49.127Z</time></trkpt><trkpt lat="43.1468928" lon="13.2047849"><ele>301.0</ele><time>2026-04-11T15:29:50.126Z</time></trkpt><trkpt lat="43.1468548" lon="13.2049954"><ele>300.0</ele><time>2026-04-11T15:29:51.126Z</time></trkpt><trkpt lat="43.1468023" lon="13.2051776"><ele>299.0</ele><time>2026-04-11T15:29:52.126Z</time></trkpt><trkpt lat="43.1467413" lon="13.2053359"><ele>298.0</ele><time>2026-04-11T15:29:53.127Z</time></trkpt><trkpt lat="43.1466759" lon="13.2054798"><ele>297.0</ele><time>2026-04-11T15:29:54.126Z</time></trkpt><trkpt lat="43.1466149" lon="13.2056178"><ele>298.2</ele><time>2026-04-11T15:29:55.126Z</time></trkpt><trkpt lat="43.1465486" lon="13.2057468"><ele>299.4</ele><time>2026-04-11T15:29:56.127Z</time></trkpt><trkpt lat="43.1464888" lon="13.2058589"><ele>300.6</ele><time>2026-04-11T15:29:57.127Z</time></trkpt><trkpt lat="43.1464345" lon="13.2059712"><ele>301.8</ele><time>2026-04-11T15:29:58.128Z</time></trkpt><trkpt lat="43.146387" lon="13.2060906"><ele>303.0</ele><time>2026-04-11T15:29:59.126Z</time></trkpt><trkpt lat="43.1463493" lon="13.2062058"><ele>299.75</ele><time>2026-04-11T15:30:00.128Z</time></trkpt><trkpt lat="43.1463156" lon="13.2063439"><ele>296.5</ele><time>2026-04-11T15:30:01.126Z</time></trkpt><trkpt lat="43.1462926" lon="13.2064929"><ele>293.25</ele><time>2026-04-11T15:30:02.127Z</time></trkpt><trkpt lat="43.1462777" lon="13.2066679"><ele>290.0</ele><time>2026-04-11T15:30:03.126Z</time></trkpt><trkpt lat="43.146281" lon="13.2068513"><ele>290.0</ele><time>2026-04-11T15:30:04.126Z</time></trkpt><trkpt lat="43.1462968" lon="13.2070066"><ele>290.0</ele><time>2026-04-11T15:30:05.126Z</time></trkpt><trkpt lat="43.1463227" lon="13.207149"><ele>290.0</ele><time>2026-04-11T15:30:06.126Z</time></trkpt><trkpt lat="43.1463589" lon="13.2072894"><ele>290.0</ele><time>2026-04-11T15:30:07.127Z</time></trkpt><trkpt lat="43.146407" lon="13.2074324"><ele>290.0</ele><time>2026-04-11T15:30:08.127Z</time></trkpt><trkpt lat="43.1464473" lon="13.2075634"><ele>290.0</ele><time>2026-04-11T15:30:09.126Z</time></trkpt><trkpt lat="43.1464871" lon="13.2076736"><ele>290.0</ele><time>2026-04-11T15:30:10.126Z</time></trkpt><trkpt lat="43.1465261" lon="13.2077595"><ele>290.0</ele><time>2026-04-11T15:30:11.127Z</time></trkpt><trkpt lat="43.1466019" lon="13.207864"><ele>295.0</ele><time>2026-04-11T15:30:13.126Z</time></trkpt><trkpt lat="43.1466542" lon="13.2079246"><ele>295.0</ele><time>2026-04-11T15:30:15.127Z</time></trkpt></trkseg></trk></gpx>